Wetterdaten: Dienstag, 11.07.2017
Datum Zeit Temp. A. Temp. A. max Feuchte A. Luftdruck Regen Wind Richtung Richtung Sonnenschein ET UV Solar Taupunkt Windchill Windböen
11.07.2017 00:00 15,1 °C 15,1 °C 92 % 1010,9 hPa 0,0 mm 0,6 km/h (0 Bft) S-SW 207 ° 0 min 0,000 mm 0,0 UV-I 0 W/m² 13,8 °C 15,1 °C 1,6 km/h (1 Bft)
11.07.2017 00:01 15,1 °C 15,1 °C 93 % 1010,9 hPa 0,0 mm 2,5 km/h (1 Bft) S 186 ° 0 min 0,000 mm 0,0 UV-I 0 W/m² 14,0 °C 15,1 °C 4,8 km/h (1 Bft)
11.07.2017 00:02 15,0 °C 15,1 °C 92 % 1011,0 hPa 0,0 mm 3,3 km/h (1 Bft) S 186 ° 0 min 0,000 mm 0,0 UV-I 0 W/m² 13,7 °C 15,0 °C 4,8 km/h (1 Bft)
11.07.2017 00:03 15,1 °C 15,1 °C 92 % 1011,0 hPa 0,0 mm 0,6 km/h (0 Bft) S 186 ° 0 min 0,000 mm 0,0 UV-I 0 W/m² 13,8 °C 15,1 °C 1,6 km/h (1 Bft)
11.07.2017 00:04 15,1 °C 15,1 °C 92 % 1011,0 hPa 0,0 mm 2,2 km/h (1 Bft) W 262 ° 0 min 0,000 mm 0,0 UV-I 0 W/m² 13,8 °C 15,1 °C 3,2 km/h (1 Bft)
11.07.2017 00:05 15,1 °C 15,1 °C 92 % 1011,0 hPa 0,0 mm 1,2 km/h (1 Bft) W 262 ° 0 min 0,000 mm 0,0 UV-I 0 W/m² 13,8 °C 15,1 °C 3,2 km/h (1 Bft)
11.07.2017 00:06 15,1 °C 15,2 °C 92 % 1011,0 hPa 0,0 mm 0,5 km/h (0 Bft) SW 217 ° 0 min 0,000 mm 0,0 UV-I 0 W/m² 13,8 °C 15,1 °C 3,2 km/h (1 Bft)
11.07.2017 00:07 15,2 °C 15,2 °C 92 % 1011,0 hPa 0,0 mm 3,9 km/h (1 Bft) S-SO 165 ° 0 min 0,000 mm 0,0 UV-I 0 W/m² 13,9 °C 15,2 °C 8,0 km/h (2 Bft)
11.07.2017 00:08 15,2 °C 15,2 °C 92 % 1011,0 hPa 0,0 mm 6,4 km/h (2 Bft) S-SW 207 ° 0 min 0,000 mm 0,0 UV-I 0 W/m² 13,9 °C 15,2 °C 12,9 km/h (3 Bft)
11.07.2017 00:09 15,2 °C 15,2 °C 92 % 1011,0 hPa 0,0 mm 1,6 km/h (1 Bft) SW 231 ° 0 min 0,000 mm 0,0 UV-I 0 W/m² 13,9 °C 15,2 °C 3,2 km/h (1 Bft)
11.07.2017 00:10 15,2 °C 15,2 °C 92 % 1011,0 hPa 0,0 mm 3,9 km/h (1 Bft) S-SW 194 ° 0 min 0,000 mm 0,0 UV-I 0 W/m² 13,9 °C 15,2 °C 6,4 km/h (2 Bft)
11.07.2017 00:11 15,1 °C 15,2 °C 92 % 1011,0 hPa 0,0 mm 0,5 km/h (0 Bft) S-SW 194 ° 0 min 0,000 mm 0,0 UV-I 0 W/m² 13,8 °C 15,1 °C 3,2 km/h (1 Bft)
11.07.2017 00:12 15,1 °C 15,2 °C 92 % 1011,0 hPa 0,0 mm 0,0 km/h (0 Bft) S-SW 194 ° 0 min 0,000 mm 0,0 UV-I 0 W/m² 13,8 °C 15,1 °C 0,0 km/h (0 Bft)
11.07.2017 00:13 15,1 °C 15,1 °C 92 % 1011,0 hPa 0,0 mm 0,0 km/h (0 Bft) S-SW 194 ° 0 min 0,000 mm 0,0 UV-I 0 W/m² 13,8 °C 15,1 °C 0,0 km/h (0 Bft)
11.07.2017 00:14 15,1 °C 15,1 °C 93 % 1011,0 hPa 0,2 mm 0,5 km/h (0 Bft) S-SW 194 ° 0 min 0,000 mm 0,0 UV-I 0 W/m² 14,0 °C 15,1 °C 1,6 km/h (1 Bft)
11.07.2017 00:15 14,9 °C 15,1 °C 93 % 1010,9 hPa 0,0 mm 1,1 km/h (1 Bft) S-SW 194 ° 0 min 0,000 mm 0,0 UV-I 0 W/m² 13,8 °C 14,9 °C 3,2 km/h (1 Bft)
11.07.2017 00:16 14,9 °C 14,9 °C 93 % 1011,0 hPa 0,0 mm 0,1 km/h (0 Bft) S-SW 194 ° 0 min 0,000 mm 0,0 UV-I 0 W/m² 13,8 °C 14,9 °C 1,6 km/h (1 Bft)
11.07.2017 00:17 14,9 °C 14,9 °C 93 % 1011,0 hPa 0,0 mm 0,0 km/h (0 Bft) S-SW 194 ° 0 min 0,000 mm 0,0 UV-I 0 W/m² 13,8 °C 14,9 °C 0,0 km/h (0 Bft)
11.07.2017 00:18 14,9 °C 14,9 °C 93 % 1011,0 hPa 0,0 mm 0,7 km/h (0 Bft) S-SW 194 ° 0 min 0,000 mm 0,0 UV-I 0 W/m² 13,8 °C 14,9 °C 1,6 km/h (1 Bft)
11.07.2017 00:19 14,9 °C 14,9 °C 93 % 1011,0 hPa 0,0 mm 2,5 km/h (1 Bft) SW 236 ° 0 min 0,000 mm 0,0 UV-I 0 W/m² 13,8 °C 14,9 °C 4,8 km/h (1 Bft)
11.07.2017 00:20 14,9 °C 14,9 °C 93 % 1011,1 hPa 0,0 mm 3,2 km/h (1 Bft) W 274 ° 0 min 0,000 mm 0,0 UV-I 0 W/m² 13,8 °C 14,9 °C 4,8 km/h (1 Bft)
11.07.2017 00:21 14,9 °C 14,9 °C 93 % 1011,1 hPa 0,0 mm 2,9 km/h (1 Bft) W 273 ° 0 min 0,000 mm 0,0 UV-I 0 W/m² 13,8 °C 14,9 °C 3,2 km/h (1 Bft)
11.07.2017 00:22 14,9 °C 14,9 °C 93 % 1011,1 hPa 0,0 mm 1,3 km/h (1 Bft) W 273 ° 0 min 0,000 mm 0,0 UV-I 0 W/m² 13,8 °C 14,9 °C 3,2 km/h (1 Bft)
11.07.2017 00:23 14,9 °C 14,9 °C 93 % 1011,2 hPa 0,0 mm 1,3 km/h (1 Bft) W 273 ° 0 min 0,000 mm 0,0 UV-I 0 W/m² 13,8 °C 14,9 °C 3,2 km/h (1 Bft)
11.07.2017 00:24 14,9 °C 14,9 °C 93 % 1011,2 hPa 0,0 mm 4,0 km/h (1 Bft) W-SW 257 ° 0 min 0,000 mm 0,0 UV-I 0 W/m² 13,8 °C 14,9 °C 4,8 km/h (1 Bft)
11.07.2017 00:25 14,9 °C 15,0 °C 93 % 1011,2 hPa 0,0 mm 2,7 km/h (1 Bft) W-SW 254 ° 0 min 0,000 mm 0,0 UV-I 0 W/m² 13,8 °C 14,9 °C 4,8 km/h (1 Bft)
11.07.2017 00:26 14,9 °C 15,0 °C 93 % 1011,2 hPa 0,0 mm 8,9 km/h (2 Bft) SW 225 ° 0 min 0,000 mm 0,0 UV-I 0 W/m² 13,8 °C 14,9 °C 16,1 km/h (3 Bft)
11.07.2017 00:27 15,0 °C 15,0 °C 93 % 1011,2 hPa 0,0 mm 6,6 km/h (2 Bft) W-SW 256 ° 0 min 0,000 mm 0,0 UV-I 0 W/m² 13,9 °C 15,0 °C 12,9 km/h (3 Bft)
11.07.2017 00:28 15,0 °C 15,0 °C 92 % 1011,2 hPa 0,0 mm 5,4 km/h (1 Bft) W 278 ° 0 min 0,000 mm 0,0 UV-I 0 W/m² 13,7 °C 15,0 °C 12,9 km/h (3 Bft)
11.07.2017 00:29 15,1 °C 15,1 °C 92 % 1011,2 hPa 0,0 mm 11,6 km/h (2 Bft) W 260 ° 0 min 0,000 mm 0,0 UV-I 0 W/m² 13,8 °C 15,1 °C 22,5 km/h (4 Bft)
11.07.2017 00:30 15,1 °C 15,1 °C 91 % 1011,2 hPa 0,0 mm 12,0 km/h (2 Bft) W-NW 283 ° 0 min 0,000 mm 0,0 UV-I 0 W/m² 13,6 °C 15,1 °C 24,1 km/h (4 Bft)
11.07.2017 00:31 15,1 °C 15,1 °C 91 % 1011,3 hPa 0,0 mm 10,6 km/h (2 Bft) W 259 ° 0 min 0,000 mm 0,0 UV-I 0 W/m² 13,6 °C 15,1 °C 19,3 km/h (3 Bft)
11.07.2017 00:32 15,2 °C 15,2 °C 90 % 1011,3 hPa 0,0 mm 16,1 km/h (3 Bft) W-SW 252 ° 0 min 0,000 mm 0,0 UV-I 0 W/m² 13,6 °C 15,2 °C 20,9 km/h (4 Bft)
11.07.2017 00:33 15,3 °C 15,3 °C 90 % 1011,4 hPa 0,0 mm 15,2 km/h (3 Bft) W-SW 242 ° 0 min 0,000 mm 0,0 UV-I 0 W/m² 13,7 °C 15,3 °C 27,4 km/h (4 Bft)
11.07.2017 00:34 15,3 °C 15,3 °C 90 % 1011,4 hPa 0,0 mm 11,9 km/h (2 Bft) W 276 ° 0 min 0,000 mm 0,0 UV-I 0 W/m² 13,7 °C 15,3 °C 16,1 km/h (3 Bft)
11.07.2017 00:35 15,3 °C 15,3 °C 90 % 1011,4 hPa 0,0 mm 14,4 km/h (3 Bft) W 270 ° 0 min 0,000 mm 0,0 UV-I 0 W/m² 13,7 °C 15,3 °C 29,0 km/h (5 Bft)
11.07.2017 00:36 15,4 °C 15,4 °C 90 % 1011,4 hPa 0,0 mm 8,5 km/h (2 Bft) W 261 ° 0 min 0,000 mm 0,0 UV-I 0 W/m² 13,8 °C 15,4 °C 17,7 km/h (3 Bft)
11.07.2017 00:37 15,3 °C 15,4 °C 90 % 1011,5 hPa 0,0 mm 13,6 km/h (3 Bft) SW 234 ° 0 min 0,000 mm 0,0 UV-I 0 W/m² 13,7 °C 15,3 °C 22,5 km/h (4 Bft)
11.07.2017 00:38 15,3 °C 15,4 °C 90 % 1011,5 hPa 0,0 mm 10,5 km/h (2 Bft) W 266 ° 0 min 0,000 mm 0,0 UV-I 0 W/m² 13,7 °C 15,3 °C 19,3 km/h (3 Bft)
11.07.2017 00:39 15,3 °C 15,3 °C 90 % 1011,5 hPa 0,0 mm 15,8 km/h (3 Bft) W-NW 296 ° 0 min 0,000 mm 0,0 UV-I 0 W/m² 13,7 °C 15,3 °C 22,5 km/h (4 Bft)
11.07.2017 00:40 15,3 °C 15,3 °C 90 % 1011,6 hPa 0,0 mm 17,8 km/h (3 Bft) W 275 ° 0 min 0,000 mm 0,0 UV-I 0 W/m² 13,7 °C 15,3 °C 24,1 km/h (4 Bft)
11.07.2017 00:41 15,3 °C 15,3 °C 90 % 1011,7 hPa 0,0 mm 13,2 km/h (3 Bft) W 278 ° 0 min 0,000 mm 0,0 UV-I 0 W/m² 13,7 °C 15,3 °C 24,1 km/h (4 Bft)
11.07.2017 00:42 15,3 °C 15,3 °C 90 % 1011,8 hPa 0,0 mm 19,4 km/h (3 Bft) W-SW 246 ° 0 min 0,000 mm 0,0 UV-I 0 W/m² 13,7 °C 15,3 °C 25,7 km/h (4 Bft)
11.07.2017 00:43 15,2 °C 15,3 °C 90 % 1011,8 hPa 0,0 mm 18,3 km/h (3 Bft) W 266 ° 0 min 0,000 mm 0,0 UV-I 0 W/m² 13,6 °C 15,2 °C 24,1 km/h (4 Bft)
11.07.2017 00:44 15,2 °C 15,2 °C 91 % 1011,8 hPa 0,0 mm 13,3 km/h (3 Bft) W 266 ° 0 min 0,000 mm 0,0 UV-I 0 W/m² 13,7 °C 15,2 °C 20,9 km/h (4 Bft)
11.07.2017 00:45 15,1 °C 15,2 °C 91 % 1011,8 hPa 0,2 mm 12,3 km/h (3 Bft) S-SW 209 ° 0 min 0,000 mm 0,0 UV-I 0 W/m² 13,6 °C 15,1 °C 19,3 km/h (3 Bft)
11.07.2017 00:46 15,1 °C 15,1 °C 91 % 1011,9 hPa 0,0 mm 10,8 km/h (2 Bft) W-SW 255 ° 0 min 0,000 mm 0,0 UV-I 0 W/m² 13,6 °C 15,1 °C 22,5 km/h (4 Bft)
11.07.2017 00:47 15,1 °C 15,1 °C 91 % 1011,9 hPa 0,0 mm 18,9 km/h (3 Bft) W-SW 258 ° 0 min 0,000 mm 0,0 UV-I 0 W/m² 13,6 °C 15,1 °C 30,6 km/h (5 Bft)
11.07.2017 00:48 15,1 °C 15,1 °C 91 % 1011,9 hPa 0,0 mm 19,0 km/h (3 Bft) W 264 ° 0 min 0,000 mm 0,0 UV-I 0 W/m² 13,6 °C 15,1 °C 25,7 km/h (4 Bft)
11.07.2017 00:49 15,1 °C 15,1 °C 91 % 1011,8 hPa 0,0 mm 13,9 km/h (3 Bft) W 272 ° 0 min 0,000 mm 0,0 UV-I 0 W/m² 13,6 °C 15,1 °C 19,3 km/h (3 Bft)
11.07.2017 00:50 15,0 °C 15,1 °C 91 % 1011,8 hPa 0,0 mm 12,1 km/h (2 Bft) W-NW 291 ° 0 min 0,000 mm 0,0 UV-I 0 W/m² 13,5 °C 15,0 °C 19,3 km/h (3 Bft)
11.07.2017 00:51 14,9 °C 15,0 °C 91 % 1011,9 hPa 0,0 mm 9,7 km/h (2 Bft) SW 227 ° 0 min 0,000 mm 0,0 UV-I 0 W/m² 13,4 °C 14,9 °C 20,9 km/h (4 Bft)
11.07.2017 00:52 14,9 °C 14,9 °C 91 % 1011,9 hPa 0,0 mm 18,6 km/h (3 Bft) S-SW 202 ° 0 min 0,000 mm 0,0 UV-I 0 W/m² 13,4 °C 14,9 °C 30,6 km/h (5 Bft)
11.07.2017 00:53 14,9 °C 14,9 °C 91 % 1011,9 hPa 0,2 mm 11,8 km/h (2 Bft) W 259 ° 0 min 0,000 mm 0,0 UV-I 0 W/m² 13,4 °C 14,9 °C 17,7 km/h (3 Bft)
11.07.2017 00:54 14,9 °C 14,9 °C 91 % 1011,9 hPa 0,0 mm 14,4 km/h (3 Bft) SW 232 ° 0 min 0,000 mm 0,0 UV-I 0 W/m² 13,4 °C 14,9 °C 19,3 km/h (3 Bft)
11.07.2017 00:55 14,9 °C 14,9 °C 92 % 1011,9 hPa 0,0 mm 7,0 km/h (2 Bft) W 261 ° 0 min 0,000 mm 0,0 UV-I 0 W/m² 13,6 °C 14,9 °C 12,9 km/h (3 Bft)
11.07.2017 00:56 14,9 °C 14,9 °C 92 % 1011,9 hPa 0,0 mm 5,0 km/h (1 Bft) SW 235 ° 0 min 0,000 mm 0,0 UV-I 0 W/m² 13,6 °C 14,9 °C 11,3 km/h (2 Bft)
11.07.2017 00:57 14,8 °C 14,9 °C 92 % 1011,9 hPa 0,0 mm 10,2 km/h (2 Bft) W-SW 254 ° 0 min 0,000 mm 0,0 UV-I 0 W/m² 13,5 °C 14,8 °C 17,7 km/h (3 Bft)
11.07.2017 00:58 14,8 °C 14,9 °C 92 % 1011,9 hPa 0,0 mm 11,3 km/h (2 Bft) W 263 ° 0 min 0,000 mm 0,0 UV-I 0 W/m² 13,5 °C 14,8 °C 16,1 km/h (3 Bft)
11.07.2017 00:59 14,8 °C 14,8 °C 92 % 1011,9 hPa 0,0 mm 12,8 km/h (3 Bft) W 259 ° 0 min 0,000 mm 0,0 UV-I 0 W/m² 13,5 °C 14,8 °C 19,3 km/h (3 Bft)
11.07.2017 01:00 14,8 °C 14,8 °C 92 % 1011,9 hPa 0,0 mm 17,0 km/h (3 Bft) W-SW 246 ° 0 min 0,025 mm 0,0 UV-I 0 W/m² 13,5 °C 14,8 °C 22,5 km/h (4 Bft)
11.07.2017 01:01 14,8 °C 14,8 °C 92 % 1011,9 hPa 0,0 mm 13,8 km/h (3 Bft) W-SW 257 ° 0 min 0,000 mm 0,0 UV-I 0 W/m² 13,5 °C 14,8 °C 20,9 km/h (4 Bft)
11.07.2017 01:02 14,7 °C 14,8 °C 92 % 1011,9 hPa 0,0 mm 6,3 km/h (2 Bft) W-NW 286 ° 0 min 0,000 mm 0,0 UV-I 0 W/m² 13,4 °C 14,7 °C 19,3 km/h (3 Bft)
11.07.2017 01:03 14,7 °C 14,7 °C 92 % 1011,9 hPa 0,0 mm 7,6 km/h (2 Bft) SW 235 ° 0 min 0,000 mm 0,0 UV-I 0 W/m² 13,4 °C 14,7 °C 14,5 km/h (3 Bft)
11.07.2017 01:04 14,7 °C 14,7 °C 92 % 1011,9 hPa 0,2 mm 7,2 km/h (2 Bft) W-SW 254 ° 0 min 0,000 mm 0,0 UV-I 0 W/m² 13,4 °C 14,7 °C 12,9 km/h (3 Bft)
11.07.2017 01:05 14,7 °C 14,7 °C 92 % 1012,0 hPa 0,0 mm 10,3 km/h (2 Bft) W-SW 248 ° 0 min 0,000 mm 0,0 UV-I 0 W/m² 13,4 °C 14,7 °C 16,1 km/h (3 Bft)
11.07.2017 01:06 14,7 °C 14,7 °C 92 % 1011,9 hPa 0,0 mm 12,0 km/h (2 Bft) W-NW 282 ° 0 min 0,000 mm 0,0 UV-I 0 W/m² 13,4 °C 14,7 °C 17,7 km/h (3 Bft)
11.07.2017 01:07 14,7 °C 14,7 °C 92 % 1011,9 hPa 0,0 mm 6,5 km/h (2 Bft) S-SW 207 ° 0 min 0,000 mm 0,0 UV-I 0 W/m² 13,4 °C 14,7 °C 12,9 km/h (3 Bft)
11.07.2017 01:08 14,7 °C 14,7 °C 92 % 1011,9 hPa 0,0 mm 6,6 km/h (2 Bft) S 171 ° 0 min 0,000 mm 0,0 UV-I 0 W/m² 13,4 °C 14,7 °C 11,3 km/h (2 Bft)
11.07.2017 01:09 14,7 °C 14,7 °C 92 % 1011,8 hPa 0,0 mm 5,1 km/h (1 Bft) W 267 ° 0 min 0,000 mm 0,0 UV-I 0 W/m² 13,4 °C 14,7 °C 11,3 km/h (2 Bft)
11.07.2017 01:10 14,6 °C 14,7 °C 92 % 1011,8 hPa 0,0 mm 2,6 km/h (1 Bft) SW 234 ° 0 min 0,000 mm 0,0 UV-I 0 W/m² 13,3 °C 14,6 °C 3,2 km/h (1 Bft)
11.07.2017 01:11 14,6 °C 14,6 °C 92 % 1011,8 hPa 0,0 mm 2,5 km/h (1 Bft) W 264 ° 0 min 0,000 mm 0,0 UV-I 0 W/m² 13,3 °C 14,6 °C 6,4 km/h (2 Bft)
11.07.2017 01:12 14,6 °C 14,6 °C 92 % 1011,8 hPa 0,0 mm 1,5 km/h (1 Bft) W 264 ° 0 min 0,000 mm 0,0 UV-I 0 W/m² 13,3 °C 14,6 °C 3,2 km/h (1 Bft)
11.07.2017 01:13 14,6 °C 14,7 °C 93 % 1011,7 hPa 0,0 mm 3,1 km/h (1 Bft) W-SW 248 ° 0 min 0,000 mm 0,0 UV-I 0 W/m² 13,5 °C 14,6 °C 4,8 km/h (1 Bft)
11.07.2017 01:14 14,6 °C 14,6 °C 92 % 1011,7 hPa 0,0 mm 0,5 km/h (0 Bft) W-SW 248 ° 0 min 0,000 mm 0,0 UV-I 0 W/m² 13,3 °C 14,6 °C 3,2 km/h (1 Bft)
11.07.2017 01:15 14,6 °C 14,6 °C 92 % 1011,7 hPa 0,0 mm 1,9 km/h (1 Bft) SW 231 ° 0 min 0,000 mm 0,0 UV-I 0 W/m² 13,3 °C 14,6 °C 3,2 km/h (1 Bft)
11.07.2017 01:16 14,6 °C 14,6 °C 92 % 1011,7 hPa 0,0 mm 0,3 km/h (0 Bft) SW 236 ° 0 min 0,000 mm 0,0 UV-I 0 W/m² 13,3 °C 14,6 °C 1,6 km/h (1 Bft)
11.07.2017 01:17 14,6 °C 14,6 °C 92 % 1011,7 hPa 0,0 mm 4,0 km/h (1 Bft) W-SW 241 ° 0 min 0,000 mm 0,0 UV-I 0 W/m² 13,3 °C 14,6 °C 6,4 km/h (2 Bft)
11.07.2017 01:18 14,6 °C 14,6 °C 92 % 1011,7 hPa 0,0 mm 0,7 km/h (0 Bft) W-SW 241 ° 0 min 0,000 mm 0,0 UV-I 0 W/m² 13,3 °C 14,6 °C 3,2 km/h (1 Bft)
11.07.2017 01:19 14,6 °C 14,6 °C 92 % 1011,6 hPa 0,0 mm 2,5 km/h (1 Bft) SW 219 ° 0 min 0,000 mm 0,0 UV-I 0 W/m² 13,3 °C 14,6 °C 6,4 km/h (2 Bft)
11.07.2017 01:20 14,6 °C 14,6 °C 93 % 1011,6 hPa 0,0 mm 4,6 km/h (1 Bft) W-SW 253 ° 0 min 0,000 mm 0,0 UV-I 0 W/m² 13,5 °C 14,6 °C 6,4 km/h (2 Bft)
11.07.2017 01:21 14,6 °C 14,6 °C 92 % 1011,5 hPa 0,0 mm 1,8 km/h (1 Bft) S-SW 206 ° 0 min 0,000 mm 0,0 UV-I 0 W/m² 13,3 °C 14,6 °C 4,8 km/h (1 Bft)
11.07.2017 01:22 14,6 °C 14,6 °C 92 % 1011,5 hPa 0,0 mm 0,5 km/h (0 Bft) S-SW 202 ° 0 min 0,000 mm 0,0 UV-I 0 W/m² 13,3 °C 14,6 °C 1,6 km/h (1 Bft)
11.07.2017 01:23 14,6 °C 14,6 °C 92 % 1011,5 hPa 0,0 mm 0,9 km/h (0 Bft) S-SW 202 ° 0 min 0,000 mm 0,0 UV-I 0 W/m² 13,3 °C 14,6 °C 3,2 km/h (1 Bft)
11.07.2017 01:24 14,6 °C 14,6 °C 92 % 1011,5 hPa 0,0 mm 2,1 km/h (1 Bft) SW 223 ° 0 min 0,000 mm 0,0 UV-I 0 W/m² 13,3 °C 14,6 °C 4,8 km/h (1 Bft)
11.07.2017 01:25 14,6 °C 14,6 °C 92 % 1011,5 hPa 0,0 mm 2,5 km/h (1 Bft) SW 231 ° 0 min 0,000 mm 0,0 UV-I 0 W/m² 13,3 °C 14,6 °C 3,2 km/h (1 Bft)
11.07.2017 01:26 14,6 °C 14,6 °C 92 % 1011,5 hPa 0,0 mm 2,9 km/h (1 Bft) S-SW 195 ° 0 min 0,000 mm 0,0 UV-I 0 W/m² 13,3 °C 14,6 °C 6,4 km/h (2 Bft)
11.07.2017 01:27 14,6 °C 14,6 °C 92 % 1011,6 hPa 0,0 mm 0,3 km/h (0 Bft) S-SW 196 ° 0 min 0,000 mm 0,0 UV-I 0 W/m² 13,3 °C 14,6 °C 1,6 km/h (1 Bft)
11.07.2017 01:28 14,6 °C 14,6 °C 92 % 1011,7 hPa 0,0 mm 3,0 km/h (1 Bft) W 279 ° 0 min 0,000 mm 0,0 UV-I 0 W/m² 13,3 °C 14,6 °C 6,4 km/h (2 Bft)
11.07.2017 01:29 14,6 °C 14,6 °C 92 % 1011,7 hPa 0,0 mm 6,3 km/h (2 Bft) W 267 ° 0 min 0,000 mm 0,0 UV-I 0 W/m² 13,3 °C 14,6 °C 9,7 km/h (2 Bft)
11.07.2017 01:30 14,6 °C 14,6 °C 92 % 1011,6 hPa 0,0 mm 4,3 km/h (1 Bft) W 261 ° 0 min 0,000 mm 0,0 UV-I 0 W/m² 13,3 °C 14,6 °C 9,7 km/h (2 Bft)
11.07.2017 01:31 14,6 °C 14,6 °C 92 % 1011,6 hPa 0,0 mm 3,4 km/h (1 Bft) W-SW 250 ° 0 min 0,000 mm 0,0 UV-I 0 W/m² 13,3 °C 14,6 °C 9,7 km/h (2 Bft)
11.07.2017 01:32 14,6 °C 14,6 °C 92 % 1011,7 hPa 0,0 mm 2,1 km/h (1 Bft) W-SW 247 ° 0 min 0,000 mm 0,0 UV-I 0 W/m² 13,3 °C 14,6 °C 3,2 km/h (1 Bft)
11.07.2017 01:33 14,6 °C 14,6 °C 92 % 1011,7 hPa 0,0 mm 1,9 km/h (1 Bft) W-SW 246 ° 0 min 0,000 mm 0,0 UV-I 0 W/m² 13,3 °C 14,6 °C 4,8 km/h (1 Bft)
11.07.2017 01:34 14,6 °C 14,6 °C 92 % 1011,7 hPa 0,0 mm 2,4 km/h (1 Bft) W-SW 242 ° 0 min 0,000 mm 0,0 UV-I 0 W/m² 13,3 °C 14,6 °C 3,2 km/h (1 Bft)
11.07.2017 01:35 14,6 °C 14,6 °C 92 % 1011,6 hPa 0,0 mm 2,9 km/h (1 Bft) SW 236 ° 0 min 0,000 mm 0,0 UV-I 0 W/m² 13,3 °C 14,6 °C 4,8 km/h (1 Bft)
11.07.2017 01:36 14,6 °C 14,6 °C 92 % 1011,7 hPa 0,0 mm 0,0 km/h (0 Bft) SW 236 ° 0 min 0,000 mm 0,0 UV-I 0 W/m² 13,3 °C 14,6 °C 0,0 km/h (0 Bft)
11.07.2017 01:37 14,6 °C 14,6 °C 92 % 1011,6 hPa 0,0 mm 0,5 km/h (0 Bft) SW 236 ° 0 min 0,000 mm 0,0 UV-I 0 W/m² 13,3 °C 14,6 °C 3,2 km/h (1 Bft)
11.07.2017 01:38 14,6 °C 14,6 °C 92 % 1011,6 hPa 0,0 mm 0,1 km/h (0 Bft) SW 236 ° 0 min 0,000 mm 0,0 UV-I 0 W/m² 13,3 °C 14,6 °C 1,6 km/h (1 Bft)
11.07.2017 01:39 14,6 °C 14,6 °C 92 % 1011,6 hPa 0,0 mm 0,0 km/h (0 Bft) SW 236 ° 0 min 0,000 mm 0,0 UV-I 0 W/m² 13,3 °C 14,6 °C 0,0 km/h (0 Bft)
11.07.2017 01:40 14,4 °C 14,6 °C 92 % 1011,6 hPa 0,0 mm 0,0 km/h (0 Bft) SW 236 ° 0 min 0,000 mm 0,0 UV-I 0 W/m² 13,1 °C 14,4 °C 0,0 km/h (0 Bft)
11.07.2017 01:41 14,4 °C 14,5 °C 92 % 1011,5 hPa 0,0 mm 0,0 km/h (0 Bft) SW 236 ° 0 min 0,000 mm 0,0 UV-I 0 W/m² 13,1 °C 14,4 °C 0,0 km/h (0 Bft)
11.07.2017 01:42 14,4 °C 14,4 °C 92 % 1011,4 hPa 0,0 mm 1,6 km/h (1 Bft) SW 236 ° 0 min 0,000 mm 0,0 UV-I 0 W/m² 13,1 °C 14,4 °C 3,2 km/h (1 Bft)
11.07.2017 01:43 14,3 °C 14,4 °C 93 % 1011,4 hPa 0,0 mm 0,3 km/h (0 Bft) SW 236 ° 0 min 0,000 mm 0,0 UV-I 0 W/m² 13,2 °C 14,3 °C 1,6 km/h (1 Bft)
11.07.2017 01:44 14,3 °C 14,3 °C 93 % 1011,4 hPa 0,0 mm 0,0 km/h (0 Bft) SW 236 ° 0 min 0,000 mm 0,0 UV-I 0 W/m² 13,2 °C 14,3 °C 0,0 km/h (0 Bft)
11.07.2017 01:45 14,2 °C 14,3 °C 93 % 1011,4 hPa 0,0 mm 0,0 km/h (0 Bft) SW 236 ° 0 min 0,000 mm 0,0 UV-I 0 W/m² 13,1 °C 14,2 °C 0,0 km/h (0 Bft)
11.07.2017 01:46 14,2 °C 14,2 °C 93 % 1011,4 hPa 0,0 mm 0,0 km/h (0 Bft) SW 236 ° 0 min 0,000 mm 0,0 UV-I 0 W/m² 13,1 °C 14,2 °C 0,0 km/h (0 Bft)
11.07.2017 01:47 14,2 °C 14,2 °C 93 % 1011,4 hPa 0,0 mm 0,0 km/h (0 Bft) SW 236 ° 0 min 0,000 mm 0,0 UV-I 0 W/m² 13,1 °C 14,2 °C 0,0 km/h (0 Bft)
11.07.2017 01:48 14,1 °C 14,2 °C 93 % 1011,5 hPa 0,0 mm 0,0 km/h (0 Bft) SW 236 ° 0 min 0,000 mm 0,0 UV-I 0 W/m² 13,0 °C 14,1 °C 0,0 km/h (0 Bft)
11.07.2017 01:49 14,1 °C 14,1 °C 93 % 1011,5 hPa 0,0 mm 0,0 km/h (0 Bft) SW 236 ° 0 min 0,000 mm 0,0 UV-I 0 W/m² 13,0 °C 14,1 °C 0,0 km/h (0 Bft)
11.07.2017 01:50 14,1 °C 14,1 °C 93 % 1011,5 hPa 0,2 mm 0,0 km/h (0 Bft) SW 236 ° 0 min 0,000 mm 0,0 UV-I 0 W/m² 13,0 °C 14,1 °C 0,0 km/h (0 Bft)
11.07.2017 01:51 14,1 °C 14,1 °C 93 % 1011,5 hPa 0,0 mm 0,0 km/h (0 Bft) SW 236 ° 0 min 0,000 mm 0,0 UV-I 0 W/m² 13,0 °C 14,1 °C 0,0 km/h (0 Bft)
11.07.2017 01:52 14,0 °C 14,1 °C 93 % 1011,5 hPa 0,0 mm 0,0 km/h (0 Bft) SW 236 ° 0 min 0,000 mm 0,0 UV-I 0 W/m² 12,9 °C 14,0 °C 0,0 km/h (0 Bft)
11.07.2017 01:53 14,1 °C 14,1 °C 94 % 1011,6 hPa 0,0 mm 0,0 km/h (0 Bft) SW 236 ° 0 min 0,000 mm 0,0 UV-I 0 W/m² 13,1 °C 14,1 °C 0,0 km/h (0 Bft)
11.07.2017 01:54 14,1 °C 14,1 °C 94 % 1011,6 hPa 0,0 mm 0,0 km/h (0 Bft) SW 236 ° 0 min 0,000 mm 0,0 UV-I 0 W/m² 13,1 °C 14,1 °C 0,0 km/h (0 Bft)
11.07.2017 01:55 14,0 °C 14,1 °C 94 % 1011,5 hPa 0,0 mm 0,0 km/h (0 Bft) SW 236 ° 0 min 0,000 mm 0,0 UV-I 0 W/m² 13,0 °C 14,0 °C 0,0 km/h (0 Bft)
11.07.2017 01:56 14,0 °C 14,0 °C 94 % 1011,4 hPa 0,0 mm 1,2 km/h (1 Bft) SW 236 ° 0 min 0,000 mm 0,0 UV-I 0 W/m² 13,0 °C 14,0 °C 1,6 km/h (1 Bft)
11.07.2017 01:57 14,0 °C 14,0 °C 94 % 1011,4 hPa 0,0 mm 1,5 km/h (1 Bft) SW 236 ° 0 min 0,000 mm 0,0 UV-I 0 W/m² 13,0 °C 14,0 °C 3,2 km/h (1 Bft)
11.07.2017 01:58 13,9 °C 14,0 °C 94 % 1011,4 hPa 0,0 mm 0,3 km/h (0 Bft) SW 236 ° 0 min 0,000 mm 0,0 UV-I 0 W/m² 12,9 °C 13,9 °C 1,6 km/h (1 Bft)
11.07.2017 01:59 13,9 °C 13,9 °C 94 % 1011,4 hPa 0,0 mm 0,4 km/h (0 Bft) SW 236 ° 0 min 0,000 mm 0,0 UV-I 0 W/m² 12,9 °C 13,9 °C 1,6 km/h (1 Bft)
11.07.2017 02:00 13,9 °C 13,9 °C 94 % 1011,4 hPa 0,0 mm 0,8 km/h (0 Bft) SW 236 ° 0 min 0,000 mm 0,0 UV-I 0 W/m² 12,9 °C 13,9 °C 3,2 km/h (1 Bft)
11.07.2017 02:01 13,9 °C 13,9 °C 94 % 1011,4 hPa 0,0 mm 1,9 km/h (1 Bft) SW 215 ° 0 min 0,000 mm 0,0 UV-I 0 W/m² 12,9 °C 13,9 °C 4,8 km/h (1 Bft)
11.07.2017 02:02 13,9 °C 13,9 °C 94 % 1011,4 hPa 0,0 mm 1,3 km/h (1 Bft) SW 215 ° 0 min 0,000 mm 0,0 UV-I 0 W/m² 12,9 °C 13,9 °C 3,2 km/h (1 Bft)
11.07.2017 02:03 13,9 °C 13,9 °C 94 % 1011,4 hPa 0,0 mm 1,9 km/h (1 Bft) SW 215 ° 0 min 0,000 mm 0,0 UV-I 0 W/m² 12,9 °C 13,9 °C 3,2 km/h (1 Bft)
11.07.2017 02:04 13,9 °C 13,9 °C 94 % 1011,4 hPa 0,0 mm 1,8 km/h (1 Bft) SW 215 ° 0 min 0,000 mm 0,0 UV-I 0 W/m² 12,9 °C 13,9 °C 3,2 km/h (1 Bft)
11.07.2017 02:05 13,8 °C 13,9 °C 94 % 1011,5 hPa 0,0 mm 1,5 km/h (1 Bft) SW 215 ° 0 min 0,000 mm 0,0 UV-I 0 W/m² 12,9 °C 13,8 °C 3,2 km/h (1 Bft)
11.07.2017 02:06 13,8 °C 13,8 °C 94 % 1011,5 hPa 0,0 mm 2,4 km/h (1 Bft) SW 215 ° 0 min 0,000 mm 0,0 UV-I 0 W/m² 12,9 °C 13,8 °C 3,2 km/h (1 Bft)
11.07.2017 02:07 13,8 °C 13,8 °C 94 % 1011,5 hPa 0,0 mm 2,1 km/h (1 Bft) SW 214 ° 0 min 0,000 mm 0,0 UV-I 0 W/m² 12,9 °C 13,8 °C 3,2 km/h (1 Bft)
11.07.2017 02:08 13,8 °C 13,8 °C 94 % 1011,5 hPa 0,0 mm 2,2 km/h (1 Bft) S-SW 209 ° 0 min 0,000 mm 0,0 UV-I 0 W/m² 12,9 °C 13,8 °C 3,2 km/h (1 Bft)
11.07.2017 02:09 13,8 °C 13,8 °C 94 % 1011,6 hPa 0,2 mm 1,4 km/h (1 Bft) S-SW 209 ° 0 min 0,000 mm 0,0 UV-I 0 W/m² 12,9 °C 13,8 °C 3,2 km/h (1 Bft)
11.07.2017 02:10 13,8 °C 13,8 °C 94 % 1011,6 hPa 0,0 mm 0,0 km/h (0 Bft) S-SW 209 ° 0 min 0,000 mm 0,0 UV-I 0 W/m² 12,9 °C 13,8 °C 0,0 km/h (0 Bft)
11.07.2017 02:11 13,8 °C 13,8 °C 94 % 1011,6 hPa 0,0 mm 0,0 km/h (0 Bft) S-SW 209 ° 0 min 0,000 mm 0,0 UV-I 0 W/m² 12,9 °C 13,8 °C 0,0 km/h (0 Bft)
11.07.2017 02:12 13,8 °C 13,8 °C 94 % 1011,7 hPa 0,0 mm 0,0 km/h (0 Bft) S-SW 209 ° 0 min 0,000 mm 0,0 UV-I 0 W/m² 12,9 °C 13,8 °C 0,0 km/h (0 Bft)
11.07.2017 02:13 13,8 °C 13,8 °C 94 % 1011,7 hPa 0,0 mm 0,9 km/h (0 Bft) S-SW 209 ° 0 min 0,000 mm 0,0 UV-I 0 W/m² 12,9 °C 13,8 °C 1,6 km/h (1 Bft)
11.07.2017 02:14 13,8 °C 13,8 °C 94 % 1011,7 hPa 0,0 mm 0,4 km/h (0 Bft) S-SW 209 ° 0 min 0,000 mm 0,0 UV-I 0 W/m² 12,9 °C 13,8 °C 1,6 km/h (1 Bft)
11.07.2017 02:15 13,8 °C 13,9 °C 95 % 1011,7 hPa 0,0 mm 3,5 km/h (1 Bft) S-SW 196 ° 0 min 0,000 mm 0,0 UV-I 0 W/m² 13,0 °C 13,8 °C 6,4 km/h (2 Bft)
11.07.2017 02:16 13,8 °C 13,9 °C 94 % 1011,7 hPa 0,0 mm 0,1 km/h (0 Bft) S-SW 196 ° 0 min 0,000 mm 0,0 UV-I 0 W/m² 12,9 °C 13,8 °C 1,6 km/h (1 Bft)
11.07.2017 02:17 13,8 °C 13,8 °C 94 % 1011,7 hPa 0,0 mm 0,0 km/h (0 Bft) S-SW 196 ° 0 min 0,000 mm 0,0 UV-I 0 W/m² 12,9 °C 13,8 °C 0,0 km/h (0 Bft)
11.07.2017 02:18 13,8 °C 13,8 °C 94 % 1011,7 hPa 0,0 mm 0,0 km/h (0 Bft) S-SW 196 ° 0 min 0,000 mm 0,0 UV-I 0 W/m² 12,9 °C 13,8 °C 0,0 km/h (0 Bft)
11.07.2017 02:19 13,8 °C 13,9 °C 95 % 1011,8 hPa 0,0 mm 0,0 km/h (0 Bft) S-SW 196 ° 0 min 0,000 mm 0,0 UV-I 0 W/m² 13,0 °C 13,8 °C 0,0 km/h (0 Bft)
11.07.2017 02:20 13,8 °C 13,8 °C 95 % 1011,8 hPa 0,0 mm 0,0 km/h (0 Bft) S-SW 196 ° 0 min 0,000 mm 0,0 UV-I 0 W/m² 13,0 °C 13,8 °C 0,0 km/h (0 Bft)
11.07.2017 02:21 13,8 °C 13,8 °C 94 % 1011,8 hPa 0,0 mm 0,0 km/h (0 Bft) S-SW 196 ° 0 min 0,000 mm 0,0 UV-I 0 W/m² 12,9 °C 13,8 °C 0,0 km/h (0 Bft)
11.07.2017 02:22 13,8 °C 13,8 °C 95 % 1011,8 hPa 0,0 mm 0,1 km/h (0 Bft) S-SW 196 ° 0 min 0,000 mm 0,0 UV-I 0 W/m² 13,0 °C 13,8 °C 1,6 km/h (1 Bft)
11.07.2017 02:23 13,8 °C 13,8 °C 95 % 1011,8 hPa 0,0 mm 1,4 km/h (1 Bft) S-SW 196 ° 0 min 0,000 mm 0,0 UV-I 0 W/m² 13,0 °C 13,8 °C 3,2 km/h (1 Bft)
11.07.2017 02:24 13,8 °C 13,8 °C 95 % 1011,8 hPa 0,0 mm 0,0 km/h (0 Bft) S-SW 196 ° 0 min 0,000 mm 0,0 UV-I 0 W/m² 13,0 °C 13,8 °C 0,0 km/h (0 Bft)
11.07.2017 02:25 13,8 °C 13,8 °C 95 % 1011,9 hPa 0,0 mm 0,0 km/h (0 Bft) S-SW 196 ° 0 min 0,000 mm 0,0 UV-I 0 W/m² 13,0 °C 13,8 °C 0,0 km/h (0 Bft)
11.07.2017 02:26 13,8 °C 13,8 °C 95 % 1011,9 hPa 0,0 mm 0,0 km/h (0 Bft) S-SW 196 ° 0 min 0,000 mm 0,0 UV-I 0 W/m² 13,0 °C 13,8 °C 0,0 km/h (0 Bft)
11.07.2017 02:27 13,8 °C 13,8 °C 95 % 1011,8 hPa 0,0 mm 0,0 km/h (0 Bft) S-SW 196 ° 0 min 0,000 mm 0,0 UV-I 0 W/m² 13,0 °C 13,8 °C 0,0 km/h (0 Bft)
11.07.2017 02:28 13,8 °C 13,8 °C 95 % 1011,8 hPa 0,0 mm 0,0 km/h (0 Bft) S-SW 196 ° 0 min 0,000 mm 0,0 UV-I 0 W/m² 13,0 °C 13,8 °C 0,0 km/h (0 Bft)
11.07.2017 02:29 13,8 °C 13,8 °C 94 % 1011,8 hPa 0,0 mm 0,8 km/h (0 Bft) S-SW 196 ° 0 min 0,000 mm 0,0 UV-I 0 W/m² 12,9 °C 13,8 °C 3,2 km/h (1 Bft)
11.07.2017 02:30 13,8 °C 13,8 °C 95 % 1011,8 hPa 0,0 mm 1,3 km/h (1 Bft) S-SW 196 ° 0 min 0,000 mm 0,0 UV-I 0 W/m² 13,0 °C 13,8 °C 1,6 km/h (1 Bft)
11.07.2017 02:31 13,8 °C 13,8 °C 94 % 1011,8 hPa 0,0 mm 1,9 km/h (1 Bft) S-SW 196 ° 0 min 0,000 mm 0,0 UV-I 0 W/m² 12,9 °C 13,8 °C 3,2 km/h (1 Bft)
11.07.2017 02:32 13,8 °C 13,8 °C 95 % 1011,7 hPa 0,0 mm 2,1 km/h (1 Bft) S-SW 196 ° 0 min 0,000 mm 0,0 UV-I 0 W/m² 13,0 °C 13,8 °C 3,2 km/h (1 Bft)
11.07.2017 02:33 13,8 °C 13,8 °C 95 % 1011,7 hPa 0,0 mm 0,0 km/h (0 Bft) S-SW 196 ° 0 min 0,000 mm 0,0 UV-I 0 W/m² 13,0 °C 13,8 °C 0,0 km/h (0 Bft)
11.07.2017 02:34 13,7 °C 13,8 °C 95 % 1011,7 hPa 0,0 mm 0,0 km/h (0 Bft) S-SW 196 ° 0 min 0,000 mm 0,0 UV-I 0 W/m² 12,9 °C 13,7 °C 0,0 km/h (0 Bft)
11.07.2017 02:35 13,7 °C 13,8 °C 95 % 1011,7 hPa 0,0 mm 0,0 km/h (0 Bft) S-SW 196 ° 0 min 0,000 mm 0,0 UV-I 0 W/m² 12,9 °C 13,7 °C 0,0 km/h (0 Bft)
11.07.2017 02:36 13,7 °C 13,7 °C 95 % 1011,7 hPa 0,0 mm 0,0 km/h (0 Bft) S-SW 196 ° 0 min 0,000 mm 0,0 UV-I 0 W/m² 12,9 °C 13,7 °C 0,0 km/h (0 Bft)
11.07.2017 02:37 13,7 °C 13,7 °C 95 % 1011,8 hPa 0,0 mm 0,0 km/h (0 Bft) S-SW 196 ° 0 min 0,000 mm 0,0 UV-I 0 W/m² 12,9 °C 13,7 °C 0,0 km/h (0 Bft)
11.07.2017 02:38 13,7 °C 13,7 °C 95 % 1011,8 hPa 0,0 mm 0,0 km/h (0 Bft) S-SW 196 ° 0 min 0,000 mm 0,0 UV-I 0 W/m² 12,9 °C 13,7 °C 0,0 km/h (0 Bft)
11.07.2017 02:39 13,7 °C 13,7 °C 95 % 1011,9 hPa 0,0 mm 0,1 km/h (0 Bft) S-SW 196 ° 0 min 0,000 mm 0,0 UV-I 0 W/m² 12,9 °C 13,7 °C 1,6 km/h (1 Bft)
11.07.2017 02:40 13,7 °C 13,7 °C 95 % 1011,9 hPa 0,0 mm 0,0 km/h (0 Bft) S-SW 196 ° 0 min 0,000 mm 0,0 UV-I 0 W/m² 12,9 °C 13,7 °C 0,0 km/h (0 Bft)
11.07.2017 02:41 13,6 °C 13,7 °C 95 % 1011,9 hPa 0,0 mm 0,0 km/h (0 Bft) S-SW 196 ° 0 min 0,000 mm 0,0 UV-I 0 W/m² 12,8 °C 13,6 °C 0,0 km/h (0 Bft)
11.07.2017 02:42 13,6 °C 13,6 °C 95 % 1011,9 hPa 0,0 mm 0,4 km/h (0 Bft) S-SW 196 ° 0 min 0,000 mm 0,0 UV-I 0 W/m² 12,8 °C 13,6 °C 1,6 km/h (1 Bft)
11.07.2017 02:43 13,6 °C 13,6 °C 95 % 1011,9 hPa 0,0 mm 0,1 km/h (0 Bft) S-SW 196 ° 0 min 0,000 mm 0,0 UV-I 0 W/m² 12,8 °C 13,6 °C 1,6 km/h (1 Bft)
11.07.2017 02:44 13,6 °C 13,6 °C 95 % 1011,8 hPa 0,0 mm 0,1 km/h (0 Bft) S-SW 196 ° 0 min 0,000 mm 0,0 UV-I 0 W/m² 12,8 °C 13,6 °C 1,6 km/h (1 Bft)
11.07.2017 02:45 13,6 °C 13,6 °C 95 % 1011,8 hPa 0,0 mm 0,0 km/h (0 Bft) S-SW 196 ° 0 min 0,000 mm 0,0 UV-I 0 W/m² 12,8 °C 13,6 °C 0,0 km/h (0 Bft)
11.07.2017 02:46 13,6 °C 13,6 °C 95 % 1011,8 hPa 0,0 mm 0,0 km/h (0 Bft) S-SW 196 ° 0 min 0,000 mm 0,0 UV-I 0 W/m² 12,8 °C 13,6 °C 0,0 km/h (0 Bft)
11.07.2017 02:47 13,5 °C 13,6 °C 95 % 1011,8 hPa 0,0 mm 0,0 km/h (0 Bft) S-SW 196 ° 0 min 0,000 mm 0,0 UV-I 0 W/m² 12,7 °C 13,5 °C 0,0 km/h (0 Bft)
11.07.2017 02:48 13,6 °C 13,6 °C 95 % 1011,8 hPa 0,0 mm 0,0 km/h (0 Bft) S-SW 196 ° 0 min 0,000 mm 0,0 UV-I 0 W/m² 12,8 °C 13,6 °C 0,0 km/h (0 Bft)
11.07.2017 02:49 13,5 °C 13,6 °C 95 % 1011,8 hPa 0,0 mm 0,0 km/h (0 Bft) S-SW 196 ° 0 min 0,000 mm 0,0 UV-I 0 W/m² 12,7 °C 13,5 °C 0,0 km/h (0 Bft)
11.07.2017 02:50 13,5 °C 13,5 °C 95 % 1011,8 hPa 0,0 mm 0,0 km/h (0 Bft) S-SW 196 ° 0 min 0,000 mm 0,0 UV-I 0 W/m² 12,7 °C 13,5 °C 0,0 km/h (0 Bft)
11.07.2017 02:51 13,5 °C 13,5 °C 95 % 1011,8 hPa 0,0 mm 0,0 km/h (0 Bft) S-SW 196 ° 0 min 0,000 mm 0,0 UV-I 0 W/m² 12,7 °C 13,5 °C 0,0 km/h (0 Bft)
11.07.2017 02:52 13,4 °C 13,5 °C 95 % 1011,8 hPa 0,0 mm 0,0 km/h (0 Bft) S-SW 196 ° 0 min 0,000 mm 0,0 UV-I 0 W/m² 12,6 °C 13,4 °C 0,0 km/h (0 Bft)
11.07.2017 02:53 13,4 °C 13,4 °C 95 % 1011,8 hPa 0,0 mm 0,0 km/h (0 Bft) S-SW 196 ° 0 min 0,000 mm 0,0 UV-I 0 W/m² 12,6 °C 13,4 °C 0,0 km/h (0 Bft)
11.07.2017 02:54 13,4 °C 13,4 °C 95 % 1011,8 hPa 0,0 mm 0,0 km/h (0 Bft) S-SW 196 ° 0 min 0,000 mm 0,0 UV-I 0 W/m² 12,6 °C 13,4 °C 0,0 km/h (0 Bft)
11.07.2017 02:55 13,4 °C 13,4 °C 95 % 1011,7 hPa 0,0 mm 0,0 km/h (0 Bft) S-SW 196 ° 0 min 0,000 mm 0,0 UV-I 0 W/m² 12,6 °C 13,4 °C 0,0 km/h (0 Bft)
11.07.2017 02:56 13,4 °C 13,4 °C 95 % 1011,7 hPa 0,0 mm 0,0 km/h (0 Bft) S-SW 196 ° 0 min 0,000 mm 0,0 UV-I 0 W/m² 12,6 °C 13,4 °C 0,0 km/h (0 Bft)
11.07.2017 02:57 13,4 °C 13,4 °C 95 % 1011,7 hPa 0,0 mm 0,0 km/h (0 Bft) S-SW 196 ° 0 min 0,000 mm 0,0 UV-I 0 W/m² 12,6 °C 13,4 °C 0,0 km/h (0 Bft)
11.07.2017 02:58 13,4 °C 13,4 °C 95 % 1011,7 hPa 0,0 mm 0,0 km/h (0 Bft) S-SW 196 ° 0 min 0,000 mm 0,0 UV-I 0 W/m² 12,6 °C 13,4 °C 0,0 km/h (0 Bft)
11.07.2017 02:59 13,4 °C 13,4 °C 95 % 1011,6 hPa 0,0 mm 0,0 km/h (0 Bft) S-SW 196 ° 0 min 0,000 mm 0,0 UV-I 0 W/m² 12,6 °C 13,4 °C 0,0 km/h (0 Bft)
11.07.2017 03:00 13,4 °C 13,4 °C 95 % 1011,6 hPa 0,0 mm 1,9 km/h (1 Bft) S 175 ° 0 min 0,000 mm 0,0 UV-I 0 W/m² 12,6 °C 13,4 °C 4,8 km/h (1 Bft)
11.07.2017 03:01 13,4 °C 13,4 °C 95 % 1011,6 hPa 0,0 mm 2,9 km/h (1 Bft) SO 146 ° 0 min 0,000 mm 0,0 UV-I 0 W/m² 12,6 °C 13,4 °C 6,4 km/h (2 Bft)
11.07.2017 03:02 13,4 °C 13,4 °C 95 % 1011,7 hPa 0,0 mm 0,5 km/h (0 Bft) SO 146 ° 0 min 0,000 mm 0,0 UV-I 0 W/m² 12,6 °C 13,4 °C 1,6 km/h (1 Bft)
11.07.2017 03:03 13,4 °C 13,4 °C 95 % 1011,7 hPa 0,0 mm 0,0 km/h (0 Bft) SO 146 ° 0 min 0,000 mm 0,0 UV-I 0 W/m² 12,6 °C 13,4 °C 0,0 km/h (0 Bft)
11.07.2017 03:04 13,4 °C 13,4 °C 95 % 1011,7 hPa 0,0 mm 0,0 km/h (0 Bft) SO 146 ° 0 min 0,000 mm 0,0 UV-I 0 W/m² 12,6 °C 13,4 °C 0,0 km/h (0 Bft)
11.07.2017 03:05 13,4 °C 13,4 °C 95 % 1011,8 hPa 0,0 mm 1,5 km/h (1 Bft) SO 146 ° 0 min 0,000 mm 0,0 UV-I 0 W/m² 12,6 °C 13,4 °C 4,8 km/h (1 Bft)
11.07.2017 03:06 13,4 °C 13,4 °C 95 % 1011,8 hPa 0,0 mm 2,6 km/h (1 Bft) SO 146 ° 0 min 0,000 mm 0,0 UV-I 0 W/m² 12,6 °C 13,4 °C 3,2 km/h (1 Bft)
11.07.2017 03:07 13,4 °C 13,4 °C 95 % 1011,8 hPa 0,0 mm 0,7 km/h (0 Bft) SO 146 ° 0 min 0,000 mm 0,0 UV-I 0 W/m² 12,6 °C 13,4 °C 1,6 km/h (1 Bft)
11.07.2017 03:08 13,4 °C 13,5 °C 95 % 1011,8 hPa 0,0 mm 0,1 km/h (0 Bft) SO 146 ° 0 min 0,000 mm 0,0 UV-I 0 W/m² 12,6 °C 13,4 °C 1,6 km/h (1 Bft)
11.07.2017 03:09 13,5 °C 13,5 °C 95 % 1011,8 hPa 0,0 mm 0,0 km/h (0 Bft) SO 146 ° 0 min 0,000 mm 0,0 UV-I 0 W/m² 12,7 °C 13,5 °C 0,0 km/h (0 Bft)
11.07.2017 03:10 13,4 °C 13,5 °C 95 % 1011,8 hPa 0,0 mm 0,0 km/h (0 Bft) SO 146 ° 0 min 0,000 mm 0,0 UV-I 0 W/m² 12,6 °C 13,4 °C 0,0 km/h (0 Bft)
11.07.2017 03:11 13,4 °C 13,4 °C 95 % 1011,8 hPa 0,0 mm 0,0 km/h (0 Bft) SO 146 ° 0 min 0,000 mm 0,0 UV-I 0 W/m² 12,6 °C 13,4 °C 0,0 km/h (0 Bft)
11.07.2017 03:12 13,4 °C 13,4 °C 95 % 1011,8 hPa 0,0 mm 0,0 km/h (0 Bft) SO 146 ° 0 min 0,000 mm 0,0 UV-I 0 W/m² 12,6 °C 13,4 °C 0,0 km/h (0 Bft)
11.07.2017 03:13 13,4 °C 13,4 °C 95 % 1011,7 hPa 0,0 mm 0,0 km/h (0 Bft) SO 146 ° 0 min 0,000 mm 0,0 UV-I 0 W/m² 12,6 °C 13,4 °C 0,0 km/h (0 Bft)
11.07.2017 03:14 13,4 °C 13,4 °C 95 % 1011,7 hPa 0,0 mm 0,0 km/h (0 Bft) SO 146 ° 0 min 0,000 mm 0,0 UV-I 0 W/m² 12,6 °C 13,4 °C 0,0 km/h (0 Bft)
11.07.2017 03:15 13,4 °C 13,4 °C 95 % 1011,6 hPa 0,0 mm 0,0 km/h (0 Bft) SO 146 ° 0 min 0,000 mm 0,0 UV-I 0 W/m² 12,6 °C 13,4 °C 0,0 km/h (0 Bft)
11.07.2017 03:16 13,4 °C 13,4 °C 95 % 1011,6 hPa 0,0 mm 0,0 km/h (0 Bft) SO 146 ° 0 min 0,000 mm 0,0 UV-I 0 W/m² 12,6 °C 13,4 °C 0,0 km/h (0 Bft)
11.07.2017 03:17 13,4 °C 13,4 °C 95 % 1011,6 hPa 0,0 mm 0,9 km/h (0 Bft) SO 146 ° 0 min 0,000 mm 0,0 UV-I 0 W/m² 12,6 °C 13,4 °C 3,2 km/h (1 Bft)
11.07.2017 03:18 13,4 °C 13,4 °C 95 % 1011,6 hPa 0,0 mm 0,7 km/h (0 Bft) SO 146 ° 0 min 0,000 mm 0,0 UV-I 0 W/m² 12,6 °C 13,4 °C 3,2 km/h (1 Bft)
11.07.2017 03:19 13,4 °C 13,4 °C 95 % 1011,6 hPa 0,0 mm 0,0 km/h (0 Bft) SO 146 ° 0 min 0,000 mm 0,0 UV-I 0 W/m² 12,6 °C 13,4 °C 0,0 km/h (0 Bft)
11.07.2017 03:20 13,4 °C 13,4 °C 95 % 1011,6 hPa 0,0 mm 0,0 km/h (0 Bft) SO 146 ° 0 min 0,000 mm 0,0 UV-I 0 W/m² 12,6 °C 13,4 °C 0,0 km/h (0 Bft)
11.07.2017 03:21 13,4 °C 13,4 °C 95 % 1011,6 hPa 0,0 mm 0,3 km/h (0 Bft) SO 146 ° 0 min 0,000 mm 0,0 UV-I 0 W/m² 12,6 °C 13,4 °C 1,6 km/h (1 Bft)
11.07.2017 03:22 13,4 °C 13,4 °C 95 % 1011,7 hPa 0,0 mm 0,9 km/h (0 Bft) SO 146 ° 0 min 0,000 mm 0,0 UV-I 0 W/m² 12,6 °C 13,4 °C 1,6 km/h (1 Bft)
11.07.2017 03:23 13,4 °C 13,4 °C 95 % 1011,7 hPa 0,0 mm 0,1 km/h (0 Bft) SO 146 ° 0 min 0,000 mm 0,0 UV-I 0 W/m² 12,6 °C 13,4 °C 1,6 km/h (1 Bft)
11.07.2017 03:24 13,4 °C 13,4 °C 95 % 1011,6 hPa 0,0 mm 0,0 km/h (0 Bft) SO 146 ° 0 min 0,000 mm 0,0 UV-I 0 W/m² 12,6 °C 13,4 °C 0,0 km/h (0 Bft)
11.07.2017 03:25 13,4 °C 13,4 °C 95 % 1011,5 hPa 0,0 mm 0,7 km/h (0 Bft) SO 146 ° 0 min 0,000 mm 0,0 UV-I 0 W/m² 12,6 °C 13,4 °C 3,2 km/h (1 Bft)
11.07.2017 03:26 13,4 °C 13,4 °C 95 % 1011,5 hPa 0,0 mm 3,4 km/h (1 Bft) O-SO 119 ° 0 min 0,000 mm 0,0 UV-I 0 W/m² 12,6 °C 13,4 °C 4,8 km/h (1 Bft)
11.07.2017 03:27 13,4 °C 13,4 °C 95 % 1011,6 hPa 0,0 mm 0,2 km/h (0 Bft) O-SO 119 ° 0 min 0,000 mm 0,0 UV-I 0 W/m² 12,6 °C 13,4 °C 1,6 km/h (1 Bft)
11.07.2017 03:28 13,4 °C 13,4 °C 95 % 1011,6 hPa 0,0 mm 0,1 km/h (0 Bft) O-SO 119 ° 0 min 0,000 mm 0,0 UV-I 0 W/m² 12,6 °C 13,4 °C 1,6 km/h (1 Bft)
11.07.2017 03:29 13,4 °C 13,4 °C 95 % 1011,6 hPa 0,0 mm 2,2 km/h (1 Bft) O-SO 119 ° 0 min 0,000 mm 0,0 UV-I 0 W/m² 12,6 °C 13,4 °C 3,2 km/h (1 Bft)
11.07.2017 03:30 13,4 °C 13,4 °C 95 % 1011,5 hPa 0,0 mm 1,4 km/h (1 Bft) O-SO 120 ° 0 min 0,000 mm 0,0 UV-I 0 W/m² 12,6 °C 13,4 °C 3,2 km/h (1 Bft)
11.07.2017 03:31 13,4 °C 13,4 °C 95 % 1011,5 hPa 0,0 mm 1,5 km/h (1 Bft) W-NW 288 ° 0 min 0,000 mm 0,0 UV-I 0 W/m² 12,6 °C 13,4 °C 4,8 km/h (1 Bft)
11.07.2017 03:32 13,4 °C 13,4 °C 95 % 1011,6 hPa 0,0 mm 1,7 km/h (1 Bft) W-NW 288 ° 0 min 0,000 mm 0,0 UV-I 0 W/m² 12,6 °C 13,4 °C 3,2 km/h (1 Bft)
11.07.2017 03:33 13,4 °C 13,4 °C 95 % 1011,5 hPa 0,0 mm 0,3 km/h (0 Bft) W-NW 288 ° 0 min 0,000 mm 0,0 UV-I 0 W/m² 12,6 °C 13,4 °C 1,6 km/h (1 Bft)
11.07.2017 03:34 13,4 °C 13,4 °C 95 % 1011,5 hPa 0,0 mm 2,6 km/h (1 Bft) S-SW 211 ° 0 min 0,000 mm 0,0 UV-I 0 W/m² 12,6 °C 13,4 °C 4,8 km/h (1 Bft)
11.07.2017 03:35 13,3 °C 13,4 °C 95 % 1011,5 hPa 0,0 mm 1,9 km/h (1 Bft) S-SW 211 ° 0 min 0,000 mm 0,0 UV-I 0 W/m² 12,5 °C 13,3 °C 3,2 km/h (1 Bft)
11.07.2017 03:36 13,3 °C 13,3 °C 95 % 1011,5 hPa 0,0 mm 4,1 km/h (1 Bft) S-SW 192 ° 0 min 0,000 mm 0,0 UV-I 0 W/m² 12,5 °C 13,3 °C 6,4 km/h (2 Bft)
11.07.2017 03:37 13,3 °C 13,3 °C 95 % 1011,5 hPa 0,0 mm 3,3 km/h (1 Bft) S-SO 164 ° 0 min 0,000 mm 0,0 UV-I 0 W/m² 12,5 °C 13,3 °C 8,0 km/h (2 Bft)
11.07.2017 03:38 13,3 °C 13,3 °C 95 % 1011,5 hPa 0,0 mm 5,1 km/h (1 Bft) S-SW 200 ° 0 min 0,000 mm 0,0 UV-I 0 W/m² 12,5 °C 13,3 °C 9,7 km/h (2 Bft)
11.07.2017 03:39 13,4 °C 13,4 °C 94 % 1011,5 hPa 0,0 mm 3,6 km/h (1 Bft) S-SW 193 ° 0 min 0,000 mm 0,0 UV-I 0 W/m² 12,5 °C 13,4 °C 6,4 km/h (2 Bft)
11.07.2017 03:40 13,4 °C 13,4 °C 94 % 1011,5 hPa 0,0 mm 3,0 km/h (1 Bft) S 182 ° 0 min 0,000 mm 0,0 UV-I 0 W/m² 12,5 °C 13,4 °C 4,8 km/h (1 Bft)
11.07.2017 03:41 13,4 °C 13,4 °C 94 % 1011,5 hPa 0,0 mm 3,8 km/h (1 Bft) S 170 ° 0 min 0,000 mm 0,0 UV-I 0 W/m² 12,5 °C 13,4 °C 8,0 km/h (2 Bft)
11.07.2017 03:42 13,4 °C 13,4 °C 94 % 1011,5 hPa 0,0 mm 2,3 km/h (1 Bft) S 170 ° 0 min 0,000 mm 0,0 UV-I 0 W/m² 12,5 °C 13,4 °C 3,2 km/h (1 Bft)
11.07.2017 03:43 13,4 °C 13,4 °C 94 % 1011,4 hPa 0,0 mm 2,8 km/h (1 Bft) S 170 ° 0 min 0,000 mm 0,0 UV-I 0 W/m² 12,5 °C 13,4 °C 6,4 km/h (2 Bft)
11.07.2017 03:44 13,4 °C 13,4 °C 94 % 1011,5 hPa 0,0 mm 2,5 km/h (1 Bft) S 170 ° 0 min 0,000 mm 0,0 UV-I 0 W/m² 12,5 °C 13,4 °C 3,2 km/h (1 Bft)
11.07.2017 03:45 13,3 °C 13,4 °C 94 % 1011,5 hPa 0,0 mm 2,9 km/h (1 Bft) S 170 ° 0 min 0,000 mm 0,0 UV-I 0 W/m² 12,4 °C 13,3 °C 3,2 km/h (1 Bft)
11.07.2017 03:46 13,3 °C 13,3 °C 94 % 1011,5 hPa 0,0 mm 4,2 km/h (1 Bft) S 170 ° 0 min 0,000 mm 0,0 UV-I 0 W/m² 12,4 °C 13,3 °C 6,4 km/h (2 Bft)
11.07.2017 03:47 13,2 °C 13,3 °C 94 % 1011,4 hPa 0,0 mm 4,2 km/h (1 Bft) S 169 ° 0 min 0,000 mm 0,0 UV-I 0 W/m² 12,3 °C 13,2 °C 8,0 km/h (2 Bft)
11.07.2017 03:48 13,2 °C 13,2 °C 94 % 1011,4 hPa 0,0 mm 3,7 km/h (1 Bft) S 169 ° 0 min 0,000 mm 0,0 UV-I 0 W/m² 12,3 °C 13,2 °C 6,4 km/h (2 Bft)
11.07.2017 03:49 13,2 °C 13,2 °C 94 % 1011,4 hPa 0,0 mm 2,4 km/h (1 Bft) S-SO 167 ° 0 min 0,000 mm 0,0 UV-I 0 W/m² 12,3 °C 13,2 °C 6,4 km/h (2 Bft)
11.07.2017 03:50 13,2 °C 13,2 °C 94 % 1011,4 hPa 0,0 mm 6,3 km/h (2 Bft) S-SO 165 ° 0 min 0,000 mm 0,0 UV-I 0 W/m² 12,3 °C 13,2 °C 8,0 km/h (2 Bft)
11.07.2017 03:51 13,2 °C 13,2 °C 94 % 1011,3 hPa 0,0 mm 1,1 km/h (1 Bft) S-SO 165 ° 0 min 0,000 mm 0,0 UV-I 0 W/m² 12,3 °C 13,2 °C 3,2 km/h (1 Bft)
11.07.2017 03:52 13,1 °C 13,2 °C 94 % 1011,3 hPa 0,0 mm 3,5 km/h (1 Bft) S-SO 165 ° 0 min 0,000 mm 0,0 UV-I 0 W/m² 12,2 °C 13,1 °C 6,4 km/h (2 Bft)
11.07.2017 03:53 13,1 °C 13,2 °C 94 % 1011,3 hPa 0,0 mm 1,2 km/h (1 Bft) S-SO 165 ° 0 min 0,000 mm 0,0 UV-I 0 W/m² 12,2 °C 13,1 °C 3,2 km/h (1 Bft)
11.07.2017 03:54 13,1 °C 13,1 °C 94 % 1011,3 hPa 0,0 mm 2,7 km/h (1 Bft) S-SO 168 ° 0 min 0,000 mm 0,0 UV-I 0 W/m² 12,2 °C 13,1 °C 6,4 km/h (2 Bft)
11.07.2017 03:55 13,1 °C 13,1 °C 94 % 1011,3 hPa 0,0 mm 3,4 km/h (1 Bft) S 175 ° 0 min 0,000 mm 0,0 UV-I 0 W/m² 12,2 °C 13,1 °C 4,8 km/h (1 Bft)
11.07.2017 03:56 13,0 °C 13,1 °C 94 % 1011,3 hPa 0,0 mm 1,9 km/h (1 Bft) S 172 ° 0 min 0,000 mm 0,0 UV-I 0 W/m² 12,1 °C 13,0 °C 4,8 km/h (1 Bft)
11.07.2017 03:57 13,0 °C 13,1 °C 94 % 1011,4 hPa 0,0 mm 2,3 km/h (1 Bft) S 172 ° 0 min 0,000 mm 0,0 UV-I 0 W/m² 12,1 °C 13,0 °C 4,8 km/h (1 Bft)
11.07.2017 03:58 13,1 °C 13,1 °C 94 % 1011,4 hPa 0,0 mm 3,8 km/h (1 Bft) S 186 ° 0 min 0,000 mm 0,0 UV-I 0 W/m² 12,2 °C 13,1 °C 4,8 km/h (1 Bft)
11.07.2017 03:59 13,1 °C 13,1 °C 94 % 1011,4 hPa 0,0 mm 2,0 km/h (1 Bft) S 188 ° 0 min 0,000 mm 0,0 UV-I 0 W/m² 12,2 °C 13,1 °C 4,8 km/h (1 Bft)
11.07.2017 04:00 13,1 °C 13,1 °C 93 % 1011,4 hPa 0,0 mm 1,3 km/h (1 Bft) S-SW 193 ° 0 min 0,000 mm 0,0 UV-I 0 W/m² 12,0 °C 13,1 °C 4,8 km/h (1 Bft)
11.07.2017 04:02 13,3 °C 13,3 °C 93 % 1011,4 hPa 0,0 mm 1,1 km/h (1 Bft) W-SW 255 ° 0 min 0,000 mm 0,0 UV-I 0 W/m² 12,2 °C 13,3 °C 3,2 km/h (1 Bft)
11.07.2017 04:03 13,3 °C 13,3 °C 92 % 1011,4 hPa 0,0 mm 1,2 km/h (1 Bft) W-SW 253 ° 0 min 0,000 mm 0,0 UV-I 0 W/m² 12,0 °C 13,3 °C 3,2 km/h (1 Bft)
11.07.2017 04:04 13,3 °C 13,3 °C 92 % 1011,4 hPa 0,0 mm 0,0 km/h (0 Bft) W-SW 253 ° 0 min 0,000 mm 0,0 UV-I 0 W/m² 12,0 °C 13,3 °C 0,0 km/h (0 Bft)
11.07.2017 04:05 13,3 °C 13,4 °C 92 % 1011,4 hPa 0,0 mm 0,0 km/h (0 Bft) W-SW 253 ° 0 min 0,000 mm 0,0 UV-I 0 W/m² 12,0 °C 13,3 °C 0,0 km/h (0 Bft)
11.07.2017 04:06 13,3 °C 13,3 °C 92 % 1011,4 hPa 0,0 mm 0,1 km/h (0 Bft) W-SW 253 ° 0 min 0,000 mm 0,0 UV-I 0 W/m² 12,0 °C 13,3 °C 1,6 km/h (1 Bft)
11.07.2017 04:07 13,2 °C 13,3 °C 92 % 1011,4 hPa 0,0 mm 1,8 km/h (1 Bft) W-SW 253 ° 0 min 0,000 mm 0,0 UV-I 0 W/m² 11,9 °C 13,2 °C 3,2 km/h (1 Bft)
11.07.2017 04:08 13,2 °C 13,2 °C 92 % 1011,4 hPa 0,0 mm 1,9 km/h (1 Bft) W-SW 252 ° 0 min 0,000 mm 0,0 UV-I 0 W/m² 11,9 °C 13,2 °C 3,2 km/h (1 Bft)
11.07.2017 04:09 13,3 °C 13,3 °C 92 % 1011,4 hPa 0,0 mm 2,6 km/h (1 Bft) W-SW 252 ° 0 min 0,000 mm 0,0 UV-I 0 W/m² 12,0 °C 13,3 °C 4,8 km/h (1 Bft)
11.07.2017 04:10 13,3 °C 13,3 °C 91 % 1011,4 hPa 0,0 mm 1,4 km/h (1 Bft) W-SW 252 ° 0 min 0,000 mm 0,0 UV-I 0 W/m² 11,9 °C 13,3 °C 4,8 km/h (1 Bft)
11.07.2017 04:11 13,3 °C 13,3 °C 91 % 1011,4 hPa 0,0 mm 0,0 km/h (0 Bft) W-SW 252 ° 0 min 0,000 mm 0,0 UV-I 0 W/m² 11,9 °C 13,3 °C 0,0 km/h (0 Bft)
11.07.2017 04:12 13,3 °C 13,3 °C 91 % 1011,4 hPa 0,0 mm 0,0 km/h (0 Bft) W-SW 252 ° 0 min 0,000 mm 0,0 UV-I 0 W/m² 11,9 °C 13,3 °C 0,0 km/h (0 Bft)
11.07.2017 04:13 13,2 °C 13,3 °C 91 % 1011,4 hPa 0,0 mm 0,2 km/h (0 Bft) W-SW 252 ° 0 min 0,000 mm 0,0 UV-I 0 W/m² 11,8 °C 13,2 °C 1,6 km/h (1 Bft)
11.07.2017 04:14 13,2 °C 13,2 °C 92 % 1011,4 hPa 0,0 mm 0,0 km/h (0 Bft) W-SW 247 ° 0 min 0,000 mm 0,0 UV-I 0 W/m² 11,9 °C 13,2 °C 1,6 km/h (1 Bft)
11.07.2017 04:15 13,1 °C 13,1 °C 92 % 1011,4 hPa 0,0 mm 1,6 km/h (1 Bft) S-SW 202 ° 0 min 0,000 mm 0,0 UV-I 0 W/m² 11,8 °C 13,1 °C 4,8 km/h (1 Bft)
11.07.2017 04:16 13,0 °C 13,1 °C 92 % 1011,4 hPa 0,0 mm 3,2 km/h (1 Bft) S 180 ° 0 min 0,000 mm 0,0 UV-I 0 W/m² 11,7 °C 13,0 °C 4,8 km/h (1 Bft)
11.07.2017 04:17 12,9 °C 13,0 °C 93 % 1011,4 hPa 0,0 mm 1,6 km/h (1 Bft) S 180 ° 0 min 0,000 mm 0,0 UV-I 0 W/m² 11,8 °C 12,9 °C 3,2 km/h (1 Bft)
11.07.2017 04:18 12,9 °C 12,9 °C 93 % 1011,4 hPa 0,0 mm 1,6 km/h (1 Bft) S 180 ° 0 min 0,000 mm 0,0 UV-I 0 W/m² 11,8 °C 12,9 °C 3,2 km/h (1 Bft)
11.07.2017 04:19 12,8 °C 12,9 °C 93 % 1011,4 hPa 0,0 mm 4,8 km/h (1 Bft) SO 135 ° 0 min 0,000 mm 0,0 UV-I 0 W/m² 11,7 °C 12,8 °C 6,4 km/h (2 Bft)
11.07.2017 04:20 12,8 °C 12,8 °C 93 % 1011,3 hPa 0,0 mm 3,2 km/h (1 Bft) S-SO 157 ° 0 min 0,000 mm 0,0 UV-I 0 W/m² 11,7 °C 12,8 °C 4,8 km/h (1 Bft)
11.07.2017 04:21 12,8 °C 12,8 °C 93 % 1011,4 hPa 0,0 mm 1,6 km/h (1 Bft) S-SO 157 ° 0 min 0,000 mm 0,0 UV-I 0 W/m² 11,7 °C 12,8 °C 4,8 km/h (1 Bft)
11.07.2017 04:22 12,8 °C 12,8 °C 93 % 1011,3 hPa 0,0 mm 0,0 km/h (0 Bft) S-SO 157 ° 0 min 0,000 mm 0,0 UV-I 0 W/m² 11,7 °C 12,8 °C 1,6 km/h (1 Bft)
11.07.2017 04:23 12,7 °C 12,7 °C 93 % 1011,3 hPa 0,0 mm 1,6 km/h (1 Bft) S-SO 157 ° 0 min 0,000 mm 0,0 UV-I 0 W/m² 11,6 °C 12,7 °C 3,2 km/h (1 Bft)
11.07.2017 04:24 12,7 °C 12,7 °C 93 % 1011,3 hPa 0,0 mm 1,6 km/h (1 Bft) S-SO 157 ° 0 min 0,000 mm 0,0 UV-I 0 W/m² 11,6 °C 12,7 °C 3,2 km/h (1 Bft)
11.07.2017 04:25 12,6 °C 12,7 °C 93 % 1011,3 hPa 0,0 mm 3,2 km/h (1 Bft) SO 135 ° 0 min 0,000 mm 0,0 UV-I 0 W/m² 11,5 °C 12,6 °C 4,8 km/h (1 Bft)
11.07.2017 04:26 12,6 °C 12,6 °C 93 % 1011,3 hPa 0,0 mm 1,6 km/h (1 Bft) SO 135 ° 0 min 0,000 mm 0,0 UV-I 0 W/m² 11,5 °C 12,6 °C 3,2 km/h (1 Bft)
11.07.2017 04:27 12,5 °C 12,6 °C 93 % 1011,3 hPa 0,0 mm 1,6 km/h (1 Bft) SO 135 ° 0 min 0,000 mm 0,0 UV-I 0 W/m² 11,4 °C 12,5 °C 3,2 km/h (1 Bft)
11.07.2017 04:28 12,5 °C 12,5 °C 93 % 1011,3 hPa 0,0 mm 4,8 km/h (1 Bft) S-SO 157 ° 0 min 0,000 mm 0,0 UV-I 0 W/m² 11,4 °C 12,5 °C 9,7 km/h (2 Bft)
11.07.2017 04:29 12,5 °C 12,6 °C 94 % 1011,3 hPa 0,0 mm 3,2 km/h (1 Bft) S-SO 157 ° 0 min 0,000 mm 0,0 UV-I 0 W/m² 11,6 °C 12,5 °C 6,4 km/h (2 Bft)
11.07.2017 04:30 12,6 °C 12,6 °C 94 % 1011,3 hPa 0,0 mm 3,2 km/h (1 Bft) S-SO 157 ° 0 min 0,000 mm 0,0 UV-I 0 W/m² 11,7 °C 12,6 °C 6,4 km/h (2 Bft)
11.07.2017 04:31 12,6 °C 12,6 °C 94 % 1011,3 hPa 0,0 mm 1,6 km/h (1 Bft) S-SO 157 ° 0 min 0,000 mm 0,0 UV-I 0 W/m² 11,7 °C 12,6 °C 6,4 km/h (2 Bft)
11.07.2017 04:32 12,6 °C 12,6 °C 94 % 1011,4 hPa 0,0 mm 3,2 km/h (1 Bft) S 180 ° 0 min 0,000 mm 0,0 UV-I 0 W/m² 11,7 °C 12,6 °C 6,4 km/h (2 Bft)
11.07.2017 04:33 12,6 °C 12,6 °C 94 % 1011,3 hPa 0,0 mm 4,8 km/h (1 Bft) S-SO 157 ° 0 min 0,000 mm 0,0 UV-I 0 W/m² 11,7 °C 12,6 °C 6,4 km/h (2 Bft)
11.07.2017 04:34 12,6 °C 12,6 °C 93 % 1011,4 hPa 0,0 mm 1,6 km/h (1 Bft) S-SO 157 ° 0 min 0,000 mm 0,0 UV-I 0 W/m² 11,5 °C 12,6 °C 3,2 km/h (1 Bft)
11.07.2017 04:35 12,6 °C 12,6 °C 94 % 1011,4 hPa 0,0 mm 1,6 km/h (1 Bft) S-SO 157 ° 0 min 0,000 mm 0,0 UV-I 0 W/m² 11,7 °C 12,6 °C 3,2 km/h (1 Bft)
11.07.2017 04:36 12,6 °C 12,6 °C 93 % 1011,4 hPa 0,0 mm 3,2 km/h (1 Bft) S-SO 157 ° 0 min 0,000 mm 0,0 UV-I 0 W/m² 11,5 °C 12,6 °C 3,2 km/h (1 Bft)
11.07.2017 04:37 12,6 °C 12,6 °C 93 % 1011,4 hPa 0,0 mm 1,6 km/h (1 Bft) S-SO 157 ° 0 min 0,000 mm 0,0 UV-I 0 W/m² 11,5 °C 12,6 °C 3,2 km/h (1 Bft)
11.07.2017 04:38 12,6 °C 12,6 °C 93 % 1011,4 hPa 0,0 mm 1,6 km/h (1 Bft) S-SO 157 ° 0 min 0,000 mm 0,0 UV-I 0 W/m² 11,5 °C 12,6 °C 1,6 km/h (1 Bft)
11.07.2017 04:39 12,6 °C 12,6 °C 93 % 1011,3 hPa 0,0 mm 1,6 km/h (1 Bft) S-SO 157 ° 0 min 0,000 mm 0,0 UV-I 0 W/m² 11,5 °C 12,6 °C 3,2 km/h (1 Bft)
11.07.2017 04:40 12,6 °C 12,6 °C 94 % 1011,4 hPa 0,0 mm 1,6 km/h (1 Bft) S-SO 157 ° 0 min 0,000 mm 0,0 UV-I 0 W/m² 11,7 °C 12,6 °C 3,2 km/h (1 Bft)
11.07.2017 04:41 12,6 °C 12,6 °C 94 % 1011,4 hPa 0,0 mm 3,2 km/h (1 Bft) S-SO 157 ° 0 min 0,000 mm 0,0 UV-I 0 W/m² 11,7 °C 12,6 °C 4,8 km/h (1 Bft)
11.07.2017 04:45 12,6 °C 12,6 °C 94 % 1011,3 hPa 0,0 mm 0,4 km/h (0 Bft) S-SO 161 ° 0 min 0,000 mm 0,0 UV-I 0 W/m² 11,7 °C 12,6 °C 1,6 km/h (1 Bft)
11.07.2017 04:46 12,6 °C 12,6 °C 94 % 1011,3 hPa 0,0 mm 0,9 km/h (0 Bft) S-SO 161 ° 0 min 0,000 mm 0,0 UV-I 0 W/m² 11,7 °C 12,6 °C 3,2 km/h (1 Bft)
11.07.2017 04:47 12,5 °C 12,6 °C 93 % 1011,3 hPa 0,0 mm 1,1 km/h (1 Bft) S-SO 161 ° 0 min 0,000 mm 0,0 UV-I 0 W/m² 11,4 °C 12,5 °C 3,2 km/h (1 Bft)
11.07.2017 04:48 12,4 °C 12,5 °C 93 % 1011,4 hPa 0,0 mm 0,0 km/h (0 Bft) S-SO 161 ° 0 min 0,000 mm 0,0 UV-I 0 W/m² 11,3 °C 12,4 °C 0,0 km/h (0 Bft)
11.07.2017 04:49 12,3 °C 12,4 °C 93 % 1011,4 hPa 0,0 mm 0,2 km/h (0 Bft) S-SO 161 ° 0 min 0,000 mm 0,0 UV-I 0 W/m² 11,2 °C 12,3 °C 1,6 km/h (1 Bft)
11.07.2017 04:50 12,3 °C 12,3 °C 93 % 1011,4 hPa 0,0 mm 0,0 km/h (0 Bft) S-SO 161 ° 0 min 0,000 mm 0,0 UV-I 0 W/m² 11,2 °C 12,3 °C 0,0 km/h (0 Bft)
11.07.2017 04:51 12,2 °C 12,3 °C 93 % 1011,4 hPa 0,0 mm 0,8 km/h (0 Bft) S-SO 161 ° 0 min 0,000 mm 0,0 UV-I 0 W/m² 11,1 °C 12,2 °C 3,2 km/h (1 Bft)
11.07.2017 04:52 12,2 °C 12,2 °C 93 % 1011,4 hPa 0,0 mm 1,1 km/h (1 Bft) S-SO 161 ° 0 min 0,000 mm 0,0 UV-I 0 W/m² 11,1 °C 12,2 °C 3,2 km/h (1 Bft)
11.07.2017 04:53 12,1 °C 12,2 °C 93 % 1011,4 hPa 0,0 mm 0,3 km/h (0 Bft) S-SO 161 ° 0 min 0,000 mm 0,0 UV-I 0 W/m² 11,0 °C 12,1 °C 1,6 km/h (1 Bft)
11.07.2017 04:54 12,1 °C 12,2 °C 93 % 1011,4 hPa 0,0 mm 0,0 km/h (0 Bft) S-SO 161 ° 0 min 0,000 mm 0,0 UV-I 0 W/m² 11,0 °C 12,1 °C 0,0 km/h (0 Bft)
11.07.2017 04:55 12,0 °C 12,1 °C 94 % 1011,4 hPa 0,0 mm 0,1 km/h (0 Bft) S-SO 161 ° 0 min 0,000 mm 0,0 UV-I 0 W/m² 11,1 °C 12,0 °C 1,6 km/h (1 Bft)
11.07.2017 04:56 12,0 °C 12,1 °C 94 % 1011,4 hPa 0,0 mm 0,0 km/h (0 Bft) S-SO 161 ° 0 min 0,000 mm 0,0 UV-I 0 W/m² 11,1 °C 12,0 °C 0,0 km/h (0 Bft)
11.07.2017 04:57 12,0 °C 12,0 °C 94 % 1011,5 hPa 0,0 mm 0,0 km/h (0 Bft) S-SO 161 ° 0 min 0,000 mm 0,0 UV-I 0 W/m² 11,1 °C 12,0 °C 0,0 km/h (0 Bft)
11.07.2017 04:58 11,9 °C 12,0 °C 94 % 1011,5 hPa 0,0 mm 0,0 km/h (0 Bft) S-SO 161 ° 0 min 0,000 mm 0,0 UV-I 0 W/m² 11,0 °C 11,9 °C 0,0 km/h (0 Bft)
11.07.2017 04:59 12,0 °C 12,0 °C 94 % 1011,5 hPa 0,0 mm 0,0 km/h (0 Bft) S-SO 161 ° 0 min 0,000 mm 0,0 UV-I 0 W/m² 11,1 °C 12,0 °C 0,0 km/h (0 Bft)
11.07.2017 05:00 12,1 °C 12,1 °C 94 % 1011,5 hPa 0,0 mm 0,0 km/h (0 Bft) S-SO 161 ° 0 min 0,000 mm 0,0 UV-I 0 W/m² 11,2 °C 12,1 °C 0,0 km/h (0 Bft)
11.07.2017 05:01 12,1 °C 12,1 °C 94 % 1011,5 hPa 0,0 mm 0,0 km/h (0 Bft) S-SO 161 ° 0 min 0,000 mm 0,0 UV-I 0 W/m² 11,2 °C 12,1 °C 0,0 km/h (0 Bft)
11.07.2017 05:02 12,1 °C 12,1 °C 95 % 1011,5 hPa 0,0 mm 0,0 km/h (0 Bft) S-SO 161 ° 0 min 0,000 mm 0,0 UV-I 0 W/m² 11,3 °C 12,1 °C 0,0 km/h (0 Bft)
11.07.2017 05:03 12,2 °C 12,2 °C 94 % 1011,5 hPa 0,0 mm 0,0 km/h (0 Bft) S-SO 161 ° 0 min 0,000 mm 0,0 UV-I 0 W/m² 11,3 °C 12,2 °C 0,0 km/h (0 Bft)
11.07.2017 05:04 12,1 °C 12,2 °C 94 % 1011,5 hPa 0,0 mm 0,0 km/h (0 Bft) S 171 ° 0 min 0,000 mm 0,0 UV-I 0 W/m² 11,2 °C 12,1 °C 0,0 km/h (0 Bft)
11.07.2017 05:05 12,1 °C 12,2 °C 94 % 1011,6 hPa 0,0 mm 0,0 km/h (0 Bft) S 171 ° 0 min 0,000 mm 0,0 UV-I 0 W/m² 11,2 °C 12,1 °C 0,0 km/h (0 Bft)
11.07.2017 05:06 12,1 °C 12,1 °C 94 % 1011,6 hPa 0,0 mm 0,0 km/h (0 Bft) S 171 ° 0 min 0,000 mm 0,0 UV-I 0 W/m² 11,2 °C 12,1 °C 0,0 km/h (0 Bft)
11.07.2017 05:07 11,9 °C 12,1 °C 94 % 1011,5 hPa 0,0 mm 0,0 km/h (0 Bft) S 171 ° 0 min 0,000 mm 0,0 UV-I 0 W/m² 11,0 °C 11,9 °C 0,0 km/h (0 Bft)
11.07.2017 05:08 11,9 °C 12,0 °C 94 % 1011,5 hPa 0,0 mm 0,0 km/h (0 Bft) S 171 ° 0 min 0,000 mm 0,0 UV-I 0 W/m² 11,0 °C 11,9 °C 0,0 km/h (0 Bft)
11.07.2017 05:09 12,0 °C 12,0 °C 94 % 1011,5 hPa 0,0 mm 1,1 km/h (1 Bft) S 171 ° 0 min 0,000 mm 0,0 UV-I 0 W/m² 11,1 °C 12,0 °C 3,2 km/h (1 Bft)
11.07.2017 05:10 12,0 °C 12,0 °C 94 % 1011,5 hPa 0,0 mm 1,1 km/h (1 Bft) S-SO 158 ° 0 min 0,000 mm 0,0 UV-I 0 W/m² 11,1 °C 12,0 °C 3,2 km/h (1 Bft)
11.07.2017 05:11 12,1 °C 12,1 °C 94 % 1011,5 hPa 0,0 mm 0,6 km/h (0 Bft) S-SO 158 ° 0 min 0,000 mm 0,0 UV-I 0 W/m² 11,2 °C 12,1 °C 3,2 km/h (1 Bft)
11.07.2017 05:12 12,0 °C 12,1 °C 94 % 1011,5 hPa 0,0 mm 1,8 km/h (1 Bft) S-SO 158 ° 0 min 0,000 mm 0,0 UV-I 0 W/m² 11,1 °C 12,0 °C 3,2 km/h (1 Bft)
11.07.2017 05:13 12,0 °C 12,1 °C 94 % 1011,5 hPa 0,0 mm 0,8 km/h (0 Bft) S-SO 158 ° 0 min 0,000 mm 0,0 UV-I 0 W/m² 11,1 °C 12,0 °C 3,2 km/h (1 Bft)
11.07.2017 05:14 12,0 °C 12,0 °C 94 % 1011,5 hPa 0,0 mm 3,3 km/h (1 Bft) S 173 ° 0 min 0,000 mm 0,0 UV-I 0 W/m² 11,1 °C 12,0 °C 8,0 km/h (2 Bft)
11.07.2017 05:15 12,1 °C 12,1 °C 94 % 1011,6 hPa 0,0 mm 3,8 km/h (1 Bft) S 173 ° 0 min 0,000 mm 0,0 UV-I 0 W/m² 11,2 °C 12,1 °C 4,8 km/h (1 Bft)
11.07.2017 05:16 12,1 °C 12,1 °C 94 % 1011,5 hPa 0,0 mm 3,2 km/h (1 Bft) S 173 ° 0 min 0,000 mm 0,0 UV-I 0 W/m² 11,2 °C 12,1 °C 4,8 km/h (1 Bft)
11.07.2017 05:17 12,1 °C 12,1 °C 94 % 1011,5 hPa 0,0 mm 3,4 km/h (1 Bft) S 173 ° 0 min 0,000 mm 0,0 UV-I 0 W/m² 11,2 °C 12,1 °C 4,8 km/h (1 Bft)
11.07.2017 05:18 12,2 °C 12,2 °C 94 % 1011,6 hPa 0,0 mm 3,1 km/h (1 Bft) S 173 ° 0 min 0,000 mm 0,0 UV-I 0 W/m² 11,3 °C 12,2 °C 4,8 km/h (1 Bft)
11.07.2017 05:19 12,2 °C 12,2 °C 94 % 1011,6 hPa 0,0 mm 3,2 km/h (1 Bft) S 173 ° 0 min 0,000 mm 0,0 UV-I 0 W/m² 11,3 °C 12,2 °C 3,2 km/h (1 Bft)
11.07.2017 05:20 12,2 °C 12,2 °C 94 % 1011,6 hPa 0,0 mm 2,7 km/h (1 Bft) S 173 ° 0 min 0,000 mm 0,0 UV-I 0 W/m² 11,3 °C 12,2 °C 3,2 km/h (1 Bft)
11.07.2017 05:21 12,2 °C 12,2 °C 94 % 1011,6 hPa 0,0 mm 2,6 km/h (1 Bft) S 173 ° 0 min 0,000 mm 0,0 UV-I 0 W/m² 11,3 °C 12,2 °C 3,2 km/h (1 Bft)
11.07.2017 05:22 12,2 °C 12,2 °C 94 % 1011,6 hPa 0,0 mm 3,3 km/h (1 Bft) S 172 ° 0 min 0,000 mm 0,0 UV-I 0 W/m² 11,3 °C 12,2 °C 4,8 km/h (1 Bft)
11.07.2017 05:23 12,2 °C 12,2 °C 94 % 1011,6 hPa 0,0 mm 3,2 km/h (1 Bft) S 172 ° 0 min 0,000 mm 0,0 UV-I 0 W/m² 11,3 °C 12,2 °C 4,8 km/h (1 Bft)
11.07.2017 05:24 12,2 °C 12,2 °C 94 % 1011,6 hPa 0,0 mm 2,3 km/h (1 Bft) S 172 ° 0 min 0,000 mm 0,0 UV-I 0 W/m² 11,3 °C 12,2 °C 3,2 km/h (1 Bft)
11.07.2017 05:25 12,2 °C 12,2 °C 94 % 1011,6 hPa 0,0 mm 1,7 km/h (1 Bft) S 172 ° 0 min 0,000 mm 0,0 UV-I 0 W/m² 11,3 °C 12,2 °C 3,2 km/h (1 Bft)
11.07.2017 05:26 12,2 °C 12,2 °C 94 % 1011,6 hPa 0,0 mm 4,0 km/h (1 Bft) S 188 ° 0 min 0,000 mm 0,0 UV-I 0 W/m² 11,3 °C 12,2 °C 6,4 km/h (2 Bft)
11.07.2017 05:27 12,2 °C 12,2 °C 94 % 1011,6 hPa 0,0 mm 6,0 km/h (2 Bft) W-SW 250 ° 0 min 0,000 mm 0,0 UV-I 0 W/m² 11,3 °C 12,2 °C 9,7 km/h (2 Bft)
11.07.2017 05:28 12,3 °C 12,3 °C 94 % 1011,8 hPa 0,0 mm 2,4 km/h (1 Bft) SW 216 ° 0 min 0,000 mm 0,0 UV-I 0 W/m² 11,4 °C 12,3 °C 3,2 km/h (1 Bft)
11.07.2017 05:29 12,5 °C 12,5 °C 94 % 1011,8 hPa 0,0 mm 1,5 km/h (1 Bft) SW 216 ° 0 min 0,000 mm 0,0 UV-I 0 W/m² 11,6 °C 12,5 °C 3,2 km/h (1 Bft)
11.07.2017 05:30 12,7 °C 12,7 °C 93 % 1011,8 hPa 0,0 mm 2,0 km/h (1 Bft) S-SW 194 ° 0 min 0,000 mm 0,0 UV-I 0 W/m² 11,6 °C 12,7 °C 4,8 km/h (1 Bft)
11.07.2017 05:31 12,8 °C 12,8 °C 93 % 1011,8 hPa 0,0 mm 3,9 km/h (1 Bft) S-SW 194 ° 0 min 0,000 mm 0,0 UV-I 0 W/m² 11,7 °C 12,8 °C 6,4 km/h (2 Bft)
11.07.2017 05:32 12,8 °C 12,8 °C 92 % 1011,8 hPa 0,0 mm 1,5 km/h (1 Bft) S-SW 193 ° 0 min 0,000 mm 0,0 UV-I 0 W/m² 11,5 °C 12,8 °C 3,2 km/h (1 Bft)
11.07.2017 05:33 12,9 °C 12,9 °C 92 % 1011,8 hPa 0,0 mm 4,2 km/h (1 Bft) S-SW 194 ° 0 min 0,000 mm 0,0 UV-I 0 W/m² 11,6 °C 12,9 °C 6,4 km/h (2 Bft)
11.07.2017 05:34 12,9 °C 12,9 °C 91 % 1011,9 hPa 0,0 mm 3,4 km/h (1 Bft) S 184 ° 0 min 0,000 mm 0,0 UV-I 0 W/m² 11,5 °C 12,9 °C 4,8 km/h (1 Bft)
11.07.2017 05:35 13,1 °C 13,1 °C 91 % 1011,8 hPa 0,0 mm 2,4 km/h (1 Bft) S 180 ° 0 min 0,000 mm 0,0 UV-I 0 W/m² 11,7 °C 13,1 °C 4,8 km/h (1 Bft)
11.07.2017 05:36 13,1 °C 13,1 °C 91 % 1011,8 hPa 0,0 mm 2,2 km/h (1 Bft) S-SW 205 ° 0 min 0,000 mm 0,0 UV-I 0 W/m² 11,7 °C 13,1 °C 3,2 km/h (1 Bft)
11.07.2017 05:37 13,1 °C 13,1 °C 91 % 1011,8 hPa 0,0 mm 1,3 km/h (1 Bft) S-SW 205 ° 0 min 0,000 mm 0,0 UV-I 0 W/m² 11,7 °C 13,1 °C 3,2 km/h (1 Bft)
11.07.2017 05:38 13,2 °C 13,2 °C 91 % 1011,9 hPa 0,0 mm 2,8 km/h (1 Bft) S-SW 194 ° 0 min 0,000 mm 0,0 UV-I 0 W/m² 11,8 °C 13,2 °C 4,8 km/h (1 Bft)
11.07.2017 05:39 13,1 °C 13,2 °C 91 % 1011,9 hPa 0,0 mm 1,5 km/h (1 Bft) S-SW 194 ° 0 min 0,000 mm 0,0 UV-I 0 W/m² 11,7 °C 13,1 °C 3,2 km/h (1 Bft)
11.07.2017 05:40 13,1 °C 13,1 °C 91 % 1011,9 hPa 0,0 mm 3,7 km/h (1 Bft) S 191 ° 0 min 0,000 mm 0,0 UV-I 5 W/m² 11,7 °C 13,1 °C 6,4 km/h (2 Bft)
11.07.2017 05:41 13,0 °C 13,1 °C 91 % 1011,9 hPa 0,0 mm 3,6 km/h (1 Bft) S-SW 192 ° 0 min 0,000 mm 0,0 UV-I 5 W/m² 11,6 °C 13,0 °C 4,8 km/h (1 Bft)
11.07.2017 05:42 12,9 °C 13,0 °C 91 % 1012,0 hPa 0,0 mm 0,9 km/h (0 Bft) S-SW 192 ° 0 min 0,000 mm 0,0 UV-I 5 W/m² 11,5 °C 12,9 °C 3,2 km/h (1 Bft)
11.07.2017 05:43 12,9 °C 12,9 °C 91 % 1012,0 hPa 0,0 mm 1,6 km/h (1 Bft) S-SW 194 ° 0 min 0,000 mm 0,0 UV-I 5 W/m² 11,5 °C 12,9 °C 8,0 km/h (2 Bft)
11.07.2017 05:44 12,9 °C 12,9 °C 91 % 1012,0 hPa 0,0 mm 5,3 km/h (1 Bft) S-SW 193 ° 0 min 0,000 mm 0,0 UV-I 5 W/m² 11,5 °C 12,9 °C 8,0 km/h (2 Bft)
11.07.2017 05:45 12,8 °C 12,9 °C 91 % 1012,0 hPa 0,0 mm 4,8 km/h (1 Bft) S 184 ° 0 min 0,000 mm 0,0 UV-I 5 W/m² 11,4 °C 12,8 °C 8,0 km/h (2 Bft)
11.07.2017 05:46 12,8 °C 12,8 °C 91 % 1012,0 hPa 0,0 mm 1,3 km/h (1 Bft) S 184 ° 0 min 0,000 mm 0,0 UV-I 7 W/m² 11,4 °C 12,8 °C 3,2 km/h (1 Bft)
11.07.2017 05:47 12,8 °C 12,8 °C 92 % 1012,0 hPa 0,0 mm 2,0 km/h (1 Bft) S 178 ° 0 min 0,000 mm 0,0 UV-I 7 W/m² 11,5 °C 12,8 °C 4,8 km/h (1 Bft)
11.07.2017 05:48 12,7 °C 12,8 °C 92 % 1012,0 hPa 0,0 mm 2,7 km/h (1 Bft) S 177 ° 0 min 0,000 mm 0,0 UV-I 7 W/m² 11,4 °C 12,7 °C 4,8 km/h (1 Bft)
11.07.2017 05:49 12,7 °C 12,7 °C 92 % 1012,0 hPa 0,0 mm 4,1 km/h (1 Bft) S 181 ° 0 min 0,000 mm 0,0 UV-I 9 W/m² 11,4 °C 12,7 °C 9,7 km/h (2 Bft)
11.07.2017 05:50 12,6 °C 12,7 °C 92 % 1012,0 hPa 0,0 mm 1,1 km/h (1 Bft) S 180 ° 0 min 0,000 mm 0,0 UV-I 11 W/m² 11,3 °C 12,6 °C 3,2 km/h (1 Bft)
11.07.2017 05:51 12,6 °C 12,6 °C 92 % 1012,0 hPa 0,0 mm 2,3 km/h (1 Bft) S 180 ° 0 min 0,000 mm 0,0 UV-I 12 W/m² 11,3 °C 12,6 °C 4,8 km/h (1 Bft)
11.07.2017 05:52 12,5 °C 12,6 °C 93 % 1012,1 hPa 0,0 mm 0,5 km/h (0 Bft) S 180 ° 0 min 0,000 mm 0,0 UV-I 12 W/m² 11,4 °C 12,5 °C 1,6 km/h (1 Bft)
11.07.2017 05:53 12,5 °C 12,6 °C 93 % 1012,1 hPa 0,0 mm 2,3 km/h (1 Bft) S 181 ° 0 min 0,000 mm 0,0 UV-I 12 W/m² 11,4 °C 12,5 °C 4,8 km/h (1 Bft)
11.07.2017 05:54 12,4 °C 12,5 °C 93 % 1012,0 hPa 0,0 mm 3,8 km/h (1 Bft) S 182 ° 0 min 0,000 mm 0,0 UV-I 12 W/m² 11,3 °C 12,4 °C 6,4 km/h (2 Bft)
11.07.2017 05:55 12,4 °C 12,5 °C 93 % 1012,0 hPa 0,0 mm 2,8 km/h (1 Bft) SW 219 ° 0 min 0,000 mm 0,0 UV-I 14 W/m² 11,3 °C 12,4 °C 4,8 km/h (1 Bft)
11.07.2017 05:56 12,4 °C 12,4 °C 93 % 1012,0 hPa 0,0 mm 2,6 km/h (1 Bft) S-SW 196 ° 0 min 0,000 mm 0,0 UV-I 14 W/m² 11,3 °C 12,4 °C 4,8 km/h (1 Bft)
11.07.2017 05:57 12,4 °C 12,5 °C 93 % 1012,1 hPa 0,0 mm 2,2 km/h (1 Bft) S-SW 196 ° 0 min 0,000 mm 0,0 UV-I 14 W/m² 11,3 °C 12,4 °C 4,8 km/h (1 Bft)
11.07.2017 05:58 12,4 °C 12,5 °C 93 % 1012,0 hPa 0,0 mm 2,8 km/h (1 Bft) S-SW 194 ° 0 min 0,000 mm 0,0 UV-I 14 W/m² 11,3 °C 12,4 °C 4,8 km/h (1 Bft)
11.07.2017 05:59 12,4 °C 12,5 °C 93 % 1012,0 hPa 0,0 mm 1,8 km/h (1 Bft) S 181 ° 0 min 0,000 mm 0,0 UV-I 16 W/m² 11,3 °C 12,4 °C 4,8 km/h (1 Bft)
11.07.2017 06:00 12,4 °C 12,5 °C 93 % 1012,0 hPa 0,0 mm 0,3 km/h (0 Bft) S 181 ° 0 min 0,000 mm 0,0 UV-I 16 W/m² 11,3 °C 12,4 °C 1,6 km/h (1 Bft)
11.07.2017 06:01 12,5 °C 12,5 °C 93 % 1012,0 hPa 0,0 mm 0,0 km/h (0 Bft) S 181 ° 0 min 0,000 mm 0,0 UV-I 19 W/m² 11,4 °C 12,5 °C 0,0 km/h (0 Bft)
11.07.2017 06:02 12,4 °C 12,5 °C 93 % 1012,1 hPa 0,0 mm 0,6 km/h (0 Bft) S 182 ° 0 min 0,000 mm 0,0 UV-I 21 W/m² 11,3 °C 12,4 °C 3,2 km/h (1 Bft)
11.07.2017 06:03 12,4 °C 12,4 °C 93 % 1012,1 hPa 0,0 mm 2,7 km/h (1 Bft) S 182 ° 0 min 0,000 mm 0,0 UV-I 25 W/m² 11,3 °C 12,4 °C 4,8 km/h (1 Bft)
11.07.2017 06:04 12,5 °C 12,5 °C 93 % 1012,1 hPa 0,0 mm 2,3 km/h (1 Bft) S 182 ° 0 min 0,000 mm 0,0 UV-I 28 W/m² 11,4 °C 12,5 °C 3,2 km/h (1 Bft)
11.07.2017 06:05 12,6 °C 12,6 °C 93 % 1012,2 hPa 0,0 mm 3,6 km/h (1 Bft) S 182 ° 0 min 0,000 mm 0,0 UV-I 28 W/m² 11,5 °C 12,6 °C 6,4 km/h (2 Bft)
11.07.2017 06:06 12,7 °C 12,7 °C 94 % 1012,2 hPa 0,0 mm 3,1 km/h (1 Bft) S 182 ° 0 min 0,000 mm 0,0 UV-I 25 W/m² 11,8 °C 12,7 °C 6,4 km/h (2 Bft)
11.07.2017 06:07 12,8 °C 12,8 °C 93 % 1012,2 hPa 0,0 mm 3,5 km/h (1 Bft) S 182 ° 0 min 0,000 mm 0,0 UV-I 35 W/m² 11,7 °C 12,8 °C 6,4 km/h (2 Bft)
11.07.2017 06:08 12,8 °C 12,8 °C 93 % 1012,2 hPa 0,0 mm 1,9 km/h (1 Bft) S 182 ° 0 min 0,000 mm 0,0 UV-I 37 W/m² 11,7 °C 12,8 °C 3,2 km/h (1 Bft)
11.07.2017 06:09 12,9 °C 12,9 °C 93 % 1012,2 hPa 0,0 mm 6,0 km/h (2 Bft) S 186 ° 0 min 0,000 mm 0,0 UV-I 40 W/m² 11,8 °C 12,9 °C 9,7 km/h (2 Bft)
11.07.2017 06:10 13,1 °C 13,1 °C 92 % 1012,2 hPa 0,0 mm 1,7 km/h (1 Bft) S 187 ° 0 min 0,000 mm 0,0 UV-I 40 W/m² 11,8 °C 13,1 °C 4,8 km/h (1 Bft)
11.07.2017 06:11 13,2 °C 13,2 °C 92 % 1012,2 hPa 0,0 mm 1,7 km/h (1 Bft) S 187 ° 0 min 0,000 mm 0,0 UV-I 32 W/m² 11,9 °C 13,2 °C 4,8 km/h (1 Bft)
11.07.2017 06:12 13,3 °C 13,3 °C 92 % 1012,2 hPa 0,0 mm 1,9 km/h (1 Bft) S 188 ° 0 min 0,000 mm 0,0 UV-I 21 W/m² 12,0 °C 13,3 °C 4,8 km/h (1 Bft)
11.07.2017 06:13 13,3 °C 13,3 °C 91 % 1012,2 hPa 0,0 mm 2,2 km/h (1 Bft) S 186 ° 0 min 0,000 mm 0,0 UV-I 19 W/m² 11,9 °C 13,3 °C 4,8 km/h (1 Bft)
11.07.2017 06:14 13,3 °C 13,3 °C 91 % 1012,2 hPa 0,0 mm 2,6 km/h (1 Bft) S 185 ° 0 min 0,000 mm 0,0 UV-I 19 W/m² 11,9 °C 13,3 °C 4,8 km/h (1 Bft)
11.07.2017 06:15 13,3 °C 13,3 °C 91 % 1012,2 hPa 0,0 mm 0,7 km/h (0 Bft) S 185 ° 0 min 0,000 mm 0,0 UV-I 18 W/m² 11,9 °C 13,3 °C 3,2 km/h (1 Bft)
11.07.2017 06:16 13,3 °C 13,3 °C 91 % 1012,2 hPa 0,0 mm 3,3 km/h (1 Bft) S 184 ° 0 min 0,000 mm 0,0 UV-I 21 W/m² 11,9 °C 13,3 °C 4,8 km/h (1 Bft)
11.07.2017 06:17 13,3 °C 13,3 °C 91 % 1012,2 hPa 0,0 mm 3,9 km/h (1 Bft) S 184 ° 0 min 0,000 mm 0,0 UV-I 21 W/m² 11,9 °C 13,3 °C 4,8 km/h (1 Bft)
11.07.2017 06:18 13,3 °C 13,3 °C 91 % 1012,3 hPa 0,0 mm 5,5 km/h (1 Bft) S-SW 200 ° 0 min 0,000 mm 0,0 UV-I 18 W/m² 11,9 °C 13,3 °C 9,7 km/h (2 Bft)
11.07.2017 06:19 13,3 °C 13,3 °C 91 % 1012,2 hPa 0,0 mm 5,0 km/h (1 Bft) S 175 ° 0 min 0,000 mm 0,0 UV-I 18 W/m² 11,9 °C 13,3 °C 8,0 km/h (2 Bft)
11.07.2017 06:20 13,3 °C 13,4 °C 90 % 1012,2 hPa 0,0 mm 3,6 km/h (1 Bft) S 184 ° 0 min 0,000 mm 0,0 UV-I 19 W/m² 11,7 °C 13,3 °C 4,8 km/h (1 Bft)
11.07.2017 06:21 13,3 °C 13,4 °C 91 % 1012,3 hPa 0,0 mm 1,5 km/h (1 Bft) S 184 ° 0 min 0,000 mm 0,0 UV-I 44 W/m² 11,9 °C 13,3 °C 1,6 km/h (1 Bft)
11.07.2017 06:22 13,3 °C 13,3 °C 91 % 1012,3 hPa 0,0 mm 2,1 km/h (1 Bft) S 184 ° 0 min 0,000 mm 0,0 UV-I 44 W/m² 11,9 °C 13,3 °C 4,8 km/h (1 Bft)
11.07.2017 06:23 13,2 °C 13,3 °C 91 % 1012,1 hPa 0,0 mm 2,6 km/h (1 Bft) S-SO 159 ° 0 min 0,000 mm 0,0 UV-I 46 W/m² 11,8 °C 13,2 °C 8,0 km/h (2 Bft)
11.07.2017 06:24 13,1 °C 13,2 °C 92 % 1012,2 hPa 0,0 mm 4,0 km/h (1 Bft) SO 131 ° 0 min 0,000 mm 0,0 UV-I 49 W/m² 11,8 °C 13,1 °C 4,8 km/h (1 Bft)
11.07.2017 06:25 13,1 °C 13,2 °C 92 % 1012,2 hPa 0,0 mm 2,7 km/h (1 Bft) S 172 ° 0 min 0,000 mm 0,0 UV-I 51 W/m² 11,8 °C 13,1 °C 8,0 km/h (2 Bft)
11.07.2017 06:26 13,2 °C 13,2 °C 92 % 1012,2 hPa 0,0 mm 2,0 km/h (1 Bft) S 179 ° 0 min 0,000 mm 0,0 UV-I 54 W/m² 11,9 °C 13,2 °C 6,4 km/h (2 Bft)
11.07.2017 06:27 13,2 °C 13,2 °C 92 % 1012,2 hPa 0,0 mm 1,6 km/h (1 Bft) S-SO 166 ° 0 min 0,000 mm 0,0 UV-I 56 W/m² 11,9 °C 13,2 °C 4,8 km/h (1 Bft)
11.07.2017 06:28 13,2 °C 13,3 °C 91 % 1012,2 hPa 0,0 mm 1,6 km/h (1 Bft) S 172 ° 0 min 0,000 mm 0,0 UV-I 58 W/m² 11,8 °C 13,2 °C 3,2 km/h (1 Bft)
11.07.2017 06:29 13,3 °C 13,3 °C 91 % 1012,2 hPa 0,0 mm 0,7 km/h (0 Bft) S 172 ° 0 min 0,000 mm 0,0 UV-I 60 W/m² 11,9 °C 13,3 °C 3,2 km/h (1 Bft)
11.07.2017 06:30 13,2 °C 13,3 °C 91 % 1012,2 hPa 0,0 mm 0,0 km/h (0 Bft) S 172 ° 0 min 0,000 mm 0,0 UV-I 65 W/m² 11,8 °C 13,2 °C 0,0 km/h (0 Bft)
11.07.2017 06:31 13,3 °C 13,3 °C 91 % 1012,2 hPa 0,0 mm 2,2 km/h (1 Bft) S 172 ° 0 min 0,000 mm 0,0 UV-I 67 W/m² 11,9 °C 13,3 °C 4,8 km/h (1 Bft)
11.07.2017 06:32 13,3 °C 13,3 °C 91 % 1012,2 hPa 0,0 mm 0,2 km/h (0 Bft) S 172 ° 0 min 0,000 mm 0,0 UV-I 69 W/m² 11,9 °C 13,3 °C 1,6 km/h (1 Bft)
11.07.2017 06:33 13,4 °C 13,4 °C 91 % 1012,2 hPa 0,0 mm 1,3 km/h (1 Bft) S 172 ° 0 min 0,000 mm 0,0 UV-I 70 W/m² 12,0 °C 13,4 °C 3,2 km/h (1 Bft)
11.07.2017 06:34 13,6 °C 13,6 °C 90 % 1012,2 hPa 0,0 mm 1,1 km/h (1 Bft) S 172 ° 0 min 0,000 mm 0,0 UV-I 72 W/m² 12,0 °C 13,6 °C 3,2 km/h (1 Bft)
11.07.2017 06:35 13,7 °C 13,7 °C 90 % 1012,2 hPa 0,0 mm 0,0 km/h (0 Bft) S 172 ° 0 min 0,000 mm 0,0 UV-I 76 W/m² 12,1 °C 13,7 °C 0,0 km/h (0 Bft)
11.07.2017 06:36 13,7 °C 13,7 °C 90 % 1012,2 hPa 0,0 mm 0,0 km/h (0 Bft) S 172 ° 0 min 0,000 mm 0,0 UV-I 79 W/m² 12,1 °C 13,7 °C 0,0 km/h (0 Bft)
11.07.2017 06:37 13,7 °C 13,7 °C 90 % 1012,2 hPa 0,0 mm 0,9 km/h (0 Bft) S 172 ° 0 min 0,000 mm 0,0 UV-I 81 W/m² 12,1 °C 13,7 °C 1,6 km/h (1 Bft)
11.07.2017 06:38 13,7 °C 13,7 °C 91 % 1012,2 hPa 0,0 mm 0,6 km/h (0 Bft) S 172 ° 0 min 0,000 mm 0,0 UV-I 83 W/m² 12,3 °C 13,7 °C 1,6 km/h (1 Bft)
11.07.2017 06:39 13,7 °C 13,7 °C 91 % 1012,2 hPa 0,0 mm 0,0 km/h (0 Bft) S 172 ° 0 min 0,000 mm 0,0 UV-I 84 W/m² 12,3 °C 13,7 °C 0,0 km/h (0 Bft)
11.07.2017 06:40 13,7 °C 13,7 °C 91 % 1012,3 hPa 0,0 mm 0,3 km/h (0 Bft) S 172 ° 0 min 0,000 mm 0,0 UV-I 88 W/m² 12,3 °C 13,7 °C 1,6 km/h (1 Bft)
11.07.2017 06:41 13,8 °C 13,8 °C 91 % 1012,3 hPa 0,0 mm 1,0 km/h (0 Bft) SW 231 ° 0 min 0,000 mm 0,0 UV-I 90 W/m² 12,4 °C 13,8 °C 3,2 km/h (1 Bft)
11.07.2017 06:42 13,9 °C 13,9 °C 90 % 1012,3 hPa 0,0 mm 2,6 km/h (1 Bft) W-SW 258 ° 0 min 0,000 mm 0,0 UV-I 93 W/m² 12,3 °C 13,9 °C 4,8 km/h (1 Bft)
11.07.2017 06:43 14,0 °C 14,0 °C 90 % 1012,3 hPa 0,0 mm 0,3 km/h (0 Bft) W-SW 258 ° 0 min 0,000 mm 0,0 UV-I 95 W/m² 12,4 °C 14,0 °C 1,6 km/h (1 Bft)
11.07.2017 06:44 14,2 °C 14,2 °C 89 % 1012,3 hPa 0,0 mm 1,0 km/h (0 Bft) W-SW 244 ° 0 min 0,000 mm 0,0 UV-I 98 W/m² 12,4 °C 14,2 °C 3,2 km/h (1 Bft)
11.07.2017 06:45 14,3 °C 14,3 °C 88 % 1012,3 hPa 0,0 mm 1,1 km/h (1 Bft) SW 236 ° 0 min 0,000 mm 0,0 UV-I 102 W/m² 12,3 °C 14,3 °C 3,2 km/h (1 Bft)
11.07.2017 06:46 14,3 °C 14,3 °C 88 % 1012,3 hPa 0,0 mm 0,9 km/h (0 Bft) SW 236 ° 0 min 0,000 mm 0,0 UV-I 105 W/m² 12,3 °C 14,3 °C 1,6 km/h (1 Bft)
11.07.2017 06:47 14,3 °C 14,3 °C 88 % 1012,3 hPa 0,0 mm 2,0 km/h (1 Bft) SW 235 ° 0 min 0,000 mm 0,0 UV-I 109 W/m² 12,3 °C 14,3 °C 3,2 km/h (1 Bft)
11.07.2017 06:48 14,2 °C 14,3 °C 89 % 1012,3 hPa 0,0 mm 0,7 km/h (0 Bft) SW 235 ° 0 min 0,000 mm 0,0 UV-I 113 W/m² 12,4 °C 14,2 °C 3,2 km/h (1 Bft)
11.07.2017 06:49 14,3 °C 14,3 °C 89 % 1012,4 hPa 0,0 mm 0,1 km/h (0 Bft) SW 235 ° 0 min 0,000 mm 0,5 UV-I 114 W/m² 12,5 °C 14,3 °C 1,6 km/h (1 Bft)
11.07.2017 06:50 14,4 °C 14,4 °C 89 % 1012,4 hPa 0,0 mm 2,0 km/h (1 Bft) SW 235 ° 0 min 0,000 mm 0,5 UV-I 116 W/m² 12,6 °C 14,4 °C 3,2 km/h (1 Bft)
11.07.2017 06:51 14,5 °C 14,5 °C 88 % 1012,4 hPa 0,0 mm 0,7 km/h (0 Bft) SW 235 ° 0 min 0,000 mm 0,5 UV-I 118 W/m² 12,5 °C 14,5 °C 1,6 km/h (1 Bft)
11.07.2017 06:52 14,6 °C 14,6 °C 88 % 1012,4 hPa 0,0 mm 1,3 km/h (1 Bft) SW 235 ° 0 min 0,000 mm 0,5 UV-I 120 W/m² 12,6 °C 14,6 °C 3,2 km/h (1 Bft)
11.07.2017 06:53 14,7 °C 14,7 °C 88 % 1012,4 hPa 0,0 mm 1,1 km/h (1 Bft) SW 227 ° 0 min 0,000 mm 0,5 UV-I 125 W/m² 12,7 °C 14,7 °C 3,2 km/h (1 Bft)
11.07.2017 06:54 14,7 °C 14,7 °C 87 % 1012,3 hPa 0,0 mm 0,6 km/h (0 Bft) SW 227 ° 0 min 0,000 mm 0,5 UV-I 128 W/m² 12,6 °C 14,7 °C 1,6 km/h (1 Bft)
11.07.2017 06:55 14,7 °C 14,7 °C 87 % 1012,4 hPa 0,0 mm 0,4 km/h (0 Bft) W-SW 248 ° 0 min 0,000 mm 0,5 UV-I 128 W/m² 12,6 °C 14,7 °C 3,2 km/h (1 Bft)
11.07.2017 06:56 14,8 °C 14,8 °C 88 % 1012,3 hPa 0,0 mm 0,5 km/h (0 Bft) W-SW 250 ° 0 min 0,000 mm 0,5 UV-I 128 W/m² 12,8 °C 14,8 °C 3,2 km/h (1 Bft)
11.07.2017 06:57 14,8 °C 14,8 °C 88 % 1012,3 hPa 0,0 mm 1,0 km/h (0 Bft) W-SW 250 ° 0 min 0,000 mm 0,5 UV-I 134 W/m² 12,8 °C 14,8 °C 1,6 km/h (1 Bft)
11.07.2017 06:58 14,8 °C 14,8 °C 88 % 1012,3 hPa 0,0 mm 2,3 km/h (1 Bft) S-SW 209 ° 0 min 0,000 mm 0,5 UV-I 137 W/m² 12,8 °C 14,8 °C 4,8 km/h (1 Bft)
11.07.2017 06:59 14,9 °C 14,9 °C 88 % 1012,3 hPa 0,0 mm 1,4 km/h (1 Bft) S-SW 198 ° 0 min 0,000 mm 0,5 UV-I 144 W/m² 12,9 °C 14,9 °C 4,8 km/h (1 Bft)
11.07.2017 07:00 14,9 °C 14,9 °C 88 % 1012,4 hPa 0,0 mm 2,9 km/h (1 Bft) W-SW 245 ° 0 min 0,000 mm 0,6 UV-I 149 W/m² 12,9 °C 14,9 °C 4,8 km/h (1 Bft)
11.07.2017 07:01 15,0 °C 15,0 °C 88 % 1012,4 hPa 0,0 mm 2,0 km/h (1 Bft) SW 236 ° 0 min 0,026 mm 0,6 UV-I 158 W/m² 13,0 °C 15,0 °C 3,2 km/h (1 Bft)
11.07.2017 07:02 15,1 °C 15,1 °C 87 % 1012,5 hPa 0,0 mm 3,4 km/h (1 Bft) W-SW 248 ° 0 min 0,000 mm 0,6 UV-I 165 W/m² 13,0 °C 15,1 °C 6,4 km/h (2 Bft)
11.07.2017 07:03 15,1 °C 15,1 °C 87 % 1012,5 hPa 0,0 mm 4,6 km/h (1 Bft) W 262 ° 0 min 0,000 mm 0,6 UV-I 174 W/m² 13,0 °C 15,1 °C 6,4 km/h (2 Bft)
11.07.2017 07:04 15,2 °C 15,2 °C 87 % 1012,4 hPa 0,0 mm 4,1 km/h (1 Bft) W-SW 245 ° 0 min 0,000 mm 0,6 UV-I 179 W/m² 13,0 °C 15,2 °C 8,0 km/h (2 Bft)
11.07.2017 07:05 15,2 °C 15,2 °C 88 % 1012,5 hPa 0,0 mm 3,8 km/h (1 Bft) W-SW 248 ° 0 min 0,000 mm 0,6 UV-I 176 W/m² 13,2 °C 15,2 °C 6,4 km/h (2 Bft)
11.07.2017 07:06 15,2 °C 15,2 °C 87 % 1012,5 hPa 0,0 mm 4,2 km/h (1 Bft) W-SW 253 ° 0 min 0,000 mm 0,6 UV-I 178 W/m² 13,0 °C 15,2 °C 8,0 km/h (2 Bft)
11.07.2017 07:07 15,2 °C 15,2 °C 87 % 1012,5 hPa 0,0 mm 4,8 km/h (1 Bft) W 263 ° 0 min 0,000 mm 0,6 UV-I 183 W/m² 13,0 °C 15,2 °C 11,3 km/h (2 Bft)
11.07.2017 07:08 15,4 °C 15,4 °C 87 % 1012,5 hPa 0,0 mm 3,9 km/h (1 Bft) W 263 ° 0 min 0,000 mm 0,6 UV-I 185 W/m² 13,2 °C 15,4 °C 6,4 km/h (2 Bft)
11.07.2017 07:09 15,5 °C 15,5 °C 88 % 1012,5 hPa 0,0 mm 3,2 km/h (1 Bft) W 265 ° 0 min 0,000 mm 0,6 UV-I 181 W/m² 13,5 °C 15,5 °C 6,4 km/h (2 Bft)
11.07.2017 07:10 15,6 °C 15,6 °C 87 % 1012,5 hPa 0,0 mm 4,8 km/h (1 Bft) W 261 ° 0 min 0,000 mm 0,7 UV-I 178 W/m² 13,4 °C 15,6 °C 8,0 km/h (2 Bft)
11.07.2017 07:11 15,7 °C 15,7 °C 86 % 1012,5 hPa 0,0 mm 4,0 km/h (1 Bft) W 263 ° 0 min 0,000 mm 0,7 UV-I 139 W/m² 13,4 °C 15,7 °C 6,4 km/h (2 Bft)
11.07.2017 07:12 15,8 °C 15,8 °C 87 % 1012,5 hPa 0,0 mm 3,2 km/h (1 Bft) W-SW 251 ° 0 min 0,000 mm 0,6 UV-I 67 W/m² 13,6 °C 15,8 °C 4,8 km/h (1 Bft)
11.07.2017 07:13 15,8 °C 15,8 °C 86 % 1012,5 hPa 0,0 mm 3,3 km/h (1 Bft) W 260 ° 0 min 0,000 mm 0,6 UV-I 69 W/m² 13,5 °C 15,8 °C 4,8 km/h (1 Bft)
11.07.2017 07:14 15,8 °C 15,8 °C 86 % 1012,5 hPa 0,0 mm 1,9 km/h (1 Bft) W 260 ° 0 min 0,000 mm 0,7 UV-I 69 W/m² 13,5 °C 15,8 °C 3,2 km/h (1 Bft)
11.07.2017 07:15 15,8 °C 15,8 °C 88 % 1012,5 hPa 0,0 mm 4,4 km/h (1 Bft) W-SW 244 ° 0 min 0,000 mm 0,8 UV-I 181 W/m² 13,8 °C 15,8 °C 6,4 km/h (2 Bft)
11.07.2017 07:16 15,9 °C 15,9 °C 86 % 1012,5 hPa 0,0 mm 2,8 km/h (1 Bft) SW 235 ° 0 min 0,000 mm 0,8 UV-I 156 W/m² 13,6 °C 15,9 °C 6,4 km/h (2 Bft)
11.07.2017 07:17 15,9 °C 15,9 °C 85 % 1012,5 hPa 0,0 mm 4,5 km/h (1 Bft) W 268 ° 0 min 0,000 mm 0,8 UV-I 174 W/m² 13,4 °C 15,9 °C 6,4 km/h (2 Bft)
11.07.2017 07:18 15,9 °C 15,9 °C 87 % 1012,5 hPa 0,0 mm 4,0 km/h (1 Bft) W 259 ° 0 min 0,000 mm 0,8 UV-I 176 W/m² 13,7 °C 15,9 °C 4,8 km/h (1 Bft)
11.07.2017 07:19 16,1 °C 16,1 °C 86 % 1012,5 hPa 0,0 mm 4,1 km/h (1 Bft) W-SW 244 ° 0 min 0,000 mm 0,8 UV-I 174 W/m² 13,8 °C 16,1 °C 6,4 km/h (2 Bft)
11.07.2017 07:20 16,1 °C 16,1 °C 87 % 1012,4 hPa 0,0 mm 5,0 km/h (1 Bft) W-SW 254 ° 0 min 0,000 mm 0,8 UV-I 178 W/m² 13,9 °C 16,1 °C 6,4 km/h (2 Bft)
11.07.2017 07:21 16,2 °C 16,2 °C 87 % 1012,5 hPa 0,0 mm 5,4 km/h (1 Bft) W-SW 253 ° 0 min 0,000 mm 0,9 UV-I 181 W/m² 14,0 °C 16,2 °C 9,7 km/h (2 Bft)
11.07.2017 07:22 16,2 °C 16,2 °C 86 % 1012,5 hPa 0,0 mm 5,1 km/h (1 Bft) W-SW 246 ° 0 min 0,000 mm 0,9 UV-I 186 W/m² 13,9 °C 16,2 °C 8,0 km/h (2 Bft)
11.07.2017 07:23 16,2 °C 16,2 °C 85 % 1012,5 hPa 0,0 mm 5,5 km/h (1 Bft) W 261 ° 0 min 0,000 mm 0,9 UV-I 188 W/m² 13,7 °C 16,2 °C 6,4 km/h (2 Bft)
11.07.2017 07:24 16,2 °C 16,2 °C 85 % 1012,5 hPa 0,0 mm 6,2 km/h (2 Bft) W 262 ° 0 min 0,000 mm 0,9 UV-I 195 W/m² 13,7 °C 16,2 °C 9,7 km/h (2 Bft)
11.07.2017 07:25 16,3 °C 16,3 °C 87 % 1012,5 hPa 0,0 mm 5,7 km/h (1 Bft) W 279 ° 0 min 0,000 mm 0,9 UV-I 148 W/m² 14,1 °C 16,3 °C 9,7 km/h (2 Bft)
11.07.2017 07:26 16,3 °C 16,3 °C 85 % 1012,5 hPa 0,0 mm 4,3 km/h (1 Bft) SW 225 ° 0 min 0,000 mm 0,9 UV-I 202 W/m² 13,8 °C 16,3 °C 6,4 km/h (2 Bft)
11.07.2017 07:27 16,3 °C 16,3 °C 85 % 1012,5 hPa 0,0 mm 5,0 km/h (1 Bft) W 263 ° 0 min 0,000 mm 1,0 UV-I 214 W/m² 13,8 °C 16,3 °C 9,7 km/h (2 Bft)
11.07.2017 07:28 16,2 °C 16,3 °C 85 % 1012,5 hPa 0,0 mm 4,4 km/h (1 Bft) W 267 ° 0 min 0,000 mm 0,8 UV-I 214 W/m² 13,7 °C 16,2 °C 9,7 km/h (2 Bft)
11.07.2017 07:29 16,1 °C 16,2 °C 84 % 1012,6 hPa 0,0 mm 5,4 km/h (1 Bft) W-NW 282 ° 0 min 0,000 mm 0,9 UV-I 227 W/m² 13,4 °C 16,1 °C 11,3 km/h (2 Bft)
11.07.2017 07:30 16,2 °C 16,2 °C 85 % 1012,6 hPa 0,0 mm 2,9 km/h (1 Bft) W 273 ° 0 min 0,000 mm 1,0 UV-I 232 W/m² 13,7 °C 16,2 °C 4,8 km/h (1 Bft)
11.07.2017 07:31 16,2 °C 16,2 °C 86 % 1012,7 hPa 0,0 mm 3,9 km/h (1 Bft) W 274 ° 0 min 0,000 mm 1,0 UV-I 232 W/m² 13,9 °C 16,2 °C 4,8 km/h (1 Bft)
11.07.2017 07:32 16,2 °C 16,2 °C 86 % 1012,7 hPa 0,0 mm 3,1 km/h (1 Bft) W-NW 288 ° 0 min 0,000 mm 1,0 UV-I 232 W/m² 13,9 °C 16,2 °C 4,8 km/h (1 Bft)
11.07.2017 07:33 16,2 °C 16,2 °C 85 % 1012,6 hPa 0,0 mm 2,7 km/h (1 Bft) W 275 ° 0 min 0,000 mm 1,0 UV-I 239 W/m² 13,7 °C 16,2 °C 4,8 km/h (1 Bft)
11.07.2017 07:34 16,2 °C 16,2 °C 86 % 1012,6 hPa 0,0 mm 3,9 km/h (1 Bft) W 263 ° 0 min 0,000 mm 1,0 UV-I 243 W/m² 13,9 °C 16,2 °C 6,4 km/h (2 Bft)
11.07.2017 07:35 16,2 °C 16,2 °C 85 % 1012,6 hPa 0,0 mm 6,4 km/h (2 Bft) W 280 ° 0 min 0,000 mm 1,1 UV-I 248 W/m² 13,7 °C 16,2 °C 9,7 km/h (2 Bft)
11.07.2017 07:36 16,2 °C 16,2 °C 85 % 1012,7 hPa 0,0 mm 4,8 km/h (1 Bft) W 261 ° 0 min 0,000 mm 1,1 UV-I 248 W/m² 13,7 °C 16,2 °C 9,7 km/h (2 Bft)
11.07.2017 07:37 16,3 °C 16,3 °C 87 % 1012,6 hPa 0,0 mm 5,5 km/h (1 Bft) W 260 ° 0 min 0,000 mm 1,1 UV-I 229 W/m² 14,1 °C 16,3 °C 6,4 km/h (2 Bft)
11.07.2017 07:38 16,3 °C 16,3 °C 85 % 1012,7 hPa 0,0 mm 4,8 km/h (1 Bft) W 266 ° 0 min 0,000 mm 1,1 UV-I 244 W/m² 13,8 °C 16,3 °C 6,4 km/h (2 Bft)
11.07.2017 07:39 16,3 °C 16,3 °C 86 % 1012,7 hPa 0,0 mm 3,9 km/h (1 Bft) W 267 ° 0 min 0,000 mm 1,2 UV-I 255 W/m² 14,0 °C 16,3 °C 6,4 km/h (2 Bft)
11.07.2017 07:40 16,3 °C 16,3 °C 87 % 1012,7 hPa 0,0 mm 3,5 km/h (1 Bft) W 261 ° 0 min 0,000 mm 1,2 UV-I 248 W/m² 14,1 °C 16,3 °C 4,8 km/h (1 Bft)
11.07.2017 07:41 16,4 °C 16,4 °C 86 % 1012,6 hPa 0,0 mm 3,6 km/h (1 Bft) W 261 ° 0 min 0,000 mm 0,9 UV-I 199 W/m² 14,1 °C 16,4 °C 4,8 km/h (1 Bft)
11.07.2017 07:42 16,4 °C 16,5 °C 87 % 1012,6 hPa 0,0 mm 6,5 km/h (2 Bft) W 266 ° 0 min 0,000 mm 1,2 UV-I 239 W/m² 14,2 °C 16,4 °C 9,7 km/h (2 Bft)
11.07.2017 07:43 16,6 °C 16,6 °C 86 % 1012,7 hPa 0,0 mm 5,6 km/h (1 Bft) W 264 ° 0 min 0,000 mm 1,2 UV-I 236 W/m² 14,2 °C 16,6 °C 9,7 km/h (2 Bft)
11.07.2017 07:44 16,6 °C 16,6 °C 85 % 1012,6 hPa 0,0 mm 3,2 km/h (1 Bft) W-SW 257 ° 0 min 0,000 mm 1,3 UV-I 237 W/m² 14,1 °C 16,6 °C 4,8 km/h (1 Bft)
11.07.2017 07:45 16,6 °C 16,6 °C 86 % 1012,6 hPa 0,0 mm 1,7 km/h (1 Bft) W-SW 257 ° 0 min 0,000 mm 1,3 UV-I 237 W/m² 14,2 °C 16,6 °C 3,2 km/h (1 Bft)
11.07.2017 07:46 16,7 °C 16,7 °C 86 % 1012,6 hPa 0,0 mm 2,1 km/h (1 Bft) W-SW 257 ° 0 min 0,000 mm 1,3 UV-I 236 W/m² 14,3 °C 16,7 °C 3,2 km/h (1 Bft)
11.07.2017 07:47 16,7 °C 16,7 °C 85 % 1012,6 hPa 0,0 mm 5,5 km/h (1 Bft) W-SW 239 ° 0 min 0,000 mm 1,3 UV-I 234 W/m² 14,2 °C 16,7 °C 6,4 km/h (2 Bft)
11.07.2017 07:48 16,8 °C 16,8 °C 84 % 1012,6 hPa 0,0 mm 5,2 km/h (1 Bft) W 262 ° 0 min 0,000 mm 1,3 UV-I 236 W/m² 14,1 °C 16,8 °C 11,3 km/h (2 Bft)
11.07.2017 07:49 16,8 °C 16,8 °C 85 % 1012,6 hPa 0,0 mm 3,2 km/h (1 Bft) W-SW 252 ° 0 min 0,000 mm 1,3 UV-I 234 W/m² 14,3 °C 16,8 °C 9,7 km/h (2 Bft)
11.07.2017 07:50 16,8 °C 16,8 °C 82 % 1012,7 hPa 0,0 mm 1,6 km/h (1 Bft) W-SW 252 ° 0 min 0,000 mm 1,4 UV-I 234 W/m² 13,7 °C 16,8 °C 4,8 km/h (1 Bft)
11.07.2017 07:51 16,9 °C 16,9 °C 84 % 1012,6 hPa 0,0 mm 4,8 km/h (1 Bft) W-NW 287 ° 0 min 0,000 mm 1,4 UV-I 234 W/m² 14,2 °C 16,9 °C 6,4 km/h (2 Bft)
11.07.2017 07:52 16,9 °C 16,9 °C 84 % 1012,7 hPa 0,0 mm 3,2 km/h (1 Bft) W 265 ° 0 min 0,000 mm 1,4 UV-I 229 W/m² 14,2 °C 16,9 °C 6,4 km/h (2 Bft)
11.07.2017 07:53 16,9 °C 16,9 °C 84 % 1012,6 hPa 0,0 mm 5,0 km/h (1 Bft) W 261 ° 0 min 0,000 mm 1,3 UV-I 248 W/m² 14,2 °C 16,9 °C 6,4 km/h (2 Bft)
11.07.2017 07:54 16,8 °C 16,9 °C 82 % 1012,6 hPa 0,0 mm 3,3 km/h (1 Bft) W 264 ° 0 min 0,000 mm 1,0 UV-I 248 W/m² 13,7 °C 16,8 °C 4,8 km/h (1 Bft)
11.07.2017 07:55 16,7 °C 16,8 °C 83 % 1012,6 hPa 0,0 mm 3,6 km/h (1 Bft) W 275 ° 0 min 0,000 mm 1,0 UV-I 121 W/m² 13,8 °C 16,7 °C 4,8 km/h (1 Bft)
11.07.2017 07:56 16,6 °C 16,7 °C 84 % 1012,6 hPa 0,0 mm 4,0 km/h (1 Bft) W 268 ° 0 min 0,000 mm 0,0 UV-I 51 W/m² 13,9 °C 16,6 °C 6,4 km/h (2 Bft)
11.07.2017 07:57 16,4 °C 16,6 °C 84 % 1012,6 hPa 0,0 mm 2,8 km/h (1 Bft) W 271 ° 0 min 0,000 mm 1,1 UV-I 69 W/m² 13,7 °C 16,4 °C 4,8 km/h (1 Bft)
11.07.2017 07:58 16,2 °C 16,4 °C 84 % 1012,6 hPa 0,0 mm 2,5 km/h (1 Bft) W 271 ° 0 min 0,000 mm 1,3 UV-I 142 W/m² 13,5 °C 16,2 °C 4,8 km/h (1 Bft)
11.07.2017 07:59 16,1 °C 16,2 °C 86 % 1012,7 hPa 0,0 mm 1,9 km/h (1 Bft) W 270 ° 0 min 0,000 mm 1,1 UV-I 72 W/m² 13,8 °C 16,1 °C 3,2 km/h (1 Bft)
11.07.2017 08:00 15,9 °C 16,1 °C 87 % 1012,6 hPa 0,0 mm 1,7 km/h (1 Bft) W 271 ° 0 min 0,101 mm 1,0 UV-I 62 W/m² 13,7 °C 15,9 °C 3,2 km/h (1 Bft)
11.07.2017 08:01 15,8 °C 15,9 °C 86 % 1012,6 hPa 0,0 mm 0,6 km/h (0 Bft) W 271 ° 0 min 0,000 mm 1,1 UV-I 62 W/m² 13,5 °C 15,8 °C 3,2 km/h (1 Bft)
11.07.2017 08:02 15,7 °C 15,8 °C 87 % 1012,7 hPa 0,0 mm 0,3 km/h (0 Bft) W 271 ° 0 min 0,000 mm 1,1 UV-I 62 W/m² 13,5 °C 15,7 °C 1,6 km/h (1 Bft)
11.07.2017 08:03 15,6 °C 15,7 °C 87 % 1012,7 hPa 0,0 mm 2,1 km/h (1 Bft) SW 216 ° 0 min 0,000 mm 1,2 UV-I 70 W/m² 13,4 °C 15,6 °C 4,8 km/h (1 Bft)
11.07.2017 08:04 15,4 °C 15,6 °C 87 % 1012,7 hPa 0,0 mm 3,2 km/h (1 Bft) SW 215 ° 0 min 0,000 mm 1,1 UV-I 70 W/m² 13,2 °C 15,4 °C 4,8 km/h (1 Bft)
11.07.2017 08:05 15,4 °C 15,4 °C 88 % 1012,7 hPa 0,0 mm 2,0 km/h (1 Bft) SW 215 ° 0 min 0,000 mm 1,5 UV-I 162 W/m² 13,4 °C 15,4 °C 3,2 km/h (1 Bft)
11.07.2017 08:06 15,3 °C 15,4 °C 89 % 1012,7 hPa 0,0 mm 0,9 km/h (0 Bft) S 171 ° 0 min 0,000 mm 1,1 UV-I 162 W/m² 13,5 °C 15,3 °C 1,6 km/h (1 Bft)
11.07.2017 08:07 15,4 °C 15,4 °C 89 % 1012,7 hPa 0,0 mm 1,9 km/h (1 Bft) S 190 ° 0 min 0,000 mm 1,7 UV-I 162 W/m² 13,6 °C 15,4 °C 4,8 km/h (1 Bft)
11.07.2017 08:08 15,4 °C 15,4 °C 89 % 1012,7 hPa 0,0 mm 0,3 km/h (0 Bft) S 190 ° 0 min 0,000 mm 1,7 UV-I 243 W/m² 13,6 °C 15,4 °C 1,6 km/h (1 Bft)
11.07.2017 08:09 15,5 °C 15,5 °C 90 % 1012,8 hPa 0,0 mm 0,0 km/h (0 Bft) S 190 ° 0 min 0,000 mm 1,7 UV-I 248 W/m² 13,9 °C 15,5 °C 0,0 km/h (0 Bft)
11.07.2017 08:10 15,6 °C 15,6 °C 90 % 1012,7 hPa 0,0 mm 0,3 km/h (0 Bft) S 190 ° 0 min 0,000 mm 1,8 UV-I 250 W/m² 14,0 °C 15,6 °C 1,6 km/h (1 Bft)
11.07.2017 08:11 15,7 °C 15,7 °C 88 % 1012,7 hPa 0,0 mm 1,1 km/h (1 Bft) S 188 ° 0 min 0,000 mm 1,8 UV-I 251 W/m² 13,7 °C 15,7 °C 3,2 km/h (1 Bft)
11.07.2017 08:12 16,1 °C 16,1 °C 89 % 1012,7 hPa 0,0 mm 0,5 km/h (0 Bft) S 188 ° 0 min 0,000 mm 1,8 UV-I 251 W/m² 14,3 °C 16,1 °C 1,6 km/h (1 Bft)
11.07.2017 08:13 16,3 °C 16,3 °C 88 % 1012,7 hPa 0,0 mm 0,1 km/h (0 Bft) S 189 ° 0 min 0,000 mm 1,8 UV-I 257 W/m² 14,3 °C 16,3 °C 1,6 km/h (1 Bft)
11.07.2017 08:14 16,4 °C 16,4 °C 88 % 1012,7 hPa 0,0 mm 0,0 km/h (0 Bft) S 189 ° 0 min 0,000 mm 1,9 UV-I 264 W/m² 14,4 °C 16,4 °C 0,0 km/h (0 Bft)
11.07.2017 08:15 16,4 °C 16,4 °C 86 % 1012,7 hPa 0,0 mm 0,0 km/h (0 Bft) S 189 ° 0 min 0,000 mm 1,9 UV-I 278 W/m² 14,1 °C 16,4 °C 0,0 km/h (0 Bft)
11.07.2017 08:16 16,6 °C 16,6 °C 85 % 1012,7 hPa 0,0 mm 0,0 km/h (0 Bft) S 189 ° 0 min 0,000 mm 1,9 UV-I 285 W/m² 14,1 °C 16,6 °C 0,0 km/h (0 Bft)
11.07.2017 08:17 16,8 °C 16,8 °C 86 % 1012,7 hPa 0,0 mm 0,0 km/h (0 Bft) S 189 ° 1 min 0,000 mm 1,9 UV-I 292 W/m² 14,4 °C 16,8 °C 0,0 km/h (0 Bft)
11.07.2017 08:18 16,9 °C 16,9 °C 85 % 1012,7 hPa 0,0 mm 0,2 km/h (0 Bft) S 179 ° 1 min 0,000 mm 2,0 UV-I 302 W/m² 14,4 °C 16,9 °C 1,6 km/h (1 Bft)
11.07.2017 08:19 17,1 °C 17,1 °C 82 % 1012,7 hPa 0,0 mm 2,3 km/h (1 Bft) S-SW 192 ° 1 min 0,000 mm 2,0 UV-I 313 W/m² 14,0 °C 17,1 °C 6,4 km/h (2 Bft)
11.07.2017 08:20 17,2 °C 17,2 °C 82 % 1012,7 hPa 0,0 mm 1,3 km/h (1 Bft) S-SW 192 ° 1 min 0,000 mm 2,0 UV-I 332 W/m² 14,1 °C 17,2 °C 4,8 km/h (1 Bft)
11.07.2017 08:21 17,3 °C 17,3 °C 82 % 1012,7 hPa 0,0 mm 1,0 km/h (0 Bft) S 183 ° 1 min 0,000 mm 2,1 UV-I 371 W/m² 14,2 °C 17,3 °C 3,2 km/h (1 Bft)
11.07.2017 08:22 17,3 °C 17,4 °C 81 % 1012,7 hPa 0,0 mm 0,9 km/h (0 Bft) S 183 ° 1 min 0,000 mm 2,0 UV-I 371 W/m² 14,0 °C 17,3 °C 3,2 km/h (1 Bft)
11.07.2017 08:23 17,4 °C 17,4 °C 81 % 1012,7 hPa 0,0 mm 0,7 km/h (0 Bft) S 184 ° 0 min 0,000 mm 1,4 UV-I 200 W/m² 14,1 °C 17,4 °C 3,2 km/h (1 Bft)
11.07.2017 08:24 17,5 °C 17,5 °C 82 % 1012,7 hPa 0,0 mm 0,8 km/h (0 Bft) W-SW 239 ° 0 min 0,000 mm 1,8 UV-I 200 W/m² 14,4 °C 17,5 °C 1,6 km/h (1 Bft)
11.07.2017 08:25 17,6 °C 17,6 °C 80 % 1012,7 hPa 0,0 mm 0,1 km/h (0 Bft) W-SW 239 ° 0 min 0,000 mm 2,1 UV-I 200 W/m² 14,1 °C 17,6 °C 1,6 km/h (1 Bft)
11.07.2017 08:26 17,6 °C 17,6 °C 83 % 1012,7 hPa 0,0 mm 3,8 km/h (1 Bft) W-SW 250 ° 1 min 0,000 mm 2,1 UV-I 350 W/m² 14,7 °C 17,6 °C 6,4 km/h (2 Bft)
11.07.2017 08:27 17,7 °C 17,7 °C 83 % 1012,7 hPa 0,0 mm 4,0 km/h (1 Bft) W 266 ° 1 min 0,000 mm 2,2 UV-I 364 W/m² 14,8 °C 17,7 °C 6,4 km/h (2 Bft)
11.07.2017 08:28 17,8 °C 17,8 °C 81 % 1012,8 hPa 0,0 mm 0,8 km/h (0 Bft) W 267 ° 1 min 0,000 mm 2,2 UV-I 371 W/m² 14,5 °C 17,8 °C 3,2 km/h (1 Bft)
11.07.2017 08:29 17,8 °C 17,8 °C 82 % 1012,7 hPa 0,0 mm 0,4 km/h (0 Bft) W 267 ° 1 min 0,000 mm 2,2 UV-I 380 W/m² 14,7 °C 17,8 °C 1,6 km/h (1 Bft)
11.07.2017 08:30 17,8 °C 17,8 °C 84 % 1012,7 hPa 0,0 mm 1,5 km/h (1 Bft) W 281 ° 1 min 0,000 mm 2,2 UV-I 381 W/m² 15,1 °C 17,8 °C 3,2 km/h (1 Bft)
11.07.2017 08:31 17,8 °C 17,8 °C 82 % 1012,8 hPa 0,0 mm 2,5 km/h (1 Bft) W-NW 296 ° 1 min 0,000 mm 2,2 UV-I 381 W/m² 14,7 °C 17,8 °C 3,2 km/h (1 Bft)
11.07.2017 08:32 17,9 °C 17,9 °C 79 % 1012,8 hPa 0,0 mm 0,1 km/h (0 Bft) W-NW 296 ° 1 min 0,000 mm 2,3 UV-I 387 W/m² 14,2 °C 17,9 °C 1,6 km/h (1 Bft)
11.07.2017 08:33 17,9 °C 17,9 °C 78 % 1012,8 hPa 0,0 mm 2,0 km/h (1 Bft) S-SW 200 ° 1 min 0,000 mm 2,3 UV-I 394 W/m² 14,0 °C 17,9 °C 3,2 km/h (1 Bft)
11.07.2017 08:34 18,0 °C 18,0 °C 80 % 1012,8 hPa 0,0 mm 3,6 km/h (1 Bft) W-NW 282 ° 1 min 0,000 mm 2,3 UV-I 397 W/m² 14,5 °C 18,0 °C 6,4 km/h (2 Bft)
11.07.2017 08:35 18,0 °C 18,0 °C 79 % 1012,8 hPa 0,0 mm 1,5 km/h (1 Bft) W-SW 257 ° 1 min 0,000 mm 2,3 UV-I 399 W/m² 14,3 °C 18,0 °C 4,8 km/h (1 Bft)
11.07.2017 08:36 18,0 °C 18,0 °C 80 % 1012,8 hPa 0,0 mm 1,1 km/h (1 Bft) W-SW 257 ° 1 min 0,000 mm 2,4 UV-I 406 W/m² 14,5 °C 18,0 °C 3,2 km/h (1 Bft)
11.07.2017 08:37 18,1 °C 18,1 °C 79 % 1012,8 hPa 0,0 mm 4,0 km/h (1 Bft) W 261 ° 1 min 0,000 mm 2,4 UV-I 410 W/m² 14,4 °C 18,1 °C 6,4 km/h (2 Bft)
11.07.2017 08:38 18,1 °C 18,1 °C 80 % 1012,8 hPa 0,0 mm 5,6 km/h (1 Bft) W-NW 288 ° 1 min 0,000 mm 2,4 UV-I 404 W/m² 14,6 °C 18,1 °C 9,7 km/h (2 Bft)
11.07.2017 08:39 18,1 °C 18,1 °C 79 % 1012,8 hPa 0,0 mm 4,4 km/h (1 Bft) W 264 ° 1 min 0,000 mm 2,4 UV-I 417 W/m² 14,4 °C 18,1 °C 6,4 km/h (2 Bft)
11.07.2017 08:40 18,1 °C 18,1 °C 77 % 1012,8 hPa 0,0 mm 6,7 km/h (2 Bft) W 265 ° 1 min 0,000 mm 2,5 UV-I 424 W/m² 14,0 °C 18,1 °C 9,7 km/h (2 Bft)
11.07.2017 08:41 18,1 °C 18,1 °C 77 % 1012,8 hPa 0,0 mm 6,9 km/h (2 Bft) W-SW 252 ° 1 min 0,000 mm 2,5 UV-I 429 W/m² 14,0 °C 18,1 °C 9,7 km/h (2 Bft)
11.07.2017 08:42 18,2 °C 18,2 °C 80 % 1012,9 hPa 0,0 mm 4,0 km/h (1 Bft) W 261 ° 1 min 0,000 mm 2,5 UV-I 415 W/m² 14,7 °C 18,2 °C 8,0 km/h (2 Bft)
11.07.2017 08:43 18,2 °C 18,2 °C 80 % 1012,9 hPa 0,0 mm 4,4 km/h (1 Bft) W-SW 249 ° 1 min 0,000 mm 2,4 UV-I 388 W/m² 14,7 °C 18,2 °C 12,9 km/h (3 Bft)
11.07.2017 08:44 18,3 °C 18,3 °C 80 % 1012,9 hPa 0,0 mm 2,5 km/h (1 Bft) W 261 ° 1 min 0,000 mm 2,5 UV-I 401 W/m² 14,8 °C 18,3 °C 4,8 km/h (1 Bft)
11.07.2017 08:45 18,3 °C 18,4 °C 77 % 1012,9 hPa 0,0 mm 1,3 km/h (1 Bft) S-SW 203 ° 1 min 0,000 mm 2,4 UV-I 429 W/m² 14,2 °C 18,3 °C 4,8 km/h (1 Bft)
11.07.2017 08:46 18,3 °C 18,3 °C 80 % 1012,9 hPa 0,0 mm 3,7 km/h (1 Bft) W 272 ° 1 min 0,000 mm 2,7 UV-I 429 W/m² 14,8 °C 18,3 °C 4,8 km/h (1 Bft)
11.07.2017 08:47 18,2 °C 18,3 °C 78 % 1012,9 hPa 0,0 mm 1,4 km/h (1 Bft) W 272 ° 1 min 0,000 mm 2,7 UV-I 473 W/m² 14,3 °C 18,2 °C 4,8 km/h (1 Bft)
11.07.2017 08:48 18,3 °C 18,3 °C 80 % 1012,9 hPa 0,0 mm 3,1 km/h (1 Bft) W-SW 245 ° 1 min 0,000 mm 2,3 UV-I 485 W/m² 14,8 °C 18,3 °C 4,8 km/h (1 Bft)
11.07.2017 08:49 18,3 °C 18,3 °C 78 % 1013,0 hPa 0,0 mm 4,3 km/h (1 Bft) W 272 ° 1 min 0,000 mm 2,0 UV-I 485 W/m² 14,4 °C 18,3 °C 9,7 km/h (2 Bft)
11.07.2017 08:50 18,4 °C 18,4 °C 80 % 1013,0 hPa 0,0 mm 3,7 km/h (1 Bft) W-NW 295 ° 1 min 0,000 mm 2,7 UV-I 485 W/m² 14,9 °C 18,4 °C 4,8 km/h (1 Bft)
11.07.2017 08:51 18,4 °C 18,4 °C 80 % 1013,0 hPa 0,0 mm 3,6 km/h (1 Bft) W-NW 288 ° 0 min 0,000 mm 2,2 UV-I 174 W/m² 14,9 °C 18,4 °C 4,8 km/h (1 Bft)
11.07.2017 08:52 18,4 °C 18,4 °C 78 % 1012,9 hPa 0,0 mm 13,0 km/h (3 Bft) SW 231 ° 0 min 0,000 mm 2,6 UV-I 174 W/m² 14,5 °C 18,4 °C 17,7 km/h (3 Bft)
11.07.2017 08:53 18,3 °C 18,4 °C 75 % 1012,9 hPa 0,0 mm 6,2 km/h (2 Bft) W 271 ° 0 min 0,000 mm 3,0 UV-I 174 W/m² 13,8 °C 18,3 °C 11,3 km/h (2 Bft)
11.07.2017 08:54 18,3 °C 18,3 °C 77 % 1013,0 hPa 0,0 mm 5,8 km/h (2 Bft) W 274 ° 1 min 0,000 mm 3,1 UV-I 573 W/m² 14,2 °C 18,3 °C 9,7 km/h (2 Bft)
11.07.2017 08:55 18,3 °C 18,3 °C 79 % 1013,0 hPa 0,0 mm 7,5 km/h (2 Bft) W-NW 292 ° 1 min 0,000 mm 2,8 UV-I 550 W/m² 14,6 °C 18,3 °C 11,3 km/h (2 Bft)
11.07.2017 08:56 18,4 °C 18,4 °C 78 % 1013,0 hPa 0,0 mm 5,6 km/h (1 Bft) W 280 ° 1 min 0,000 mm 2,5 UV-I 510 W/m² 14,5 °C 18,4 °C 9,7 km/h (2 Bft)
11.07.2017 08:57 18,4 °C 18,4 °C 76 % 1013,0 hPa 0,0 mm 6,8 km/h (2 Bft) W 265 ° 1 min 0,000 mm 2,8 UV-I 510 W/m² 14,1 °C 18,4 °C 11,3 km/h (2 Bft)
11.07.2017 08:58 18,5 °C 18,5 °C 76 % 1013,0 hPa 0,0 mm 2,6 km/h (1 Bft) W-NW 298 ° 1 min 0,000 mm 2,1 UV-I 378 W/m² 14,2 °C 18,5 °C 4,8 km/h (1 Bft)
11.07.2017 08:59 18,5 °C 18,5 °C 78 % 1013,0 hPa 0,0 mm 5,3 km/h (1 Bft) W-SW 255 ° 1 min 0,000 mm 2,1 UV-I 378 W/m² 14,6 °C 18,5 °C 11,3 km/h (2 Bft)
11.07.2017 09:00 18,4 °C 18,5 °C 75 % 1013,0 hPa 0,0 mm 5,2 km/h (1 Bft) W-NW 294 ° 0 min 0,000 mm 1,9 UV-I 265 W/m² 13,9 °C 18,4 °C 8,0 km/h (2 Bft)
11.07.2017 09:01 18,4 °C 18,4 °C 75 % 1012,9 hPa 0,0 mm 6,5 km/h (2 Bft) W-SW 250 ° 0 min 0,178 mm 1,9 UV-I 262 W/m² 13,9 °C 18,4 °C 8,0 km/h (2 Bft)
11.07.2017 09:02 18,3 °C 18,4 °C 76 % 1013,0 hPa 0,0 mm 5,2 km/h (1 Bft) W-NW 284 ° 0 min 0,000 mm 1,8 UV-I 243 W/m² 14,0 °C 18,3 °C 11,3 km/h (2 Bft)
11.07.2017 09:03 18,3 °C 18,3 °C 76 % 1013,0 hPa 0,0 mm 4,8 km/h (1 Bft) NW 309 ° 0 min 0,000 mm 1,8 UV-I 230 W/m² 14,0 °C 18,3 °C 6,4 km/h (2 Bft)
11.07.2017 09:04 18,3 °C 18,3 °C 77 % 1013,0 hPa 0,0 mm 6,2 km/h (2 Bft) W-NW 283 ° 0 min 0,000 mm 1,8 UV-I 225 W/m² 14,2 °C 18,3 °C 11,3 km/h (2 Bft)
11.07.2017 09:05 18,2 °C 18,3 °C 77 % 1013,0 hPa 0,0 mm 5,4 km/h (1 Bft) W-SW 251 ° 0 min 0,000 mm 1,9 UV-I 230 W/m² 14,1 °C 18,2 °C 14,5 km/h (3 Bft)
11.07.2017 09:06 18,2 °C 18,2 °C 75 % 1013,0 hPa 0,0 mm 10,7 km/h (2 Bft) W-NW 302 ° 0 min 0,000 mm 1,9 UV-I 237 W/m² 13,7 °C 18,2 °C 14,5 km/h (3 Bft)
11.07.2017 09:07 18,1 °C 18,2 °C 76 % 1012,9 hPa 0,0 mm 6,3 km/h (2 Bft) W-SW 254 ° 0 min 0,000 mm 2,0 UV-I 244 W/m² 13,8 °C 18,1 °C 12,9 km/h (3 Bft)
11.07.2017 09:08 18,1 °C 18,1 °C 75 % 1013,0 hPa 0,0 mm 11,9 km/h (2 Bft) W-NW 288 ° 0 min 0,000 mm 2,7 UV-I 244 W/m² 13,6 °C 18,1 °C 17,7 km/h (3 Bft)
11.07.2017 09:09 18,2 °C 18,2 °C 75 % 1013,0 hPa 0,0 mm 7,6 km/h (2 Bft) W 259 ° 1 min 0,000 mm 3,5 UV-I 668 W/m² 13,7 °C 18,2 °C 11,3 km/h (2 Bft)
11.07.2017 09:10 18,3 °C 18,3 °C 76 % 1013,0 hPa 0,0 mm 3,8 km/h (1 Bft) W 264 ° 1 min 0,000 mm 3,6 UV-I 696 W/m² 14,0 °C 18,3 °C 4,8 km/h (1 Bft)
11.07.2017 09:11 18,6 °C 18,6 °C 77 % 1013,0 hPa 0,0 mm 6,6 km/h (2 Bft) NW 309 ° 1 min 0,000 mm 3,6 UV-I 707 W/m² 14,5 °C 18,6 °C 9,7 km/h (2 Bft)
11.07.2017 09:12 18,7 °C 18,7 °C 76 % 1013,0 hPa 0,0 mm 7,5 km/h (2 Bft) W 259 ° 1 min 0,000 mm 2,6 UV-I 714 W/m² 14,4 °C 18,7 °C 11,3 km/h (2 Bft)
11.07.2017 09:13 18,8 °C 18,8 °C 73 % 1013,0 hPa 0,0 mm 4,3 km/h (1 Bft) W-NW 287 ° 1 min 0,000 mm 2,7 UV-I 714 W/m² 13,9 °C 18,8 °C 9,7 km/h (2 Bft)
11.07.2017 09:14 18,8 °C 18,8 °C 74 % 1013,0 hPa 0,0 mm 10,5 km/h (2 Bft) W-NW 292 ° 1 min 0,000 mm 3,7 UV-I 367 W/m² 14,1 °C 18,8 °C 17,7 km/h (3 Bft)
11.07.2017 09:15 18,9 °C 18,9 °C 74 % 1013,0 hPa 0,0 mm 10,9 km/h (2 Bft) NW 315 ° 1 min 0,000 mm 3,6 UV-I 489 W/m² 14,2 °C 18,9 °C 17,7 km/h (3 Bft)
11.07.2017 09:16 18,9 °C 18,9 °C 72 % 1012,9 hPa 0,0 mm 7,7 km/h (2 Bft) W-NW 289 ° 1 min 0,000 mm 3,5 UV-I 489 W/m² 13,7 °C 18,9 °C 12,9 km/h (3 Bft)
11.07.2017 09:17 18,9 °C 18,9 °C 74 % 1013,0 hPa 0,0 mm 9,9 km/h (2 Bft) W-SW 248 ° 1 min 0,000 mm 3,5 UV-I 578 W/m² 14,2 °C 18,9 °C 14,5 km/h (3 Bft)
11.07.2017 09:18 18,9 °C 18,9 °C 72 % 1013,0 hPa 0,0 mm 12,0 km/h (2 Bft) NW 306 ° 1 min 0,000 mm 3,4 UV-I 573 W/m² 13,7 °C 18,9 °C 16,1 km/h (3 Bft)
11.07.2017 09:19 18,9 °C 18,9 °C 74 % 1013,1 hPa 0,0 mm 10,5 km/h (2 Bft) W 267 ° 1 min 0,000 mm 3,3 UV-I 519 W/m² 14,2 °C 18,9 °C 16,1 km/h (3 Bft)
11.07.2017 09:20 18,9 °C 18,9 °C 74 % 1013,0 hPa 0,0 mm 12,1 km/h (2 Bft) W 269 ° 1 min 0,000 mm 3,4 UV-I 489 W/m² 14,2 °C 18,9 °C 17,7 km/h (3 Bft)
11.07.2017 09:21 18,9 °C 18,9 °C 73 % 1013,0 hPa 0,0 mm 16,4 km/h (3 Bft) W-SW 249 ° 1 min 0,000 mm 3,6 UV-I 489 W/m² 13,9 °C 18,9 °C 19,3 km/h (3 Bft)
11.07.2017 09:22 18,9 °C 19,0 °C 73 % 1013,1 hPa 0,0 mm 10,8 km/h (2 Bft) W-SW 247 ° 1 min 0,000 mm 3,6 UV-I 592 W/m² 13,9 °C 18,9 °C 14,5 km/h (3 Bft)
11.07.2017 09:23 18,9 °C 19,0 °C 71 % 1013,1 hPa 0,0 mm 12,9 km/h (3 Bft) W 263 ° 1 min 0,000 mm 3,6 UV-I 550 W/m² 13,5 °C 18,9 °C 17,7 km/h (3 Bft)
11.07.2017 09:24 18,9 °C 18,9 °C 72 % 1013,0 hPa 0,0 mm 6,6 km/h (2 Bft) W 269 ° 1 min 0,000 mm 3,5 UV-I 561 W/m² 13,7 °C 18,9 °C 9,7 km/h (2 Bft)
11.07.2017 09:25 18,9 °C 18,9 °C 72 % 1013,0 hPa 0,0 mm 8,2 km/h (2 Bft) W-NW 294 ° 1 min 0,000 mm 3,5 UV-I 541 W/m² 13,7 °C 18,9 °C 16,1 km/h (3 Bft)
11.07.2017 09:26 19,1 °C 19,1 °C 74 % 1013,1 hPa 0,0 mm 7,6 km/h (2 Bft) N-NW 336 ° 1 min 0,000 mm 3,6 UV-I 538 W/m² 14,4 °C 19,1 °C 16,1 km/h (3 Bft)
11.07.2017 09:27 19,1 °C 19,1 °C 72 % 1013,0 hPa 0,0 mm 5,8 km/h (2 Bft) NW 306 ° 1 min 0,000 mm 3,5 UV-I 536 W/m² 13,9 °C 19,1 °C 9,7 km/h (2 Bft)
11.07.2017 09:28 19,2 °C 19,2 °C 72 % 1013,0 hPa 0,0 mm 6,1 km/h (2 Bft) W 259 ° 1 min 0,000 mm 3,4 UV-I 527 W/m² 14,0 °C 19,2 °C 9,7 km/h (2 Bft)
11.07.2017 09:29 19,2 °C 19,2 °C 75 % 1012,9 hPa 0,0 mm 4,0 km/h (1 Bft) W-NW 296 ° 1 min 0,000 mm 3,4 UV-I 524 W/m² 14,7 °C 19,2 °C 6,4 km/h (2 Bft)
11.07.2017 09:30 19,2 °C 19,2 °C 73 % 1012,9 hPa 0,0 mm 5,6 km/h (1 Bft) W 259 ° 1 min 0,000 mm 3,3 UV-I 494 W/m² 14,2 °C 19,2 °C 11,3 km/h (2 Bft)
11.07.2017 09:31 19,2 °C 19,2 °C 72 % 1012,9 hPa 0,0 mm 7,1 km/h (2 Bft) SW 235 ° 1 min 0,000 mm 3,4 UV-I 510 W/m² 14,0 °C 19,2 °C 14,5 km/h (3 Bft)
11.07.2017 09:32 19,2 °C 19,2 °C 70 % 1012,9 hPa 0,0 mm 12,7 km/h (3 Bft) SW 223 ° 1 min 0,000 mm 3,7 UV-I 573 W/m² 13,6 °C 19,2 °C 17,7 km/h (3 Bft)
11.07.2017 09:33 19,2 °C 19,2 °C 70 % 1012,9 hPa 0,0 mm 8,1 km/h (2 Bft) SW 221 ° 1 min 0,000 mm 3,8 UV-I 587 W/m² 13,6 °C 19,2 °C 11,3 km/h (2 Bft)
11.07.2017 09:34 19,1 °C 19,2 °C 71 % 1012,9 hPa 0,0 mm 6,9 km/h (2 Bft) W-NW 297 ° 1 min 0,000 mm 3,9 UV-I 613 W/m² 13,7 °C 19,1 °C 11,3 km/h (2 Bft)
11.07.2017 09:35 19,2 °C 19,2 °C 73 % 1012,9 hPa 0,0 mm 6,2 km/h (2 Bft) W-NW 297 ° 1 min 0,000 mm 3,8 UV-I 606 W/m² 14,2 °C 19,2 °C 11,3 km/h (2 Bft)
11.07.2017 09:36 19,3 °C 19,3 °C 76 % 1012,9 hPa 0,0 mm 6,1 km/h (2 Bft) W-NW 282 ° 1 min 0,000 mm 3,9 UV-I 612 W/m² 15,0 °C 19,3 °C 11,3 km/h (2 Bft)
11.07.2017 09:37 19,3 °C 19,3 °C 71 % 1012,8 hPa 0,0 mm 9,8 km/h (2 Bft) W 280 ° 1 min 0,000 mm 3,9 UV-I 578 W/m² 13,9 °C 19,3 °C 17,7 km/h (3 Bft)
11.07.2017 09:38 19,3 °C 19,3 °C 73 % 1012,8 hPa 0,0 mm 7,8 km/h (2 Bft) W-NW 283 ° 1 min 0,000 mm 3,8 UV-I 550 W/m² 14,3 °C 19,3 °C 14,5 km/h (3 Bft)
11.07.2017 09:39 19,4 °C 19,4 °C 71 % 1012,8 hPa 0,0 mm 10,6 km/h (2 Bft) W 264 ° 1 min 0,000 mm 3,9 UV-I 598 W/m² 14,0 °C 19,4 °C 16,1 km/h (3 Bft)
11.07.2017 09:40 19,4 °C 19,4 °C 72 % 1012,8 hPa 0,0 mm 10,3 km/h (2 Bft) W-NW 289 ° 1 min 0,000 mm 4,0 UV-I 624 W/m² 14,2 °C 19,4 °C 16,1 km/h (3 Bft)
11.07.2017 09:41 19,6 °C 19,6 °C 71 % 1012,8 hPa 0,0 mm 10,3 km/h (2 Bft) W 262 ° 1 min 0,000 mm 4,0 UV-I 626 W/m² 14,2 °C 19,6 °C 14,5 km/h (3 Bft)
11.07.2017 09:42 19,6 °C 19,6 °C 72 % 1012,8 hPa 0,0 mm 5,6 km/h (1 Bft) N-NW 330 ° 1 min 0,000 mm 4,1 UV-I 631 W/m² 14,4 °C 19,6 °C 11,3 km/h (2 Bft)
11.07.2017 09:43 19,6 °C 19,6 °C 73 % 1012,8 hPa 0,0 mm 8,2 km/h (2 Bft) W-NW 292 ° 1 min 0,000 mm 4,1 UV-I 605 W/m² 14,6 °C 19,6 °C 11,3 km/h (2 Bft)
11.07.2017 09:44 19,6 °C 19,7 °C 73 % 1012,9 hPa 0,0 mm 5,0 km/h (1 Bft) W-NW 293 ° 1 min 0,000 mm 3,9 UV-I 591 W/m² 14,6 °C 19,6 °C 8,0 km/h (2 Bft)
11.07.2017 09:45 19,7 °C 19,7 °C 73 % 1012,8 hPa 0,0 mm 5,0 km/h (1 Bft) W-NW 284 ° 1 min 0,000 mm 3,9 UV-I 575 W/m² 14,7 °C 19,7 °C 8,0 km/h (2 Bft)
11.07.2017 09:46 19,7 °C 19,7 °C 71 % 1012,8 hPa 0,0 mm 3,8 km/h (1 Bft) W 279 ° 1 min 0,000 mm 4,0 UV-I 608 W/m² 14,3 °C 19,7 °C 9,7 km/h (2 Bft)
11.07.2017 09:47 19,8 °C 19,8 °C 70 % 1012,8 hPa 0,0 mm 7,4 km/h (2 Bft) W-NW 300 ° 1 min 0,000 mm 3,9 UV-I 570 W/m² 14,2 °C 19,8 °C 11,3 km/h (2 Bft)
11.07.2017 09:48 19,8 °C 19,8 °C 71 % 1012,8 hPa 0,0 mm 11,1 km/h (2 Bft) W-NW 296 ° 1 min 0,000 mm 4,1 UV-I 603 W/m² 14,4 °C 19,8 °C 17,7 km/h (3 Bft)
11.07.2017 09:49 19,8 °C 19,8 °C 71 % 1012,7 hPa 0,0 mm 9,8 km/h (2 Bft) W-NW 290 ° 1 min 0,000 mm 4,1 UV-I 605 W/m² 14,4 °C 19,8 °C 14,5 km/h (3 Bft)
11.07.2017 09:50 19,8 °C 19,8 °C 69 % 1012,8 hPa 0,0 mm 7,9 km/h (2 Bft) W 266 ° 1 min 0,000 mm 4,0 UV-I 612 W/m² 13,9 °C 19,8 °C 12,9 km/h (3 Bft)
11.07.2017 09:51 19,8 °C 19,8 °C 72 % 1012,8 hPa 0,0 mm 6,2 km/h (2 Bft) W-NW 290 ° 1 min 0,000 mm 4,0 UV-I 577 W/m² 14,6 °C 19,8 °C 11,3 km/h (2 Bft)
11.07.2017 09:52 19,8 °C 19,8 °C 69 % 1012,8 hPa 0,0 mm 11,9 km/h (2 Bft) W 259 ° 1 min 0,000 mm 4,0 UV-I 564 W/m² 13,9 °C 19,8 °C 17,7 km/h (3 Bft)
11.07.2017 09:53 19,7 °C 19,8 °C 70 % 1012,8 hPa 0,0 mm 11,6 km/h (2 Bft) W-NW 298 ° 1 min 0,000 mm 3,0 UV-I 564 W/m² 14,1 °C 19,7 °C 17,7 km/h (3 Bft)
11.07.2017 09:54 19,6 °C 19,7 °C 69 % 1012,8 hPa 0,0 mm 17,5 km/h (3 Bft) W 263 ° 1 min 0,000 mm 4,3 UV-I 564 W/m² 13,8 °C 19,6 °C 25,7 km/h (4 Bft)
11.07.2017 09:55 19,6 °C 19,6 °C 66 % 1012,8 hPa 0,0 mm 15,8 km/h (3 Bft) W-NW 284 ° 1 min 0,000 mm 4,3 UV-I 592 W/m² 13,1 °C 19,6 °C 22,5 km/h (4 Bft)
11.07.2017 09:56 19,5 °C 19,6 °C 67 % 1012,8 hPa 0,0 mm 17,3 km/h (3 Bft) W-SW 249 ° 1 min 0,000 mm 4,2 UV-I 584 W/m² 13,2 °C 19,5 °C 22,5 km/h (4 Bft)
11.07.2017 09:57 19,5 °C 19,5 °C 67 % 1012,8 hPa 0,0 mm 10,4 km/h (2 Bft) W 266 ° 1 min 0,000 mm 4,2 UV-I 599 W/m² 13,2 °C 19,5 °C 16,1 km/h (3 Bft)
11.07.2017 09:58 19,4 °C 19,5 °C 71 % 1012,8 hPa 0,0 mm 10,5 km/h (2 Bft) NW 311 ° 1 min 0,000 mm 4,4 UV-I 652 W/m² 14,0 °C 19,4 °C 16,1 km/h (3 Bft)
11.07.2017 09:59 19,6 °C 19,6 °C 70 % 1012,8 hPa 0,0 mm 5,7 km/h (1 Bft) W 273 ° 1 min 0,000 mm 4,5 UV-I 664 W/m² 14,0 °C 19,6 °C 12,9 km/h (3 Bft)
11.07.2017 10:00 19,7 °C 19,7 °C 69 % 1012,8 hPa 0,0 mm 14,7 km/h (3 Bft) W-SW 250 ° 1 min 0,330 mm 4,6 UV-I 664 W/m² 13,8 °C 19,7 °C 17,7 km/h (3 Bft)
11.07.2017 10:01 19,8 °C 19,8 °C 68 % 1012,8 hPa 0,0 mm 11,9 km/h (2 Bft) NW 323 ° 1 min 0,000 mm 4,7 UV-I 707 W/m² 13,7 °C 19,8 °C 16,1 km/h (3 Bft)
11.07.2017 10:02 19,8 °C 19,8 °C 68 % 1012,8 hPa 0,0 mm 8,0 km/h (2 Bft) W 272 ° 1 min 0,000 mm 4,7 UV-I 703 W/m² 13,7 °C 19,8 °C 14,5 km/h (3 Bft)
11.07.2017 10:03 19,9 °C 19,9 °C 68 % 1012,8 hPa 0,0 mm 12,5 km/h (3 Bft) W 264 ° 1 min 0,000 mm 4,6 UV-I 682 W/m² 13,8 °C 19,9 °C 16,1 km/h (3 Bft)
11.07.2017 10:04 19,9 °C 19,9 °C 69 % 1012,8 hPa 0,0 mm 11,7 km/h (2 Bft) W 277 ° 1 min 0,000 mm 4,2 UV-I 613 W/m² 14,0 °C 19,9 °C 17,7 km/h (3 Bft)
11.07.2017 10:05 19,9 °C 19,9 °C 66 % 1012,8 hPa 0,0 mm 11,1 km/h (2 Bft) W 269 ° 1 min 0,000 mm 4,5 UV-I 649 W/m² 13,4 °C 19,9 °C 14,5 km/h (3 Bft)
11.07.2017 10:06 19,8 °C 19,9 °C 68 % 1012,8 hPa 0,0 mm 6,4 km/h (2 Bft) W-SW 253 ° 1 min 0,000 mm 4,5 UV-I 612 W/m² 13,7 °C 19,8 °C 11,3 km/h (2 Bft)
11.07.2017 10:07 19,9 °C 19,9 °C 69 % 1012,8 hPa 0,0 mm 4,4 km/h (1 Bft) W-NW 294 ° 1 min 0,000 mm 4,4 UV-I 633 W/m² 14,0 °C 19,9 °C 8,0 km/h (2 Bft)
11.07.2017 10:08 19,9 °C 19,9 °C 69 % 1012,8 hPa 0,0 mm 10,3 km/h (2 Bft) NW 317 ° 1 min 0,000 mm 4,5 UV-I 636 W/m² 14,0 °C 19,9 °C 16,1 km/h (3 Bft)
11.07.2017 10:09 19,9 °C 19,9 °C 68 % 1012,8 hPa 0,0 mm 10,6 km/h (2 Bft) W 269 ° 1 min 0,000 mm 4,6 UV-I 656 W/m² 13,8 °C 19,9 °C 16,1 km/h (3 Bft)
11.07.2017 10:10 19,9 °C 19,9 °C 69 % 1012,8 hPa 0,0 mm 12,9 km/h (3 Bft) W-NW 282 ° 1 min 0,000 mm 4,6 UV-I 659 W/m² 14,0 °C 19,9 °C 17,7 km/h (3 Bft)
11.07.2017 10:11 19,8 °C 19,9 °C 67 % 1012,8 hPa 0,0 mm 7,7 km/h (2 Bft) W-NW 284 ° 1 min 0,000 mm 4,3 UV-I 640 W/m² 13,5 °C 19,8 °C 14,5 km/h (3 Bft)
11.07.2017 10:12 19,8 °C 19,8 °C 68 % 1012,8 hPa 0,0 mm 12,9 km/h (3 Bft) NW 311 ° 1 min 0,000 mm 4,2 UV-I 587 W/m² 13,7 °C 19,8 °C 20,9 km/h (4 Bft)
11.07.2017 10:13 19,8 °C 19,8 °C 68 % 1012,8 hPa 0,0 mm 8,4 km/h (2 Bft) W 276 ° 1 min 0,000 mm 3,8 UV-I 468 W/m² 13,7 °C 19,8 °C 16,1 km/h (3 Bft)
11.07.2017 10:14 19,7 °C 19,8 °C 69 % 1012,8 hPa 0,0 mm 6,2 km/h (2 Bft) W 279 ° 1 min 0,000 mm 3,6 UV-I 454 W/m² 13,8 °C 19,7 °C 11,3 km/h (2 Bft)
11.07.2017 10:15 19,7 °C 19,7 °C 70 % 1012,8 hPa 0,0 mm 4,7 km/h (1 Bft) SW 228 ° 1 min 0,000 mm 3,8 UV-I 503 W/m² 14,1 °C 19,7 °C 8,0 km/h (2 Bft)
11.07.2017 10:16 19,7 °C 19,7 °C 68 % 1012,8 hPa 0,0 mm 8,6 km/h (2 Bft) W-NW 286 ° 1 min 0,000 mm 3,8 UV-I 483 W/m² 13,6 °C 19,7 °C 16,1 km/h (3 Bft)
11.07.2017 10:17 19,6 °C 19,7 °C 70 % 1012,8 hPa 0,0 mm 11,6 km/h (2 Bft) W 279 ° 1 min 0,000 mm 3,8 UV-I 475 W/m² 14,0 °C 19,6 °C 20,9 km/h (4 Bft)
11.07.2017 10:18 19,6 °C 19,6 °C 68 % 1012,8 hPa 0,0 mm 12,8 km/h (3 Bft) W-SW 254 ° 1 min 0,000 mm 3,9 UV-I 524 W/m² 13,5 °C 19,6 °C 20,9 km/h (4 Bft)
11.07.2017 10:19 19,6 °C 19,6 °C 71 % 1012,8 hPa 0,0 mm 10,5 km/h (2 Bft) W 272 ° 1 min 0,000 mm 3,9 UV-I 490 W/m² 14,2 °C 19,6 °C 16,1 km/h (3 Bft)
11.07.2017 10:20 19,6 °C 19,6 °C 67 % 1012,9 hPa 0,0 mm 12,4 km/h (3 Bft) NW 316 ° 1 min 0,000 mm 4,3 UV-I 568 W/m² 13,3 °C 19,6 °C 20,9 km/h (4 Bft)
11.07.2017 10:21 19,6 °C 19,6 °C 66 % 1012,9 hPa 0,0 mm 7,1 km/h (2 Bft) W 277 ° 1 min 0,000 mm 4,2 UV-I 585 W/m² 13,1 °C 19,6 °C 11,3 km/h (2 Bft)
11.07.2017 10:22 19,6 °C 19,6 °C 69 % 1012,9 hPa 0,0 mm 10,8 km/h (2 Bft) W-NW 296 ° 1 min 0,000 mm 4,2 UV-I 547 W/m² 13,8 °C 19,6 °C 14,5 km/h (3 Bft)
11.07.2017 10:23 19,7 °C 19,7 °C 68 % 1012,9 hPa 0,0 mm 5,2 km/h (1 Bft) NW 322 ° 1 min 0,000 mm 4,6 UV-I 628 W/m² 13,6 °C 19,7 °C 9,7 km/h (2 Bft)
11.07.2017 10:24 19,7 °C 19,7 °C 69 % 1012,9 hPa 0,0 mm 10,9 km/h (2 Bft) NW 325 ° 1 min 0,000 mm 4,8 UV-I 700 W/m² 13,8 °C 19,7 °C 19,3 km/h (3 Bft)
11.07.2017 10:25 19,7 °C 19,7 °C 68 % 1012,9 hPa 0,0 mm 7,8 km/h (2 Bft) NW 306 ° 1 min 0,000 mm 4,9 UV-I 679 W/m² 13,6 °C 19,7 °C 11,3 km/h (2 Bft)
11.07.2017 10:26 19,8 °C 19,8 °C 69 % 1012,9 hPa 0,0 mm 11,4 km/h (2 Bft) W 273 ° 1 min 0,000 mm 4,8 UV-I 675 W/m² 13,9 °C 19,8 °C 16,1 km/h (3 Bft)
11.07.2017 10:27 19,8 °C 19,8 °C 66 % 1013,0 hPa 0,0 mm 6,5 km/h (2 Bft) NW 321 ° 1 min 0,000 mm 4,4 UV-I 592 W/m² 13,3 °C 19,8 °C 12,9 km/h (3 Bft)
11.07.2017 10:28 19,9 °C 19,9 °C 68 % 1012,9 hPa 0,0 mm 9,4 km/h (2 Bft) W-NW 285 ° 1 min 0,000 mm 4,4 UV-I 575 W/m² 13,8 °C 19,9 °C 14,5 km/h (3 Bft)
11.07.2017 10:29 19,9 °C 19,9 °C 66 % 1012,9 hPa 0,0 mm 8,6 km/h (2 Bft) N-NW 331 ° 1 min 0,000 mm 4,4 UV-I 578 W/m² 13,4 °C 19,9 °C 12,9 km/h (3 Bft)
11.07.2017 10:30 19,9 °C 19,9 °C 69 % 1012,9 hPa 0,0 mm 9,0 km/h (2 Bft) NW 310 ° 1 min 0,000 mm 4,5 UV-I 589 W/m² 14,0 °C 19,9 °C 16,1 km/h (3 Bft)
11.07.2017 10:31 20,0 °C 20,0 °C 70 % 1012,9 hPa 0,0 mm 6,9 km/h (2 Bft) NW 308 ° 1 min 0,000 mm 4,2 UV-I 555 W/m² 14,4 °C 20,0 °C 12,9 km/h (3 Bft)
11.07.2017 10:32 19,9 °C 20,0 °C 67 % 1012,9 hPa 0,0 mm 3,7 km/h (1 Bft) W-NW 300 ° 1 min 0,000 mm 4,2 UV-I 499 W/m² 13,6 °C 19,9 °C 6,4 km/h (2 Bft)
11.07.2017 10:33 19,9 °C 20,0 °C 68 % 1012,9 hPa 0,0 mm 9,6 km/h (2 Bft) W-SW 246 ° 1 min 0,000 mm 3,5 UV-I 461 W/m² 13,8 °C 19,9 °C 14,5 km/h (3 Bft)
11.07.2017 10:34 19,9 °C 19,9 °C 67 % 1013,0 hPa 0,0 mm 6,0 km/h (2 Bft) W 261 ° 1 min 0,000 mm 3,3 UV-I 461 W/m² 13,6 °C 19,9 °C 9,7 km/h (2 Bft)
11.07.2017 10:35 19,8 °C 19,9 °C 70 % 1012,9 hPa 0,0 mm 6,6 km/h (2 Bft) SW 229 ° 1 min 0,000 mm 4,7 UV-I 461 W/m² 14,2 °C 19,8 °C 9,7 km/h (2 Bft)
11.07.2017 10:36 19,8 °C 19,9 °C 68 % 1012,9 hPa 0,0 mm 7,1 km/h (2 Bft) W-SW 246 ° 1 min 0,000 mm 4,7 UV-I 628 W/m² 13,7 °C 19,8 °C 14,5 km/h (3 Bft)
11.07.2017 10:37 19,9 °C 19,9 °C 71 % 1013,0 hPa 0,0 mm 12,2 km/h (2 Bft) W-SW 252 ° 1 min 0,000 mm 3,6 UV-I 628 W/m² 14,5 °C 19,9 °C 17,7 km/h (3 Bft)
11.07.2017 10:38 19,8 °C 19,9 °C 67 % 1013,0 hPa 0,0 mm 11,9 km/h (2 Bft) W-SW 249 ° 1 min 0,000 mm 3,2 UV-I 338 W/m² 13,5 °C 19,8 °C 16,1 km/h (3 Bft)
11.07.2017 10:39 19,8 °C 19,8 °C 67 % 1013,0 hPa 0,0 mm 14,1 km/h (3 Bft) W 269 ° 1 min 0,000 mm 3,2 UV-I 338 W/m² 13,5 °C 19,8 °C 17,7 km/h (3 Bft)
11.07.2017 10:40 19,7 °C 19,8 °C 67 % 1013,0 hPa 0,0 mm 8,7 km/h (2 Bft) SW 236 ° 1 min 0,000 mm 4,2 UV-I 338 W/m² 13,4 °C 19,7 °C 12,9 km/h (3 Bft)
11.07.2017 10:41 19,6 °C 19,7 °C 69 % 1013,1 hPa 0,0 mm 11,6 km/h (2 Bft) NW 317 ° 1 min 0,000 mm 4,1 UV-I 483 W/m² 13,8 °C 19,6 °C 14,5 km/h (3 Bft)
11.07.2017 10:42 19,6 °C 19,6 °C 69 % 1013,0 hPa 0,0 mm 8,8 km/h (2 Bft) W 272 ° 1 min 0,000 mm 3,7 UV-I 429 W/m² 13,8 °C 19,6 °C 12,9 km/h (3 Bft)
11.07.2017 10:43 19,5 °C 19,6 °C 69 % 1013,1 hPa 0,0 mm 9,5 km/h (2 Bft) W-SW 257 ° 1 min 0,000 mm 3,4 UV-I 408 W/m² 13,7 °C 19,5 °C 14,5 km/h (3 Bft)
11.07.2017 10:44 19,5 °C 19,6 °C 69 % 1013,1 hPa 0,0 mm 7,5 km/h (2 Bft) W-NW 282 ° 1 min 0,000 mm 3,3 UV-I 396 W/m² 13,7 °C 19,5 °C 11,3 km/h (2 Bft)
11.07.2017 10:45 19,5 °C 19,5 °C 71 % 1013,1 hPa 0,0 mm 7,9 km/h (2 Bft) W 259 ° 1 min 0,000 mm 3,4 UV-I 401 W/m² 14,1 °C 19,5 °C 11,3 km/h (2 Bft)
11.07.2017 10:46 19,6 °C 19,6 °C 71 % 1013,1 hPa 0,0 mm 4,7 km/h (1 Bft) W-SW 250 ° 1 min 0,000 mm 3,5 UV-I 415 W/m² 14,2 °C 19,6 °C 9,7 km/h (2 Bft)
11.07.2017 10:47 19,6 °C 19,6 °C 69 % 1013,1 hPa 0,0 mm 4,7 km/h (1 Bft) N-NW 327 ° 1 min 0,000 mm 3,6 UV-I 418 W/m² 13,8 °C 19,6 °C 6,4 km/h (2 Bft)
11.07.2017 10:48 19,7 °C 19,7 °C 70 % 1013,1 hPa 0,0 mm 9,4 km/h (2 Bft) W-NW 288 ° 1 min 0,000 mm 3,6 UV-I 501 W/m² 14,1 °C 19,7 °C 17,7 km/h (3 Bft)
11.07.2017 10:49 19,7 °C 19,7 °C 69 % 1013,1 hPa 0,0 mm 12,3 km/h (3 Bft) W 273 ° 1 min 0,000 mm 4,2 UV-I 527 W/m² 13,8 °C 19,7 °C 16,1 km/h (3 Bft)
11.07.2017 10:50 19,7 °C 19,7 °C 68 % 1013,1 hPa 0,0 mm 11,4 km/h (2 Bft) W-NW 288 ° 1 min 0,000 mm 3,3 UV-I 527 W/m² 13,6 °C 19,7 °C 19,3 km/h (3 Bft)
11.07.2017 10:51 19,6 °C 19,7 °C 66 % 1013,2 hPa 0,0 mm 14,1 km/h (3 Bft) W-NW 294 ° 1 min 0,000 mm 3,9 UV-I 527 W/m² 13,1 °C 19,6 °C 20,9 km/h (4 Bft)
11.07.2017 10:52 19,6 °C 19,7 °C 68 % 1013,1 hPa 0,0 mm 11,2 km/h (2 Bft) NW 309 ° 1 min 0,000 mm 4,3 UV-I 524 W/m² 13,5 °C 19,6 °C 12,9 km/h (3 Bft)
11.07.2017 10:53 19,7 °C 19,7 °C 70 % 1013,1 hPa 0,0 mm 9,8 km/h (2 Bft) W 265 ° 1 min 0,000 mm 4,3 UV-I 543 W/m² 14,1 °C 19,7 °C 19,3 km/h (3 Bft)
11.07.2017 10:54 19,7 °C 19,7 °C 66 % 1013,2 hPa 0,0 mm 13,1 km/h (3 Bft) W 266 ° 1 min 0,000 mm 4,2 UV-I 547 W/m² 13,2 °C 19,7 °C 19,3 km/h (3 Bft)
11.07.2017 10:55 19,7 °C 19,7 °C 67 % 1013,2 hPa 0,0 mm 18,6 km/h (3 Bft) W 262 ° 1 min 0,000 mm 4,6 UV-I 547 W/m² 13,4 °C 19,7 °C 22,5 km/h (4 Bft)
11.07.2017 10:56 19,6 °C 19,7 °C 68 % 1013,2 hPa 0,0 mm 13,4 km/h (3 Bft) W 274 ° 1 min 0,000 mm 4,5 UV-I 592 W/m² 13,5 °C 19,6 °C 22,5 km/h (4 Bft)
11.07.2017 10:57 19,7 °C 19,7 °C 68 % 1013,2 hPa 0,0 mm 10,8 km/h (2 Bft) W 276 ° 1 min 0,000 mm 4,0 UV-I 508 W/m² 13,6 °C 19,7 °C 16,1 km/h (3 Bft)
11.07.2017 10:58 19,7 °C 19,7 °C 69 % 1013,2 hPa 0,0 mm 13,2 km/h (3 Bft) W-SW 257 ° 1 min 0,000 mm 3,9 UV-I 431 W/m² 13,8 °C 19,7 °C 24,1 km/h (4 Bft)
11.07.2017 10:59 19,7 °C 19,7 °C 68 % 1013,2 hPa 0,0 mm 15,2 km/h (3 Bft) W 279 ° 1 min 0,000 mm 4,2 UV-I 432 W/m² 13,6 °C 19,7 °C 20,9 km/h (4 Bft)
11.07.2017 11:00 19,7 °C 19,7 °C 68 % 1013,2 hPa 0,0 mm 10,4 km/h (2 Bft) W-NW 295 ° 1 min 0,000 mm 4,6 UV-I 529 W/m² 13,6 °C 19,7 °C 20,9 km/h (4 Bft)
11.07.2017 11:01 19,7 °C 19,7 °C 67 % 1013,2 hPa 0,0 mm 14,7 km/h (3 Bft) W-NW 297 ° 1 min 0,356 mm 4,6 UV-I 613 W/m² 13,4 °C 19,7 °C 22,5 km/h (4 Bft)
11.07.2017 11:02 19,7 °C 19,7 °C 68 % 1013,2 hPa 0,0 mm 11,7 km/h (2 Bft) W-NW 284 ° 1 min 0,000 mm 4,6 UV-I 566 W/m² 13,6 °C 19,7 °C 17,7 km/h (3 Bft)
11.07.2017 11:03 19,7 °C 19,7 °C 66 % 1013,2 hPa 0,0 mm 10,0 km/h (2 Bft) W-NW 294 ° 1 min 0,000 mm 5,2 UV-I 652 W/m² 13,2 °C 19,7 °C 19,3 km/h (3 Bft)
11.07.2017 11:04 19,8 °C 19,8 °C 67 % 1013,2 hPa 0,0 mm 13,8 km/h (3 Bft) W-SW 246 ° 1 min 0,000 mm 5,6 UV-I 652 W/m² 13,5 °C 19,8 °C 19,3 km/h (3 Bft)
11.07.2017 11:05 19,8 °C 19,8 °C 66 % 1013,2 hPa 0,0 mm 12,8 km/h (3 Bft) W 277 ° 1 min 0,000 mm 5,3 UV-I 722 W/m² 13,3 °C 19,8 °C 17,7 km/h (3 Bft)
11.07.2017 11:06 19,8 °C 19,8 °C 67 % 1013,4 hPa 0,0 mm 12,1 km/h (2 Bft) W 259 ° 1 min 0,000 mm 3,7 UV-I 722 W/m² 13,5 °C 19,8 °C 19,3 km/h (3 Bft)
11.07.2017 11:07 19,8 °C 19,8 °C 67 % 1013,4 hPa 0,0 mm 8,9 km/h (2 Bft) W 265 ° 1 min 0,000 mm 3,6 UV-I 362 W/m² 13,5 °C 19,8 °C 12,9 km/h (3 Bft)
11.07.2017 11:08 19,8 °C 19,8 °C 70 % 1013,4 hPa 0,0 mm 9,0 km/h (2 Bft) W 277 ° 1 min 0,000 mm 4,6 UV-I 362 W/m² 14,2 °C 19,8 °C 14,5 km/h (3 Bft)
11.07.2017 11:09 19,8 °C 19,9 °C 67 % 1013,4 hPa 0,0 mm 12,7 km/h (3 Bft) W-NW 284 ° 1 min 0,000 mm 5,3 UV-I 362 W/m² 13,5 °C 19,8 °C 19,3 km/h (3 Bft)
11.07.2017 11:10 19,9 °C 19,9 °C 67 % 1013,3 hPa 0,0 mm 9,7 km/h (2 Bft) W 279 ° 1 min 0,000 mm 5,8 UV-I 770 W/m² 13,6 °C 19,9 °C 14,5 km/h (3 Bft)
11.07.2017 11:11 20,0 °C 20,0 °C 66 % 1013,2 hPa 0,0 mm 10,0 km/h (2 Bft) W-SW 258 ° 1 min 0,000 mm 4,5 UV-I 770 W/m² 13,4 °C 20,0 °C 12,9 km/h (3 Bft)
11.07.2017 11:12 20,0 °C 20,0 °C 69 % 1013,3 hPa 0,0 mm 9,7 km/h (2 Bft) W 263 ° 1 min 0,000 mm 5,1 UV-I 708 W/m² 14,1 °C 20,0 °C 14,5 km/h (3 Bft)
11.07.2017 11:13 20,1 °C 20,1 °C 69 % 1013,3 hPa 0,0 mm 12,3 km/h (3 Bft) W-NW 303 ° 1 min 0,000 mm 5,6 UV-I 742 W/m² 14,2 °C 20,1 °C 16,1 km/h (3 Bft)
11.07.2017 11:14 20,2 °C 20,2 °C 68 % 1013,3 hPa 0,0 mm 9,9 km/h (2 Bft) W 277 ° 1 min 0,000 mm 5,8 UV-I 772 W/m² 14,1 °C 20,2 °C 14,5 km/h (3 Bft)
11.07.2017 11:15 20,3 °C 20,3 °C 70 % 1013,3 hPa 0,0 mm 7,0 km/h (2 Bft) NW 312 ° 1 min 0,000 mm 6,0 UV-I 814 W/m² 14,6 °C 20,3 °C 14,5 km/h (3 Bft)
11.07.2017 11:16 20,4 °C 20,4 °C 69 % 1013,2 hPa 0,0 mm 12,5 km/h (3 Bft) NW 326 ° 1 min 0,000 mm 5,9 UV-I 805 W/m² 14,5 °C 20,4 °C 17,7 km/h (3 Bft)
11.07.2017 11:17 20,4 °C 20,4 °C 66 % 1013,2 hPa 0,0 mm 8,9 km/h (2 Bft) W-NW 303 ° 1 min 0,000 mm 6,0 UV-I 810 W/m² 13,8 °C 20,4 °C 12,9 km/h (3 Bft)
11.07.2017 11:18 20,4 °C 20,4 °C 67 % 1013,2 hPa 0,0 mm 9,6 km/h (2 Bft) W-NW 282 ° 1 min 0,000 mm 5,8 UV-I 788 W/m² 14,1 °C 20,4 °C 17,7 km/h (3 Bft)
11.07.2017 11:19 20,4 °C 20,4 °C 66 % 1013,2 hPa 0,0 mm 14,6 km/h (3 Bft) W-NW 301 ° 1 min 0,000 mm 5,2 UV-I 788 W/m² 13,8 °C 20,4 °C 19,3 km/h (3 Bft)
11.07.2017 11:20 20,4 °C 20,4 °C 63 % 1013,2 hPa 0,0 mm 10,0 km/h (2 Bft) N-NW 329 ° 1 min 0,000 mm 4,8 UV-I 594 W/m² 13,1 °C 20,4 °C 17,7 km/h (3 Bft)
11.07.2017 11:21 20,3 °C 20,4 °C 66 % 1013,2 hPa 0,0 mm 8,3 km/h (2 Bft) NW 307 ° 1 min 0,000 mm 4,6 UV-I 568 W/m² 13,7 °C 20,3 °C 14,5 km/h (3 Bft)
11.07.2017 11:22 20,3 °C 20,3 °C 66 % 1013,1 hPa 0,0 mm 13,9 km/h (3 Bft) W 269 ° 1 min 0,000 mm 4,1 UV-I 487 W/m² 13,7 °C 20,3 °C 19,3 km/h (3 Bft)
11.07.2017 11:23 20,2 °C 20,3 °C 66 % 1013,1 hPa 0,0 mm 11,1 km/h (2 Bft) W 276 ° 1 min 0,000 mm 3,9 UV-I 432 W/m² 13,6 °C 20,2 °C 19,3 km/h (3 Bft)
11.07.2017 11:24 20,1 °C 20,2 °C 66 % 1013,2 hPa 0,0 mm 13,2 km/h (3 Bft) SW 215 ° 1 min 0,000 mm 4,1 UV-I 459 W/m² 13,5 °C 20,1 °C 22,5 km/h (4 Bft)
11.07.2017 11:25 19,9 °C 20,1 °C 65 % 1013,2 hPa 0,0 mm 4,7 km/h (1 Bft) W 277 ° 1 min 0,000 mm 4,1 UV-I 483 W/m² 13,1 °C 19,9 °C 8,0 km/h (2 Bft)
11.07.2017 11:26 19,9 °C 19,9 °C 67 % 1013,2 hPa 0,0 mm 10,2 km/h (2 Bft) W-NW 291 ° 1 min 0,000 mm 4,3 UV-I 531 W/m² 13,6 °C 19,9 °C 16,1 km/h (3 Bft)
11.07.2017 11:27 19,9 °C 19,9 °C 70 % 1013,2 hPa 0,0 mm 6,8 km/h (2 Bft) SW 225 ° 1 min 0,000 mm 4,5 UV-I 547 W/m² 14,3 °C 19,9 °C 12,9 km/h (3 Bft)
11.07.2017 11:28 20,0 °C 20,0 °C 70 % 1013,3 hPa 0,0 mm 9,1 km/h (2 Bft) W 275 ° 1 min 0,000 mm 4,1 UV-I 524 W/m² 14,4 °C 20,0 °C 12,9 km/h (3 Bft)
11.07.2017 11:29 20,1 °C 20,1 °C 67 % 1013,3 hPa 0,0 mm 5,2 km/h (1 Bft) W 276 ° 1 min 0,000 mm 3,9 UV-I 432 W/m² 13,8 °C 20,1 °C 11,3 km/h (2 Bft)
11.07.2017 11:30 20,0 °C 20,1 °C 67 % 1013,3 hPa 0,0 mm 6,3 km/h (2 Bft) W-NW 303 ° 1 min 0,000 mm 4,9 UV-I 432 W/m² 13,7 °C 20,0 °C 8,0 km/h (2 Bft)
11.07.2017 11:31 19,9 °C 20,0 °C 65 % 1013,3 hPa 0,0 mm 13,0 km/h (3 Bft) NW 307 ° 1 min 0,000 mm 4,6 UV-I 589 W/m² 13,1 °C 19,9 °C 22,5 km/h (4 Bft)
11.07.2017 11:32 19,8 °C 19,9 °C 65 % 1013,3 hPa 0,0 mm 9,2 km/h (2 Bft) W 277 ° 1 min 0,000 mm 4,5 UV-I 555 W/m² 13,0 °C 19,8 °C 12,9 km/h (3 Bft)
11.07.2017 11:33 19,8 °C 19,8 °C 65 % 1013,3 hPa 0,0 mm 12,8 km/h (3 Bft) NW 304 ° 1 min 0,000 mm 4,4 UV-I 541 W/m² 13,0 °C 19,8 °C 20,9 km/h (4 Bft)
11.07.2017 11:34 19,8 °C 19,8 °C 67 % 1013,3 hPa 0,0 mm 11,4 km/h (2 Bft) W-NW 294 ° 1 min 0,000 mm 4,3 UV-I 512 W/m² 13,5 °C 19,8 °C 17,7 km/h (3 Bft)
11.07.2017 11:35 19,8 °C 19,8 °C 68 % 1013,4 hPa 0,0 mm 9,8 km/h (2 Bft) NW 321 ° 1 min 0,000 mm 4,4 UV-I 526 W/m² 13,7 °C 19,8 °C 14,5 km/h (3 Bft)
11.07.2017 11:36 19,8 °C 19,8 °C 68 % 1013,3 hPa 0,0 mm 12,7 km/h (3 Bft) NW 305 ° 1 min 0,000 mm 4,5 UV-I 536 W/m² 13,7 °C 19,8 °C 20,9 km/h (4 Bft)
11.07.2017 11:37 19,8 °C 19,8 °C 65 % 1013,3 hPa 0,0 mm 9,9 km/h (2 Bft) S-SW 210 ° 1 min 0,000 mm 4,6 UV-I 547 W/m² 13,0 °C 19,8 °C 17,7 km/h (3 Bft)
11.07.2017 11:38 19,8 °C 19,8 °C 67 % 1013,4 hPa 0,0 mm 15,2 km/h (3 Bft) W 269 ° 1 min 0,000 mm 4,6 UV-I 545 W/m² 13,5 °C 19,8 °C 19,3 km/h (3 Bft)
11.07.2017 11:39 19,8 °C 19,8 °C 67 % 1013,3 hPa 0,0 mm 13,1 km/h (3 Bft) W 267 ° 1 min 0,000 mm 4,7 UV-I 573 W/m² 13,5 °C 19,8 °C 17,7 km/h (3 Bft)
11.07.2017 11:40 19,9 °C 19,9 °C 69 % 1013,3 hPa 0,0 mm 6,6 km/h (2 Bft) SW 235 ° 1 min 0,000 mm 4,8 UV-I 561 W/m² 14,0 °C 19,9 °C 11,3 km/h (2 Bft)
11.07.2017 11:41 19,9 °C 19,9 °C 69 % 1013,3 hPa 0,0 mm 9,3 km/h (2 Bft) W 263 ° 1 min 0,000 mm 4,7 UV-I 517 W/m² 14,0 °C 19,9 °C 16,1 km/h (3 Bft)
11.07.2017 11:42 20,0 °C 20,0 °C 68 % 1013,4 hPa 0,0 mm 15,1 km/h (3 Bft) NW 315 ° 1 min 0,000 mm 4,7 UV-I 541 W/m² 13,9 °C 20,0 °C 17,7 km/h (3 Bft)
11.07.2017 11:43 19,9 °C 20,0 °C 67 % 1013,3 hPa 0,0 mm 11,6 km/h (2 Bft) W 272 ° 1 min 0,000 mm 4,7 UV-I 552 W/m² 13,6 °C 19,9 °C 17,7 km/h (3 Bft)
11.07.2017 11:44 19,9 °C 19,9 °C 67 % 1013,4 hPa 0,0 mm 9,3 km/h (2 Bft) W 267 ° 1 min 0,000 mm 5,1 UV-I 582 W/m² 13,6 °C 19,9 °C 17,7 km/h (3 Bft)
11.07.2017 11:45 19,8 °C 19,9 °C 65 % 1013,4 hPa 0,0 mm 11,9 km/h (2 Bft) NW 324 ° 1 min 0,000 mm 5,1 UV-I 649 W/m² 13,0 °C 19,8 °C 20,9 km/h (4 Bft)
11.07.2017 11:46 19,9 °C 19,9 °C 67 % 1013,4 hPa 0,0 mm 10,3 km/h (2 Bft) W 261 ° 1 min 0,000 mm 5,3 UV-I 601 W/m² 13,6 °C 19,9 °C 20,9 km/h (4 Bft)
11.07.2017 11:47 19,8 °C 19,9 °C 65 % 1013,4 hPa 0,0 mm 14,1 km/h (3 Bft) NW 309 ° 1 min 0,000 mm 5,3 UV-I 613 W/m² 13,0 °C 19,8 °C 25,7 km/h (4 Bft)
11.07.2017 11:48 19,9 °C 19,9 °C 67 % 1013,4 hPa 0,0 mm 6,4 km/h (2 Bft) W 263 ° 1 min 0,000 mm 5,5 UV-I 679 W/m² 13,6 °C 19,9 °C 17,7 km/h (3 Bft)
11.07.2017 11:49 20,0 °C 20,0 °C 69 % 1013,4 hPa 0,0 mm 20,3 km/h (4 Bft) W 275 ° 1 min 0,000 mm 5,6 UV-I 700 W/m² 14,1 °C 20,0 °C 25,7 km/h (4 Bft)
11.07.2017 11:50 20,1 °C 20,1 °C 68 % 1013,4 hPa 0,0 mm 13,9 km/h (3 Bft) W 275 ° 1 min 0,000 mm 5,8 UV-I 731 W/m² 14,0 °C 20,1 °C 19,3 km/h (3 Bft)
11.07.2017 11:51 20,2 °C 20,2 °C 68 % 1013,3 hPa 0,0 mm 11,6 km/h (2 Bft) NW 321 ° 1 min 0,000 mm 5,8 UV-I 765 W/m² 14,1 °C 20,2 °C 16,1 km/h (3 Bft)
11.07.2017 11:52 20,3 °C 20,3 °C 68 % 1013,4 hPa 0,0 mm 4,8 km/h (1 Bft) W-SW 255 ° 1 min 0,000 mm 6,2 UV-I 768 W/m² 14,2 °C 20,3 °C 12,9 km/h (3 Bft)
11.07.2017 11:53 20,3 °C 20,3 °C 67 % 1013,3 hPa 0,0 mm 11,3 km/h (2 Bft) W-SW 252 ° 1 min 0,000 mm 6,1 UV-I 751 W/m² 14,0 °C 20,3 °C 16,1 km/h (3 Bft)
11.07.2017 11:54 20,4 °C 20,4 °C 67 % 1013,3 hPa 0,0 mm 9,1 km/h (2 Bft) W 280 ° 1 min 0,000 mm 6,1 UV-I 758 W/m² 14,1 °C 20,4 °C 17,7 km/h (3 Bft)
11.07.2017 11:55 20,4 °C 20,4 °C 68 % 1013,3 hPa 0,0 mm 6,0 km/h (2 Bft) N-NW 329 ° 1 min 0,000 mm 5,5 UV-I 758 W/m² 14,3 °C 20,4 °C 12,9 km/h (3 Bft)
11.07.2017 11:56 20,5 °C 20,5 °C 68 % 1013,2 hPa 0,0 mm 8,4 km/h (2 Bft) W 265 ° 1 min 0,000 mm 5,7 UV-I 647 W/m² 14,4 °C 20,5 °C 16,1 km/h (3 Bft)
11.07.2017 11:57 20,6 °C 20,6 °C 66 % 1013,3 hPa 0,0 mm 13,5 km/h (3 Bft) W 269 ° 1 min 0,000 mm 5,9 UV-I 715 W/m² 14,0 °C 20,6 °C 17,7 km/h (3 Bft)
11.07.2017 11:58 20,6 °C 20,6 °C 65 % 1013,2 hPa 0,0 mm 7,7 km/h (2 Bft) W-NW 302 ° 1 min 0,000 mm 6,1 UV-I 837 W/m² 13,8 °C 20,6 °C 17,7 km/h (3 Bft)
11.07.2017 11:59 20,6 °C 20,6 °C 64 % 1013,2 hPa 0,0 mm 10,6 km/h (2 Bft) W 269 ° 1 min 0,000 mm 6,8 UV-I 854 W/m² 13,5 °C 20,6 °C 16,1 km/h (3 Bft)
11.07.2017 12:00 20,7 °C 20,7 °C 66 % 1013,2 hPa 0,0 mm 9,7 km/h (2 Bft) W 269 ° 1 min 0,000 mm 7,1 UV-I 902 W/m² 14,1 °C 20,7 °C 14,5 km/h (3 Bft)
11.07.2017 12:01 20,8 °C 20,8 °C 68 % 1013,1 hPa 0,0 mm 9,7 km/h (2 Bft) W 273 ° 1 min 0,406 mm 7,2 UV-I 916 W/m² 14,7 °C 20,8 °C 16,1 km/h (3 Bft)
11.07.2017 12:02 20,9 °C 20,9 °C 65 % 1013,2 hPa 0,0 mm 11,8 km/h (2 Bft) NW 308 ° 1 min 0,000 mm 7,3 UV-I 928 W/m² 14,1 °C 20,9 °C 17,7 km/h (3 Bft)
11.07.2017 12:03 21,1 °C 21,1 °C 64 % 1013,1 hPa 0,0 mm 9,6 km/h (2 Bft) W-SW 245 ° 1 min 0,000 mm 7,5 UV-I 919 W/m² 14,0 °C 21,1 °C 14,5 km/h (3 Bft)
11.07.2017 12:04 21,1 °C 21,1 °C 63 % 1013,1 hPa 0,0 mm 9,7 km/h (2 Bft) W 263 ° 1 min 0,000 mm 7,3 UV-I 912 W/m² 13,8 °C 21,1 °C 16,1 km/h (3 Bft)
11.07.2017 12:05 21,2 °C 21,2 °C 67 % 1013,1 hPa 0,0 mm 5,9 km/h (2 Bft) NW 313 ° 1 min 0,000 mm 7,4 UV-I 918 W/m² 14,8 °C 21,2 °C 12,9 km/h (3 Bft)
11.07.2017 12:06 21,3 °C 21,3 °C 65 % 1013,1 hPa 0,0 mm 11,1 km/h (2 Bft) W 261 ° 1 min 0,000 mm 7,4 UV-I 918 W/m² 14,4 °C 21,3 °C 16,1 km/h (3 Bft)
11.07.2017 12:07 21,2 °C 21,3 °C 65 % 1013,1 hPa 0,0 mm 11,5 km/h (2 Bft) NW 323 ° 1 min 0,000 mm 7,4 UV-I 944 W/m² 14,4 °C 21,2 °C 16,1 km/h (3 Bft)
11.07.2017 12:08 21,2 °C 21,2 °C 65 % 1013,1 hPa 0,0 mm 7,8 km/h (2 Bft) NW 325 ° 1 min 0,000 mm 7,3 UV-I 925 W/m² 14,4 °C 21,2 °C 12,9 km/h (3 Bft)
11.07.2017 12:09 21,3 °C 21,3 °C 66 % 1013,0 hPa 0,0 mm 7,4 km/h (2 Bft) W 273 ° 1 min 0,000 mm 7,3 UV-I 911 W/m² 14,7 °C 21,3 °C 9,7 km/h (2 Bft)
11.07.2017 12:10 21,3 °C 21,3 °C 67 % 1013,1 hPa 0,0 mm 7,8 km/h (2 Bft) W-NW 302 ° 1 min 0,000 mm 7,4 UV-I 932 W/m² 14,9 °C 21,3 °C 14,5 km/h (3 Bft)
11.07.2017 12:11 21,3 °C 21,3 °C 63 % 1013,0 hPa 0,0 mm 9,1 km/h (2 Bft) W 271 ° 1 min 0,000 mm 7,4 UV-I 921 W/m² 14,0 °C 21,3 °C 12,9 km/h (3 Bft)
11.07.2017 12:12 21,3 °C 21,4 °C 63 % 1013,1 hPa 0,0 mm 10,0 km/h (2 Bft) W 278 ° 1 min 0,000 mm 7,5 UV-I 960 W/m² 14,0 °C 21,3 °C 14,5 km/h (3 Bft)
11.07.2017 12:13 21,3 °C 21,3 °C 64 % 1013,0 hPa 0,0 mm 7,2 km/h (2 Bft) W-NW 291 ° 1 min 0,000 mm 7,6 UV-I 960 W/m² 14,2 °C 21,3 °C 17,7 km/h (3 Bft)
11.07.2017 12:14 21,2 °C 21,3 °C 68 % 1013,0 hPa 0,0 mm 11,4 km/h (2 Bft) W-SW 255 ° 1 min 0,000 mm 7,8 UV-I 984 W/m² 15,1 °C 21,2 °C 16,1 km/h (3 Bft)
11.07.2017 12:15 21,2 °C 21,2 °C 63 % 1013,0 hPa 0,0 mm 13,9 km/h (3 Bft) W 273 ° 1 min 0,000 mm 7,9 UV-I 1018 W/m² 13,9 °C 21,2 °C 22,5 km/h (4 Bft)
11.07.2017 12:16 21,1 °C 21,2 °C 65 % 1013,0 hPa 0,0 mm 13,1 km/h (3 Bft) W 280 ° 1 min 0,000 mm 7,9 UV-I 1042 W/m² 14,3 °C 21,1 °C 16,1 km/h (3 Bft)
11.07.2017 12:17 21,0 °C 21,1 °C 64 % 1013,0 hPa 0,0 mm 7,6 km/h (2 Bft) N-NW 340 ° 1 min 0,000 mm 8,1 UV-I 1053 W/m² 13,9 °C 21,0 °C 14,5 km/h (3 Bft)
11.07.2017 12:18 20,9 °C 21,0 °C 64 % 1013,0 hPa 0,0 mm 10,8 km/h (2 Bft) W 279 ° 1 min 0,000 mm 7,9 UV-I 1072 W/m² 13,8 °C 20,9 °C 22,5 km/h (4 Bft)
11.07.2017 12:19 20,9 °C 21,0 °C 67 % 1013,0 hPa 0,0 mm 14,5 km/h (3 Bft) NW 308 ° 1 min 0,000 mm 7,8 UV-I 1062 W/m² 14,5 °C 20,9 °C 22,5 km/h (4 Bft)
11.07.2017 12:20 21,0 °C 21,0 °C 66 % 1013,0 hPa 0,0 mm 14,7 km/h (3 Bft) W 269 ° 1 min 0,000 mm 7,8 UV-I 1062 W/m² 14,4 °C 21,0 °C 17,7 km/h (3 Bft)
11.07.2017 12:21 21,1 °C 21,1 °C 66 % 1012,9 hPa 0,0 mm 10,5 km/h (2 Bft) W 267 ° 1 min 0,000 mm 7,3 UV-I 1062 W/m² 14,5 °C 21,1 °C 14,5 km/h (3 Bft)
11.07.2017 12:22 21,0 °C 21,1 °C 66 % 1012,9 hPa 0,0 mm 15,3 km/h (3 Bft) W 278 ° 1 min 0,000 mm 4,7 UV-I 1062 W/m² 14,4 °C 21,0 °C 20,9 km/h (4 Bft)
11.07.2017 12:23 20,8 °C 21,0 °C 65 % 1012,9 hPa 0,0 mm 10,3 km/h (2 Bft) W 261 ° 1 min 0,000 mm 4,5 UV-I 457 W/m² 14,0 °C 20,8 °C 17,7 km/h (3 Bft)
11.07.2017 12:24 20,6 °C 20,8 °C 64 % 1012,9 hPa 0,0 mm 9,9 km/h (2 Bft) W-NW 296 ° 1 min 0,000 mm 4,6 UV-I 454 W/m² 13,5 °C 20,6 °C 16,1 km/h (3 Bft)
11.07.2017 12:25 20,6 °C 20,7 °C 67 % 1012,9 hPa 0,0 mm 5,7 km/h (1 Bft) NW 319 ° 1 min 0,000 mm 4,9 UV-I 499 W/m² 14,3 °C 20,6 °C 8,0 km/h (2 Bft)
11.07.2017 12:26 20,5 °C 20,6 °C 67 % 1012,9 hPa 0,0 mm 7,0 km/h (2 Bft) NW 315 ° 1 min 0,000 mm 5,5 UV-I 499 W/m² 14,2 °C 20,5 °C 11,3 km/h (2 Bft)
11.07.2017 12:27 20,5 °C 20,5 °C 68 % 1012,9 hPa 0,0 mm 7,7 km/h (2 Bft) NW 320 ° 1 min 0,000 mm 5,7 UV-I 650 W/m² 14,4 °C 20,5 °C 12,9 km/h (3 Bft)
11.07.2017 12:28 20,6 °C 20,6 °C 67 % 1012,9 hPa 0,0 mm 7,3 km/h (2 Bft) W-NW 298 ° 1 min 0,000 mm 6,3 UV-I 668 W/m² 14,3 °C 20,6 °C 11,3 km/h (2 Bft)
11.07.2017 12:29 20,6 °C 20,6 °C 68 % 1012,9 hPa 0,0 mm 9,1 km/h (2 Bft) W-SW 254 ° 1 min 0,000 mm 4,9 UV-I 668 W/m² 14,5 °C 20,6 °C 14,5 km/h (3 Bft)
11.07.2017 12:30 20,6 °C 20,6 °C 68 % 1012,9 hPa 0,0 mm 15,0 km/h (3 Bft) W-NW 285 ° 1 min 0,000 mm 4,9 UV-I 517 W/m² 14,5 °C 20,6 °C 19,3 km/h (3 Bft)
11.07.2017 12:31 20,5 °C 20,6 °C 65 % 1012,9 hPa 0,0 mm 8,2 km/h (2 Bft) W-NW 297 ° 1 min 0,000 mm 5,5 UV-I 547 W/m² 13,7 °C 20,5 °C 16,1 km/h (3 Bft)
11.07.2017 12:32 20,4 °C 20,5 °C 67 % 1012,9 hPa 0,0 mm 8,2 km/h (2 Bft) W 271 ° 1 min 0,000 mm 5,0 UV-I 538 W/m² 14,1 °C 20,4 °C 11,3 km/h (2 Bft)
11.07.2017 12:33 20,4 °C 20,4 °C 66 % 1012,9 hPa 0,0 mm 4,3 km/h (1 Bft) NW 321 ° 1 min 0,000 mm 5,3 UV-I 454 W/m² 13,8 °C 20,4 °C 6,4 km/h (2 Bft)
11.07.2017 12:34 20,4 °C 20,4 °C 69 % 1012,8 hPa 0,0 mm 8,9 km/h (2 Bft) N-NW 328 ° 1 min 0,000 mm 4,5 UV-I 457 W/m² 14,5 °C 20,4 °C 12,9 km/h (3 Bft)
11.07.2017 12:35 20,4 °C 20,4 °C 67 % 1012,9 hPa 0,0 mm 10,0 km/h (2 Bft) NW 325 ° 1 min 0,000 mm 4,0 UV-I 399 W/m² 14,1 °C 20,4 °C 14,5 km/h (3 Bft)
11.07.2017 12:36 20,4 °C 20,4 °C 68 % 1012,9 hPa 0,0 mm 9,7 km/h (2 Bft) W-NW 286 ° 1 min 0,000 mm 3,8 UV-I 404 W/m² 14,3 °C 20,4 °C 12,9 km/h (3 Bft)
11.07.2017 12:37 20,3 °C 20,4 °C 68 % 1012,9 hPa 0,0 mm 11,0 km/h (2 Bft) W 281 ° 1 min 0,000 mm 3,6 UV-I 343 W/m² 14,2 °C 20,3 °C 17,7 km/h (3 Bft)
11.07.2017 12:38 20,3 °C 20,4 °C 68 % 1012,9 hPa 0,0 mm 7,6 km/h (2 Bft) W-SW 257 ° 1 min 0,000 mm 3,5 UV-I 327 W/m² 14,2 °C 20,3 °C 16,1 km/h (3 Bft)
11.07.2017 12:39 20,2 °C 20,3 °C 68 % 1012,9 hPa 0,0 mm 14,0 km/h (3 Bft) W-SW 251 ° 1 min 0,000 mm 3,4 UV-I 320 W/m² 14,1 °C 20,2 °C 17,7 km/h (3 Bft)
11.07.2017 12:40 20,0 °C 20,2 °C 68 % 1012,8 hPa 0,0 mm 11,5 km/h (2 Bft) W-NW 300 ° 1 min 0,000 mm 3,7 UV-I 339 W/m² 13,9 °C 20,0 °C 16,1 km/h (3 Bft)
11.07.2017 12:41 19,9 °C 20,0 °C 67 % 1012,8 hPa 0,0 mm 11,2 km/h (2 Bft) W 267 ° 1 min 0,000 mm 3,7 UV-I 352 W/m² 13,6 °C 19,9 °C 19,3 km/h (3 Bft)
11.07.2017 12:42 19,9 °C 19,9 °C 69 % 1012,8 hPa 0,0 mm 8,0 km/h (2 Bft) W-SW 245 ° 1 min 0,000 mm 3,7 UV-I 364 W/m² 14,0 °C 19,9 °C 14,5 km/h (3 Bft)
11.07.2017 12:43 19,8 °C 19,9 °C 68 % 1012,9 hPa 0,0 mm 8,2 km/h (2 Bft) W 273 ° 1 min 0,000 mm 3,9 UV-I 388 W/m² 13,7 °C 19,8 °C 14,5 km/h (3 Bft)
11.07.2017 12:44 19,9 °C 19,9 °C 70 % 1012,8 hPa 0,0 mm 9,8 km/h (2 Bft) NW 322 ° 1 min 0,000 mm 4,2 UV-I 429 W/m² 14,3 °C 19,9 °C 14,5 km/h (3 Bft)
11.07.2017 12:45 19,9 °C 19,9 °C 69 % 1012,8 hPa 0,0 mm 7,4 km/h (2 Bft) NW 321 ° 1 min 0,000 mm 4,4 UV-I 529 W/m² 14,0 °C 19,9 °C 9,7 km/h (2 Bft)
11.07.2017 12:46 19,9 °C 19,9 °C 69 % 1012,9 hPa 0,0 mm 9,3 km/h (2 Bft) W 281 ° 1 min 0,000 mm 6,7 UV-I 529 W/m² 14,0 °C 19,9 °C 14,5 km/h (3 Bft)
11.07.2017 12:47 20,1 °C 20,1 °C 69 % 1012,9 hPa 0,0 mm 9,3 km/h (2 Bft) NW 317 ° 1 min 0,000 mm 6,4 UV-I 751 W/m² 14,2 °C 20,1 °C 14,5 km/h (3 Bft)
11.07.2017 12:48 20,2 °C 20,2 °C 69 % 1012,8 hPa 0,0 mm 6,9 km/h (2 Bft) NW 308 ° 1 min 0,000 mm 7,3 UV-I 751 W/m² 14,3 °C 20,2 °C 11,3 km/h (2 Bft)
11.07.2017 12:49 20,4 °C 20,4 °C 69 % 1012,8 hPa 0,0 mm 8,3 km/h (2 Bft) NW 323 ° 1 min 0,000 mm 8,0 UV-I 751 W/m² 14,5 °C 20,4 °C 12,9 km/h (3 Bft)
11.07.2017 12:50 20,4 °C 20,4 °C 69 % 1012,8 hPa 0,0 mm 7,4 km/h (2 Bft) NW 314 ° 1 min 0,000 mm 5,3 UV-I 617 W/m² 14,5 °C 20,4 °C 11,3 km/h (2 Bft)
11.07.2017 12:51 20,6 °C 20,6 °C 70 % 1012,8 hPa 0,0 mm 7,5 km/h (2 Bft) W 265 ° 1 min 0,000 mm 5,5 UV-I 684 W/m² 14,9 °C 20,6 °C 12,9 km/h (3 Bft)
11.07.2017 12:52 20,7 °C 20,7 °C 68 % 1012,8 hPa 0,0 mm 6,1 km/h (2 Bft) W-NW 288 ° 1 min 0,000 mm 5,7 UV-I 693 W/m² 14,6 °C 20,7 °C 14,5 km/h (3 Bft)
11.07.2017 12:53 20,6 °C 20,7 °C 67 % 1012,9 hPa 0,0 mm 7,2 km/h (2 Bft) W-NW 298 ° 1 min 0,000 mm 4,7 UV-I 693 W/m² 14,3 °C 20,6 °C 14,5 km/h (3 Bft)
11.07.2017 12:54 20,5 °C 20,6 °C 69 % 1012,9 hPa 0,0 mm 7,4 km/h (2 Bft) NW 319 ° 1 min 0,000 mm 5,4 UV-I 522 W/m² 14,6 °C 20,5 °C 11,3 km/h (2 Bft)
11.07.2017 12:55 20,5 °C 20,6 °C 68 % 1012,9 hPa 0,0 mm 4,8 km/h (1 Bft) W 273 ° 1 min 0,000 mm 5,1 UV-I 564 W/m² 14,4 °C 20,5 °C 9,7 km/h (2 Bft)
11.07.2017 12:56 20,6 °C 20,6 °C 68 % 1012,9 hPa 0,0 mm 9,8 km/h (2 Bft) W 269 ° 1 min 0,000 mm 6,2 UV-I 763 W/m² 14,5 °C 20,6 °C 14,5 km/h (3 Bft)
11.07.2017 12:57 20,7 °C 20,7 °C 71 % 1012,8 hPa 0,0 mm 6,4 km/h (2 Bft) W-NW 290 ° 1 min 0,000 mm 6,0 UV-I 701 W/m² 15,2 °C 20,7 °C 9,7 km/h (2 Bft)
11.07.2017 12:58 20,7 °C 20,7 °C 69 % 1012,8 hPa 0,0 mm 9,7 km/h (2 Bft) W 269 ° 1 min 0,000 mm 6,7 UV-I 675 W/m² 14,8 °C 20,7 °C 14,5 km/h (3 Bft)
11.07.2017 12:59 20,6 °C 20,7 °C 66 % 1012,8 hPa 0,0 mm 8,6 km/h (2 Bft) W-SW 247 ° 1 min 0,000 mm 8,3 UV-I 675 W/m² 14,0 °C 20,6 °C 12,9 km/h (3 Bft)
11.07.2017 13:00 20,7 °C 20,7 °C 67 % 1012,8 hPa 0,0 mm 8,9 km/h (2 Bft) NW 306 ° 1 min 0,000 mm 7,4 UV-I 675 W/m² 14,3 °C 20,7 °C 12,9 km/h (3 Bft)
11.07.2017 13:01 20,7 °C 20,7 °C 66 % 1012,8 hPa 0,0 mm 9,5 km/h (2 Bft) W-NW 294 ° 1 min 0,458 mm 8,0 UV-I 675 W/m² 14,1 °C 20,7 °C 14,5 km/h (3 Bft)
11.07.2017 13:02 20,7 °C 20,7 °C 68 % 1012,8 hPa 0,0 mm 6,0 km/h (2 Bft) NW 321 ° 1 min 0,000 mm 8,1 UV-I 1083 W/m² 14,6 °C 20,7 °C 9,7 km/h (2 Bft)
11.07.2017 13:03 20,8 °C 20,8 °C 68 % 1012,8 hPa 0,0 mm 4,6 km/h (1 Bft) W 281 ° 1 min 0,000 mm 6,6 UV-I 650 W/m² 14,7 °C 20,8 °C 9,7 km/h (2 Bft)
11.07.2017 13:04 20,9 °C 20,9 °C 67 % 1012,8 hPa 0,0 mm 9,1 km/h (2 Bft) NW 315 ° 1 min 0,000 mm 7,0 UV-I 650 W/m² 14,5 °C 20,9 °C 14,5 km/h (3 Bft)
11.07.2017 13:05 20,9 °C 20,9 °C 67 % 1012,8 hPa 0,0 mm 6,5 km/h (2 Bft) W-NW 297 ° 1 min 0,000 mm 6,1 UV-I 650 W/m² 14,5 °C 20,9 °C 12,9 km/h (3 Bft)
11.07.2017 13:06 20,8 °C 20,9 °C 68 % 1012,9 hPa 0,0 mm 8,5 km/h (2 Bft) W-NW 292 ° 1 min 0,000 mm 6,2 UV-I 650 W/m² 14,7 °C 20,8 °C 14,5 km/h (3 Bft)
11.07.2017 13:07 20,9 °C 20,9 °C 67 % 1012,8 hPa 0,0 mm 8,1 km/h (2 Bft) NW 309 ° 1 min 0,000 mm 6,2 UV-I 650 W/m² 14,5 °C 20,9 °C 16,1 km/h (3 Bft)
11.07.2017 13:08 20,9 °C 20,9 °C 66 % 1012,8 hPa 0,0 mm 7,7 km/h (2 Bft) NW 321 ° 1 min 0,000 mm 5,3 UV-I 494 W/m² 14,3 °C 20,9 °C 12,9 km/h (3 Bft)
11.07.2017 13:09 20,8 °C 20,9 °C 65 % 1012,8 hPa 0,0 mm 7,4 km/h (2 Bft) NW 321 ° 1 min 0,000 mm 4,5 UV-I 438 W/m² 14,0 °C 20,8 °C 11,3 km/h (2 Bft)
11.07.2017 13:10 20,7 °C 20,8 °C 64 % 1012,8 hPa 0,0 mm 7,4 km/h (2 Bft) W-NW 287 ° 1 min 0,000 mm 5,6 UV-I 438 W/m² 13,6 °C 20,7 °C 11,3 km/h (2 Bft)
11.07.2017 13:11 20,6 °C 20,7 °C 66 % 1012,8 hPa 0,0 mm 4,3 km/h (1 Bft) W-NW 298 ° 1 min 0,000 mm 5,1 UV-I 438 W/m² 14,0 °C 20,6 °C 11,3 km/h (2 Bft)
11.07.2017 13:12 20,6 °C 20,6 °C 66 % 1012,8 hPa 0,0 mm 4,8 km/h (1 Bft) NW 316 ° 1 min 0,000 mm 5,3 UV-I 438 W/m² 14,0 °C 20,6 °C 8,0 km/h (2 Bft)
11.07.2017 13:13 20,7 °C 20,7 °C 65 % 1012,8 hPa 0,0 mm 5,2 km/h (1 Bft) W-NW 302 ° 1 min 0,000 mm 5,6 UV-I 707 W/m² 13,9 °C 20,7 °C 8,0 km/h (2 Bft)
11.07.2017 13:14 20,6 °C 20,7 °C 66 % 1012,8 hPa 0,0 mm 6,0 km/h (2 Bft) NW 324 ° 1 min 0,000 mm 4,8 UV-I 466 W/m² 14,0 °C 20,6 °C 9,7 km/h (2 Bft)
11.07.2017 13:15 20,7 °C 20,7 °C 67 % 1012,8 hPa 0,0 mm 7,9 km/h (2 Bft) NW 321 ° 1 min 0,000 mm 4,3 UV-I 427 W/m² 14,3 °C 20,7 °C 14,5 km/h (3 Bft)
11.07.2017 13:16 20,7 °C 20,7 °C 68 % 1012,8 hPa 0,0 mm 10,1 km/h (2 Bft) W-SW 247 ° 1 min 0,000 mm 4,7 UV-I 432 W/m² 14,6 °C 20,7 °C 16,1 km/h (3 Bft)
11.07.2017 13:17 20,7 °C 20,7 °C 67 % 1012,8 hPa 0,0 mm 7,3 km/h (2 Bft) NW 310 ° 1 min 0,000 mm 4,1 UV-I 406 W/m² 14,3 °C 20,7 °C 12,9 km/h (3 Bft)
11.07.2017 13:18 20,6 °C 20,7 °C 66 % 1012,8 hPa 0,0 mm 3,4 km/h (1 Bft) N 360 ° 1 min 0,000 mm 4,8 UV-I 429 W/m² 14,0 °C 20,6 °C 6,4 km/h (2 Bft)
11.07.2017 13:19 20,5 °C 20,6 °C 66 % 1012,7 hPa 0,0 mm 1,1 km/h (1 Bft) N-NW 345 ° 1 min 0,000 mm 4,1 UV-I 418 W/m² 13,9 °C 20,5 °C 3,2 km/h (1 Bft)
11.07.2017 13:20 20,5 °C 20,6 °C 68 % 1012,8 hPa 0,0 mm 4,1 km/h (1 Bft) W-NW 301 ° 1 min 0,000 mm 4,1 UV-I 424 W/m² 14,4 °C 20,5 °C 6,4 km/h (2 Bft)
11.07.2017 13:21 20,6 °C 20,6 °C 68 % 1012,8 hPa 0,0 mm 6,4 km/h (2 Bft) W-NW 300 ° 1 min 0,000 mm 4,0 UV-I 401 W/m² 14,5 °C 20,6 °C 9,7 km/h (2 Bft)
11.07.2017 13:22 20,6 °C 20,6 °C 67 % 1012,8 hPa 0,0 mm 4,0 km/h (1 Bft) W-SW 257 ° 1 min 0,000 mm 4,0 UV-I 401 W/m² 14,3 °C 20,6 °C 8,0 km/h (2 Bft)
11.07.2017 13:23 20,6 °C 20,6 °C 67 % 1012,8 hPa 0,0 mm 5,4 km/h (1 Bft) NW 319 ° 1 min 0,000 mm 3,9 UV-I 385 W/m² 14,3 °C 20,6 °C 9,7 km/h (2 Bft)
11.07.2017 13:24 20,6 °C 20,6 °C 68 % 1012,8 hPa 0,0 mm 3,4 km/h (1 Bft) W 281 ° 1 min 0,000 mm 3,9 UV-I 387 W/m² 14,5 °C 20,6 °C 4,8 km/h (1 Bft)
11.07.2017 13:25 20,6 °C 20,6 °C 66 % 1012,8 hPa 0,0 mm 3,4 km/h (1 Bft) NW 317 ° 1 min 0,000 mm 3,9 UV-I 383 W/m² 14,0 °C 20,6 °C 8,0 km/h (2 Bft)
11.07.2017 13:26 20,6 °C 20,6 °C 67 % 1012,8 hPa 0,0 mm 8,6 km/h (2 Bft) NW 323 ° 1 min 0,000 mm 3,8 UV-I 366 W/m² 14,3 °C 20,6 °C 14,5 km/h (3 Bft)
11.07.2017 13:27 20,6 °C 20,6 °C 69 % 1012,8 hPa 0,0 mm 6,2 km/h (2 Bft) NW 323 ° 1 min 0,000 mm 3,7 UV-I 369 W/m² 14,7 °C 20,6 °C 12,9 km/h (3 Bft)
11.07.2017 13:28 20,6 °C 20,6 °C 68 % 1012,8 hPa 0,0 mm 6,2 km/h (2 Bft) W 274 ° 1 min 0,000 mm 3,7 UV-I 367 W/m² 14,5 °C 20,6 °C 9,7 km/h (2 Bft)
11.07.2017 13:29 20,6 °C 20,6 °C 65 % 1012,8 hPa 0,0 mm 5,2 km/h (1 Bft) NW 317 ° 1 min 0,000 mm 3,6 UV-I 366 W/m² 13,8 °C 20,6 °C 9,7 km/h (2 Bft)
11.07.2017 13:30 20,5 °C 20,6 °C 67 % 1012,7 hPa 0,0 mm 3,5 km/h (1 Bft) NW 321 ° 1 min 0,000 mm 3,5 UV-I 355 W/m² 14,2 °C 20,5 °C 6,4 km/h (2 Bft)
11.07.2017 13:31 20,4 °C 20,5 °C 68 % 1012,8 hPa 0,0 mm 4,4 km/h (1 Bft) W 268 ° 1 min 0,000 mm 3,3 UV-I 336 W/m² 14,3 °C 20,4 °C 6,4 km/h (2 Bft)
11.07.2017 13:32 20,4 °C 20,4 °C 68 % 1012,7 hPa 0,0 mm 6,1 km/h (2 Bft) NW 322 ° 1 min 0,000 mm 3,2 UV-I 315 W/m² 14,3 °C 20,4 °C 11,3 km/h (2 Bft)
11.07.2017 13:33 20,4 °C 20,4 °C 67 % 1012,8 hPa 0,0 mm 6,6 km/h (2 Bft) NW 318 ° 1 min 0,000 mm 3,1 UV-I 308 W/m² 14,1 °C 20,4 °C 9,7 km/h (2 Bft)
11.07.2017 13:34 20,4 °C 20,4 °C 70 % 1012,8 hPa 0,0 mm 6,6 km/h (2 Bft) NW 325 ° 1 min 0,000 mm 3,2 UV-I 322 W/m² 14,7 °C 20,4 °C 12,9 km/h (3 Bft)
11.07.2017 13:35 20,4 °C 20,4 °C 67 % 1012,8 hPa 0,0 mm 12,5 km/h (3 Bft) NW 324 ° 1 min 0,000 mm 3,3 UV-I 345 W/m² 14,1 °C 20,4 °C 16,1 km/h (3 Bft)
11.07.2017 13:36 20,4 °C 20,4 °C 67 % 1012,8 hPa 0,0 mm 6,7 km/h (2 Bft) NW 325 ° 1 min 0,000 mm 3,3 UV-I 346 W/m² 14,1 °C 20,4 °C 9,7 km/h (2 Bft)
11.07.2017 13:37 20,4 °C 20,4 °C 68 % 1012,7 hPa 0,0 mm 4,8 km/h (1 Bft) W-NW 289 ° 1 min 0,000 mm 3,2 UV-I 346 W/m² 14,3 °C 20,4 °C 6,4 km/h (2 Bft)
11.07.2017 13:38 20,4 °C 20,4 °C 68 % 1012,8 hPa 0,0 mm 8,1 km/h (2 Bft) W 269 ° 1 min 0,000 mm 3,8 UV-I 388 W/m² 14,3 °C 20,4 °C 14,5 km/h (3 Bft)
11.07.2017 13:39 20,4 °C 20,5 °C 67 % 1012,8 hPa 0,0 mm 7,3 km/h (2 Bft) W-NW 285 ° 1 min 0,000 mm 4,1 UV-I 448 W/m² 14,1 °C 20,4 °C 12,9 km/h (3 Bft)
11.07.2017 13:40 20,4 °C 20,4 °C 66 % 1012,8 hPa 0,0 mm 4,4 km/h (1 Bft) NW 304 ° 1 min 0,000 mm 4,3 UV-I 483 W/m² 13,8 °C 20,4 °C 6,4 km/h (2 Bft)
11.07.2017 13:41 20,4 °C 20,5 °C 67 % 1012,8 hPa 0,0 mm 3,5 km/h (1 Bft) W-NW 284 ° 1 min 0,000 mm 4,2 UV-I 469 W/m² 14,1 °C 20,4 °C 6,4 km/h (2 Bft)
11.07.2017 13:42 20,6 °C 20,6 °C 67 % 1012,7 hPa 0,0 mm 4,1 km/h (1 Bft) W-NW 288 ° 1 min 0,000 mm 4,7 UV-I 540 W/m² 14,3 °C 20,6 °C 8,0 km/h (2 Bft)
11.07.2017 13:43 20,6 °C 20,6 °C 63 % 1012,7 hPa 0,0 mm 2,7 km/h (1 Bft) NW 304 ° 1 min 0,000 mm 5,9 UV-I 540 W/m² 13,3 °C 20,6 °C 4,8 km/h (1 Bft)
11.07.2017 13:44 20,7 °C 20,7 °C 63 % 1012,7 hPa 0,0 mm 3,6 km/h (1 Bft) NW 315 ° 1 min 0,000 mm 6,5 UV-I 891 W/m² 13,4 °C 20,7 °C 4,8 km/h (1 Bft)
11.07.2017 13:45 20,8 °C 20,8 °C 66 % 1012,7 hPa 0,0 mm 2,7 km/h (1 Bft) N 5 ° 1 min 0,000 mm 6,2 UV-I 891 W/m² 14,2 °C 20,8 °C 4,8 km/h (1 Bft)
11.07.2017 13:46 21,0 °C 21,0 °C 71 % 1012,7 hPa 0,0 mm 7,9 km/h (2 Bft) NW 317 ° 1 min 0,000 mm 5,7 UV-I 722 W/m² 15,5 °C 21,0 °C 12,9 km/h (3 Bft)
11.07.2017 13:47 21,2 °C 21,2 °C 66 % 1012,7 hPa 0,0 mm 7,0 km/h (2 Bft) NW 317 ° 1 min 0,000 mm 6,8 UV-I 687 W/m² 14,6 °C 21,2 °C 9,7 km/h (2 Bft)
11.07.2017 13:48 21,3 °C 21,3 °C 66 % 1012,7 hPa 0,0 mm 5,4 km/h (1 Bft) NW 315 ° 1 min 0,000 mm 7,3 UV-I 687 W/m² 14,7 °C 21,3 °C 12,9 km/h (3 Bft)
11.07.2017 13:49 21,4 °C 21,4 °C 64 % 1012,7 hPa 0,0 mm 10,3 km/h (2 Bft) NW 313 ° 1 min 0,000 mm 4,8 UV-I 482 W/m² 14,3 °C 21,4 °C 16,1 km/h (3 Bft)
11.07.2017 13:50 21,4 °C 21,4 °C 67 % 1012,7 hPa 0,0 mm 6,2 km/h (2 Bft) W 276 ° 1 min 0,000 mm 4,0 UV-I 411 W/m² 15,0 °C 21,4 °C 11,3 km/h (2 Bft)
11.07.2017 13:51 21,3 °C 21,4 °C 63 % 1012,8 hPa 0,0 mm 6,4 km/h (2 Bft) NW 304 ° 1 min 0,000 mm 3,8 UV-I 383 W/m² 14,0 °C 21,3 °C 9,7 km/h (2 Bft)
11.07.2017 13:52 21,3 °C 21,3 °C 67 % 1012,8 hPa 0,0 mm 9,8 km/h (2 Bft) NW 306 ° 1 min 0,000 mm 4,0 UV-I 420 W/m² 14,9 °C 21,3 °C 14,5 km/h (3 Bft)
11.07.2017 13:53 21,3 °C 21,3 °C 65 % 1012,7 hPa 0,0 mm 7,2 km/h (2 Bft) W 261 ° 1 min 0,000 mm 4,0 UV-I 420 W/m² 14,4 °C 21,3 °C 12,9 km/h (3 Bft)
11.07.2017 13:54 21,2 °C 21,3 °C 64 % 1012,7 hPa 0,0 mm 9,6 km/h (2 Bft) W 263 ° 1 min 0,000 mm 4,2 UV-I 417 W/m² 14,1 °C 21,2 °C 14,5 km/h (3 Bft)
11.07.2017 13:55 21,2 °C 21,2 °C 65 % 1012,7 hPa 0,0 mm 4,6 km/h (1 Bft) W-NW 290 ° 1 min 0,000 mm 4,6 UV-I 417 W/m² 14,4 °C 21,2 °C 8,0 km/h (2 Bft)
11.07.2017 13:56 21,2 °C 21,2 °C 66 % 1012,7 hPa 0,0 mm 5,4 km/h (1 Bft) W 269 ° 1 min 0,000 mm 5,2 UV-I 615 W/m² 14,6 °C 21,2 °C 8,0 km/h (2 Bft)
11.07.2017 13:57 21,3 °C 21,3 °C 68 % 1012,7 hPa 0,0 mm 5,3 km/h (1 Bft) W-SW 255 ° 1 min 0,000 mm 6,5 UV-I 615 W/m² 15,1 °C 21,3 °C 11,3 km/h (2 Bft)
11.07.2017 13:58 21,3 °C 21,3 °C 66 % 1012,7 hPa 0,0 mm 8,1 km/h (2 Bft) W 265 ° 1 min 0,000 mm 7,3 UV-I 615 W/m² 14,7 °C 21,3 °C 17,7 km/h (3 Bft)
11.07.2017 13:59 21,3 °C 21,3 °C 64 % 1012,7 hPa 0,0 mm 9,1 km/h (2 Bft) W-NW 289 ° 1 min 0,000 mm 7,1 UV-I 930 W/m² 14,2 °C 21,3 °C 14,5 km/h (3 Bft)
11.07.2017 14:00 21,3 °C 21,3 °C 64 % 1012,8 hPa 0,0 mm 6,4 km/h (2 Bft) NW 323 ° 1 min 0,330 mm 7,5 UV-I 919 W/m² 14,2 °C 21,3 °C 12,9 km/h (3 Bft)
11.07.2017 14:01 21,4 °C 21,4 °C 64 % 1012,7 hPa 0,0 mm 9,1 km/h (2 Bft) W-NW 294 ° 1 min 0,000 mm 8,0 UV-I 991 W/m² 14,3 °C 21,4 °C 12,9 km/h (3 Bft)
11.07.2017 14:02 21,5 °C 21,5 °C 64 % 1012,7 hPa 0,0 mm 6,4 km/h (2 Bft) NW 324 ° 1 min 0,000 mm 6,0 UV-I 991 W/m² 14,4 °C 21,5 °C 12,9 km/h (3 Bft)
11.07.2017 14:03 21,6 °C 21,6 °C 64 % 1012,7 hPa 0,0 mm 7,3 km/h (2 Bft) W 279 ° 1 min 0,000 mm 5,6 UV-I 659 W/m² 14,5 °C 21,6 °C 17,7 km/h (3 Bft)
11.07.2017 14:04 21,6 °C 21,6 °C 63 % 1012,7 hPa 0,0 mm 12,6 km/h (3 Bft) W-NW 289 ° 1 min 0,000 mm 4,7 UV-I 659 W/m² 14,2 °C 21,6 °C 19,3 km/h (3 Bft)
11.07.2017 14:05 21,6 °C 21,6 °C 64 % 1012,7 hPa 0,0 mm 11,8 km/h (2 Bft) NW 304 ° 1 min 0,000 mm 4,4 UV-I 462 W/m² 14,5 °C 21,6 °C 16,1 km/h (3 Bft)
11.07.2017 14:06 21,6 °C 21,6 °C 63 % 1012,7 hPa 0,0 mm 12,9 km/h (3 Bft) NW 317 ° 1 min 0,000 mm 4,3 UV-I 457 W/m² 14,2 °C 21,6 °C 17,7 km/h (3 Bft)
11.07.2017 14:07 21,4 °C 21,6 °C 62 % 1012,7 hPa 0,0 mm 7,8 km/h (2 Bft) N-NW 339 ° 1 min 0,000 mm 4,1 UV-I 397 W/m² 13,8 °C 21,4 °C 14,5 km/h (3 Bft)
11.07.2017 14:08 21,3 °C 21,4 °C 63 % 1012,7 hPa 0,0 mm 6,6 km/h (2 Bft) NW 314 ° 1 min 0,000 mm 3,5 UV-I 338 W/m² 14,0 °C 21,3 °C 9,7 km/h (2 Bft)
11.07.2017 14:09 21,2 °C 21,3 °C 63 % 1012,7 hPa 0,0 mm 4,3 km/h (1 Bft) W-NW 299 ° 1 min 0,000 mm 3,3 UV-I 323 W/m² 13,9 °C 21,2 °C 9,7 km/h (2 Bft)
11.07.2017 14:11 21,1 °C 21,2 °C 63 % 1012,7 hPa 0,0 mm 8,6 km/h (2 Bft) N-NW 331 ° 2 min 0,000 mm 3,0 UV-I 316 W/m² 13,8 °C 21,1 °C 14,5 km/h (3 Bft)
11.07.2017 14:12 21,1 °C 21,1 °C 62 % 1012,7 hPa 0,0 mm 8,2 km/h (2 Bft) W 279 ° 1 min 0,000 mm 2,9 UV-I 295 W/m² 13,5 °C 21,1 °C 12,9 km/h (3 Bft)
11.07.2017 14:13 20,9 °C 21,1 °C 65 % 1012,6 hPa 0,0 mm 6,8 km/h (2 Bft) W-NW 295 ° 1 min 0,000 mm 2,9 UV-I 306 W/m² 14,1 °C 20,9 °C 11,3 km/h (2 Bft)
11.07.2017 14:14 20,9 °C 21,0 °C 63 % 1012,7 hPa 0,0 mm 6,4 km/h (2 Bft) N-NW 340 ° 1 min 0,000 mm 3,1 UV-I 313 W/m² 13,6 °C 20,9 °C 12,9 km/h (3 Bft)
11.07.2017 14:15 20,9 °C 20,9 °C 64 % 1012,6 hPa 0,0 mm 7,8 km/h (2 Bft) N-NW 340 ° 1 min 0,000 mm 3,1 UV-I 318 W/m² 13,8 °C 20,9 °C 16,1 km/h (3 Bft)
11.07.2017 14:16 20,9 °C 20,9 °C 65 % 1012,6 hPa 0,0 mm 8,5 km/h (2 Bft) W-NW 295 ° 1 min 0,000 mm 3,1 UV-I 322 W/m² 14,1 °C 20,9 °C 14,5 km/h (3 Bft)
11.07.2017 14:17 20,8 °C 20,9 °C 66 % 1012,6 hPa 0,0 mm 5,9 km/h (2 Bft) W-NW 284 ° 1 min 0,000 mm 3,1 UV-I 320 W/m² 14,2 °C 20,8 °C 11,3 km/h (2 Bft)
11.07.2017 14:18 20,8 °C 20,9 °C 64 % 1012,6 hPa 0,0 mm 4,5 km/h (1 Bft) NW 323 ° 1 min 0,000 mm 3,0 UV-I 311 W/m² 13,7 °C 20,8 °C 8,0 km/h (2 Bft)
11.07.2017 14:19 20,8 °C 20,8 °C 65 % 1012,6 hPa 0,0 mm 6,1 km/h (2 Bft) N-NW 327 ° 1 min 0,000 mm 3,0 UV-I 308 W/m² 14,0 °C 20,8 °C 11,3 km/h (2 Bft)
11.07.2017 14:20 20,8 °C 20,8 °C 65 % 1012,6 hPa 0,0 mm 7,6 km/h (2 Bft) W-NW 292 ° 1 min 0,000 mm 2,9 UV-I 306 W/m² 14,0 °C 20,8 °C 11,3 km/h (2 Bft)
11.07.2017 14:21 20,8 °C 20,8 °C 66 % 1012,6 hPa 0,0 mm 4,5 km/h (1 Bft) W-NW 301 ° 1 min 0,000 mm 3,0 UV-I 311 W/m² 14,2 °C 20,8 °C 6,4 km/h (2 Bft)
11.07.2017 14:22 20,8 °C 20,9 °C 66 % 1012,6 hPa 0,0 mm 6,8 km/h (2 Bft) W-NW 285 ° 1 min 0,000 mm 3,1 UV-I 325 W/m² 14,2 °C 20,8 °C 9,7 km/h (2 Bft)
11.07.2017 14:23 20,9 °C 20,9 °C 66 % 1012,6 hPa 0,0 mm 3,3 km/h (1 Bft) W-NW 285 ° 1 min 0,000 mm 3,4 UV-I 353 W/m² 14,3 °C 20,9 °C 4,8 km/h (1 Bft)
11.07.2017 14:24 20,9 °C 20,9 °C 66 % 1012,6 hPa 0,0 mm 4,3 km/h (1 Bft) W 269 ° 1 min 0,000 mm 3,5 UV-I 429 W/m² 14,3 °C 20,9 °C 6,4 km/h (2 Bft)
11.07.2017 14:25 20,9 °C 20,9 °C 67 % 1012,7 hPa 0,0 mm 5,2 km/h (1 Bft) W-NW 293 ° 1 min 0,000 mm 3,9 UV-I 429 W/m² 14,5 °C 20,9 °C 6,4 km/h (2 Bft)
11.07.2017 14:26 21,0 °C 21,0 °C 65 % 1012,6 hPa 0,0 mm 8,2 km/h (2 Bft) W-NW 295 ° 1 min 0,000 mm 4,0 UV-I 429 W/m² 14,2 °C 21,0 °C 14,5 km/h (3 Bft)
11.07.2017 14:27 21,1 °C 21,1 °C 64 % 1012,6 hPa 0,0 mm 6,8 km/h (2 Bft) W 273 ° 1 min 0,000 mm 4,1 UV-I 443 W/m² 14,0 °C 21,1 °C 9,7 km/h (2 Bft)
11.07.2017 14:28 21,1 °C 21,1 °C 64 % 1012,6 hPa 0,0 mm 9,0 km/h (2 Bft) W 269 ° 1 min 0,000 mm 4,1 UV-I 438 W/m² 14,0 °C 21,1 °C 14,5 km/h (3 Bft)
11.07.2017 14:29 21,1 °C 21,1 °C 64 % 1012,6 hPa 0,0 mm 9,4 km/h (2 Bft) W-SW 245 ° 1 min 0,000 mm 4,4 UV-I 462 W/m² 14,0 °C 21,1 °C 16,1 km/h (3 Bft)
11.07.2017 14:30 21,1 °C 21,1 °C 62 % 1012,6 hPa 0,0 mm 7,0 km/h (2 Bft) W-NW 291 ° 1 min 0,000 mm 4,5 UV-I 561 W/m² 13,5 °C 21,1 °C 9,7 km/h (2 Bft)
11.07.2017 14:31 21,1 °C 21,1 °C 62 % 1012,6 hPa 0,0 mm 3,8 km/h (1 Bft) W 267 ° 1 min 0,000 mm 4,3 UV-I 561 W/m² 13,5 °C 21,1 °C 9,7 km/h (2 Bft)
11.07.2017 14:32 21,1 °C 21,1 °C 63 % 1012,6 hPa 0,0 mm 11,0 km/h (2 Bft) W 268 ° 1 min 0,000 mm 5,9 UV-I 499 W/m² 13,8 °C 21,1 °C 14,5 km/h (3 Bft)
11.07.2017 14:33 21,1 °C 21,1 °C 62 % 1012,5 hPa 0,0 mm 8,6 km/h (2 Bft) W 260 ° 1 min 0,000 mm 6,2 UV-I 499 W/m² 13,5 °C 21,1 °C 12,9 km/h (3 Bft)
11.07.2017 14:34 21,1 °C 21,1 °C 62 % 1012,5 hPa 0,0 mm 6,5 km/h (2 Bft) W-NW 292 ° 1 min 0,000 mm 6,3 UV-I 499 W/m² 13,5 °C 21,1 °C 9,7 km/h (2 Bft)
11.07.2017 14:35 21,1 °C 21,1 °C 63 % 1012,5 hPa 0,0 mm 5,5 km/h (1 Bft) W-NW 283 ° 1 min 0,000 mm 4,2 UV-I 499 W/m² 13,8 °C 21,1 °C 6,4 km/h (2 Bft)
11.07.2017 14:36 21,2 °C 21,2 °C 65 % 1012,5 hPa 0,0 mm 4,1 km/h (1 Bft) W-NW 300 ° 1 min 0,000 mm 4,6 UV-I 603 W/m² 14,4 °C 21,2 °C 8,0 km/h (2 Bft)
11.07.2017 14:37 21,3 °C 21,3 °C 66 % 1012,5 hPa 0,0 mm 10,0 km/h (2 Bft) W 275 ° 1 min 0,000 mm 5,3 UV-I 638 W/m² 14,7 °C 21,3 °C 14,5 km/h (3 Bft)
11.07.2017 14:38 21,4 °C 21,4 °C 63 % 1012,5 hPa 0,0 mm 11,3 km/h (2 Bft) W 279 ° 1 min 0,000 mm 5,3 UV-I 663 W/m² 14,1 °C 21,4 °C 16,1 km/h (3 Bft)
11.07.2017 14:39 21,4 °C 21,4 °C 63 % 1012,5 hPa 0,0 mm 6,9 km/h (2 Bft) W-NW 301 ° 1 min 0,000 mm 4,9 UV-I 584 W/m² 14,1 °C 21,4 °C 12,9 km/h (3 Bft)
11.07.2017 14:40 21,4 °C 21,4 °C 63 % 1012,5 hPa 0,0 mm 7,9 km/h (2 Bft) NW 325 ° 1 min 0,000 mm 4,7 UV-I 568 W/m² 14,1 °C 21,4 °C 17,7 km/h (3 Bft)
11.07.2017 14:41 21,4 °C 21,4 °C 64 % 1012,6 hPa 0,0 mm 9,6 km/h (2 Bft) W 281 ° 1 min 0,000 mm 4,2 UV-I 533 W/m² 14,3 °C 21,4 °C 17,7 km/h (3 Bft)
11.07.2017 14:42 21,4 °C 21,4 °C 65 % 1012,6 hPa 0,0 mm 6,9 km/h (2 Bft) NW 323 ° 1 min 0,000 mm 4,3 UV-I 519 W/m² 14,5 °C 21,4 °C 11,3 km/h (2 Bft)
11.07.2017 14:43 21,6 °C 21,6 °C 65 % 1012,7 hPa 0,0 mm 6,6 km/h (2 Bft) NW 304 ° 1 min 0,000 mm 3,8 UV-I 519 W/m² 14,7 °C 21,6 °C 12,9 km/h (3 Bft)
11.07.2017 14:44 21,5 °C 21,6 °C 63 % 1012,6 hPa 0,0 mm 9,5 km/h (2 Bft) NW 321 ° 1 min 0,000 mm 3,9 UV-I 420 W/m² 14,2 °C 21,5 °C 14,5 km/h (3 Bft)
11.07.2017 14:45 21,5 °C 21,5 °C 63 % 1012,6 hPa 0,0 mm 7,1 km/h (2 Bft) W-NW 294 ° 1 min 0,000 mm 3,9 UV-I 418 W/m² 14,2 °C 21,5 °C 14,5 km/h (3 Bft)
11.07.2017 14:46 21,4 °C 21,5 °C 61 % 1012,6 hPa 0,0 mm 8,0 km/h (2 Bft) W-NW 297 ° 1 min 0,000 mm 3,6 UV-I 404 W/m² 13,6 °C 21,4 °C 14,5 km/h (3 Bft)
11.07.2017 14:47 21,3 °C 21,4 °C 64 % 1012,6 hPa 0,0 mm 9,3 km/h (2 Bft) W 270 ° 1 min 0,000 mm 3,4 UV-I 371 W/m² 14,2 °C 21,3 °C 14,5 km/h (3 Bft)
11.07.2017 14:48 21,3 °C 21,3 °C 61 % 1012,6 hPa 0,0 mm 12,6 km/h (3 Bft) W 271 ° 1 min 0,000 mm 3,2 UV-I 327 W/m² 13,5 °C 21,3 °C 16,1 km/h (3 Bft)
11.07.2017 14:49 21,2 °C 21,3 °C 63 % 1012,6 hPa 0,0 mm 8,7 km/h (2 Bft) W-NW 290 ° 1 min 0,000 mm 2,9 UV-I 315 W/m² 13,9 °C 21,2 °C 14,5 km/h (3 Bft)
11.07.2017 14:50 21,2 °C 21,2 °C 62 % 1012,6 hPa 0,0 mm 8,4 km/h (2 Bft) W-NW 290 ° 1 min 0,000 mm 2,8 UV-I 302 W/m² 13,6 °C 21,2 °C 14,5 km/h (3 Bft)
11.07.2017 14:51 21,1 °C 21,2 °C 61 % 1012,5 hPa 0,0 mm 10,2 km/h (2 Bft) W 261 ° 0 min 0,000 mm 2,7 UV-I 288 W/m² 13,3 °C 21,1 °C 14,5 km/h (3 Bft)
11.07.2017 14:52 21,1 °C 21,1 °C 63 % 1012,6 hPa 0,0 mm 11,5 km/h (2 Bft) W-NW 291 ° 0 min 0,000 mm 2,6 UV-I 276 W/m² 13,8 °C 21,1 °C 14,5 km/h (3 Bft)
11.07.2017 14:53 21,0 °C 21,1 °C 63 % 1012,6 hPa 0,0 mm 7,0 km/h (2 Bft) NW 306 ° 0 min 0,000 mm 2,6 UV-I 272 W/m² 13,7 °C 21,0 °C 11,3 km/h (2 Bft)
11.07.2017 14:54 21,0 °C 21,0 °C 64 % 1012,5 hPa 0,0 mm 5,6 km/h (1 Bft) NW 311 ° 1 min 0,000 mm 2,9 UV-I 346 W/m² 13,9 °C 21,0 °C 8,0 km/h (2 Bft)
11.07.2017 14:55 21,0 °C 21,0 °C 65 % 1012,5 hPa 0,0 mm 7,0 km/h (2 Bft) W 264 ° 1 min 0,000 mm 3,5 UV-I 413 W/m² 14,2 °C 21,0 °C 12,9 km/h (3 Bft)
11.07.2017 14:56 21,0 °C 21,0 °C 65 % 1012,6 hPa 0,0 mm 5,8 km/h (2 Bft) NW 316 ° 1 min 0,000 mm 3,8 UV-I 468 W/m² 14,2 °C 21,0 °C 9,7 km/h (2 Bft)
11.07.2017 14:57 21,1 °C 21,1 °C 64 % 1012,6 hPa 0,0 mm 9,7 km/h (2 Bft) NW 320 ° 1 min 0,000 mm 3,4 UV-I 468 W/m² 14,0 °C 21,1 °C 14,5 km/h (3 Bft)
11.07.2017 14:58 21,1 °C 21,1 °C 65 % 1012,6 hPa 0,0 mm 6,3 km/h (2 Bft) NW 325 ° 1 min 0,000 mm 3,6 UV-I 355 W/m² 14,3 °C 21,1 °C 14,5 km/h (3 Bft)
11.07.2017 14:59 21,1 °C 21,2 °C 67 % 1012,6 hPa 0,0 mm 8,0 km/h (2 Bft) N 355 ° 1 min 0,000 mm 3,9 UV-I 392 W/m² 14,7 °C 21,1 °C 12,9 km/h (3 Bft)
11.07.2017 15:00 21,2 °C 21,2 °C 66 % 1012,6 hPa 0,0 mm 6,6 km/h (2 Bft) NW 319 ° 1 min 0,000 mm 4,6 UV-I 540 W/m² 14,6 °C 21,2 °C 14,5 km/h (3 Bft)
11.07.2017 15:01 21,3 °C 21,3 °C 66 % 1012,5 hPa 0,0 mm 14,5 km/h (3 Bft) W 277 ° 1 min 0,305 mm 5,3 UV-I 540 W/m² 14,7 °C 21,3 °C 19,3 km/h (3 Bft)
11.07.2017 15:02 21,5 °C 21,5 °C 67 % 1012,5 hPa 0,0 mm 7,5 km/h (2 Bft) W-NW 290 ° 1 min 0,000 mm 4,6 UV-I 540 W/m² 15,1 °C 21,5 °C 12,9 km/h (3 Bft)
11.07.2017 15:03 21,6 °C 21,6 °C 66 % 1012,6 hPa 0,0 mm 6,0 km/h (2 Bft) W 275 ° 1 min 0,000 mm 4,3 UV-I 540 W/m² 15,0 °C 21,6 °C 11,3 km/h (2 Bft)
11.07.2017 15:04 21,6 °C 21,7 °C 65 % 1012,6 hPa 0,0 mm 12,6 km/h (3 Bft) NW 307 ° 1 min 0,000 mm 4,4 UV-I 540 W/m² 14,7 °C 21,6 °C 17,7 km/h (3 Bft)
11.07.2017 15:05 21,7 °C 21,7 °C 65 % 1012,6 hPa 0,0 mm 11,5 km/h (2 Bft) W 270 ° 1 min 0,000 mm 4,0 UV-I 371 W/m² 14,8 °C 21,7 °C 16,1 km/h (3 Bft)
11.07.2017 15:06 21,6 °C 21,7 °C 63 % 1012,6 hPa 0,0 mm 13,5 km/h (3 Bft) W-SW 257 ° 1 min 0,000 mm 3,4 UV-I 334 W/m² 14,2 °C 21,6 °C 16,1 km/h (3 Bft)
11.07.2017 15:07 21,4 °C 21,6 °C 64 % 1012,6 hPa 0,0 mm 10,2 km/h (2 Bft) W 279 ° 1 min 0,000 mm 4,0 UV-I 334 W/m² 14,3 °C 21,4 °C 14,5 km/h (3 Bft)
11.07.2017 15:08 21,4 °C 21,4 °C 64 % 1012,7 hPa 0,0 mm 13,5 km/h (3 Bft) NW 315 ° 1 min 0,000 mm 3,7 UV-I 401 W/m² 14,3 °C 21,4 °C 19,3 km/h (3 Bft)
11.07.2017 15:09 21,3 °C 21,4 °C 63 % 1012,7 hPa 0,0 mm 12,4 km/h (3 Bft) W-SW 257 ° 1 min 0,000 mm 4,3 UV-I 420 W/m² 14,0 °C 21,3 °C 16,1 km/h (3 Bft)
11.07.2017 15:10 21,2 °C 21,3 °C 63 % 1012,6 hPa 0,0 mm 11,1 km/h (2 Bft) W 263 ° 1 min 0,000 mm 5,1 UV-I 420 W/m² 13,9 °C 21,2 °C 16,1 km/h (3 Bft)
11.07.2017 15:11 21,1 °C 21,2 °C 64 % 1012,6 hPa 0,0 mm 8,9 km/h (2 Bft) W-SW 249 ° 1 min 0,000 mm 4,0 UV-I 408 W/m² 14,0 °C 21,1 °C 12,9 km/h (3 Bft)
11.07.2017 15:12 21,0 °C 21,1 °C 63 % 1012,6 hPa 0,0 mm 5,8 km/h (2 Bft) W-NW 302 ° 1 min 0,000 mm 5,7 UV-I 408 W/m² 13,7 °C 21,0 °C 8,0 km/h (2 Bft)
11.07.2017 15:13 21,0 °C 21,0 °C 63 % 1012,6 hPa 0,0 mm 4,9 km/h (1 Bft) W-NW 292 ° 1 min 0,000 mm 4,4 UV-I 408 W/m² 13,7 °C 21,0 °C 8,0 km/h (2 Bft)
11.07.2017 15:14 21,1 °C 21,1 °C 67 % 1012,6 hPa 0,0 mm 6,1 km/h (2 Bft) NW 312 ° 1 min 0,000 mm 5,1 UV-I 408 W/m² 14,7 °C 21,1 °C 11,3 km/h (2 Bft)
11.07.2017 15:15 21,3 °C 21,3 °C 67 % 1012,6 hPa 0,0 mm 6,2 km/h (2 Bft) W-NW 287 ° 1 min 0,000 mm 6,0 UV-I 780 W/m² 14,9 °C 21,3 °C 9,7 km/h (2 Bft)
11.07.2017 15:16 21,4 °C 21,4 °C 65 % 1012,5 hPa 0,0 mm 6,0 km/h (2 Bft) N-NW 331 ° 1 min 0,000 mm 5,5 UV-I 768 W/m² 14,5 °C 21,4 °C 9,7 km/h (2 Bft)
11.07.2017 15:17 21,6 °C 21,6 °C 66 % 1012,5 hPa 0,0 mm 8,4 km/h (2 Bft) NW 317 ° 1 min 0,000 mm 5,1 UV-I 578 W/m² 15,0 °C 21,6 °C 14,5 km/h (3 Bft)
11.07.2017 15:18 21,7 °C 21,7 °C 64 % 1012,5 hPa 0,0 mm 7,7 km/h (2 Bft) N 9 ° 1 min 0,000 mm 4,7 UV-I 584 W/m² 14,6 °C 21,7 °C 12,9 km/h (3 Bft)
11.07.2017 15:19 21,7 °C 21,7 °C 64 % 1012,4 hPa 0,0 mm 7,4 km/h (2 Bft) NW 321 ° 1 min 0,000 mm 4,5 UV-I 545 W/m² 14,6 °C 21,7 °C 14,5 km/h (3 Bft)
11.07.2017 15:20 21,6 °C 21,7 °C 63 % 1012,4 hPa 0,0 mm 6,2 km/h (2 Bft) NW 307 ° 1 min 0,000 mm 4,3 UV-I 545 W/m² 14,2 °C 21,6 °C 9,7 km/h (2 Bft)
11.07.2017 15:21 21,6 °C 21,6 °C 65 % 1012,4 hPa 0,0 mm 6,0 km/h (2 Bft) N-NW 329 ° 1 min 0,000 mm 4,8 UV-I 533 W/m² 14,7 °C 21,6 °C 12,9 km/h (3 Bft)
11.07.2017 15:22 21,6 °C 21,6 °C 65 % 1012,4 hPa 0,0 mm 11,1 km/h (2 Bft) W 279 ° 1 min 0,000 mm 5,0 UV-I 557 W/m² 14,7 °C 21,6 °C 20,9 km/h (4 Bft)
11.07.2017 15:23 21,6 °C 21,6 °C 64 % 1012,5 hPa 0,0 mm 6,5 km/h (2 Bft) NW 304 ° 1 min 0,000 mm 5,0 UV-I 654 W/m² 14,5 °C 21,6 °C 12,9 km/h (3 Bft)
11.07.2017 15:24 21,6 °C 21,6 °C 66 % 1012,5 hPa 0,0 mm 6,8 km/h (2 Bft) NW 306 ° 1 min 0,000 mm 5,0 UV-I 654 W/m² 15,0 °C 21,6 °C 11,3 km/h (2 Bft)
11.07.2017 15:25 21,6 °C 21,6 °C 64 % 1012,5 hPa 0,0 mm 8,8 km/h (2 Bft) NW 312 ° 1 min 0,000 mm 4,9 UV-I 555 W/m² 14,5 °C 21,6 °C 12,9 km/h (3 Bft)
11.07.2017 15:26 21,6 °C 21,6 °C 62 % 1012,4 hPa 0,0 mm 11,5 km/h (2 Bft) W 267 ° 1 min 0,000 mm 4,6 UV-I 555 W/m² 14,0 °C 21,6 °C 14,5 km/h (3 Bft)
11.07.2017 15:27 21,6 °C 21,6 °C 63 % 1012,4 hPa 0,0 mm 9,3 km/h (2 Bft) W-SW 242 ° 1 min 0,000 mm 4,0 UV-I 555 W/m² 14,2 °C 21,6 °C 11,3 km/h (2 Bft)
11.07.2017 15:28 21,5 °C 21,6 °C 63 % 1012,5 hPa 0,0 mm 5,6 km/h (1 Bft) NW 316 ° 1 min 0,000 mm 4,0 UV-I 555 W/m² 14,2 °C 21,5 °C 9,7 km/h (2 Bft)
11.07.2017 15:29 21,4 °C 21,5 °C 59 % 1012,4 hPa 0,0 mm 2,0 km/h (1 Bft) N-NW 334 ° 1 min 0,000 mm 4,2 UV-I 589 W/m² 13,0 °C 21,4 °C 4,8 km/h (1 Bft)
11.07.2017 15:30 21,4 °C 21,4 °C 62 % 1012,5 hPa 0,0 mm 2,7 km/h (1 Bft) W 272 ° 1 min 0,000 mm 3,9 UV-I 589 W/m² 13,8 °C 21,4 °C 6,4 km/h (2 Bft)
11.07.2017 15:31 21,4 °C 21,4 °C 64 % 1012,4 hPa 0,0 mm 9,3 km/h (2 Bft) N-NW 329 ° 1 min 0,000 mm 3,4 UV-I 355 W/m² 14,3 °C 21,4 °C 12,9 km/h (3 Bft)
11.07.2017 15:32 21,4 °C 21,4 °C 63 % 1012,5 hPa 0,0 mm 9,2 km/h (2 Bft) W-NW 287 ° 1 min 0,000 mm 4,3 UV-I 374 W/m² 14,1 °C 21,4 °C 12,9 km/h (3 Bft)
11.07.2017 15:33 21,6 °C 21,6 °C 63 % 1012,4 hPa 0,0 mm 7,2 km/h (2 Bft) W-SW 257 ° 1 min 0,000 mm 4,6 UV-I 374 W/m² 14,2 °C 21,6 °C 11,3 km/h (2 Bft)
11.07.2017 15:34 21,6 °C 21,6 °C 62 % 1012,4 hPa 0,0 mm 11,2 km/h (2 Bft) W 280 ° 1 min 0,000 mm 3,7 UV-I 564 W/m² 14,0 °C 21,6 °C 17,7 km/h (3 Bft)
11.07.2017 15:35 21,5 °C 21,6 °C 63 % 1012,4 hPa 0,0 mm 5,9 km/h (2 Bft) W-NW 300 ° 1 min 0,000 mm 3,3 UV-I 313 W/m² 14,2 °C 21,5 °C 11,3 km/h (2 Bft)
11.07.2017 15:36 21,4 °C 21,5 °C 63 % 1012,4 hPa 0,0 mm 5,7 km/h (1 Bft) W-NW 290 ° 1 min 0,000 mm 4,2 UV-I 313 W/m² 14,1 °C 21,4 °C 12,9 km/h (3 Bft)
11.07.2017 15:37 21,4 °C 21,4 °C 62 % 1012,3 hPa 0,0 mm 6,8 km/h (2 Bft) W-NW 291 ° 1 min 0,000 mm 4,6 UV-I 313 W/m² 13,8 °C 21,4 °C 11,3 km/h (2 Bft)
11.07.2017 15:38 21,4 °C 21,4 °C 61 % 1012,3 hPa 0,0 mm 4,2 km/h (1 Bft) NW 317 ° 1 min 0,000 mm 4,7 UV-I 657 W/m² 13,6 °C 21,4 °C 8,0 km/h (2 Bft)
11.07.2017 15:39 21,4 °C 21,4 °C 64 % 1012,3 hPa 0,0 mm 7,5 km/h (2 Bft) W 279 ° 1 min 0,000 mm 4,7 UV-I 657 W/m² 14,3 °C 21,4 °C 12,9 km/h (3 Bft)
11.07.2017 15:40 21,6 °C 21,6 °C 64 % 1012,3 hPa 0,0 mm 8,1 km/h (2 Bft) W-SW 255 ° 1 min 0,000 mm 5,6 UV-I 657 W/m² 14,5 °C 21,6 °C 14,5 km/h (3 Bft)
11.07.2017 15:41 21,6 °C 21,6 °C 64 % 1012,3 hPa 0,0 mm 10,1 km/h (2 Bft) W-SW 250 ° 1 min 0,000 mm 5,5 UV-I 828 W/m² 14,5 °C 21,6 °C 16,1 km/h (3 Bft)
11.07.2017 15:42 21,7 °C 21,7 °C 64 % 1012,3 hPa 0,0 mm 11,5 km/h (2 Bft) W-NW 283 ° 1 min 0,000 mm 5,9 UV-I 858 W/m² 14,6 °C 21,7 °C 16,1 km/h (3 Bft)
11.07.2017 15:43 21,8 °C 21,8 °C 64 % 1012,2 hPa 0,0 mm 10,8 km/h (2 Bft) W-NW 286 ° 1 min 0,000 mm 5,4 UV-I 765 W/m² 14,7 °C 21,8 °C 14,5 km/h (3 Bft)
11.07.2017 15:44 21,8 °C 21,8 °C 63 % 1012,3 hPa 0,0 mm 9,9 km/h (2 Bft) W 261 ° 1 min 0,000 mm 5,0 UV-I 719 W/m² 14,4 °C 21,8 °C 12,9 km/h (3 Bft)
11.07.2017 15:45 21,9 °C 21,9 °C 65 % 1012,2 hPa 0,0 mm 8,2 km/h (2 Bft) SW 229 ° 1 min 0,000 mm 5,0 UV-I 712 W/m² 15,0 °C 21,9 °C 11,3 km/h (2 Bft)
11.07.2017 15:46 21,9 °C 21,9 °C 64 % 1012,3 hPa 0,0 mm 11,8 km/h (2 Bft) W-NW 292 ° 0 min 0,000 mm 3,0 UV-I 255 W/m² 14,8 °C 21,9 °C 14,5 km/h (3 Bft)
11.07.2017 15:47 21,8 °C 21,9 °C 61 % 1012,2 hPa 0,0 mm 5,6 km/h (1 Bft) NW 314 ° 0 min 0,000 mm 2,8 UV-I 239 W/m² 13,9 °C 21,8 °C 9,7 km/h (2 Bft)
11.07.2017 15:48 21,7 °C 21,8 °C 63 % 1012,2 hPa 0,0 mm 10,5 km/h (2 Bft) W 279 ° 0 min 0,000 mm 2,8 UV-I 236 W/m² 14,3 °C 21,7 °C 14,5 km/h (3 Bft)
11.07.2017 15:49 21,5 °C 21,7 °C 62 % 1012,3 hPa 0,0 mm 6,6 km/h (2 Bft) NW 305 ° 0 min 0,000 mm 2,9 UV-I 265 W/m² 13,9 °C 21,5 °C 11,3 km/h (2 Bft)
11.07.2017 15:50 21,3 °C 21,5 °C 64 % 1012,2 hPa 0,0 mm 5,4 km/h (1 Bft) NW 306 ° 0 min 0,000 mm 2,8 UV-I 260 W/m² 14,2 °C 21,3 °C 11,3 km/h (2 Bft)
11.07.2017 15:51 21,2 °C 21,3 °C 62 % 1012,2 hPa 0,0 mm 5,1 km/h (1 Bft) W-NW 302 ° 0 min 0,000 mm 2,8 UV-I 248 W/m² 13,6 °C 21,2 °C 9,7 km/h (2 Bft)
11.07.2017 15:52 21,1 °C 21,2 °C 64 % 1012,2 hPa 0,0 mm 7,0 km/h (2 Bft) N-NW 343 ° 0 min 0,000 mm 3,1 UV-I 267 W/m² 14,0 °C 21,1 °C 11,3 km/h (2 Bft)
11.07.2017 15:53 21,1 °C 21,1 °C 64 % 1012,2 hPa 0,0 mm 5,6 km/h (1 Bft) N-NW 344 ° 0 min 0,000 mm 2,7 UV-I 246 W/m² 14,0 °C 21,1 °C 8,0 km/h (2 Bft)
11.07.2017 15:54 21,1 °C 21,1 °C 65 % 1012,1 hPa 0,0 mm 6,3 km/h (2 Bft) NW 316 ° 0 min 0,000 mm 2,6 UV-I 230 W/m² 14,3 °C 21,1 °C 12,9 km/h (3 Bft)
11.07.2017 15:55 20,9 °C 21,1 °C 65 % 1012,1 hPa 0,0 mm 6,4 km/h (2 Bft) NW 311 ° 0 min 0,000 mm 2,4 UV-I 181 W/m² 14,1 °C 20,9 °C 9,7 km/h (2 Bft)
11.07.2017 15:56 20,9 °C 21,0 °C 65 % 1012,1 hPa 0,0 mm 3,6 km/h (1 Bft) W-NW 303 ° 0 min 0,000 mm 2,2 UV-I 169 W/m² 14,1 °C 20,9 °C 6,4 km/h (2 Bft)
11.07.2017 15:57 20,9 °C 20,9 °C 65 % 1012,1 hPa 0,0 mm 4,7 km/h (1 Bft) N-NW 338 ° 0 min 0,000 mm 2,2 UV-I 176 W/m² 14,1 °C 20,9 °C 6,4 km/h (2 Bft)
11.07.2017 15:58 20,9 °C 20,9 °C 65 % 1012,2 hPa 0,0 mm 4,8 km/h (1 Bft) NW 311 ° 0 min 0,000 mm 2,2 UV-I 276 W/m² 14,1 °C 20,9 °C 6,4 km/h (2 Bft)
11.07.2017 15:59 20,9 °C 20,9 °C 65 % 1012,1 hPa 0,0 mm 2,7 km/h (1 Bft) NW 317 ° 1 min 0,000 mm 3,4 UV-I 348 W/m² 14,1 °C 20,9 °C 4,8 km/h (1 Bft)
11.07.2017 16:00 20,9 °C 20,9 °C 64 % 1012,2 hPa 0,0 mm 1,5 km/h (1 Bft) W 275 ° 1 min 0,000 mm 3,4 UV-I 336 W/m² 13,8 °C 20,9 °C 4,8 km/h (1 Bft)
11.07.2017 16:01 21,0 °C 21,0 °C 66 % 1012,2 hPa 0,0 mm 4,8 km/h (1 Bft) W-NW 286 ° 1 min 0,330 mm 4,3 UV-I 336 W/m² 14,4 °C 21,0 °C 12,9 km/h (3 Bft)
11.07.2017 16:02 21,1 °C 21,1 °C 64 % 1012,2 hPa 0,0 mm 8,0 km/h (2 Bft) NW 315 ° 1 min 0,000 mm 5,2 UV-I 540 W/m² 14,0 °C 21,1 °C 14,5 km/h (3 Bft)
11.07.2017 16:03 21,2 °C 21,2 °C 65 % 1012,1 hPa 0,0 mm 9,3 km/h (2 Bft) N-NW 348 ° 1 min 0,000 mm 3,6 UV-I 566 W/m² 14,4 °C 21,2 °C 14,5 km/h (3 Bft)
11.07.2017 16:04 21,3 °C 21,3 °C 65 % 1012,1 hPa 0,0 mm 11,0 km/h (2 Bft) NW 304 ° 1 min 0,000 mm 3,0 UV-I 309 W/m² 14,4 °C 21,3 °C 17,7 km/h (3 Bft)
11.07.2017 16:05 21,3 °C 21,3 °C 64 % 1012,1 hPa 0,0 mm 10,9 km/h (2 Bft) N-NW 333 ° 1 min 0,000 mm 5,3 UV-I 309 W/m² 14,2 °C 21,3 °C 14,5 km/h (3 Bft)
11.07.2017 16:06 21,4 °C 21,4 °C 65 % 1012,0 hPa 0,0 mm 9,8 km/h (2 Bft) W-NW 302 ° 1 min 0,000 mm 4,2 UV-I 309 W/m² 14,5 °C 21,4 °C 14,5 km/h (3 Bft)
11.07.2017 16:07 21,4 °C 21,4 °C 63 % 1012,1 hPa 0,0 mm 9,2 km/h (2 Bft) W-NW 296 ° 1 min 0,000 mm 4,3 UV-I 524 W/m² 14,1 °C 21,4 °C 14,5 km/h (3 Bft)
11.07.2017 16:08 21,4 °C 21,4 °C 64 % 1012,1 hPa 0,0 mm 7,6 km/h (2 Bft) NW 313 ° 1 min 0,000 mm 4,5 UV-I 432 W/m² 14,3 °C 21,4 °C 11,3 km/h (2 Bft)
11.07.2017 16:09 21,5 °C 21,5 °C 66 % 1012,0 hPa 0,0 mm 8,2 km/h (2 Bft) NW 313 ° 1 min 0,000 mm 4,1 UV-I 469 W/m² 14,9 °C 21,5 °C 16,1 km/h (3 Bft)
11.07.2017 16:10 21,6 °C 21,6 °C 66 % 1012,1 hPa 0,0 mm 11,5 km/h (2 Bft) W 265 ° 1 min 0,000 mm 3,3 UV-I 318 W/m² 15,0 °C 21,6 °C 19,3 km/h (3 Bft)
11.07.2017 16:11 21,7 °C 21,7 °C 66 % 1012,1 hPa 0,0 mm 6,7 km/h (2 Bft) W 280 ° 0 min 0,000 mm 2,9 UV-I 253 W/m² 15,1 °C 21,7 °C 11,3 km/h (2 Bft)
11.07.2017 16:12 21,6 °C 21,7 °C 62 % 1012,1 hPa 0,0 mm 9,5 km/h (2 Bft) W-NW 298 ° 0 min 0,000 mm 2,8 UV-I 260 W/m² 14,0 °C 21,6 °C 17,7 km/h (3 Bft)
11.07.2017 16:13 21,5 °C 21,6 °C 62 % 1012,0 hPa 0,0 mm 6,7 km/h (2 Bft) W-NW 287 ° 0 min 0,000 mm 2,8 UV-I 230 W/m² 13,9 °C 21,5 °C 11,3 km/h (2 Bft)
11.07.2017 16:14 21,4 °C 21,5 °C 64 % 1012,0 hPa 0,0 mm 7,2 km/h (2 Bft) W-SW 249 ° 0 min 0,000 mm 3,7 UV-I 230 W/m² 14,3 °C 21,4 °C 11,3 km/h (2 Bft)
11.07.2017 16:15 21,3 °C 21,4 °C 63 % 1012,0 hPa 0,0 mm 10,2 km/h (2 Bft) W-NW 293 ° 0 min 0,000 mm 2,8 UV-I 230 W/m² 14,0 °C 21,3 °C 16,1 km/h (3 Bft)
11.07.2017 16:16 21,2 °C 21,3 °C 64 % 1012,0 hPa 0,0 mm 8,6 km/h (2 Bft) NW 319 ° 0 min 0,000 mm 2,7 UV-I 214 W/m² 14,1 °C 21,2 °C 14,5 km/h (3 Bft)
11.07.2017 16:17 21,1 °C 21,2 °C 63 % 1012,0 hPa 0,0 mm 6,9 km/h (2 Bft) NW 309 ° 0 min 0,000 mm 2,7 UV-I 262 W/m² 13,8 °C 21,1 °C 12,9 km/h (3 Bft)
11.07.2017 16:18 21,1 °C 21,1 °C 64 % 1012,0 hPa 0,0 mm 9,1 km/h (2 Bft) NW 306 ° 0 min 0,000 mm 2,8 UV-I 214 W/m² 14,0 °C 21,1 °C 16,1 km/h (3 Bft)
11.07.2017 16:19 21,1 °C 21,1 °C 65 % 1012,0 hPa 0,0 mm 9,4 km/h (2 Bft) NW 319 ° 0 min 0,000 mm 2,7 UV-I 211 W/m² 14,3 °C 21,1 °C 14,5 km/h (3 Bft)
11.07.2017 16:20 21,3 °C 21,3 °C 65 % 1012,0 hPa 0,0 mm 7,5 km/h (2 Bft) N-NW 333 ° 0 min 0,000 mm 2,6 UV-I 225 W/m² 14,4 °C 21,3 °C 14,5 km/h (3 Bft)
11.07.2017 16:21 21,3 °C 21,3 °C 64 % 1012,0 hPa 0,0 mm 10,2 km/h (2 Bft) N-NW 328 ° 0 min 0,000 mm 2,6 UV-I 218 W/m² 14,2 °C 21,3 °C 17,7 km/h (3 Bft)
11.07.2017 16:22 21,4 °C 21,4 °C 65 % 1012,0 hPa 0,0 mm 9,2 km/h (2 Bft) N-NW 346 ° 0 min 0,000 mm 2,7 UV-I 213 W/m² 14,5 °C 21,4 °C 14,5 km/h (3 Bft)
11.07.2017 16:23 21,6 °C 21,6 °C 64 % 1012,0 hPa 0,0 mm 8,4 km/h (2 Bft) W 279 ° 0 min 0,000 mm 2,6 UV-I 199 W/m² 14,5 °C 21,6 °C 16,1 km/h (3 Bft)
11.07.2017 16:24 21,6 °C 21,6 °C 65 % 1012,0 hPa 0,0 mm 10,2 km/h (2 Bft) W 272 ° 0 min 0,000 mm 2,5 UV-I 190 W/m² 14,7 °C 21,6 °C 12,9 km/h (3 Bft)
11.07.2017 16:25 21,4 °C 21,6 °C 63 % 1012,0 hPa 0,0 mm 6,1 km/h (2 Bft) NW 325 ° 0 min 0,000 mm 2,4 UV-I 186 W/m² 14,1 °C 21,4 °C 11,3 km/h (2 Bft)
11.07.2017 16:26 21,4 °C 21,4 °C 63 % 1012,1 hPa 0,0 mm 6,8 km/h (2 Bft) W-NW 295 ° 0 min 0,000 mm 2,2 UV-I 181 W/m² 14,1 °C 21,4 °C 14,5 km/h (3 Bft)
11.07.2017 16:27 21,3 °C 21,4 °C 64 % 1012,0 hPa 0,0 mm 8,1 km/h (2 Bft) NW 315 ° 0 min 0,000 mm 2,1 UV-I 179 W/m² 14,2 °C 21,3 °C 14,5 km/h (3 Bft)
11.07.2017 16:28 21,2 °C 21,3 °C 64 % 1012,0 hPa 0,0 mm 6,0 km/h (2 Bft) NW 306 ° 0 min 0,000 mm 2,1 UV-I 202 W/m² 14,1 °C 21,2 °C 9,7 km/h (2 Bft)
11.07.2017 16:29 21,2 °C 21,2 °C 66 % 1012,1 hPa 0,0 mm 5,9 km/h (2 Bft) N-NW 329 ° 0 min 0,000 mm 2,1 UV-I 186 W/m² 14,6 °C 21,2 °C 12,9 km/h (3 Bft)
11.07.2017 16:30 21,1 °C 21,2 °C 66 % 1012,1 hPa 0,0 mm 9,7 km/h (2 Bft) W-NW 301 ° 0 min 0,000 mm 2,2 UV-I 186 W/m² 14,5 °C 21,1 °C 12,9 km/h (3 Bft)
11.07.2017 16:31 21,1 °C 21,1 °C 65 % 1012,1 hPa 0,0 mm 6,3 km/h (2 Bft) W-NW 289 ° 0 min 0,000 mm 2,3 UV-I 199 W/m² 14,3 °C 21,1 °C 9,7 km/h (2 Bft)
11.07.2017 16:32 21,0 °C 21,1 °C 63 % 1012,1 hPa 0,0 mm 3,0 km/h (1 Bft) W-NW 292 ° 0 min 0,000 mm 2,3 UV-I 221 W/m² 13,7 °C 21,0 °C 4,8 km/h (1 Bft)
11.07.2017 16:33 21,0 °C 21,1 °C 65 % 1012,1 hPa 0,0 mm 6,0 km/h (2 Bft) W-NW 297 ° 0 min 0,000 mm 2,2 UV-I 202 W/m² 14,2 °C 21,0 °C 12,9 km/h (3 Bft)
11.07.2017 16:34 21,1 °C 21,1 °C 66 % 1012,1 hPa 0,0 mm 6,0 km/h (2 Bft) W-NW 284 ° 0 min 0,000 mm 2,1 UV-I 202 W/m² 14,5 °C 21,1 °C 11,3 km/h (2 Bft)
11.07.2017 16:35 21,1 °C 21,1 °C 65 % 1012,1 hPa 0,0 mm 6,7 km/h (2 Bft) W 278 ° 0 min 0,000 mm 2,1 UV-I 206 W/m² 14,3 °C 21,1 °C 11,3 km/h (2 Bft)
11.07.2017 16:36 21,0 °C 21,1 °C 65 % 1012,2 hPa 0,0 mm 4,6 km/h (1 Bft) W-NW 289 ° 0 min 0,000 mm 2,1 UV-I 223 W/m² 14,2 °C 21,0 °C 6,4 km/h (2 Bft)
11.07.2017 16:37 20,9 °C 21,0 °C 62 % 1012,3 hPa 0,0 mm 5,8 km/h (2 Bft) W-NW 302 ° 0 min 0,000 mm 2,3 UV-I 262 W/m² 13,3 °C 20,9 °C 9,7 km/h (2 Bft)
11.07.2017 16:38 21,0 °C 21,0 °C 62 % 1012,2 hPa 0,0 mm 3,6 km/h (1 Bft) NW 314 ° 1 min 0,000 mm 2,5 UV-I 313 W/m² 13,4 °C 21,0 °C 6,4 km/h (2 Bft)
11.07.2017 16:39 20,9 °C 21,0 °C 62 % 1012,2 hPa 0,0 mm 9,9 km/h (2 Bft) NW 310 ° 1 min 0,000 mm 2,4 UV-I 306 W/m² 13,3 °C 20,9 °C 12,9 km/h (3 Bft)
11.07.2017 16:40 21,0 °C 21,0 °C 65 % 1012,2 hPa 0,0 mm 10,2 km/h (2 Bft) NW 304 ° 1 min 0,000 mm 2,3 UV-I 290 W/m² 14,2 °C 21,0 °C 14,5 km/h (3 Bft)
11.07.2017 16:41 21,1 °C 21,1 °C 65 % 1012,2 hPa 0,0 mm 11,1 km/h (2 Bft) N-NW 340 ° 0 min 0,000 mm 2,3 UV-I 274 W/m² 14,3 °C 21,1 °C 20,9 km/h (4 Bft)
11.07.2017 16:42 21,1 °C 21,1 °C 64 % 1012,2 hPa 0,0 mm 9,1 km/h (2 Bft) NW 309 ° 0 min 0,000 mm 2,3 UV-I 271 W/m² 14,0 °C 21,1 °C 14,5 km/h (3 Bft)
11.07.2017 16:43 21,1 °C 21,1 °C 64 % 1012,2 hPa 0,0 mm 8,0 km/h (2 Bft) NW 309 ° 0 min 0,000 mm 2,3 UV-I 272 W/m² 14,0 °C 21,1 °C 11,3 km/h (2 Bft)
11.07.2017 16:44 21,1 °C 21,1 °C 66 % 1012,2 hPa 0,0 mm 8,1 km/h (2 Bft) W-NW 300 ° 0 min 0,000 mm 2,5 UV-I 287 W/m² 14,5 °C 21,1 °C 14,5 km/h (3 Bft)
11.07.2017 16:45 21,2 °C 21,2 °C 66 % 1012,2 hPa 0,0 mm 6,1 km/h (2 Bft) NW 320 ° 0 min 0,000 mm 2,6 UV-I 283 W/m² 14,6 °C 21,2 °C 12,9 km/h (3 Bft)
11.07.2017 16:46 21,2 °C 21,2 °C 65 % 1012,2 hPa 0,0 mm 10,7 km/h (2 Bft) W 260 ° 0 min 0,000 mm 2,5 UV-I 253 W/m² 14,4 °C 21,2 °C 16,1 km/h (3 Bft)
11.07.2017 16:47 21,2 °C 21,2 °C 65 % 1012,2 hPa 0,0 mm 8,8 km/h (2 Bft) NW 315 ° 0 min 0,000 mm 2,6 UV-I 248 W/m² 14,4 °C 21,2 °C 12,9 km/h (3 Bft)
11.07.2017 16:48 21,3 °C 21,3 °C 64 % 1012,1 hPa 0,0 mm 6,7 km/h (2 Bft) NW 309 ° 0 min 0,000 mm 2,7 UV-I 255 W/m² 14,2 °C 21,3 °C 12,9 km/h (3 Bft)
11.07.2017 16:49 21,3 °C 21,3 °C 63 % 1012,1 hPa 0,0 mm 7,3 km/h (2 Bft) NW 318 ° 0 min 0,000 mm 2,7 UV-I 272 W/m² 14,0 °C 21,3 °C 14,5 km/h (3 Bft)
11.07.2017 16:50 21,4 °C 21,4 °C 66 % 1012,2 hPa 0,0 mm 12,8 km/h (3 Bft) N 355 ° 0 min 0,000 mm 2,7 UV-I 285 W/m² 14,8 °C 21,4 °C 17,7 km/h (3 Bft)
11.07.2017 16:51 21,6 °C 21,6 °C 65 % 1012,3 hPa 0,0 mm 12,1 km/h (2 Bft) NW 306 ° 1 min 0,000 mm 2,7 UV-I 292 W/m² 14,7 °C 21,6 °C 16,1 km/h (3 Bft)
11.07.2017 16:52 21,6 °C 21,6 °C 64 % 1012,2 hPa 0,0 mm 7,4 km/h (2 Bft) NW 312 ° 0 min 0,000 mm 2,6 UV-I 287 W/m² 14,5 °C 21,6 °C 12,9 km/h (3 Bft)
11.07.2017 16:53 21,6 °C 21,6 °C 64 % 1012,2 hPa 0,0 mm 4,0 km/h (1 Bft) W-NW 283 ° 0 min 0,000 mm 2,5 UV-I 251 W/m² 14,5 °C 21,6 °C 8,0 km/h (2 Bft)
11.07.2017 16:54 21,6 °C 21,6 °C 65 % 1012,2 hPa 0,0 mm 9,3 km/h (2 Bft) NW 313 ° 0 min 0,000 mm 2,5 UV-I 246 W/m² 14,7 °C 21,6 °C 12,9 km/h (3 Bft)
11.07.2017 16:55 21,6 °C 21,6 °C 64 % 1012,2 hPa 0,0 mm 9,6 km/h (2 Bft) NW 325 ° 0 min 0,000 mm 2,4 UV-I 250 W/m² 14,5 °C 21,6 °C 17,7 km/h (3 Bft)
11.07.2017 16:56 21,5 °C 21,6 °C 64 % 1012,2 hPa 0,0 mm 9,7 km/h (2 Bft) N-NW 335 ° 0 min 0,000 mm 2,3 UV-I 237 W/m² 14,4 °C 21,5 °C 16,1 km/h (3 Bft)
11.07.2017 16:57 21,4 °C 21,5 °C 64 % 1012,2 hPa 0,0 mm 10,0 km/h (2 Bft) W-NW 292 ° 0 min 0,000 mm 2,2 UV-I 239 W/m² 14,3 °C 21,4 °C 14,5 km/h (3 Bft)
11.07.2017 16:58 21,4 °C 21,4 °C 64 % 1012,3 hPa 0,0 mm 11,1 km/h (2 Bft) NW 314 ° 0 min 0,000 mm 2,1 UV-I 230 W/m² 14,3 °C 21,4 °C 16,1 km/h (3 Bft)
11.07.2017 16:59 21,3 °C 21,4 °C 65 % 1012,3 hPa 0,0 mm 4,1 km/h (1 Bft) NW 310 ° 0 min 0,000 mm 2,0 UV-I 229 W/m² 14,4 °C 21,3 °C 8,0 km/h (2 Bft)
11.07.2017 17:00 21,2 °C 21,3 °C 64 % 1012,3 hPa 0,0 mm 7,2 km/h (2 Bft) W-NW 285 ° 0 min 0,000 mm 1,9 UV-I 225 W/m² 14,1 °C 21,2 °C 14,5 km/h (3 Bft)
11.07.2017 17:01 21,2 °C 21,2 °C 63 % 1012,2 hPa 0,0 mm 9,9 km/h (2 Bft) W-NW 289 ° 0 min 0,203 mm 1,8 UV-I 216 W/m² 13,9 °C 21,2 °C 12,9 km/h (3 Bft)
11.07.2017 17:02 21,1 °C 21,2 °C 64 % 1012,3 hPa 0,0 mm 7,9 km/h (2 Bft) NW 309 ° 0 min 0,000 mm 1,7 UV-I 185 W/m² 14,0 °C 21,1 °C 11,3 km/h (2 Bft)
11.07.2017 17:03 21,1 °C 21,1 °C 66 % 1012,3 hPa 0,0 mm 6,2 km/h (2 Bft) W-NW 292 ° 0 min 0,000 mm 1,6 UV-I 167 W/m² 14,5 °C 21,1 °C 11,3 km/h (2 Bft)
11.07.2017 17:04 20,9 °C 21,1 °C 64 % 1012,3 hPa 0,0 mm 11,1 km/h (2 Bft) NW 306 ° 0 min 0,000 mm 1,4 UV-I 155 W/m² 13,8 °C 20,9 °C 20,9 km/h (4 Bft)
11.07.2017 17:05 20,9 °C 20,9 °C 65 % 1012,3 hPa 0,0 mm 7,6 km/h (2 Bft) W 267 ° 0 min 0,000 mm 1,4 UV-I 149 W/m² 14,1 °C 20,9 °C 14,5 km/h (3 Bft)
11.07.2017 17:06 20,8 °C 20,9 °C 64 % 1012,3 hPa 0,0 mm 9,4 km/h (2 Bft) W-NW 282 ° 0 min 0,000 mm 1,3 UV-I 125 W/m² 13,7 °C 20,8 °C 14,5 km/h (3 Bft)
11.07.2017 17:07 20,7 °C 20,8 °C 66 % 1012,3 hPa 0,0 mm 6,4 km/h (2 Bft) NW 310 ° 0 min 0,000 mm 1,2 UV-I 120 W/m² 14,1 °C 20,7 °C 14,5 km/h (3 Bft)
11.07.2017 17:08 20,6 °C 20,7 °C 65 % 1012,3 hPa 0,0 mm 8,0 km/h (2 Bft) N-NW 329 ° 0 min 0,000 mm 1,1 UV-I 118 W/m² 13,8 °C 20,6 °C 12,9 km/h (3 Bft)
11.07.2017 17:09 20,6 °C 20,6 °C 66 % 1012,3 hPa 0,0 mm 6,1 km/h (2 Bft) NW 317 ° 0 min 0,000 mm 0,9 UV-I 109 W/m² 14,0 °C 20,6 °C 9,7 km/h (2 Bft)
11.07.2017 17:10 20,5 °C 20,6 °C 65 % 1012,3 hPa 0,0 mm 8,4 km/h (2 Bft) NW 314 ° 0 min 0,000 mm 0,9 UV-I 105 W/m² 13,7 °C 20,5 °C 12,9 km/h (3 Bft)
11.07.2017 17:11 20,4 °C 20,5 °C 65 % 1012,3 hPa 0,0 mm 8,3 km/h (2 Bft) W-NW 298 ° 0 min 0,000 mm 0,8 UV-I 102 W/m² 13,6 °C 20,4 °C 14,5 km/h (3 Bft)
11.07.2017 17:12 20,4 °C 20,4 °C 66 % 1012,3 hPa 0,0 mm 8,6 km/h (2 Bft) W-NW 301 ° 0 min 0,000 mm 0,8 UV-I 100 W/m² 13,8 °C 20,4 °C 14,5 km/h (3 Bft)
11.07.2017 17:13 20,3 °C 20,4 °C 65 % 1012,3 hPa 0,0 mm 9,0 km/h (2 Bft) N-NW 329 ° 0 min 0,000 mm 0,8 UV-I 97 W/m² 13,5 °C 20,3 °C 14,5 km/h (3 Bft)
11.07.2017 17:14 20,3 °C 20,3 °C 65 % 1012,3 hPa 0,0 mm 9,0 km/h (2 Bft) NW 306 ° 0 min 0,000 mm 0,8 UV-I 93 W/m² 13,5 °C 20,3 °C 16,1 km/h (3 Bft)
11.07.2017 17:15 20,2 °C 20,3 °C 67 % 1012,3 hPa 0,0 mm 4,6 km/h (1 Bft) W-NW 300 ° 0 min 0,000 mm 0,8 UV-I 95 W/m² 13,9 °C 20,2 °C 6,4 km/h (2 Bft)
11.07.2017 17:16 20,2 °C 20,2 °C 67 % 1012,3 hPa 0,0 mm 9,0 km/h (2 Bft) W-NW 302 ° 0 min 0,000 mm 0,8 UV-I 95 W/m² 13,9 °C 20,2 °C 16,1 km/h (3 Bft)
11.07.2017 17:17 20,2 °C 20,2 °C 65 % 1012,3 hPa 0,0 mm 6,1 km/h (2 Bft) N-NW 334 ° 0 min 0,000 mm 0,8 UV-I 93 W/m² 13,4 °C 20,2 °C 11,3 km/h (2 Bft)
11.07.2017 17:18 20,1 °C 20,2 °C 67 % 1012,3 hPa 0,0 mm 5,8 km/h (2 Bft) W 260 ° 0 min 0,000 mm 0,7 UV-I 90 W/m² 13,8 °C 20,1 °C 12,9 km/h (3 Bft)
11.07.2017 17:19 20,1 °C 20,2 °C 66 % 1012,3 hPa 0,0 mm 6,2 km/h (2 Bft) NW 320 ° 0 min 0,000 mm 0,7 UV-I 84 W/m² 13,5 °C 20,1 °C 11,3 km/h (2 Bft)
11.07.2017 17:20 20,1 °C 20,1 °C 66 % 1012,3 hPa 0,0 mm 2,7 km/h (1 Bft) NW 311 ° 0 min 0,000 mm 0,6 UV-I 63 W/m² 13,5 °C 20,1 °C 6,4 km/h (2 Bft)
11.07.2017 17:21 20,1 °C 20,1 °C 66 % 1012,4 hPa 0,0 mm 5,3 km/h (1 Bft) W 281 ° 0 min 0,000 mm 0,5 UV-I 60 W/m² 13,5 °C 20,1 °C 8,0 km/h (2 Bft)
11.07.2017 17:22 20,0 °C 20,1 °C 68 % 1012,4 hPa 0,0 mm 6,6 km/h (2 Bft) W 274 ° 0 min 0,000 mm 0,5 UV-I 60 W/m² 13,9 °C 20,0 °C 9,7 km/h (2 Bft)
11.07.2017 17:23 19,9 °C 20,0 °C 68 % 1012,4 hPa 0,0 mm 7,5 km/h (2 Bft) W 272 ° 0 min 0,000 mm 0,5 UV-I 51 W/m² 13,8 °C 19,9 °C 11,3 km/h (2 Bft)
11.07.2017 17:24 19,9 °C 20,0 °C 67 % 1012,4 hPa 0,0 mm 9,1 km/h (2 Bft) W-NW 288 ° 0 min 0,000 mm 0,0 UV-I 49 W/m² 13,6 °C 19,9 °C 14,5 km/h (3 Bft)
11.07.2017 17:25 19,8 °C 19,9 °C 69 % 1012,4 hPa 0,0 mm 8,4 km/h (2 Bft) NW 304 ° 0 min 0,000 mm 0,0 UV-I 54 W/m² 13,9 °C 19,8 °C 11,3 km/h (2 Bft)
11.07.2017 17:26 19,7 °C 19,8 °C 70 % 1012,5 hPa 0,0 mm 9,3 km/h (2 Bft) W 259 ° 0 min 0,000 mm 0,0 UV-I 54 W/m² 14,1 °C 19,7 °C 14,5 km/h (3 Bft)
11.07.2017 17:27 19,7 °C 19,7 °C 68 % 1012,5 hPa 0,0 mm 13,7 km/h (3 Bft) W 269 ° 0 min 0,000 mm 0,0 UV-I 56 W/m² 13,6 °C 19,7 °C 20,9 km/h (4 Bft)
11.07.2017 17:28 19,6 °C 19,7 °C 68 % 1012,5 hPa 0,0 mm 9,7 km/h (2 Bft) W 262 ° 0 min 0,000 mm 0,5 UV-I 60 W/m² 13,5 °C 19,6 °C 14,5 km/h (3 Bft)
11.07.2017 17:29 19,6 °C 19,6 °C 68 % 1012,6 hPa 0,0 mm 12,5 km/h (3 Bft) NW 320 ° 0 min 0,000 mm 0,5 UV-I 63 W/m² 13,5 °C 19,6 °C 16,1 km/h (3 Bft)
11.07.2017 17:30 19,4 °C 19,6 °C 69 % 1012,6 hPa 0,0 mm 13,1 km/h (3 Bft) W-NW 283 ° 0 min 0,000 mm 0,5 UV-I 67 W/m² 13,6 °C 19,4 °C 22,5 km/h (4 Bft)
11.07.2017 17:31 19,3 °C 19,4 °C 69 % 1012,6 hPa 0,0 mm 13,1 km/h (3 Bft) W-NW 299 ° 0 min 0,000 mm 0,5 UV-I 67 W/m² 13,5 °C 19,3 °C 17,7 km/h (3 Bft)
11.07.2017 17:32 19,3 °C 19,4 °C 70 % 1012,6 hPa 0,0 mm 9,1 km/h (2 Bft) W 275 ° 0 min 0,000 mm 0,5 UV-I 67 W/m² 13,7 °C 19,3 °C 14,5 km/h (3 Bft)
11.07.2017 17:33 19,2 °C 19,3 °C 71 % 1012,6 hPa 0,2 mm 11,3 km/h (2 Bft) W-NW 302 ° 0 min 0,000 mm 0,5 UV-I 69 W/m² 13,8 °C 19,2 °C 17,7 km/h (3 Bft)
11.07.2017 17:34 19,0 °C 19,2 °C 71 % 1012,7 hPa 0,0 mm 10,4 km/h (2 Bft) W-NW 285 ° 0 min 0,000 mm 0,6 UV-I 72 W/m² 13,6 °C 19,0 °C 14,5 km/h (3 Bft)
11.07.2017 17:35 18,8 °C 19,0 °C 75 % 1012,7 hPa 0,0 mm 8,2 km/h (2 Bft) W 267 ° 0 min 0,000 mm 0,6 UV-I 76 W/m² 14,3 °C 18,8 °C 14,5 km/h (3 Bft)
11.07.2017 17:36 18,6 °C 18,8 °C 75 % 1012,7 hPa 0,0 mm 6,5 km/h (2 Bft) W 265 ° 0 min 0,000 mm 0,6 UV-I 81 W/m² 14,1 °C 18,6 °C 12,9 km/h (3 Bft)
11.07.2017 17:37 18,3 °C 18,6 °C 77 % 1012,7 hPa 0,0 mm 5,0 km/h (1 Bft) W 269 ° 0 min 0,000 mm 0,6 UV-I 83 W/m² 14,2 °C 18,3 °C 16,1 km/h (3 Bft)
11.07.2017 17:38 18,2 °C 18,3 °C 78 % 1012,7 hPa 0,0 mm 2,8 km/h (1 Bft) W-SW 243 ° 0 min 0,000 mm 0,6 UV-I 86 W/m² 14,3 °C 18,2 °C 4,8 km/h (1 Bft)
11.07.2017 17:39 17,9 °C 18,2 °C 79 % 1012,8 hPa 0,0 mm 0,9 km/h (0 Bft) W-SW 243 ° 0 min 0,000 mm 0,6 UV-I 90 W/m² 14,2 °C 17,9 °C 3,2 km/h (1 Bft)
11.07.2017 17:40 17,8 °C 17,9 °C 80 % 1012,7 hPa 0,0 mm 2,1 km/h (1 Bft) SW 223 ° 0 min 0,000 mm 0,7 UV-I 95 W/m² 14,3 °C 17,8 °C 4,8 km/h (1 Bft)
11.07.2017 17:41 17,7 °C 17,8 °C 81 % 1012,7 hPa 0,0 mm 4,9 km/h (1 Bft) W 263 ° 0 min 0,000 mm 0,7 UV-I 104 W/m² 14,4 °C 17,7 °C 11,3 km/h (2 Bft)
11.07.2017 17:42 17,6 °C 17,7 °C 79 % 1012,6 hPa 0,0 mm 4,9 km/h (1 Bft) W-SW 258 ° 0 min 0,000 mm 0,8 UV-I 118 W/m² 13,9 °C 17,6 °C 9,7 km/h (2 Bft)
11.07.2017 17:43 17,6 °C 17,6 °C 80 % 1012,7 hPa 0,0 mm 2,1 km/h (1 Bft) SW 215 ° 0 min 0,000 mm 0,9 UV-I 165 W/m² 14,1 °C 17,6 °C 4,8 km/h (1 Bft)
11.07.2017 17:44 17,6 °C 17,6 °C 80 % 1012,7 hPa 0,0 mm 9,2 km/h (2 Bft) W 273 ° 0 min 0,000 mm 1,0 UV-I 209 W/m² 14,1 °C 17,6 °C 14,5 km/h (3 Bft)
11.07.2017 17:45 17,6 °C 17,6 °C 81 % 1012,6 hPa 0,0 mm 8,6 km/h (2 Bft) W 281 ° 0 min 0,000 mm 1,4 UV-I 236 W/m² 14,3 °C 17,6 °C 11,3 km/h (2 Bft)
11.07.2017 17:46 17,7 °C 17,7 °C 82 % 1012,6 hPa 0,2 mm 10,8 km/h (2 Bft) W 261 ° 0 min 0,000 mm 1,5 UV-I 250 W/m² 14,6 °C 17,7 °C 17,7 km/h (3 Bft)
11.07.2017 17:47 17,7 °C 17,7 °C 83 % 1012,6 hPa 0,0 mm 10,8 km/h (2 Bft) W 265 ° 0 min 0,000 mm 1,6 UV-I 246 W/m² 14,8 °C 17,7 °C 12,9 km/h (3 Bft)
11.07.2017 17:48 17,8 °C 17,8 °C 82 % 1012,7 hPa 0,0 mm 5,9 km/h (2 Bft) W-SW 252 ° 0 min 0,000 mm 1,6 UV-I 241 W/m² 14,7 °C 17,8 °C 11,3 km/h (2 Bft)
11.07.2017 17:49 17,9 °C 17,9 °C 82 % 1012,7 hPa 0,0 mm 3,2 km/h (1 Bft) SW 231 ° 0 min 0,000 mm 1,6 UV-I 218 W/m² 14,8 °C 17,9 °C 8,0 km/h (2 Bft)
11.07.2017 17:50 17,9 °C 17,9 °C 82 % 1012,6 hPa 0,0 mm 2,5 km/h (1 Bft) S-SW 212 ° 0 min 0,000 mm 1,6 UV-I 213 W/m² 14,8 °C 17,9 °C 4,8 km/h (1 Bft)
11.07.2017 17:51 17,9 °C 17,9 °C 80 % 1012,6 hPa 0,0 mm 3,7 km/h (1 Bft) W-SW 256 ° 0 min 0,000 mm 1,6 UV-I 207 W/m² 14,4 °C 17,9 °C 6,4 km/h (2 Bft)
11.07.2017 17:52 18,1 °C 18,1 °C 84 % 1012,6 hPa 0,0 mm 5,5 km/h (1 Bft) S-SW 208 ° 0 min 0,000 mm 1,6 UV-I 204 W/m² 15,4 °C 18,1 °C 11,3 km/h (2 Bft)
11.07.2017 17:53 18,1 °C 18,1 °C 80 % 1012,6 hPa 0,0 mm 4,9 km/h (1 Bft) W 265 ° 0 min 0,000 mm 1,5 UV-I 199 W/m² 14,6 °C 18,1 °C 6,4 km/h (2 Bft)
11.07.2017 17:54 18,1 °C 18,1 °C 81 % 1012,6 hPa 0,0 mm 4,9 km/h (1 Bft) W-SW 253 ° 0 min 0,000 mm 1,5 UV-I 197 W/m² 14,8 °C 18,1 °C 14,5 km/h (3 Bft)
11.07.2017 17:55 18,1 °C 18,1 °C 79 % 1012,6 hPa 0,0 mm 4,5 km/h (1 Bft) W 269 ° 0 min 0,000 mm 1,5 UV-I 197 W/m² 14,4 °C 18,1 °C 6,4 km/h (2 Bft)
11.07.2017 17:56 18,2 °C 18,2 °C 81 % 1012,7 hPa 0,0 mm 4,8 km/h (1 Bft) W-SW 244 ° 0 min 0,000 mm 1,5 UV-I 202 W/m² 14,9 °C 18,2 °C 9,7 km/h (2 Bft)
11.07.2017 17:57 18,3 °C 18,3 °C 82 % 1012,7 hPa 0,0 mm 5,3 km/h (1 Bft) W 278 ° 0 min 0,000 mm 1,5 UV-I 209 W/m² 15,2 °C 18,3 °C 6,4 km/h (2 Bft)
11.07.2017 17:58 18,3 °C 18,3 °C 81 % 1012,7 hPa 0,0 mm 3,5 km/h (1 Bft) W 263 ° 0 min 0,000 mm 1,5 UV-I 202 W/m² 15,0 °C 18,3 °C 6,4 km/h (2 Bft)
11.07.2017 17:59 18,3 °C 18,3 °C 80 % 1012,7 hPa 0,0 mm 2,7 km/h (1 Bft) W-NW 300 ° 0 min 0,000 mm 1,5 UV-I 202 W/m² 14,8 °C 18,3 °C 4,8 km/h (1 Bft)
11.07.2017 18:00 18,4 °C 18,4 °C 82 % 1012,7 hPa 0,0 mm 2,8 km/h (1 Bft) W-SW 242 ° 0 min 0,000 mm 1,5 UV-I 204 W/m² 15,3 °C 18,4 °C 4,8 km/h (1 Bft)
11.07.2017 18:01 18,5 °C 18,5 °C 83 % 1012,8 hPa 0,0 mm 6,6 km/h (2 Bft) W 275 ° 0 min 0,102 mm 1,4 UV-I 190 W/m² 15,6 °C 18,5 °C 11,3 km/h (2 Bft)
11.07.2017 18:02 18,5 °C 18,5 °C 80 % 1012,8 hPa 0,0 mm 4,8 km/h (1 Bft) W 273 ° 0 min 0,000 mm 1,4 UV-I 188 W/m² 15,0 °C 18,5 °C 8,0 km/h (2 Bft)
11.07.2017 18:03 18,5 °C 18,6 °C 80 % 1012,8 hPa 0,0 mm 3,7 km/h (1 Bft) W 277 ° 0 min 0,000 mm 1,3 UV-I 188 W/m² 15,0 °C 18,5 °C 9,7 km/h (2 Bft)
11.07.2017 18:04 18,5 °C 18,5 °C 80 % 1012,8 hPa 0,0 mm 1,8 km/h (1 Bft) W 277 ° 0 min 0,000 mm 1,3 UV-I 188 W/m² 15,0 °C 18,5 °C 4,8 km/h (1 Bft)
11.07.2017 18:05 18,5 °C 18,5 °C 79 % 1012,8 hPa 0,0 mm 2,8 km/h (1 Bft) W-NW 284 ° 0 min 0,000 mm 1,3 UV-I 193 W/m² 14,8 °C 18,5 °C 9,7 km/h (2 Bft)
11.07.2017 18:06 18,5 °C 18,5 °C 80 % 1012,9 hPa 0,0 mm 5,8 km/h (2 Bft) W 261 ° 0 min 0,000 mm 1,4 UV-I 200 W/m² 15,0 °C 18,5 °C 11,3 km/h (2 Bft)
11.07.2017 18:07 18,5 °C 18,6 °C 80 % 1012,9 hPa 0,0 mm 6,4 km/h (2 Bft) W 271 ° 0 min 0,000 mm 1,4 UV-I 214 W/m² 15,0 °C 18,5 °C 11,3 km/h (2 Bft)
11.07.2017 18:08 18,6 °C 18,6 °C 79 % 1012,9 hPa 0,0 mm 7,6 km/h (2 Bft) W-SW 248 ° 0 min 0,000 mm 1,3 UV-I 209 W/m² 14,9 °C 18,6 °C 11,3 km/h (2 Bft)
11.07.2017 18:09 18,6 °C 18,6 °C 80 % 1012,9 hPa 0,0 mm 2,0 km/h (1 Bft) W-SW 244 ° 0 min 0,000 mm 1,3 UV-I 202 W/m² 15,1 °C 18,6 °C 3,2 km/h (1 Bft)
11.07.2017 18:10 18,6 °C 18,6 °C 77 % 1012,9 hPa 0,0 mm 3,7 km/h (1 Bft) S-SW 194 ° 0 min 0,000 mm 1,2 UV-I 197 W/m² 14,5 °C 18,6 °C 9,7 km/h (2 Bft)
11.07.2017 18:11 18,5 °C 18,6 °C 75 % 1012,9 hPa 0,0 mm 5,7 km/h (1 Bft) S 171 ° 0 min 0,000 mm 1,2 UV-I 193 W/m² 14,0 °C 18,5 °C 11,3 km/h (2 Bft)
11.07.2017 18:12 18,5 °C 18,5 °C 76 % 1012,9 hPa 0,0 mm 3,1 km/h (1 Bft) W 270 ° 0 min 0,000 mm 1,2 UV-I 186 W/m² 14,2 °C 18,5 °C 8,0 km/h (2 Bft)
11.07.2017 18:13 18,5 °C 18,5 °C 77 % 1012,8 hPa 0,0 mm 4,8 km/h (1 Bft) W 273 ° 0 min 0,000 mm 1,2 UV-I 181 W/m² 14,4 °C 18,5 °C 6,4 km/h (2 Bft)
11.07.2017 18:14 18,6 °C 18,6 °C 79 % 1012,9 hPa 0,0 mm 3,4 km/h (1 Bft) W 275 ° 0 min 0,000 mm 1,2 UV-I 174 W/m² 14,9 °C 18,6 °C 6,4 km/h (2 Bft)
11.07.2017 18:15 18,6 °C 18,6 °C 80 % 1012,9 hPa 0,0 mm 4,9 km/h (1 Bft) W 259 ° 0 min 0,000 mm 1,2 UV-I 165 W/m² 15,1 °C 18,6 °C 11,3 km/h (2 Bft)
11.07.2017 18:16 18,6 °C 18,6 °C 77 % 1012,9 hPa 0,0 mm 7,0 km/h (2 Bft) W-SW 243 ° 0 min 0,000 mm 1,2 UV-I 162 W/m² 14,5 °C 18,6 °C 12,9 km/h (3 Bft)
11.07.2017 18:17 18,5 °C 18,6 °C 76 % 1012,9 hPa 0,0 mm 3,1 km/h (1 Bft) W 269 ° 0 min 0,000 mm 1,2 UV-I 156 W/m² 14,2 °C 18,5 °C 4,8 km/h (1 Bft)
11.07.2017 18:18 18,5 °C 18,6 °C 76 % 1012,9 hPa 0,0 mm 3,2 km/h (1 Bft) W 269 ° 0 min 0,000 mm 1,2 UV-I 158 W/m² 14,2 °C 18,5 °C 4,8 km/h (1 Bft)
11.07.2017 18:19 18,4 °C 18,5 °C 75 % 1012,9 hPa 0,0 mm 3,0 km/h (1 Bft) W 277 ° 0 min 0,000 mm 1,2 UV-I 178 W/m² 13,9 °C 18,4 °C 4,8 km/h (1 Bft)
11.07.2017 18:20 18,4 °C 18,5 °C 76 % 1012,9 hPa 0,0 mm 1,5 km/h (1 Bft) W 277 ° 0 min 0,000 mm 1,3 UV-I 188 W/m² 14,1 °C 18,4 °C 4,8 km/h (1 Bft)
11.07.2017 18:21 18,4 °C 18,4 °C 76 % 1012,9 hPa 0,0 mm 1,7 km/h (1 Bft) W 277 ° 0 min 0,000 mm 1,3 UV-I 186 W/m² 14,1 °C 18,4 °C 3,2 km/h (1 Bft)
11.07.2017 18:22 18,4 °C 18,4 °C 80 % 1012,9 hPa 0,0 mm 2,7 km/h (1 Bft) W 272 ° 0 min 0,000 mm 1,3 UV-I 179 W/m² 14,9 °C 18,4 °C 6,4 km/h (2 Bft)
11.07.2017 18:23 18,5 °C 18,5 °C 80 % 1012,8 hPa 0,0 mm 2,0 km/h (1 Bft) W 259 ° 0 min 0,000 mm 1,2 UV-I 171 W/m² 15,0 °C 18,5 °C 4,8 km/h (1 Bft)
11.07.2017 18:24 18,4 °C 18,5 °C 78 % 1012,8 hPa 0,0 mm 1,7 km/h (1 Bft) W-SW 255 ° 0 min 0,000 mm 1,2 UV-I 160 W/m² 14,5 °C 18,4 °C 3,2 km/h (1 Bft)
11.07.2017 18:25 18,4 °C 18,4 °C 79 % 1012,9 hPa 0,0 mm 3,2 km/h (1 Bft) W 274 ° 0 min 0,000 mm 1,1 UV-I 149 W/m² 14,7 °C 18,4 °C 4,8 km/h (1 Bft)
11.07.2017 18:26 18,4 °C 18,4 °C 78 % 1012,8 hPa 0,0 mm 1,9 km/h (1 Bft) W 271 ° 0 min 0,000 mm 1,1 UV-I 149 W/m² 14,5 °C 18,4 °C 4,8 km/h (1 Bft)
11.07.2017 18:27 18,4 °C 18,4 °C 78 % 1012,8 hPa 0,0 mm 0,9 km/h (0 Bft) W 263 ° 0 min 0,000 mm 1,0 UV-I 149 W/m² 14,5 °C 18,4 °C 4,8 km/h (1 Bft)
11.07.2017 18:28 18,4 °C 18,4 °C 77 % 1012,8 hPa 0,0 mm 0,8 km/h (0 Bft) W 263 ° 0 min 0,000 mm 1,0 UV-I 146 W/m² 14,3 °C 18,4 °C 3,2 km/h (1 Bft)
11.07.2017 18:29 18,4 °C 18,4 °C 79 % 1012,8 hPa 0,0 mm 1,4 km/h (1 Bft) NW 306 ° 0 min 0,000 mm 0,9 UV-I 141 W/m² 14,7 °C 18,4 °C 3,2 km/h (1 Bft)
11.07.2017 18:30 18,4 °C 18,4 °C 79 % 1012,9 hPa 0,0 mm 0,9 km/h (0 Bft) NW 305 ° 0 min 0,000 mm 0,9 UV-I 125 W/m² 14,7 °C 18,4 °C 3,2 km/h (1 Bft)
11.07.2017 18:31 18,4 °C 18,4 °C 80 % 1012,9 hPa 0,0 mm 0,0 km/h (0 Bft) NW 305 ° 0 min 0,000 mm 0,8 UV-I 118 W/m² 14,9 °C 18,4 °C 0,0 km/h (0 Bft)
11.07.2017 18:32 18,6 °C 18,6 °C 79 % 1012,9 hPa 0,0 mm 0,2 km/h (0 Bft) NW 305 ° 0 min 0,000 mm 0,8 UV-I 113 W/m² 14,9 °C 18,6 °C 1,6 km/h (1 Bft)
11.07.2017 18:33 18,6 °C 18,6 °C 79 % 1012,9 hPa 0,0 mm 1,3 km/h (1 Bft) NW 306 ° 0 min 0,000 mm 0,7 UV-I 109 W/m² 14,9 °C 18,6 °C 4,8 km/h (1 Bft)
11.07.2017 18:34 18,6 °C 18,6 °C 78 % 1012,9 hPa 0,0 mm 3,6 km/h (1 Bft) W-NW 286 ° 0 min 0,000 mm 0,7 UV-I 105 W/m² 14,7 °C 18,6 °C 6,4 km/h (2 Bft)
11.07.2017 18:35 18,6 °C 18,6 °C 76 % 1012,9 hPa 0,0 mm 2,5 km/h (1 Bft) W-NW 286 ° 0 min 0,000 mm 0,7 UV-I 107 W/m² 14,3 °C 18,6 °C 3,2 km/h (1 Bft)
11.07.2017 18:36 18,5 °C 18,6 °C 78 % 1012,9 hPa 0,0 mm 2,1 km/h (1 Bft) W-SW 257 ° 0 min 0,000 mm 0,7 UV-I 132 W/m² 14,6 °C 18,5 °C 4,8 km/h (1 Bft)
11.07.2017 18:37 18,4 °C 18,5 °C 78 % 1012,9 hPa 0,0 mm 3,9 km/h (1 Bft) W-SW 254 ° 0 min 0,000 mm 0,8 UV-I 132 W/m² 14,5 °C 18,4 °C 8,0 km/h (2 Bft)
11.07.2017 18:38 18,4 °C 18,4 °C 78 % 1012,9 hPa 0,0 mm 1,9 km/h (1 Bft) W-SW 254 ° 0 min 0,000 mm 0,8 UV-I 156 W/m² 14,5 °C 18,4 °C 3,2 km/h (1 Bft)
11.07.2017 18:39 18,4 °C 18,5 °C 78 % 1012,8 hPa 0,0 mm 0,0 km/h (0 Bft) W-SW 254 ° 0 min 0,000 mm 0,8 UV-I 151 W/m² 14,5 °C 18,4 °C 0,0 km/h (0 Bft)
11.07.2017 18:40 18,4 °C 18,5 °C 80 % 1012,9 hPa 0,0 mm 0,5 km/h (0 Bft) W-SW 254 ° 0 min 0,000 mm 0,7 UV-I 134 W/m² 14,9 °C 18,4 °C 1,6 km/h (1 Bft)
11.07.2017 18:41 18,4 °C 18,4 °C 77 % 1012,8 hPa 0,0 mm 0,0 km/h (0 Bft) W-SW 254 ° 0 min 0,000 mm 0,6 UV-I 114 W/m² 14,3 °C 18,4 °C 0,0 km/h (0 Bft)
11.07.2017 18:42 18,4 °C 18,4 °C 79 % 1012,8 hPa 0,0 mm 2,3 km/h (1 Bft) W 267 ° 0 min 0,000 mm 0,6 UV-I 83 W/m² 14,7 °C 18,4 °C 4,8 km/h (1 Bft)
11.07.2017 18:43 18,4 °C 18,4 °C 79 % 1012,9 hPa 0,0 mm 1,3 km/h (1 Bft) W 267 ° 0 min 0,000 mm 0,0 UV-I 74 W/m² 14,7 °C 18,4 °C 3,2 km/h (1 Bft)
11.07.2017 18:44 18,5 °C 18,5 °C 80 % 1012,8 hPa 0,0 mm 0,3 km/h (0 Bft) W 267 ° 0 min 0,000 mm 0,0 UV-I 70 W/m² 15,0 °C 18,5 °C 1,6 km/h (1 Bft)
11.07.2017 18:45 18,4 °C 18,5 °C 81 % 1012,8 hPa 0,0 mm 0,0 km/h (0 Bft) W 267 ° 0 min 0,000 mm 0,0 UV-I 70 W/m² 15,1 °C 18,4 °C 0,0 km/h (0 Bft)
11.07.2017 18:46 18,3 °C 18,4 °C 82 % 1012,8 hPa 0,0 mm 0,0 km/h (0 Bft) W 267 ° 0 min 0,000 mm 0,0 UV-I 74 W/m² 15,2 °C 18,3 °C 0,0 km/h (0 Bft)
11.07.2017 18:47 18,3 °C 18,3 °C 81 % 1012,8 hPa 0,0 mm 0,0 km/h (0 Bft) W 267 ° 0 min 0,000 mm 0,5 UV-I 79 W/m² 15,0 °C 18,3 °C 0,0 km/h (0 Bft)
11.07.2017 18:48 18,2 °C 18,3 °C 80 % 1012,8 hPa 0,0 mm 0,0 km/h (0 Bft) W 267 ° 0 min 0,000 mm 0,5 UV-I 93 W/m² 14,7 °C 18,2 °C 0,0 km/h (0 Bft)
11.07.2017 18:49 18,2 °C 18,2 °C 81 % 1012,8 hPa 0,0 mm 0,0 km/h (0 Bft) W 267 ° 0 min 0,000 mm 0,5 UV-I 97 W/m² 14,9 °C 18,2 °C 0,0 km/h (0 Bft)
11.07.2017 18:50 18,1 °C 18,2 °C 82 % 1012,8 hPa 0,0 mm 0,0 km/h (0 Bft) W 267 ° 0 min 0,000 mm 0,6 UV-I 105 W/m² 15,0 °C 18,1 °C 0,0 km/h (0 Bft)
11.07.2017 18:51 18,0 °C 18,1 °C 81 % 1012,8 hPa 0,0 mm 0,0 km/h (0 Bft) W 267 ° 0 min 0,000 mm 0,7 UV-I 113 W/m² 14,7 °C 18,0 °C 0,0 km/h (0 Bft)
11.07.2017 18:52 17,9 °C 18,0 °C 82 % 1012,7 hPa 0,0 mm 1,3 km/h (1 Bft) W 267 ° 0 min 0,000 mm 0,7 UV-I 121 W/m² 14,8 °C 17,9 °C 3,2 km/h (1 Bft)
11.07.2017 18:53 17,9 °C 17,9 °C 83 % 1012,7 hPa 0,0 mm 1,9 km/h (1 Bft) W 267 ° 0 min 0,000 mm 0,8 UV-I 127 W/m² 15,0 °C 17,9 °C 3,2 km/h (1 Bft)
11.07.2017 18:54 17,9 °C 17,9 °C 83 % 1012,7 hPa 0,0 mm 1,2 km/h (1 Bft) W 267 ° 0 min 0,000 mm 0,8 UV-I 146 W/m² 15,0 °C 17,9 °C 3,2 km/h (1 Bft)
11.07.2017 18:55 18,0 °C 18,0 °C 82 % 1012,7 hPa 0,0 mm 0,9 km/h (0 Bft) W 268 ° 0 min 0,000 mm 0,9 UV-I 149 W/m² 14,9 °C 18,0 °C 1,6 km/h (1 Bft)
11.07.2017 18:56 18,1 °C 18,1 °C 84 % 1012,7 hPa 0,0 mm 0,8 km/h (0 Bft) W 267 ° 0 min 0,000 mm 1,0 UV-I 151 W/m² 15,4 °C 18,1 °C 1,6 km/h (1 Bft)
11.07.2017 18:57 18,0 °C 18,1 °C 82 % 1012,6 hPa 0,0 mm 2,1 km/h (1 Bft) W 268 ° 0 min 0,000 mm 1,0 UV-I 151 W/m² 14,9 °C 18,0 °C 3,2 km/h (1 Bft)
11.07.2017 18:58 18,0 °C 18,1 °C 79 % 1012,6 hPa 0,0 mm 1,1 km/h (1 Bft) SW 222 ° 0 min 0,000 mm 1,0 UV-I 148 W/m² 14,3 °C 18,0 °C 3,2 km/h (1 Bft)
11.07.2017 18:59 18,1 °C 18,1 °C 78 % 1012,6 hPa 0,0 mm 2,3 km/h (1 Bft) SO 146 ° 0 min 0,000 mm 1,0 UV-I 148 W/m² 14,2 °C 18,1 °C 6,4 km/h (2 Bft)
11.07.2017 19:00 18,1 °C 18,1 °C 78 % 1012,6 hPa 0,0 mm 1,9 km/h (1 Bft) O-SO 107 ° 0 min 0,000 mm 0,9 UV-I 137 W/m² 14,2 °C 18,1 °C 3,2 km/h (1 Bft)
11.07.2017 19:01 18,2 °C 18,2 °C 81 % 1012,6 hPa 0,0 mm 2,8 km/h (1 Bft) O-SO 107 ° 0 min 0,101 mm 0,9 UV-I 130 W/m² 14,9 °C 18,2 °C 4,8 km/h (1 Bft)
11.07.2017 19:02 18,2 °C 18,2 °C 81 % 1012,6 hPa 0,0 mm 1,1 km/h (1 Bft) O-SO 107 ° 0 min 0,000 mm 0,9 UV-I 125 W/m² 14,9 °C 18,2 °C 3,2 km/h (1 Bft)
11.07.2017 19:03 18,2 °C 18,2 °C 80 % 1012,7 hPa 0,0 mm 0,5 km/h (0 Bft) O-SO 107 ° 0 min 0,000 mm 0,8 UV-I 120 W/m² 14,7 °C 18,2 °C 1,6 km/h (1 Bft)
11.07.2017 19:04 18,2 °C 18,2 °C 79 % 1012,7 hPa 0,0 mm 0,0 km/h (0 Bft) O-SO 107 ° 0 min 0,000 mm 0,8 UV-I 114 W/m² 14,5 °C 18,2 °C 0,0 km/h (0 Bft)
11.07.2017 19:05 18,2 °C 18,2 °C 80 % 1012,7 hPa 0,0 mm 0,0 km/h (0 Bft) O-SO 107 ° 0 min 0,000 mm 0,8 UV-I 105 W/m² 14,7 °C 18,2 °C 0,0 km/h (0 Bft)
11.07.2017 19:06 18,2 °C 18,2 °C 77 % 1012,7 hPa 0,0 mm 0,0 km/h (0 Bft) O-SO 107 ° 0 min 0,000 mm 0,8 UV-I 98 W/m² 14,1 °C 18,2 °C 0,0 km/h (0 Bft)
11.07.2017 19:07 18,2 °C 18,2 °C 77 % 1012,7 hPa 0,0 mm 2,7 km/h (1 Bft) O-SO 107 ° 0 min 0,000 mm 0,7 UV-I 93 W/m² 14,1 °C 18,2 °C 4,8 km/h (1 Bft)
11.07.2017 19:08 18,2 °C 18,2 °C 78 % 1012,8 hPa 0,0 mm 0,0 km/h (0 Bft) O-SO 107 ° 0 min 0,000 mm 0,7 UV-I 88 W/m² 14,3 °C 18,2 °C 0,0 km/h (0 Bft)
11.07.2017 19:09 18,2 °C 18,2 °C 79 % 1012,8 hPa 0,0 mm 0,0 km/h (0 Bft) O-SO 107 ° 0 min 0,000 mm 0,6 UV-I 83 W/m² 14,5 °C 18,2 °C 0,0 km/h (0 Bft)
11.07.2017 19:10 18,3 °C 18,3 °C 79 % 1012,7 hPa 0,0 mm 0,0 km/h (0 Bft) O-SO 107 ° 0 min 0,000 mm 0,6 UV-I 79 W/m² 14,6 °C 18,3 °C 0,0 km/h (0 Bft)
11.07.2017 19:11 18,3 °C 18,3 °C 79 % 1012,7 hPa 0,0 mm 0,0 km/h (0 Bft) O-SO 107 ° 0 min 0,000 mm 0,6 UV-I 76 W/m² 14,6 °C 18,3 °C 0,0 km/h (0 Bft)
11.07.2017 19:12 18,3 °C 18,3 °C 79 % 1012,7 hPa 0,0 mm 2,7 km/h (1 Bft) W-SW 245 ° 0 min 0,000 mm 0,5 UV-I 77 W/m² 14,6 °C 18,3 °C 4,8 km/h (1 Bft)
11.07.2017 19:13 18,2 °C 18,3 °C 77 % 1012,7 hPa 0,0 mm 1,8 km/h (1 Bft) W-SW 245 ° 0 min 0,000 mm 0,5 UV-I 79 W/m² 14,1 °C 18,2 °C 3,2 km/h (1 Bft)
11.07.2017 19:14 18,2 °C 18,2 °C 77 % 1012,8 hPa 0,0 mm 1,1 km/h (1 Bft) W-SW 252 ° 0 min 0,000 mm 0,5 UV-I 81 W/m² 14,1 °C 18,2 °C 1,6 km/h (1 Bft)
11.07.2017 19:15 18,2 °C 18,2 °C 77 % 1012,8 hPa 0,0 mm 0,9 km/h (0 Bft) W-SW 252 ° 0 min 0,000 mm 0,0 UV-I 84 W/m² 14,1 °C 18,2 °C 3,2 km/h (1 Bft)
11.07.2017 19:16 18,2 °C 18,2 °C 79 % 1012,7 hPa 0,0 mm 2,0 km/h (1 Bft) W-SW 252 ° 0 min 0,000 mm 0,0 UV-I 86 W/m² 14,5 °C 18,2 °C 3,2 km/h (1 Bft)
11.07.2017 19:17 18,2 °C 18,2 °C 78 % 1012,8 hPa 0,0 mm 2,2 km/h (1 Bft) W 263 ° 0 min 0,000 mm 0,0 UV-I 107 W/m² 14,3 °C 18,2 °C 4,8 km/h (1 Bft)
11.07.2017 19:18 18,2 °C 18,2 °C 79 % 1012,7 hPa 0,0 mm 0,0 km/h (0 Bft) W 263 ° 0 min 0,000 mm 0,6 UV-I 107 W/m² 14,5 °C 18,2 °C 0,0 km/h (0 Bft)
11.07.2017 19:19 18,2 °C 18,2 °C 80 % 1012,7 hPa 0,0 mm 0,0 km/h (0 Bft) W 263 ° 0 min 0,000 mm 0,7 UV-I 285 W/m² 14,7 °C 18,2 °C 0,0 km/h (0 Bft)
11.07.2017 19:20 18,2 °C 18,2 °C 82 % 1012,7 hPa 0,0 mm 0,0 km/h (0 Bft) W 263 ° 1 min 0,000 mm 0,7 UV-I 306 W/m² 15,1 °C 18,2 °C 0,0 km/h (0 Bft)
11.07.2017 19:21 18,2 °C 18,2 °C 80 % 1012,7 hPa 0,0 mm 0,0 km/h (0 Bft) W 263 ° 0 min 0,000 mm 0,6 UV-I 211 W/m² 14,7 °C 18,2 °C 0,0 km/h (0 Bft)
11.07.2017 19:22 18,1 °C 18,2 °C 80 % 1012,7 hPa 0,0 mm 0,0 km/h (0 Bft) W 263 ° 1 min 0,000 mm 0,6 UV-I 301 W/m² 14,6 °C 18,1 °C 0,0 km/h (0 Bft)
11.07.2017 19:23 18,2 °C 18,2 °C 80 % 1012,6 hPa 0,0 mm 0,0 km/h (0 Bft) W 263 ° 1 min 0,000 mm 0,7 UV-I 322 W/m² 14,7 °C 18,2 °C 0,0 km/h (0 Bft)
11.07.2017 19:24 18,3 °C 18,3 °C 81 % 1012,6 hPa 0,0 mm 0,0 km/h (0 Bft) W 263 ° 1 min 0,000 mm 0,8 UV-I 320 W/m² 15,0 °C 18,3 °C 0,0 km/h (0 Bft)
11.07.2017 19:25 18,5 °C 18,5 °C 81 % 1012,6 hPa 0,0 mm 1,4 km/h (1 Bft) W 263 ° 1 min 0,000 mm 0,8 UV-I 315 W/m² 15,2 °C 18,5 °C 3,2 km/h (1 Bft)
11.07.2017 19:26 18,6 °C 18,6 °C 77 % 1012,7 hPa 0,0 mm 1,9 km/h (1 Bft) W 263 ° 1 min 0,000 mm 0,8 UV-I 311 W/m² 14,5 °C 18,6 °C 3,2 km/h (1 Bft)
11.07.2017 19:27 18,7 °C 18,7 °C 77 % 1012,7 hPa 0,0 mm 2,7 km/h (1 Bft) W 263 ° 1 min 0,000 mm 0,8 UV-I 309 W/m² 14,6 °C 18,7 °C 3,2 km/h (1 Bft)
11.07.2017 19:28 18,8 °C 18,8 °C 77 % 1012,6 hPa 0,0 mm 2,4 km/h (1 Bft) SW 216 ° 1 min 0,000 mm 0,8 UV-I 294 W/m² 14,7 °C 18,8 °C 3,2 km/h (1 Bft)
11.07.2017 19:29 18,8 °C 18,8 °C 77 % 1012,6 hPa 0,0 mm 1,3 km/h (1 Bft) SW 220 ° 0 min 0,000 mm 0,8 UV-I 274 W/m² 14,7 °C 18,8 °C 1,6 km/h (1 Bft)
11.07.2017 19:30 18,9 °C 18,9 °C 77 % 1012,6 hPa 0,0 mm 1,3 km/h (1 Bft) SW 220 ° 0 min 0,000 mm 0,8 UV-I 267 W/m² 14,8 °C 18,9 °C 3,2 km/h (1 Bft)
11.07.2017 19:31 19,0 °C 19,0 °C 77 % 1012,6 hPa 0,0 mm 0,1 km/h (0 Bft) SW 220 ° 0 min 0,000 mm 0,8 UV-I 250 W/m² 14,9 °C 19,0 °C 1,6 km/h (1 Bft)
11.07.2017 19:32 19,0 °C 19,1 °C 77 % 1012,5 hPa 0,0 mm 3,1 km/h (1 Bft) O-SO 105 ° 0 min 0,000 mm 0,8 UV-I 241 W/m² 14,9 °C 19,0 °C 6,4 km/h (2 Bft)
11.07.2017 19:33 18,9 °C 19,0 °C 77 % 1012,5 hPa 0,0 mm 1,9 km/h (1 Bft) SO 143 ° 0 min 0,000 mm 0,7 UV-I 227 W/m² 14,8 °C 18,9 °C 3,2 km/h (1 Bft)
11.07.2017 19:34 18,9 °C 18,9 °C 79 % 1012,6 hPa 0,0 mm 0,3 km/h (0 Bft) O-NO 77 ° 0 min 0,000 mm 0,7 UV-I 199 W/m² 15,2 °C 18,9 °C 1,6 km/h (1 Bft)
11.07.2017 19:35 18,9 °C 18,9 °C 78 % 1012,6 hPa 0,0 mm 0,1 km/h (0 Bft) O-NO 77 ° 0 min 0,000 mm 0,7 UV-I 190 W/m² 15,0 °C 18,9 °C 1,6 km/h (1 Bft)
11.07.2017 19:36 19,1 °C 19,1 °C 77 % 1012,6 hPa 0,0 mm 0,2 km/h (0 Bft) O-NO 77 ° 0 min 0,000 mm 0,7 UV-I 195 W/m² 15,0 °C 19,1 °C 1,6 km/h (1 Bft)
11.07.2017 19:37 19,1 °C 19,1 °C 77 % 1012,5 hPa 0,0 mm 2,8 km/h (1 Bft) O-NO 73 ° 0 min 0,000 mm 0,6 UV-I 132 W/m² 15,0 °C 19,1 °C 6,4 km/h (2 Bft)
11.07.2017 19:38 18,9 °C 19,1 °C 74 % 1012,5 hPa 0,0 mm 1,9 km/h (1 Bft) N-NW 339 ° 0 min 0,000 mm 0,6 UV-I 58 W/m² 14,2 °C 18,9 °C 3,2 km/h (1 Bft)
11.07.2017 19:39 18,9 °C 18,9 °C 75 % 1012,5 hPa 0,0 mm 0,0 km/h (0 Bft) N-NW 339 ° 0 min 0,000 mm 0,6 UV-I 77 W/m² 14,4 °C 18,9 °C 0,0 km/h (0 Bft)
11.07.2017 19:40 18,9 °C 18,9 °C 75 % 1012,5 hPa 0,0 mm 0,0 km/h (0 Bft) N-NW 339 ° 0 min 0,000 mm 0,5 UV-I 69 W/m² 14,4 °C 18,9 °C 0,0 km/h (0 Bft)
11.07.2017 19:41 18,8 °C 18,9 °C 74 % 1012,5 hPa 0,0 mm 0,0 km/h (0 Bft) N-NW 339 ° 0 min 0,000 mm 0,5 UV-I 60 W/m² 14,1 °C 18,8 °C 0,0 km/h (0 Bft)
11.07.2017 19:42 18,8 °C 18,8 °C 76 % 1012,5 hPa 0,0 mm 0,0 km/h (0 Bft) N-NW 339 ° 0 min 0,000 mm 0,5 UV-I 84 W/m² 14,5 °C 18,8 °C 0,0 km/h (0 Bft)
11.07.2017 19:43 18,6 °C 18,8 °C 77 % 1012,5 hPa 0,0 mm 0,0 km/h (0 Bft) N-NW 339 ° 0 min 0,000 mm 0,5 UV-I 72 W/m² 14,5 °C 18,6 °C 0,0 km/h (0 Bft)
11.07.2017 19:44 18,4 °C 18,6 °C 78 % 1012,5 hPa 0,0 mm 0,0 km/h (0 Bft) N-NW 339 ° 0 min 0,000 mm 0,5 UV-I 72 W/m² 14,5 °C 18,4 °C 0,0 km/h (0 Bft)
11.07.2017 19:45 18,3 °C 18,4 °C 80 % 1012,5 hPa 0,0 mm 0,4 km/h (0 Bft) N-NO 26 ° 0 min 0,000 mm 0,5 UV-I 72 W/m² 14,8 °C 18,3 °C 1,6 km/h (1 Bft)
11.07.2017 19:46 18,1 °C 18,3 °C 80 % 1012,5 hPa 0,0 mm 0,0 km/h (0 Bft) N-NO 26 ° 0 min 0,000 mm 0,0 UV-I 67 W/m² 14,6 °C 18,1 °C 0,0 km/h (0 Bft)
11.07.2017 19:47 18,0 °C 18,1 °C 79 % 1012,5 hPa 0,0 mm 0,0 km/h (0 Bft) N-NO 26 ° 0 min 0,000 mm 0,0 UV-I 67 W/m² 14,3 °C 18,0 °C 0,0 km/h (0 Bft)
11.07.2017 19:48 17,9 °C 18,1 °C 80 % 1012,5 hPa 0,0 mm 0,0 km/h (0 Bft) N-NO 26 ° 0 min 0,000 mm 0,5 UV-I 67 W/m² 14,4 °C 17,9 °C 0,0 km/h (0 Bft)
11.07.2017 19:49 17,8 °C 17,9 °C 81 % 1012,4 hPa 0,0 mm 0,3 km/h (0 Bft) N-NO 26 ° 0 min 0,000 mm 0,5 UV-I 65 W/m² 14,5 °C 17,8 °C 1,6 km/h (1 Bft)
11.07.2017 19:50 17,7 °C 17,8 °C 81 % 1012,4 hPa 0,0 mm 0,0 km/h (0 Bft) N-NO 26 ° 0 min 0,000 mm 0,5 UV-I 62 W/m² 14,4 °C 17,7 °C 0,0 km/h (0 Bft)
11.07.2017 19:51 17,7 °C 17,8 °C 81 % 1012,3 hPa 0,0 mm 0,0 km/h (0 Bft) N-NO 26 ° 0 min 0,000 mm 0,5 UV-I 58 W/m² 14,4 °C 17,7 °C 0,0 km/h (0 Bft)
11.07.2017 19:52 17,7 °C 17,7 °C 82 % 1012,4 hPa 0,0 mm 0,0 km/h (0 Bft) N-NO 26 ° 0 min 0,000 mm 0,0 UV-I 44 W/m² 14,6 °C 17,7 °C 0,0 km/h (0 Bft)
11.07.2017 19:53 17,7 °C 17,7 °C 84 % 1012,4 hPa 0,0 mm 0,0 km/h (0 Bft) N-NO 26 ° 0 min 0,000 mm 0,0 UV-I 37 W/m² 15,0 °C 17,7 °C 0,0 km/h (0 Bft)
11.07.2017 19:54 17,6 °C 17,7 °C 83 % 1012,4 hPa 0,0 mm 0,0 km/h (0 Bft) N-NO 26 ° 0 min 0,000 mm 0,0 UV-I 33 W/m² 14,7 °C 17,6 °C 0,0 km/h (0 Bft)
11.07.2017 19:55 17,6 °C 17,6 °C 83 % 1012,4 hPa 0,0 mm 0,0 km/h (0 Bft) N-NO 26 ° 0 min 0,000 mm 0,0 UV-I 32 W/m² 14,7 °C 17,6 °C 0,0 km/h (0 Bft)
11.07.2017 19:56 17,5 °C 17,6 °C 81 % 1012,4 hPa 0,0 mm 0,0 km/h (0 Bft) N-NO 26 ° 0 min 0,000 mm 0,0 UV-I 83 W/m² 14,2 °C 17,5 °C 0,0 km/h (0 Bft)
11.07.2017 19:57 17,5 °C 17,5 °C 81 % 1012,4 hPa 0,0 mm 0,0 km/h (0 Bft) N-NO 26 ° 0 min 0,000 mm 0,0 UV-I 72 W/m² 14,2 °C 17,5 °C 0,0 km/h (0 Bft)
11.07.2017 19:58 17,4 °C 17,5 °C 81 % 1012,4 hPa 0,0 mm 0,5 km/h (0 Bft) N-NO 26 ° 0 min 0,000 mm 0,0 UV-I 40 W/m² 14,1 °C 17,4 °C 1,6 km/h (1 Bft)
11.07.2017 19:59 17,4 °C 17,4 °C 82 % 1012,4 hPa 0,0 mm 0,0 km/h (0 Bft) N-NO 26 ° 0 min 0,000 mm 0,0 UV-I 33 W/m² 14,3 °C 17,4 °C 0,0 km/h (0 Bft)
11.07.2017 20:00 17,4 °C 17,4 °C 82 % 1012,5 hPa 0,0 mm 0,0 km/h (0 Bft) N-NO 26 ° 0 min 0,076 mm 0,0 UV-I 32 W/m² 14,3 °C 17,4 °C 0,0 km/h (0 Bft)
11.07.2017 20:01 17,4 °C 17,4 °C 82 % 1012,5 hPa 0,0 mm 0,0 km/h (0 Bft) N-NO 26 ° 0 min 0,000 mm 0,0 UV-I 33 W/m² 14,3 °C 17,4 °C 0,0 km/h (0 Bft)
11.07.2017 20:02 17,3 °C 17,4 °C 82 % 1012,5 hPa 0,0 mm 0,0 km/h (0 Bft) N-NO 26 ° 0 min 0,000 mm 0,0 UV-I 35 W/m² 14,2 °C 17,3 °C 0,0 km/h (0 Bft)
11.07.2017 20:03 17,3 °C 17,3 °C 82 % 1012,5 hPa 0,0 mm 1,9 km/h (1 Bft) W 259 ° 0 min 0,000 mm 0,0 UV-I 39 W/m² 14,2 °C 17,3 °C 3,2 km/h (1 Bft)
11.07.2017 20:04 17,3 °C 17,3 °C 81 % 1012,6 hPa 0,0 mm 3,1 km/h (1 Bft) W 261 ° 0 min 0,000 mm 0,0 UV-I 42 W/m² 14,0 °C 17,3 °C 4,8 km/h (1 Bft)
11.07.2017 20:05 17,3 °C 17,3 °C 81 % 1012,6 hPa 0,0 mm 0,5 km/h (0 Bft) W 261 ° 0 min 0,000 mm 0,0 UV-I 53 W/m² 14,0 °C 17,3 °C 1,6 km/h (1 Bft)
11.07.2017 20:06 17,3 °C 17,3 °C 80 % 1012,6 hPa 0,0 mm 0,1 km/h (0 Bft) W 261 ° 0 min 0,000 mm 0,0 UV-I 56 W/m² 13,8 °C 17,3 °C 1,6 km/h (1 Bft)
11.07.2017 20:07 17,3 °C 17,3 °C 81 % 1012,6 hPa 0,0 mm 0,5 km/h (0 Bft) W 261 ° 0 min 0,000 mm 0,0 UV-I 44 W/m² 14,0 °C 17,3 °C 1,6 km/h (1 Bft)
11.07.2017 20:08 17,2 °C 17,3 °C 83 % 1012,6 hPa 0,0 mm 0,1 km/h (0 Bft) W 261 ° 0 min 0,000 mm 0,0 UV-I 44 W/m² 14,3 °C 17,2 °C 1,6 km/h (1 Bft)
11.07.2017 20:09 17,1 °C 17,2 °C 84 % 1012,6 hPa 0,0 mm 0,0 km/h (0 Bft) W 261 ° 0 min 0,000 mm 0,0 UV-I 44 W/m² 14,4 °C 17,1 °C 0,0 km/h (0 Bft)
11.07.2017 20:10 16,9 °C 17,1 °C 84 % 1012,6 hPa 0,0 mm 0,0 km/h (0 Bft) W 261 ° 0 min 0,000 mm 0,0 UV-I 42 W/m² 14,2 °C 16,9 °C 0,0 km/h (0 Bft)
11.07.2017 20:11 16,9 °C 17,0 °C 84 % 1012,6 hPa 0,0 mm 0,0 km/h (0 Bft) W 261 ° 0 min 0,000 mm 0,0 UV-I 40 W/m² 14,2 °C 16,9 °C 0,0 km/h (0 Bft)
11.07.2017 20:12 16,9 °C 16,9 °C 84 % 1012,6 hPa 0,0 mm 0,0 km/h (0 Bft) W 261 ° 0 min 0,000 mm 0,0 UV-I 37 W/m² 14,2 °C 16,9 °C 0,0 km/h (0 Bft)
11.07.2017 20:13 16,9 °C 16,9 °C 84 % 1012,6 hPa 0,0 mm 0,0 km/h (0 Bft) W 261 ° 0 min 0,000 mm 0,0 UV-I 35 W/m² 14,2 °C 16,9 °C 0,0 km/h (0 Bft)
11.07.2017 20:14 16,9 °C 16,9 °C 84 % 1012,6 hPa 0,0 mm 0,0 km/h (0 Bft) W 261 ° 0 min 0,000 mm 0,0 UV-I 33 W/m² 14,2 °C 16,9 °C 0,0 km/h (0 Bft)
11.07.2017 20:15 16,8 °C 16,9 °C 84 % 1012,6 hPa 0,0 mm 0,3 km/h (0 Bft) W 261 ° 0 min 0,000 mm 0,0 UV-I 33 W/m² 14,1 °C 16,8 °C 1,6 km/h (1 Bft)
11.07.2017 20:16 16,8 °C 16,9 °C 85 % 1012,6 hPa 0,0 mm 0,3 km/h (0 Bft) W 261 ° 0 min 0,000 mm 0,0 UV-I 28 W/m² 14,3 °C 16,8 °C 1,6 km/h (1 Bft)
11.07.2017 20:17 16,8 °C 16,8 °C 85 % 1012,5 hPa 0,0 mm 2,2 km/h (1 Bft) O-NO 61 ° 0 min 0,000 mm 0,0 UV-I 30 W/m² 14,3 °C 16,8 °C 4,8 km/h (1 Bft)
11.07.2017 20:18 16,7 °C 16,8 °C 85 % 1012,5 hPa 0,0 mm 1,5 km/h (1 Bft) O-NO 61 ° 0 min 0,000 mm 0,0 UV-I 32 W/m² 14,2 °C 16,7 °C 3,2 km/h (1 Bft)
11.07.2017 20:19 16,7 °C 16,7 °C 84 % 1012,5 hPa 0,0 mm 1,9 km/h (1 Bft) O-NO 61 ° 0 min 0,000 mm 0,0 UV-I 32 W/m² 14,0 °C 16,7 °C 3,2 km/h (1 Bft)
11.07.2017 20:20 16,7 °C 16,7 °C 85 % 1012,5 hPa 0,0 mm 1,2 km/h (1 Bft) O-NO 61 ° 0 min 0,000 mm 0,0 UV-I 32 W/m² 14,2 °C 16,7 °C 3,2 km/h (1 Bft)
11.07.2017 20:21 16,7 °C 16,7 °C 85 % 1012,5 hPa 0,0 mm 1,1 km/h (1 Bft) O-NO 61 ° 0 min 0,000 mm 0,0 UV-I 26 W/m² 14,2 °C 16,7 °C 3,2 km/h (1 Bft)
11.07.2017 20:22 16,6 °C 16,7 °C 86 % 1012,6 hPa 0,0 mm 0,2 km/h (0 Bft) O-NO 61 ° 0 min 0,000 mm 0,0 UV-I 21 W/m² 14,2 °C 16,6 °C 1,6 km/h (1 Bft)
11.07.2017 20:23 16,6 °C 16,6 °C 86 % 1012,5 hPa 0,0 mm 1,1 km/h (1 Bft) O-NO 61 ° 0 min 0,000 mm 0,0 UV-I 18 W/m² 14,2 °C 16,6 °C 1,6 km/h (1 Bft)
11.07.2017 20:24 16,6 °C 16,6 °C 85 % 1012,6 hPa 0,0 mm 0,0 km/h (0 Bft) O-NO 61 ° 0 min 0,000 mm 0,0 UV-I 14 W/m² 14,1 °C 16,6 °C 0,0 km/h (0 Bft)
11.07.2017 20:25 16,6 °C 16,6 °C 84 % 1012,7 hPa 0,0 mm 0,5 km/h (0 Bft) W 273 ° 0 min 0,000 mm 0,0 UV-I 12 W/m² 13,9 °C 16,6 °C 3,2 km/h (1 Bft)
11.07.2017 20:26 16,6 °C 16,6 °C 84 % 1012,7 hPa 0,0 mm 3,3 km/h (1 Bft) SW 227 ° 0 min 0,000 mm 0,0 UV-I 12 W/m² 13,9 °C 16,6 °C 4,8 km/h (1 Bft)
11.07.2017 20:27 16,6 °C 16,7 °C 84 % 1012,7 hPa 0,0 mm 1,3 km/h (1 Bft) SW 227 ° 0 min 0,000 mm 0,0 UV-I 11 W/m² 13,9 °C 16,6 °C 1,6 km/h (1 Bft)
11.07.2017 20:28 16,7 °C 16,7 °C 83 % 1012,7 hPa 0,0 mm 0,0 km/h (0 Bft) SW 227 ° 0 min 0,000 mm 0,0 UV-I 11 W/m² 13,8 °C 16,7 °C 0,0 km/h (0 Bft)
11.07.2017 20:29 16,7 °C 16,7 °C 84 % 1012,7 hPa 0,0 mm 0,0 km/h (0 Bft) SW 227 ° 0 min 0,000 mm 0,0 UV-I 9 W/m² 14,0 °C 16,7 °C 0,0 km/h (0 Bft)
11.07.2017 20:30 16,7 °C 16,7 °C 84 % 1012,7 hPa 0,0 mm 0,0 km/h (0 Bft) SW 227 ° 0 min 0,000 mm 0,0 UV-I 9 W/m² 14,0 °C 16,7 °C 0,0 km/h (0 Bft)
11.07.2017 20:31 16,6 °C 16,7 °C 84 % 1012,7 hPa 0,0 mm 0,3 km/h (0 Bft) SW 227 ° 0 min 0,000 mm 0,0 UV-I 9 W/m² 13,9 °C 16,6 °C 1,6 km/h (1 Bft)
11.07.2017 20:32 16,6 °C 16,6 °C 84 % 1012,7 hPa 0,0 mm 0,1 km/h (0 Bft) SW 227 ° 0 min 0,000 mm 0,0 UV-I 7 W/m² 13,9 °C 16,6 °C 1,6 km/h (1 Bft)
11.07.2017 20:33 16,6 °C 16,6 °C 84 % 1012,7 hPa 0,0 mm 0,0 km/h (0 Bft) SW 227 ° 0 min 0,000 mm 0,0 UV-I 7 W/m² 13,9 °C 16,6 °C 0,0 km/h (0 Bft)
11.07.2017 20:34 16,5 °C 16,6 °C 85 % 1012,8 hPa 0,0 mm 0,0 km/h (0 Bft) SW 227 ° 0 min 0,000 mm 0,0 UV-I 7 W/m² 14,0 °C 16,5 °C 0,0 km/h (0 Bft)
11.07.2017 20:35 16,4 °C 16,5 °C 85 % 1012,8 hPa 0,0 mm 0,0 km/h (0 Bft) SW 227 ° 0 min 0,000 mm 0,0 UV-I 7 W/m² 13,9 °C 16,4 °C 0,0 km/h (0 Bft)
11.07.2017 20:36 16,4 °C 16,4 °C 85 % 1012,8 hPa 0,0 mm 0,0 km/h (0 Bft) SW 227 ° 0 min 0,000 mm 0,0 UV-I 7 W/m² 13,9 °C 16,4 °C 0,0 km/h (0 Bft)
11.07.2017 20:37 16,4 °C 16,4 °C 84 % 1012,8 hPa 0,0 mm 0,1 km/h (0 Bft) SW 227 ° 0 min 0,000 mm 0,0 UV-I 7 W/m² 13,7 °C 16,4 °C 1,6 km/h (1 Bft)
11.07.2017 20:38 16,4 °C 16,4 °C 84 % 1012,8 hPa 0,0 mm 0,9 km/h (0 Bft) SW 227 ° 0 min 0,000 mm 0,0 UV-I 7 W/m² 13,7 °C 16,4 °C 3,2 km/h (1 Bft)
11.07.2017 20:39 16,4 °C 16,4 °C 84 % 1012,8 hPa 0,0 mm 1,3 km/h (1 Bft) SW 227 ° 0 min 0,000 mm 0,0 UV-I 7 W/m² 13,7 °C 16,4 °C 3,2 km/h (1 Bft)
11.07.2017 20:40 16,4 °C 16,4 °C 84 % 1012,8 hPa 0,0 mm 0,3 km/h (0 Bft) SW 225 ° 0 min 0,000 mm 0,0 UV-I 7 W/m² 13,7 °C 16,4 °C 1,6 km/h (1 Bft)
11.07.2017 20:41 16,4 °C 16,4 °C 84 % 1012,9 hPa 0,0 mm 0,7 km/h (0 Bft) SW 223 ° 0 min 0,000 mm 0,0 UV-I 7 W/m² 13,7 °C 16,4 °C 1,6 km/h (1 Bft)
11.07.2017 20:42 16,4 °C 16,4 °C 84 % 1012,9 hPa 0,0 mm 0,0 km/h (0 Bft) SW 223 ° 0 min 0,000 mm 0,0 UV-I 7 W/m² 13,7 °C 16,4 °C 0,0 km/h (0 Bft)
11.07.2017 20:43 16,4 °C 16,4 °C 85 % 1012,8 hPa 0,0 mm 0,0 km/h (0 Bft) SW 223 ° 0 min 0,000 mm 0,0 UV-I 7 W/m² 13,9 °C 16,4 °C 0,0 km/h (0 Bft)
11.07.2017 20:44 16,4 °C 16,4 °C 84 % 1012,8 hPa 0,0 mm 2,1 km/h (1 Bft) W 262 ° 0 min 0,000 mm 0,0 UV-I 7 W/m² 13,7 °C 16,4 °C 4,8 km/h (1 Bft)
11.07.2017 20:45 16,4 °C 16,4 °C 84 % 1012,8 hPa 0,0 mm 0,7 km/h (0 Bft) W 262 ° 0 min 0,000 mm 0,0 UV-I 7 W/m² 13,7 °C 16,4 °C 3,2 km/h (1 Bft)
11.07.2017 20:46 16,3 °C 16,4 °C 84 % 1012,8 hPa 0,0 mm 0,1 km/h (0 Bft) W 262 ° 0 min 0,000 mm 0,0 UV-I 7 W/m² 13,6 °C 16,3 °C 1,6 km/h (1 Bft)
11.07.2017 20:47 16,3 °C 16,4 °C 85 % 1012,8 hPa 0,0 mm 0,0 km/h (0 Bft) W 262 ° 0 min 0,000 mm 0,0 UV-I 7 W/m² 13,8 °C 16,3 °C 0,0 km/h (0 Bft)
11.07.2017 20:48 16,3 °C 16,4 °C 85 % 1012,9 hPa 0,0 mm 0,0 km/h (0 Bft) W 262 ° 0 min 0,000 mm 0,0 UV-I 5 W/m² 13,8 °C 16,3 °C 0,0 km/h (0 Bft)
11.07.2017 20:49 16,3 °C 16,3 °C 85 % 1012,9 hPa 0,0 mm 0,0 km/h (0 Bft) W 262 ° 0 min 0,000 mm 0,0 UV-I 5 W/m² 13,8 °C 16,3 °C 0,0 km/h (0 Bft)
11.07.2017 20:50 16,3 °C 16,3 °C 85 % 1012,9 hPa 0,0 mm 0,0 km/h (0 Bft) W 262 ° 0 min 0,000 mm 0,0 UV-I 5 W/m² 13,8 °C 16,3 °C 0,0 km/h (0 Bft)
11.07.2017 20:51 16,4 °C 16,4 °C 85 % 1013,0 hPa 0,0 mm 0,2 km/h (0 Bft) W 262 ° 0 min 0,000 mm 0,0 UV-I 0 W/m² 13,9 °C 16,4 °C 1,6 km/h (1 Bft)
11.07.2017 20:52 16,4 °C 16,4 °C 85 % 1013,0 hPa 0,0 mm 2,9 km/h (1 Bft) W-SW 257 ° 0 min 0,000 mm 0,0 UV-I 0 W/m² 13,9 °C 16,4 °C 6,4 km/h (2 Bft)
11.07.2017 20:53 16,4 °C 16,4 °C 84 % 1013,0 hPa 0,0 mm 1,9 km/h (1 Bft) W-SW 257 ° 0 min 0,000 mm 0,0 UV-I 0 W/m² 13,7 °C 16,4 °C 3,2 km/h (1 Bft)
11.07.2017 20:54 16,4 °C 16,5 °C 84 % 1013,0 hPa 0,0 mm 1,6 km/h (1 Bft) W-SW 257 ° 0 min 0,000 mm 0,0 UV-I 0 W/m² 13,7 °C 16,4 °C 3,2 km/h (1 Bft)
11.07.2017 20:55 16,5 °C 16,6 °C 84 % 1013,0 hPa 0,0 mm 2,7 km/h (1 Bft) W-SW 257 ° 0 min 0,000 mm 0,0 UV-I 0 W/m² 13,8 °C 16,5 °C 4,8 km/h (1 Bft)
11.07.2017 20:56 16,6 °C 16,6 °C 84 % 1013,0 hPa 0,0 mm 2,6 km/h (1 Bft) W-SW 257 ° 0 min 0,000 mm 0,0 UV-I 0 W/m² 13,9 °C 16,6 °C 3,2 km/h (1 Bft)
11.07.2017 20:57 16,7 °C 16,7 °C 84 % 1013,1 hPa 0,0 mm 2,9 km/h (1 Bft) W-SW 257 ° 0 min 0,000 mm 0,0 UV-I 0 W/m² 14,0 °C 16,7 °C 4,8 km/h (1 Bft)
11.07.2017 20:58 16,7 °C 16,7 °C 85 % 1013,1 hPa 0,0 mm 3,4 km/h (1 Bft) W-SW 257 ° 0 min 0,000 mm 0,0 UV-I 0 W/m² 14,2 °C 16,7 °C 4,8 km/h (1 Bft)
11.07.2017 20:59 16,7 °C 16,7 °C 85 % 1013,1 hPa 0,0 mm 1,7 km/h (1 Bft) SW 225 ° 0 min 0,000 mm 0,0 UV-I 0 W/m² 14,2 °C 16,7 °C 3,2 km/h (1 Bft)
11.07.2017 21:00 16,7 °C 16,7 °C 84 % 1013,1 hPa 0,0 mm 1,3 km/h (1 Bft) SW 224 ° 0 min 0,000 mm 0,0 UV-I 0 W/m² 14,0 °C 16,7 °C 3,2 km/h (1 Bft)
11.07.2017 21:01 16,7 °C 16,7 °C 85 % 1013,2 hPa 0,0 mm 2,1 km/h (1 Bft) SW 224 ° 0 min 0,026 mm 0,0 UV-I 0 W/m² 14,2 °C 16,7 °C 4,8 km/h (1 Bft)
11.07.2017 21:02 16,7 °C 16,7 °C 84 % 1013,2 hPa 0,0 mm 1,9 km/h (1 Bft) SW 224 ° 0 min 0,000 mm 0,0 UV-I 0 W/m² 14,0 °C 16,7 °C 4,8 km/h (1 Bft)
11.07.2017 21:03 16,7 °C 16,7 °C 84 % 1013,2 hPa 0,0 mm 0,8 km/h (0 Bft) SW 225 ° 0 min 0,000 mm 0,0 UV-I 0 W/m² 14,0 °C 16,7 °C 1,6 km/h (1 Bft)
11.07.2017 21:04 16,7 °C 16,7 °C 84 % 1013,3 hPa 0,0 mm 1,9 km/h (1 Bft) SW 221 ° 0 min 0,000 mm 0,0 UV-I 0 W/m² 14,0 °C 16,7 °C 4,8 km/h (1 Bft)
11.07.2017 21:05 16,7 °C 16,7 °C 84 % 1013,3 hPa 0,0 mm 1,6 km/h (1 Bft) S-SW 211 ° 0 min 0,000 mm 0,0 UV-I 0 W/m² 14,0 °C 16,7 °C 4,8 km/h (1 Bft)
11.07.2017 21:06 16,7 °C 16,7 °C 84 % 1013,3 hPa 0,0 mm 3,1 km/h (1 Bft) S-SW 211 ° 0 min 0,000 mm 0,0 UV-I 0 W/m² 14,0 °C 16,7 °C 4,8 km/h (1 Bft)
11.07.2017 21:07 16,7 °C 16,7 °C 84 % 1013,3 hPa 0,0 mm 3,4 km/h (1 Bft) S-SW 194 ° 0 min 0,000 mm 0,0 UV-I 0 W/m² 14,0 °C 16,7 °C 6,4 km/h (2 Bft)
11.07.2017 21:08 16,7 °C 16,7 °C 84 % 1013,3 hPa 0,0 mm 1,8 km/h (1 Bft) S-SW 194 ° 0 min 0,000 mm 0,0 UV-I 0 W/m² 14,0 °C 16,7 °C 4,8 km/h (1 Bft)
11.07.2017 21:09 16,7 °C 16,7 °C 84 % 1013,3 hPa 0,0 mm 1,5 km/h (1 Bft) S-SW 196 ° 0 min 0,000 mm 0,0 UV-I 0 W/m² 14,0 °C 16,7 °C 4,8 km/h (1 Bft)
11.07.2017 21:10 16,6 °C 16,7 °C 85 % 1013,3 hPa 0,0 mm 2,6 km/h (1 Bft) S 190 ° 0 min 0,000 mm 0,0 UV-I 0 W/m² 14,1 °C 16,6 °C 4,8 km/h (1 Bft)
11.07.2017 21:11 16,6 °C 16,7 °C 85 % 1013,3 hPa 0,0 mm 3,9 km/h (1 Bft) S 187 ° 0 min 0,000 mm 0,0 UV-I 0 W/m² 14,1 °C 16,6 °C 8,0 km/h (2 Bft)
11.07.2017 21:12 16,5 °C 16,6 °C 86 % 1013,3 hPa 0,2 mm 3,5 km/h (1 Bft) S 184 ° 0 min 0,000 mm 0,0 UV-I 0 W/m² 14,1 °C 16,5 °C 4,8 km/h (1 Bft)
11.07.2017 21:13 16,4 °C 16,5 °C 86 % 1013,4 hPa 0,0 mm 2,2 km/h (1 Bft) S 180 ° 0 min 0,000 mm 0,0 UV-I 0 W/m² 14,1 °C 16,4 °C 4,8 km/h (1 Bft)
11.07.2017 21:14 16,3 °C 16,4 °C 86 % 1013,4 hPa 0,0 mm 3,2 km/h (1 Bft) S-SW 198 ° 0 min 0,000 mm 0,0 UV-I 0 W/m² 14,0 °C 16,3 °C 4,8 km/h (1 Bft)
11.07.2017 21:15 16,3 °C 16,3 °C 86 % 1013,4 hPa 0,0 mm 2,9 km/h (1 Bft) S 190 ° 0 min 0,000 mm 0,0 UV-I 0 W/m² 14,0 °C 16,3 °C 4,8 km/h (1 Bft)
11.07.2017 21:16 16,3 °C 16,3 °C 87 % 1013,4 hPa 0,0 mm 0,1 km/h (0 Bft) S-SW 195 ° 0 min 0,000 mm 0,0 UV-I 0 W/m² 14,1 °C 16,3 °C 1,6 km/h (1 Bft)
11.07.2017 21:17 16,3 °C 16,3 °C 86 % 1013,4 hPa 0,0 mm 0,2 km/h (0 Bft) S-SW 195 ° 0 min 0,000 mm 0,0 UV-I 0 W/m² 14,0 °C 16,3 °C 1,6 km/h (1 Bft)
11.07.2017 21:18 16,2 °C 16,3 °C 86 % 1013,4 hPa 0,0 mm 0,1 km/h (0 Bft) S-SW 195 ° 0 min 0,000 mm 0,0 UV-I 0 W/m² 13,9 °C 16,2 °C 1,6 km/h (1 Bft)
11.07.2017 21:19 16,2 °C 16,3 °C 86 % 1013,4 hPa 0,0 mm 1,4 km/h (1 Bft) SW 214 ° 0 min 0,000 mm 0,0 UV-I 0 W/m² 13,9 °C 16,2 °C 3,2 km/h (1 Bft)
11.07.2017 21:20 16,2 °C 16,2 °C 86 % 1013,4 hPa 0,0 mm 1,8 km/h (1 Bft) SW 214 ° 0 min 0,000 mm 0,0 UV-I 0 W/m² 13,9 °C 16,2 °C 3,2 km/h (1 Bft)
11.07.2017 21:21 16,2 °C 16,2 °C 86 % 1013,4 hPa 0,0 mm 1,1 km/h (1 Bft) SW 214 ° 0 min 0,000 mm 0,0 UV-I 0 W/m² 13,9 °C 16,2 °C 3,2 km/h (1 Bft)
11.07.2017 21:22 16,2 °C 16,2 °C 86 % 1013,5 hPa 0,0 mm 0,4 km/h (0 Bft) SW 214 ° 0 min 0,000 mm 0,0 UV-I 0 W/m² 13,9 °C 16,2 °C 1,6 km/h (1 Bft)
11.07.2017 21:23 16,2 °C 16,2 °C 86 % 1013,5 hPa 0,0 mm 1,9 km/h (1 Bft) W-SW 251 ° 0 min 0,000 mm 0,0 UV-I 0 W/m² 13,9 °C 16,2 °C 3,2 km/h (1 Bft)
11.07.2017 21:24 16,1 °C 16,2 °C 86 % 1013,6 hPa 0,0 mm 1,1 km/h (1 Bft) W-SW 251 ° 0 min 0,000 mm 0,0 UV-I 0 W/m² 13,8 °C 16,1 °C 3,2 km/h (1 Bft)
11.07.2017 21:25 16,1 °C 16,1 °C 87 % 1013,5 hPa 0,0 mm 0,0 km/h (0 Bft) W-SW 251 ° 0 min 0,000 mm 0,0 UV-I 0 W/m² 13,9 °C 16,1 °C 0,0 km/h (0 Bft)
11.07.2017 21:26 16,1 °C 16,1 °C 87 % 1013,5 hPa 0,2 mm 0,0 km/h (0 Bft) W-SW 251 ° 0 min 0,000 mm 0,0 UV-I 0 W/m² 13,9 °C 16,1 °C 0,0 km/h (0 Bft)
11.07.2017 21:27 16,0 °C 16,1 °C 87 % 1013,5 hPa 0,0 mm 1,3 km/h (1 Bft) W-SW 251 ° 0 min 0,000 mm 0,0 UV-I 0 W/m² 13,8 °C 16,0 °C 3,2 km/h (1 Bft)
11.07.2017 21:28 15,9 °C 16,0 °C 87 % 1013,5 hPa 0,0 mm 2,7 km/h (1 Bft) SW 235 ° 0 min 0,000 mm 0,0 UV-I 0 W/m² 13,7 °C 15,9 °C 6,4 km/h (2 Bft)
11.07.2017 21:29 15,9 °C 15,9 °C 88 % 1013,5 hPa 0,0 mm 1,7 km/h (1 Bft) SW 222 ° 0 min 0,000 mm 0,0 UV-I 0 W/m² 13,9 °C 15,9 °C 4,8 km/h (1 Bft)
11.07.2017 21:30 15,9 °C 15,9 °C 88 % 1013,5 hPa 0,0 mm 0,9 km/h (0 Bft) SW 222 ° 0 min 0,000 mm 0,0 UV-I 0 W/m² 13,9 °C 15,9 °C 3,2 km/h (1 Bft)
11.07.2017 21:31 15,9 °C 15,9 °C 88 % 1013,6 hPa 0,0 mm 1,4 km/h (1 Bft) SW 222 ° 0 min 0,000 mm 0,0 UV-I 0 W/m² 13,9 °C 15,9 °C 3,2 km/h (1 Bft)
11.07.2017 21:32 15,8 °C 15,9 °C 88 % 1013,6 hPa 0,0 mm 1,1 km/h (1 Bft) SW 222 ° 0 min 0,000 mm 0,0 UV-I 0 W/m² 13,8 °C 15,8 °C 3,2 km/h (1 Bft)
11.07.2017 21:33 15,8 °C 15,8 °C 88 % 1013,5 hPa 0,0 mm 0,3 km/h (0 Bft) SW 222 ° 0 min 0,000 mm 0,0 UV-I 0 W/m² 13,8 °C 15,8 °C 1,6 km/h (1 Bft)
11.07.2017 21:34 15,8 °C 15,8 °C 88 % 1013,5 hPa 0,0 mm 0,0 km/h (0 Bft) SW 222 ° 0 min 0,000 mm 0,0 UV-I 0 W/m² 13,8 °C 15,8 °C 0,0 km/h (0 Bft)
11.07.2017 21:35 15,7 °C 15,8 °C 89 % 1013,5 hPa 0,0 mm 0,8 km/h (0 Bft) SW 222 ° 0 min 0,000 mm 0,0 UV-I 0 W/m² 13,9 °C 15,7 °C 3,2 km/h (1 Bft)
11.07.2017 21:36 15,7 °C 15,7 °C 89 % 1013,4 hPa 0,0 mm 0,9 km/h (0 Bft) SW 222 ° 0 min 0,000 mm 0,0 UV-I 0 W/m² 13,9 °C 15,7 °C 1,6 km/h (1 Bft)
11.07.2017 21:37 15,6 °C 15,7 °C 89 % 1013,5 hPa 0,0 mm 0,3 km/h (0 Bft) SW 222 ° 0 min 0,000 mm 0,0 UV-I 0 W/m² 13,8 °C 15,6 °C 1,6 km/h (1 Bft)
11.07.2017 21:38 15,5 °C 15,6 °C 89 % 1013,6 hPa 0,0 mm 1,5 km/h (1 Bft) SW 222 ° 0 min 0,000 mm 0,0 UV-I 0 W/m² 13,7 °C 15,5 °C 3,2 km/h (1 Bft)
11.07.2017 21:39 15,6 °C 15,6 °C 89 % 1013,7 hPa 0,0 mm 2,1 km/h (1 Bft) SW 222 ° 0 min 0,000 mm 0,0 UV-I 0 W/m² 13,8 °C 15,6 °C 3,2 km/h (1 Bft)
11.07.2017 21:40 15,5 °C 15,6 °C 89 % 1013,7 hPa 0,0 mm 1,4 km/h (1 Bft) SW 222 ° 0 min 0,000 mm 0,0 UV-I 0 W/m² 13,7 °C 15,5 °C 1,6 km/h (1 Bft)
11.07.2017 21:41 15,6 °C 15,6 °C 89 % 1013,7 hPa 0,0 mm 0,3 km/h (0 Bft) SW 222 ° 0 min 0,000 mm 0,0 UV-I 0 W/m² 13,8 °C 15,6 °C 1,6 km/h (1 Bft)
11.07.2017 21:42 15,6 °C 15,6 °C 89 % 1013,7 hPa 0,0 mm 0,7 km/h (0 Bft) SW 222 ° 0 min 0,000 mm 0,0 UV-I 0 W/m² 13,8 °C 15,6 °C 3,2 km/h (1 Bft)
11.07.2017 21:43 15,5 °C 15,6 °C 90 % 1013,7 hPa 0,0 mm 0,0 km/h (0 Bft) SW 222 ° 0 min 0,000 mm 0,0 UV-I 0 W/m² 13,9 °C 15,5 °C 0,0 km/h (0 Bft)
11.07.2017 21:44 15,4 °C 15,5 °C 90 % 1013,6 hPa 0,0 mm 0,9 km/h (0 Bft) SW 222 ° 0 min 0,000 mm 0,0 UV-I 0 W/m² 13,8 °C 15,4 °C 3,2 km/h (1 Bft)
11.07.2017 21:45 15,4 °C 15,4 °C 90 % 1013,6 hPa 0,0 mm 1,3 km/h (1 Bft) S-SO 155 ° 0 min 0,000 mm 0,0 UV-I 0 W/m² 13,8 °C 15,4 °C 3,2 km/h (1 Bft)
11.07.2017 21:46 15,3 °C 15,4 °C 90 % 1013,6 hPa 0,0 mm 0,0 km/h (0 Bft) S-SO 155 ° 0 min 0,000 mm 0,0 UV-I 0 W/m² 13,7 °C 15,3 °C 0,0 km/h (0 Bft)
11.07.2017 21:47 15,3 °C 15,3 °C 90 % 1013,6 hPa 0,0 mm 0,0 km/h (0 Bft) S-SO 155 ° 0 min 0,000 mm 0,0 UV-I 0 W/m² 13,7 °C 15,3 °C 0,0 km/h (0 Bft)
11.07.2017 21:48 15,2 °C 15,3 °C 91 % 1013,6 hPa 0,0 mm 0,0 km/h (0 Bft) S-SO 155 ° 0 min 0,000 mm 0,0 UV-I 0 W/m² 13,7 °C 15,2 °C 0,0 km/h (0 Bft)
11.07.2017 21:49 15,2 °C 15,2 °C 91 % 1013,6 hPa 0,0 mm 0,0 km/h (0 Bft) S-SO 155 ° 0 min 0,000 mm 0,0 UV-I 0 W/m² 13,7 °C 15,2 °C 0,0 km/h (0 Bft)
11.07.2017 21:50 15,1 °C 15,2 °C 91 % 1013,6 hPa 0,0 mm 0,0 km/h (0 Bft) S-SO 155 ° 0 min 0,000 mm 0,0 UV-I 0 W/m² 13,6 °C 15,1 °C 0,0 km/h (0 Bft)
11.07.2017 21:51 15,1 °C 15,1 °C 91 % 1013,7 hPa 0,0 mm 0,0 km/h (0 Bft) S-SO 155 ° 0 min 0,000 mm 0,0 UV-I 0 W/m² 13,6 °C 15,1 °C 0,0 km/h (0 Bft)
11.07.2017 21:52 15,1 °C 15,1 °C 91 % 1013,7 hPa 0,0 mm 0,0 km/h (0 Bft) S-SO 155 ° 0 min 0,000 mm 0,0 UV-I 0 W/m² 13,6 °C 15,1 °C 0,0 km/h (0 Bft)
11.07.2017 21:53 15,0 °C 15,1 °C 92 % 1013,7 hPa 0,0 mm 0,0 km/h (0 Bft) S-SO 155 ° 0 min 0,000 mm 0,0 UV-I 0 W/m² 13,7 °C 15,0 °C 0,0 km/h (0 Bft)
11.07.2017 21:54 14,9 °C 15,0 °C 92 % 1013,7 hPa 0,0 mm 0,0 km/h (0 Bft) S-SO 155 ° 0 min 0,000 mm 0,0 UV-I 0 W/m² 13,6 °C 14,9 °C 0,0 km/h (0 Bft)
11.07.2017 21:55 14,9 °C 14,9 °C 92 % 1013,7 hPa 0,0 mm 0,0 km/h (0 Bft) S-SO 155 ° 0 min 0,000 mm 0,0 UV-I 0 W/m² 13,6 °C 14,9 °C 0,0 km/h (0 Bft)
11.07.2017 21:56 14,9 °C 14,9 °C 92 % 1013,8 hPa 0,0 mm 0,0 km/h (0 Bft) S-SO 155 ° 0 min 0,000 mm 0,0 UV-I 0 W/m² 13,6 °C 14,9 °C 0,0 km/h (0 Bft)
11.07.2017 21:57 14,8 °C 14,9 °C 92 % 1013,8 hPa 0,0 mm 0,0 km/h (0 Bft) S-SO 155 ° 0 min 0,000 mm 0,0 UV-I 0 W/m² 13,5 °C 14,8 °C 0,0 km/h (0 Bft)
11.07.2017 21:58 14,8 °C 14,8 °C 92 % 1013,7 hPa 0,0 mm 0,0 km/h (0 Bft) S-SO 155 ° 0 min 0,000 mm 0,0 UV-I 0 W/m² 13,5 °C 14,8 °C 0,0 km/h (0 Bft)
11.07.2017 21:59 14,8 °C 14,8 °C 92 % 1013,7 hPa 0,0 mm 0,0 km/h (0 Bft) S-SO 155 ° 0 min 0,000 mm 0,0 UV-I 0 W/m² 13,5 °C 14,8 °C 0,0 km/h (0 Bft)
11.07.2017 22:00 14,8 °C 14,8 °C 92 % 1013,8 hPa 0,0 mm 0,0 km/h (0 Bft) S-SO 155 ° 0 min 0,000 mm 0,0 UV-I 0 W/m² 13,5 °C 14,8 °C 0,0 km/h (0 Bft)
11.07.2017 22:01 14,8 °C 14,8 °C 92 % 1013,8 hPa 0,0 mm 0,0 km/h (0 Bft) S-SO 155 ° 0 min 0,000 mm 0,0 UV-I 0 W/m² 13,5 °C 14,8 °C 0,0 km/h (0 Bft)
11.07.2017 22:02 14,8 °C 14,8 °C 92 % 1013,7 hPa 0,0 mm 0,0 km/h (0 Bft) S-SO 155 ° 0 min 0,000 mm 0,0 UV-I 0 W/m² 13,5 °C 14,8 °C 0,0 km/h (0 Bft)
11.07.2017 22:03 14,8 °C 14,8 °C 92 % 1013,7 hPa 0,0 mm 0,0 km/h (0 Bft) S-SO 155 ° 0 min 0,000 mm 0,0 UV-I 0 W/m² 13,5 °C 14,8 °C 0,0 km/h (0 Bft)
11.07.2017 22:04 14,8 °C 14,8 °C 92 % 1013,8 hPa 0,0 mm 0,0 km/h (0 Bft) S-SO 155 ° 0 min 0,000 mm 0,0 UV-I 0 W/m² 13,5 °C 14,8 °C 0,0 km/h (0 Bft)
11.07.2017 22:05 14,8 °C 14,8 °C 92 % 1013,7 hPa 0,0 mm 0,0 km/h (0 Bft) S-SO 155 ° 0 min 0,000 mm 0,0 UV-I 0 W/m² 13,5 °C 14,8 °C 0,0 km/h (0 Bft)
11.07.2017 22:06 14,8 °C 14,8 °C 92 % 1013,8 hPa 0,0 mm 0,0 km/h (0 Bft) S-SO 155 ° 0 min 0,000 mm 0,0 UV-I 0 W/m² 13,5 °C 14,8 °C 0,0 km/h (0 Bft)
11.07.2017 22:07 14,8 °C 14,8 °C 92 % 1013,7 hPa 0,0 mm 0,0 km/h (0 Bft) S-SO 155 ° 0 min 0,000 mm 0,0 UV-I 0 W/m² 13,5 °C 14,8 °C 0,0 km/h (0 Bft)
11.07.2017 22:08 14,8 °C 14,8 °C 93 % 1013,8 hPa 0,0 mm 0,0 km/h (0 Bft) S-SO 155 ° 0 min 0,000 mm 0,0 UV-I 0 W/m² 13,7 °C 14,8 °C 0,0 km/h (0 Bft)
11.07.2017 22:09 14,8 °C 14,8 °C 92 % 1013,8 hPa 0,0 mm 0,0 km/h (0 Bft) S-SO 155 ° 0 min 0,000 mm 0,0 UV-I 0 W/m² 13,5 °C 14,8 °C 0,0 km/h (0 Bft)
11.07.2017 22:10 14,8 °C 14,8 °C 92 % 1013,8 hPa 0,0 mm 0,0 km/h (0 Bft) S-SO 155 ° 0 min 0,000 mm 0,0 UV-I 0 W/m² 13,5 °C 14,8 °C 0,0 km/h (0 Bft)
11.07.2017 22:11 14,8 °C 14,8 °C 92 % 1013,8 hPa 0,0 mm 0,0 km/h (0 Bft) S-SO 155 ° 0 min 0,000 mm 0,0 UV-I 0 W/m² 13,5 °C 14,8 °C 0,0 km/h (0 Bft)
11.07.2017 22:12 14,8 °C 14,8 °C 92 % 1013,8 hPa 0,0 mm 0,0 km/h (0 Bft) S-SO 155 ° 0 min 0,000 mm 0,0 UV-I 0 W/m² 13,5 °C 14,8 °C 0,0 km/h (0 Bft)
11.07.2017 22:13 14,8 °C 14,8 °C 92 % 1013,7 hPa 0,0 mm 0,0 km/h (0 Bft) S-SO 155 ° 0 min 0,000 mm 0,0 UV-I 0 W/m² 13,5 °C 14,8 °C 0,0 km/h (0 Bft)
11.07.2017 22:14 14,8 °C 14,8 °C 92 % 1013,8 hPa 0,0 mm 0,0 km/h (0 Bft) S-SO 155 ° 0 min 0,000 mm 0,0 UV-I 0 W/m² 13,5 °C 14,8 °C 0,0 km/h (0 Bft)
11.07.2017 22:15 14,8 °C 14,8 °C 92 % 1013,8 hPa 0,0 mm 0,0 km/h (0 Bft) S-SO 155 ° 0 min 0,000 mm 0,0 UV-I 0 W/m² 13,5 °C 14,8 °C 0,0 km/h (0 Bft)
11.07.2017 22:16 14,8 °C 14,8 °C 93 % 1013,8 hPa 0,0 mm 0,0 km/h (0 Bft) S-SO 155 ° 0 min 0,000 mm 0,0 UV-I 0 W/m² 13,7 °C 14,8 °C 0,0 km/h (0 Bft)
11.07.2017 22:17 14,7 °C 14,8 °C 93 % 1013,7 hPa 0,0 mm 0,0 km/h (0 Bft) S-SO 155 ° 0 min 0,000 mm 0,0 UV-I 0 W/m² 13,6 °C 14,7 °C 0,0 km/h (0 Bft)
11.07.2017 22:18 14,8 °C 14,8 °C 93 % 1013,8 hPa 0,0 mm 0,0 km/h (0 Bft) S-SO 155 ° 0 min 0,000 mm 0,0 UV-I 0 W/m² 13,7 °C 14,8 °C 0,0 km/h (0 Bft)
11.07.2017 22:19 14,7 °C 14,8 °C 93 % 1013,7 hPa 0,0 mm 0,0 km/h (0 Bft) S-SO 155 ° 0 min 0,000 mm 0,0 UV-I 0 W/m² 13,6 °C 14,7 °C 0,0 km/h (0 Bft)
11.07.2017 22:20 14,7 °C 14,8 °C 93 % 1013,8 hPa 0,0 mm 0,0 km/h (0 Bft) S-SO 155 ° 0 min 0,000 mm 0,0 UV-I 0 W/m² 13,6 °C 14,7 °C 0,0 km/h (0 Bft)
11.07.2017 22:21 14,7 °C 14,7 °C 93 % 1013,7 hPa 0,0 mm 0,0 km/h (0 Bft) S-SO 155 ° 0 min 0,000 mm 0,0 UV-I 0 W/m² 13,6 °C 14,7 °C 0,0 km/h (0 Bft)
11.07.2017 22:22 14,7 °C 14,7 °C 93 % 1013,7 hPa 0,0 mm 0,0 km/h (0 Bft) S-SO 155 ° 0 min 0,000 mm 0,0 UV-I 0 W/m² 13,6 °C 14,7 °C 0,0 km/h (0 Bft)
11.07.2017 22:23 14,7 °C 14,7 °C 93 % 1013,8 hPa 0,0 mm 0,0 km/h (0 Bft) S-SO 155 ° 0 min 0,000 mm 0,0 UV-I 0 W/m² 13,6 °C 14,7 °C 0,0 km/h (0 Bft)
11.07.2017 22:24 14,7 °C 14,7 °C 93 % 1013,8 hPa 0,0 mm 0,0 km/h (0 Bft) S-SO 155 ° 0 min 0,000 mm 0,0 UV-I 0 W/m² 13,6 °C 14,7 °C 0,0 km/h (0 Bft)
11.07.2017 22:25 14,7 °C 14,7 °C 93 % 1013,8 hPa 0,0 mm 0,0 km/h (0 Bft) S-SO 155 ° 0 min 0,000 mm 0,0 UV-I 0 W/m² 13,6 °C 14,7 °C 0,0 km/h (0 Bft)
11.07.2017 22:26 14,7 °C 14,7 °C 93 % 1013,8 hPa 0,0 mm 0,0 km/h (0 Bft) S-SO 155 ° 0 min 0,000 mm 0,0 UV-I 0 W/m² 13,6 °C 14,7 °C 0,0 km/h (0 Bft)
11.07.2017 22:27 14,7 °C 14,7 °C 93 % 1013,8 hPa 0,0 mm 0,0 km/h (0 Bft) S-SO 155 ° 0 min 0,000 mm 0,0 UV-I 0 W/m² 13,6 °C 14,7 °C 0,0 km/h (0 Bft)
11.07.2017 22:28 14,7 °C 14,7 °C 93 % 1013,8 hPa 0,0 mm 0,0 km/h (0 Bft) S-SO 155 ° 0 min 0,000 mm 0,0 UV-I 0 W/m² 13,6 °C 14,7 °C 0,0 km/h (0 Bft)
11.07.2017 22:29 14,7 °C 14,7 °C 93 % 1013,8 hPa 0,0 mm 0,0 km/h (0 Bft) S-SO 155 ° 0 min 0,000 mm 0,0 UV-I 0 W/m² 13,6 °C 14,7 °C 0,0 km/h (0 Bft)
11.07.2017 22:30 14,7 °C 14,7 °C 93 % 1013,8 hPa 0,0 mm 0,0 km/h (0 Bft) S-SO 155 ° 0 min 0,000 mm 0,0 UV-I 0 W/m² 13,6 °C 14,7 °C 0,0 km/h (0 Bft)
11.07.2017 22:31 14,7 °C 14,7 °C 93 % 1013,8 hPa 0,0 mm 0,0 km/h (0 Bft) S-SO 155 ° 0 min 0,000 mm 0,0 UV-I 0 W/m² 13,6 °C 14,7 °C 0,0 km/h (0 Bft)
11.07.2017 22:32 14,7 °C 14,7 °C 93 % 1013,9 hPa 0,0 mm 0,0 km/h (0 Bft) S-SO 155 ° 0 min 0,000 mm 0,0 UV-I 0 W/m² 13,6 °C 14,7 °C 0,0 km/h (0 Bft)
11.07.2017 22:33 14,7 °C 14,7 °C 93 % 1013,9 hPa 0,0 mm 0,0 km/h (0 Bft) S-SO 155 ° 0 min 0,000 mm 0,0 UV-I 0 W/m² 13,6 °C 14,7 °C 0,0 km/h (0 Bft)
11.07.2017 22:34 14,7 °C 14,7 °C 93 % 1013,9 hPa 0,0 mm 0,0 km/h (0 Bft) S-SO 155 ° 0 min 0,000 mm 0,0 UV-I 0 W/m² 13,6 °C 14,7 °C 0,0 km/h (0 Bft)
11.07.2017 22:35 14,7 °C 14,7 °C 93 % 1013,8 hPa 0,0 mm 0,0 km/h (0 Bft) S-SO 155 ° 0 min 0,000 mm 0,0 UV-I 0 W/m² 13,6 °C 14,7 °C 0,0 km/h (0 Bft)
11.07.2017 22:36 14,7 °C 14,7 °C 93 % 1013,9 hPa 0,0 mm 0,0 km/h (0 Bft) S-SO 155 ° 0 min 0,000 mm 0,0 UV-I 0 W/m² 13,6 °C 14,7 °C 0,0 km/h (0 Bft)
11.07.2017 22:37 14,7 °C 14,7 °C 93 % 1013,9 hPa 0,0 mm 0,0 km/h (0 Bft) S-SO 155 ° 0 min 0,000 mm 0,0 UV-I 0 W/m² 13,6 °C 14,7 °C 0,0 km/h (0 Bft)
11.07.2017 22:38 14,7 °C 14,7 °C 93 % 1013,9 hPa 0,0 mm 0,0 km/h (0 Bft) S-SO 155 ° 0 min 0,000 mm 0,0 UV-I 0 W/m² 13,6 °C 14,7 °C 0,0 km/h (0 Bft)
11.07.2017 22:39 14,7 °C 14,7 °C 93 % 1013,9 hPa 0,0 mm 0,0 km/h (0 Bft) S-SO 155 ° 0 min 0,000 mm 0,0 UV-I 0 W/m² 13,6 °C 14,7 °C 0,0 km/h (0 Bft)
11.07.2017 22:40 14,8 °C 14,8 °C 93 % 1013,9 hPa 0,0 mm 0,0 km/h (0 Bft) S-SO 155 ° 0 min 0,000 mm 0,0 UV-I 0 W/m² 13,7 °C 14,8 °C 0,0 km/h (0 Bft)
11.07.2017 22:41 14,8 °C 14,8 °C 93 % 1013,9 hPa 0,0 mm 0,0 km/h (0 Bft) S-SO 155 ° 0 min 0,000 mm 0,0 UV-I 0 W/m² 13,7 °C 14,8 °C 0,0 km/h (0 Bft)
11.07.2017 22:42 14,8 °C 14,8 °C 93 % 1013,9 hPa 0,0 mm 0,0 km/h (0 Bft) S-SO 155 ° 0 min 0,000 mm 0,0 UV-I 0 W/m² 13,7 °C 14,8 °C 0,0 km/h (0 Bft)
11.07.2017 22:43 14,9 °C 14,9 °C 93 % 1014,0 hPa 0,0 mm 0,0 km/h (0 Bft) S-SO 155 ° 0 min 0,000 mm 0,0 UV-I 0 W/m² 13,8 °C 14,9 °C 0,0 km/h (0 Bft)
11.07.2017 22:44 14,9 °C 14,9 °C 93 % 1013,9 hPa 0,0 mm 0,0 km/h (0 Bft) S-SO 155 ° 0 min 0,000 mm 0,0 UV-I 0 W/m² 13,8 °C 14,9 °C 0,0 km/h (0 Bft)
11.07.2017 22:45 14,9 °C 14,9 °C 92 % 1013,9 hPa 0,0 mm 0,0 km/h (0 Bft) S-SO 155 ° 0 min 0,000 mm 0,0 UV-I 0 W/m² 13,6 °C 14,9 °C 0,0 km/h (0 Bft)
11.07.2017 22:46 14,9 °C 14,9 °C 92 % 1013,9 hPa 0,0 mm 0,0 km/h (0 Bft) S-SO 155 ° 0 min 0,000 mm 0,0 UV-I 0 W/m² 13,6 °C 14,9 °C 0,0 km/h (0 Bft)
11.07.2017 22:47 14,9 °C 14,9 °C 92 % 1014,0 hPa 0,0 mm 0,0 km/h (0 Bft) S-SO 155 ° 0 min 0,000 mm 0,0 UV-I 0 W/m² 13,6 °C 14,9 °C 0,0 km/h (0 Bft)
11.07.2017 22:48 14,9 °C 14,9 °C 92 % 1013,9 hPa 0,0 mm 0,0 km/h (0 Bft) S-SO 155 ° 0 min 0,000 mm 0,0 UV-I 0 W/m² 13,6 °C 14,9 °C 0,0 km/h (0 Bft)
11.07.2017 22:49 14,8 °C 14,9 °C 92 % 1013,9 hPa 0,0 mm 0,0 km/h (0 Bft) S-SO 155 ° 0 min 0,000 mm 0,0 UV-I 0 W/m² 13,5 °C 14,8 °C 0,0 km/h (0 Bft)
11.07.2017 22:50 14,8 °C 14,8 °C 92 % 1014,0 hPa 0,0 mm 0,0 km/h (0 Bft) S-SO 155 ° 0 min 0,000 mm 0,0 UV-I 0 W/m² 13,5 °C 14,8 °C 0,0 km/h (0 Bft)
11.07.2017 22:51 14,8 °C 14,8 °C 92 % 1013,9 hPa 0,0 mm 0,0 km/h (0 Bft) S-SO 155 ° 0 min 0,000 mm 0,0 UV-I 0 W/m² 13,5 °C 14,8 °C 0,0 km/h (0 Bft)
11.07.2017 22:52 14,8 °C 14,8 °C 92 % 1013,9 hPa 0,0 mm 0,0 km/h (0 Bft) S-SO 155 ° 0 min 0,000 mm 0,0 UV-I 0 W/m² 13,5 °C 14,8 °C 0,0 km/h (0 Bft)
11.07.2017 22:53 14,8 °C 14,8 °C 92 % 1013,9 hPa 0,0 mm 0,0 km/h (0 Bft) S-SO 155 ° 0 min 0,000 mm 0,0 UV-I 0 W/m² 13,5 °C 14,8 °C 0,0 km/h (0 Bft)
11.07.2017 22:54 14,8 °C 14,8 °C 92 % 1013,9 hPa 0,0 mm 0,0 km/h (0 Bft) S-SO 155 ° 0 min 0,000 mm 0,0 UV-I 0 W/m² 13,5 °C 14,8 °C 0,0 km/h (0 Bft)
11.07.2017 22:55 14,8 °C 14,8 °C 92 % 1013,9 hPa 0,0 mm 0,0 km/h (0 Bft) S-SO 155 ° 0 min 0,000 mm 0,0 UV-I 0 W/m² 13,5 °C 14,8 °C 0,0 km/h (0 Bft)
11.07.2017 22:56 14,8 °C 14,8 °C 92 % 1013,9 hPa 0,0 mm 0,0 km/h (0 Bft) S-SO 155 ° 0 min 0,000 mm 0,0 UV-I 0 W/m² 13,5 °C 14,8 °C 0,0 km/h (0 Bft)
11.07.2017 22:57 14,8 °C 14,8 °C 92 % 1013,9 hPa 0,0 mm 0,0 km/h (0 Bft) S-SO 155 ° 0 min 0,000 mm 0,0 UV-I 0 W/m² 13,5 °C 14,8 °C 0,0 km/h (0 Bft)
11.07.2017 22:58 14,8 °C 14,8 °C 92 % 1013,9 hPa 0,0 mm 0,0 km/h (0 Bft) S-SO 155 ° 0 min 0,000 mm 0,0 UV-I 0 W/m² 13,5 °C 14,8 °C 0,0 km/h (0 Bft)
11.07.2017 22:59 14,8 °C 14,8 °C 92 % 1013,9 hPa 0,0 mm 0,0 km/h (0 Bft) S-SO 155 ° 0 min 0,000 mm 0,0 UV-I 0 W/m² 13,5 °C 14,8 °C 0,0 km/h (0 Bft)
11.07.2017 23:00 14,8 °C 14,8 °C 93 % 1013,9 hPa 0,0 mm 0,0 km/h (0 Bft) S-SO 163 ° 0 min 0,000 mm 0,0 UV-I 0 W/m² 13,7 °C 14,8 °C 0,0 km/h (0 Bft)
11.07.2017 23:01 14,9 °C 14,9 °C 93 % 1014,0 hPa 0,0 mm 0,0 km/h (0 Bft) S-SO 163 ° 0 min 0,000 mm 0,0 UV-I 0 W/m² 13,8 °C 14,9 °C 0,0 km/h (0 Bft)
11.07.2017 23:02 14,9 °C 14,9 °C 93 % 1013,9 hPa 0,0 mm 0,0 km/h (0 Bft) S-SO 163 ° 0 min 0,000 mm 0,0 UV-I 0 W/m² 13,8 °C 14,9 °C 0,0 km/h (0 Bft)
11.07.2017 23:03 14,9 °C 14,9 °C 93 % 1013,9 hPa 0,0 mm 0,0 km/h (0 Bft) S-SO 163 ° 0 min 0,000 mm 0,0 UV-I 0 W/m² 13,8 °C 14,9 °C 0,0 km/h (0 Bft)
11.07.2017 23:04 14,9 °C 14,9 °C 92 % 1014,0 hPa 0,0 mm 0,0 km/h (0 Bft) S-SO 163 ° 0 min 0,000 mm 0,0 UV-I 0 W/m² 13,6 °C 14,9 °C 0,0 km/h (0 Bft)
11.07.2017 23:05 14,8 °C 14,9 °C 92 % 1014,0 hPa 0,0 mm 0,0 km/h (0 Bft) S-SO 163 ° 0 min 0,000 mm 0,0 UV-I 0 W/m² 13,5 °C 14,8 °C 0,0 km/h (0 Bft)
11.07.2017 23:06 14,8 °C 14,8 °C 92 % 1013,9 hPa 0,0 mm 0,0 km/h (0 Bft) S-SO 163 ° 0 min 0,000 mm 0,0 UV-I 0 W/m² 13,5 °C 14,8 °C 0,0 km/h (0 Bft)
11.07.2017 23:07 14,8 °C 14,8 °C 92 % 1014,0 hPa 0,0 mm 0,0 km/h (0 Bft) S-SO 163 ° 0 min 0,000 mm 0,0 UV-I 0 W/m² 13,5 °C 14,8 °C 0,0 km/h (0 Bft)
11.07.2017 23:08 14,8 °C 14,8 °C 93 % 1014,0 hPa 0,0 mm 0,0 km/h (0 Bft) S-SO 163 ° 0 min 0,000 mm 0,0 UV-I 0 W/m² 13,7 °C 14,8 °C 0,0 km/h (0 Bft)
11.07.2017 23:09 14,8 °C 14,8 °C 93 % 1014,0 hPa 0,0 mm 0,0 km/h (0 Bft) S-SO 163 ° 0 min 0,000 mm 0,0 UV-I 0 W/m² 13,7 °C 14,8 °C 0,0 km/h (0 Bft)
11.07.2017 23:10 14,8 °C 14,8 °C 93 % 1013,9 hPa 0,0 mm 0,0 km/h (0 Bft) S-SO 163 ° 0 min 0,000 mm 0,0 UV-I 0 W/m² 13,7 °C 14,8 °C 0,0 km/h (0 Bft)
11.07.2017 23:11 14,8 °C 14,8 °C 93 % 1013,9 hPa 0,0 mm 0,0 km/h (0 Bft) S-SO 163 ° 0 min 0,000 mm 0,0 UV-I 0 W/m² 13,7 °C 14,8 °C 0,0 km/h (0 Bft)
11.07.2017 23:12 14,8 °C 14,8 °C 93 % 1013,9 hPa 0,0 mm 0,0 km/h (0 Bft) S-SO 163 ° 0 min 0,000 mm 0,0 UV-I 0 W/m² 13,7 °C 14,8 °C 0,0 km/h (0 Bft)
11.07.2017 23:13 14,7 °C 14,8 °C 93 % 1013,9 hPa 0,0 mm 0,0 km/h (0 Bft) S-SO 163 ° 0 min 0,000 mm 0,0 UV-I 0 W/m² 13,6 °C 14,7 °C 0,0 km/h (0 Bft)
11.07.2017 23:14 14,7 °C 14,7 °C 93 % 1013,9 hPa 0,0 mm 0,0 km/h (0 Bft) S-SO 163 ° 0 min 0,000 mm 0,0 UV-I 0 W/m² 13,6 °C 14,7 °C 0,0 km/h (0 Bft)
11.07.2017 23:15 14,7 °C 14,7 °C 93 % 1013,8 hPa 0,0 mm 0,0 km/h (0 Bft) S-SO 163 ° 0 min 0,000 mm 0,0 UV-I 0 W/m² 13,6 °C 14,7 °C 0,0 km/h (0 Bft)
11.07.2017 23:16 14,7 °C 14,7 °C 93 % 1013,9 hPa 0,0 mm 0,0 km/h (0 Bft) S-SO 163 ° 0 min 0,000 mm 0,0 UV-I 0 W/m² 13,6 °C 14,7 °C 0,0 km/h (0 Bft)
11.07.2017 23:17 14,7 °C 14,7 °C 93 % 1013,9 hPa 0,0 mm 0,0 km/h (0 Bft) S-SO 163 ° 0 min 0,000 mm 0,0 UV-I 0 W/m² 13,6 °C 14,7 °C 0,0 km/h (0 Bft)
11.07.2017 23:18 14,7 °C 14,7 °C 93 % 1013,7 hPa 0,0 mm 0,0 km/h (0 Bft) S-SO 163 ° 0 min 0,000 mm 0,0 UV-I 0 W/m² 13,6 °C 14,7 °C 0,0 km/h (0 Bft)
11.07.2017 23:19 14,7 °C 14,7 °C 93 % 1013,7 hPa 0,0 mm 0,0 km/h (0 Bft) S-SO 163 ° 0 min 0,000 mm 0,0 UV-I 0 W/m² 13,6 °C 14,7 °C 0,0 km/h (0 Bft)
11.07.2017 23:20 14,7 °C 14,7 °C 93 % 1013,8 hPa 0,0 mm 0,0 km/h (0 Bft) S-SO 163 ° 0 min 0,000 mm 0,0 UV-I 0 W/m² 13,6 °C 14,7 °C 0,0 km/h (0 Bft)
11.07.2017 23:21 14,7 °C 14,7 °C 93 % 1013,9 hPa 0,0 mm 0,0 km/h (0 Bft) S-SO 163 ° 0 min 0,000 mm 0,0 UV-I 0 W/m² 13,6 °C 14,7 °C 0,0 km/h (0 Bft)
11.07.2017 23:22 14,7 °C 14,7 °C 93 % 1013,8 hPa 0,0 mm 0,0 km/h (0 Bft) S-SO 163 ° 0 min 0,000 mm 0,0 UV-I 0 W/m² 13,6 °C 14,7 °C 0,0 km/h (0 Bft)
11.07.2017 23:23 14,7 °C 14,7 °C 93 % 1013,7 hPa 0,0 mm 0,0 km/h (0 Bft) S-SO 163 ° 0 min 0,000 mm 0,0 UV-I 0 W/m² 13,6 °C 14,7 °C 0,0 km/h (0 Bft)
11.07.2017 23:24 14,7 °C 14,7 °C 93 % 1013,8 hPa 0,0 mm 0,0 km/h (0 Bft) S-SO 163 ° 0 min 0,000 mm 0,0 UV-I 0 W/m² 13,6 °C 14,7 °C 0,0 km/h (0 Bft)
11.07.2017 23:25 14,7 °C 14,7 °C 93 % 1013,8 hPa 0,0 mm 0,0 km/h (0 Bft) S-SO 163 ° 0 min 0,000 mm 0,0 UV-I 0 W/m² 13,6 °C 14,7 °C 0,0 km/h (0 Bft)
11.07.2017 23:26 14,7 °C 14,7 °C 93 % 1013,7 hPa 0,0 mm 0,5 km/h (0 Bft) S-SO 163 ° 0 min 0,000 mm 0,0 UV-I 0 W/m² 13,6 °C 14,7 °C 3,2 km/h (1 Bft)
11.07.2017 23:27 14,7 °C 14,7 °C 93 % 1013,7 hPa 0,0 mm 0,0 km/h (0 Bft) S-SO 163 ° 0 min 0,000 mm 0,0 UV-I 0 W/m² 13,6 °C 14,7 °C 0,0 km/h (0 Bft)
11.07.2017 23:28 14,7 °C 14,8 °C 92 % 1013,7 hPa 0,0 mm 0,0 km/h (0 Bft) S-SO 163 ° 0 min 0,000 mm 0,0 UV-I 0 W/m² 13,4 °C 14,7 °C 0,0 km/h (0 Bft)
11.07.2017 23:29 14,8 °C 14,8 °C 92 % 1013,7 hPa 0,0 mm 0,0 km/h (0 Bft) S-SO 163 ° 0 min 0,000 mm 0,0 UV-I 0 W/m² 13,5 °C 14,8 °C 0,0 km/h (0 Bft)
11.07.2017 23:30 14,8 °C 14,8 °C 92 % 1013,7 hPa 0,0 mm 0,0 km/h (0 Bft) S-SO 163 ° 0 min 0,000 mm 0,0 UV-I 0 W/m² 13,5 °C 14,8 °C 0,0 km/h (0 Bft)
11.07.2017 23:31 14,8 °C 14,8 °C 92 % 1013,7 hPa 0,0 mm 0,0 km/h (0 Bft) S-SO 163 ° 0 min 0,000 mm 0,0 UV-I 0 W/m² 13,5 °C 14,8 °C 0,0 km/h (0 Bft)
11.07.2017 23:32 14,8 °C 14,8 °C 92 % 1013,7 hPa 0,0 mm 0,0 km/h (0 Bft) S-SO 163 ° 0 min 0,000 mm 0,0 UV-I 0 W/m² 13,5 °C 14,8 °C 0,0 km/h (0 Bft)
11.07.2017 23:33 14,8 °C 14,8 °C 92 % 1013,7 hPa 0,0 mm 0,0 km/h (0 Bft) S-SO 163 ° 0 min 0,000 mm 0,0 UV-I 0 W/m² 13,5 °C 14,8 °C 0,0 km/h (0 Bft)
11.07.2017 23:34 14,7 °C 14,8 °C 92 % 1013,7 hPa 0,0 mm 0,0 km/h (0 Bft) S-SO 163 ° 0 min 0,000 mm 0,0 UV-I 0 W/m² 13,4 °C 14,7 °C 0,0 km/h (0 Bft)
11.07.2017 23:35 14,7 °C 14,8 °C 92 % 1013,7 hPa 0,0 mm 0,0 km/h (0 Bft) S-SO 163 ° 0 min 0,000 mm 0,0 UV-I 0 W/m² 13,4 °C 14,7 °C 0,0 km/h (0 Bft)
11.07.2017 23:36 14,7 °C 14,8 °C 92 % 1013,7 hPa 0,0 mm 0,0 km/h (0 Bft) S-SO 163 ° 0 min 0,000 mm 0,0 UV-I 0 W/m² 13,4 °C 14,7 °C 0,0 km/h (0 Bft)
11.07.2017 23:37 14,7 °C 14,8 °C 92 % 1013,7 hPa 0,0 mm 0,0 km/h (0 Bft) S-SO 163 ° 0 min 0,000 mm 0,0 UV-I 0 W/m² 13,4 °C 14,7 °C 0,0 km/h (0 Bft)
11.07.2017 23:38 14,7 °C 14,7 °C 92 % 1013,7 hPa 0,0 mm 0,1 km/h (0 Bft) S-SO 163 ° 0 min 0,000 mm 0,0 UV-I 0 W/m² 13,4 °C 14,7 °C 1,6 km/h (1 Bft)
11.07.2017 23:39 14,7 °C 14,8 °C 92 % 1013,7 hPa 0,0 mm 1,3 km/h (1 Bft) S-SO 163 ° 0 min 0,000 mm 0,0 UV-I 0 W/m² 13,4 °C 14,7 °C 3,2 km/h (1 Bft)
11.07.2017 23:40 14,8 °C 14,8 °C 92 % 1013,7 hPa 0,0 mm 0,6 km/h (0 Bft) S-SO 163 ° 0 min 0,000 mm 0,0 UV-I 0 W/m² 13,5 °C 14,8 °C 1,6 km/h (1 Bft)
11.07.2017 23:41 14,8 °C 14,8 °C 92 % 1013,7 hPa 0,0 mm 1,0 km/h (0 Bft) S-SO 150 ° 0 min 0,000 mm 0,0 UV-I 0 W/m² 13,5 °C 14,8 °C 1,6 km/h (1 Bft)
11.07.2017 23:42 14,8 °C 14,8 °C 92 % 1013,7 hPa 0,0 mm 0,0 km/h (0 Bft) S-SO 150 ° 0 min 0,000 mm 0,0 UV-I 0 W/m² 13,5 °C 14,8 °C 0,0 km/h (0 Bft)
11.07.2017 23:43 14,8 °C 14,8 °C 92 % 1013,7 hPa 0,0 mm 0,0 km/h (0 Bft) S-SO 150 ° 0 min 0,000 mm 0,0 UV-I 0 W/m² 13,5 °C 14,8 °C 0,0 km/h (0 Bft)
11.07.2017 23:44 14,7 °C 14,8 °C 92 % 1013,7 hPa 0,0 mm 0,0 km/h (0 Bft) S-SO 150 ° 0 min 0,000 mm 0,0 UV-I 0 W/m² 13,4 °C 14,7 °C 0,0 km/h (0 Bft)
11.07.2017 23:45 14,7 °C 14,8 °C 92 % 1013,8 hPa 0,0 mm 0,0 km/h (0 Bft) S-SO 150 ° 0 min 0,000 mm 0,0 UV-I 0 W/m² 13,4 °C 14,7 °C 0,0 km/h (0 Bft)
11.07.2017 23:46 14,8 °C 14,8 °C 92 % 1013,7 hPa 0,0 mm 0,0 km/h (0 Bft) S-SO 150 ° 0 min 0,000 mm 0,0 UV-I 0 W/m² 13,5 °C 14,8 °C 0,0 km/h (0 Bft)
11.07.2017 23:47 14,8 °C 14,8 °C 92 % 1013,8 hPa 0,0 mm 0,0 km/h (0 Bft) S-SO 150 ° 0 min 0,000 mm 0,0 UV-I 0 W/m² 13,5 °C 14,8 °C 0,0 km/h (0 Bft)
11.07.2017 23:48 14,8 °C 14,8 °C 92 % 1013,9 hPa 0,0 mm 0,0 km/h (0 Bft) S-SO 150 ° 0 min 0,000 mm 0,0 UV-I 0 W/m² 13,5 °C 14,8 °C 0,0 km/h (0 Bft)
11.07.2017 23:49 14,8 °C 14,8 °C 92 % 1013,8 hPa 0,0 mm 0,0 km/h (0 Bft) S-SO 150 ° 0 min 0,000 mm 0,0 UV-I 0 W/m² 13,5 °C 14,8 °C 0,0 km/h (0 Bft)
11.07.2017 23:50 14,8 °C 14,8 °C 92 % 1013,9 hPa 0,0 mm 0,0 km/h (0 Bft) S-SO 150 ° 0 min 0,000 mm 0,0 UV-I 0 W/m² 13,5 °C 14,8 °C 0,0 km/h (0 Bft)
11.07.2017 23:51 14,8 °C 14,8 °C 92 % 1013,8 hPa 0,0 mm 0,0 km/h (0 Bft) S-SO 150 ° 0 min 0,000 mm 0,0 UV-I 0 W/m² 13,5 °C 14,8 °C 0,0 km/h (0 Bft)
11.07.2017 23:52 14,8 °C 14,8 °C 92 % 1013,9 hPa 0,0 mm 0,0 km/h (0 Bft) S-SO 150 ° 0 min 0,000 mm 0,0 UV-I 0 W/m² 13,5 °C 14,8 °C 0,0 km/h (0 Bft)
11.07.2017 23:53 14,8 °C 14,8 °C 92 % 1013,9 hPa 0,0 mm 0,0 km/h (0 Bft) S-SO 150 ° 0 min 0,000 mm 0,0 UV-I 0 W/m² 13,5 °C 14,8 °C 0,0 km/h (0 Bft)
11.07.2017 23:54 14,8 °C 14,8 °C 92 % 1013,9 hPa 0,0 mm 0,3 km/h (0 Bft) S-SO 150 ° 0 min 0,000 mm 0,0 UV-I 0 W/m² 13,5 °C 14,8 °C 1,6 km/h (1 Bft)
11.07.2017 23:55 14,8 °C 14,8 °C 92 % 1013,9 hPa 0,0 mm 0,0 km/h (0 Bft) S-SO 150 ° 0 min 0,000 mm 0,0 UV-I 0 W/m² 13,5 °C 14,8 °C 0,0 km/h (0 Bft)
11.07.2017 23:56 14,8 °C 14,8 °C 92 % 1013,8 hPa 0,0 mm 0,0 km/h (0 Bft) S-SO 150 ° 0 min 0,000 mm 0,0 UV-I 0 W/m² 13,5 °C 14,8 °C 0,0 km/h (0 Bft)
11.07.2017 23:57 14,8 °C 14,8 °C 92 % 1013,9 hPa 0,0 mm 0,0 km/h (0 Bft) S-SO 150 ° 0 min 0,000 mm 0,0 UV-I 0 W/m² 13,5 °C 14,8 °C 0,0 km/h (0 Bft)
11.07.2017 23:58 14,8 °C 14,8 °C 92 % 1013,9 hPa 0,0 mm 0,0 km/h (0 Bft) S-SO 150 ° 0 min 0,000 mm 0,0 UV-I 0 W/m² 13,5 °C 14,8 °C 0,0 km/h (0 Bft)
11.07.2017 23:59 14,8 °C 14,8 °C 93 % 1013,9 hPa 0,0 mm 0,5 km/h (0 Bft) NO 42 ° 0 min 0,000 mm 0,0 UV-I 0 W/m² 13,7 °C 14,8 °C 3,2 km/h (1 Bft)
_ Min-Zeit 05:08 05:14 15:29 00:15 - 23:58 - - - - - - 05:08 05:08 23:58
Minimum _ 11,9 °C 12,0 °C 59 % 1010,9 hPa - 0,0 km/h (0 Bft) - - - - - - 11,0 °C 11,9 °C 0,0 km/h (0 Bft)
_ Max-Zeit 15:46 15:47 05:02 23:09 21:26 11:49 - - 14:11 13:01 12:59 13:02 18:01 15:46 00:52
Maximum _ 21,9 °C 21,9 °C 95 % 1014,0 hPa 0,2 mm 20,3 km/h
W (4 Bft)
- - 2 min 0,458 mm 8,3 UV-I 1083 W/m² 15,6 °C 21,9 °C 30,6 km/h
W-SW (5 Bft)
Durchschnitt _ 17,1 °C 17,2 °C 81 % 1012,5 hPa #2,0 mm 4,4 km/h (1 Bft) W - #7:35 h #3,353 mm 3,1 UV-I 212 W/m² 13,6 °C 17,1 °C 7,4 km/h (2 Bft)